South Armidale Weather

South Armidale Weather


This Months Observations
Date Time Temperature Humidity Dewpoint Wind Speed High Gust Wind Bearing Rainfall Rate Total Rainfall Pressure Gust Wind Chill Heat Index UV Index
01/02/18 00:00 14.5 97 14.0 0.0 5.8 175 34.8 0.0 1011.0 5.8 14.5 14.5 0.0
01/02/18 00:01 14.5 97 14.0 2.5 5.8 174 34.8 0.0 1011.0 0.0 14.5 14.5 0.0
01/02/18 00:02 14.5 97 14.0 2.5 5.8 173 34.8 0.0 1011.0 0.0 14.5 14.5 0.0
01/02/18 00:03 14.5 97 14.0 1.8 5.8 173 34.8 0.0 1011.0 0.0 14.5 14.5 0.0
01/02/18 00:04 14.5 97 14.0 1.4 5.8 159 34.8 0.0 1011.0 3.6 14.5 14.5 0.0
01/02/18 00:05 14.5 97 14.0 2.2 5.8 159 34.8 0.0 1011.0 0.0 14.5 14.5 0.0
01/02/18 00:06 14.5 97 14.0 2.2 5.8 159 34.8 0.0 1011.0 0.0 14.5 14.5 0.0
01/02/18 00:07 14.4 97 13.9 3.2 5.8 159 34.8 0.0 1011.0 0.0 14.4 14.4 0.0
01/02/18 00:08 14.5 97 14.0 0.0 5.8 162 34.8 0.0 1011.0 0.0 14.5 14.5 0.0
01/02/18 00:09 14.4 97 13.9 0.0 5.8 162 34.8 0.0 1011.0 0.0 14.4 14.4 0.0
01/02/18 00:10 14.4 97 13.9 0.0 3.6 135 34.8 0.0 1011.0 3.2 14.4 14.4 0.0
01/02/18 00:11 14.4 97 13.9 1.4 3.6 135 34.8 0.0 1011.0 0.0 14.4 14.4 0.0
01/02/18 00:12 14.4 97 13.9 0.0 3.6 135 34.8 0.0 1011.0 0.0 14.4 14.4 0.0
01/02/18 00:13 14.4 97 13.9 0.0 3.6 109 34.8 0.0 1011.0 3.2 14.4 14.4 0.0
01/02/18 00:14 14.4 97 13.9 1.4 3.2 125 34.8 0.0 1011.0 3.2 14.4 14.4 0.0
01/02/18 00:15 14.4 97 13.9 2.5 3.2 120 34.8 0.0 1011.0 1.8 14.4 14.4 0.0
01/02/18 00:16 14.4 97 13.9 1.8 3.2 120 34.8 0.0 1011.0 0.0 14.4 14.4 0.0
01/02/18 00:17 14.4 97 13.9 0.0 3.2 120 34.8 0.0 1011.0 0.0 14.4 14.4 0.0
01/02/18 00:18 14.4 97 13.9 0.0 4.7 181 34.8 0.0 1011.0 4.7 14.4 14.4 0.0
01/02/18 00:19 14.4 97 13.9 2.5 5.0 158 34.8 0.0 1011.0 5.0 14.4 14.4 0.0
01/02/18 00:20 14.3 97 13.8 4.7 5.0 156 34.8 0.0 1011.0 4.0 14.3 14.3 0.0
01/02/18 00:21 14.3 97 13.8 2.2 7.9 111 34.8 0.0 1011.0 7.9 14.3 14.3 0.0
01/02/18 00:22 14.3 97 13.8 4.3 7.9 91 34.8 0.0 1011.0 4.7 14.3 14.3 0.0
01/02/18 00:23 14.3 97 13.8 4.3 7.9 109 34.8 0.0 1011.0 2.2 14.3 14.3 0.0
01/02/18 00:24 14.3 97 13.8 2.5 7.9 107 34.8 0.0 1011.0 5.8 14.3 14.3 0.0
01/02/18 00:25 14.3 97 13.8 2.2 7.9 109 34.8 0.0 1011.0 0.0 14.3 14.3 0.0
01/02/18 00:26 14.3 97 13.8 1.8 7.9 103 34.8 0.0 1011.0 2.5 14.3 14.3 0.0
01/02/18 00:27 14.3 97 13.8 2.2 7.9 99 34.8 0.0 1011.0 1.4 14.3 14.3 0.0
01/02/18 00:28 14.2 97 13.7 1.4 7.9 86 34.8 0.0 1011.0 2.2 14.2 14.2 0.0
01/02/18 00:29 14.2 97 13.7 1.8 7.9 84 34.8 0.0 1011.0 4.0 14.2 14.2 0.0
01/02/18 00:30 14.2 97 13.7 3.2 7.9 73 34.8 0.0 1011.0 1.4 14.2 14.2 0.0
01/02/18 00:31 14.2 97 13.7 0.0 5.8 87 34.8 0.0 1011.0 0.0 14.2 14.2 0.0
01/02/18 00:32 14.2 97 13.7 0.0 5.8 106 34.8 0.0 1011.0 2.2 14.2 14.2 0.0
01/02/18 00:33 14.2 97 13.7 1.4 5.8 101 34.8 0.0 1011.0 0.0 14.2 14.2 0.0
01/02/18 00:34 14.2 97 13.7 0.0 5.8 101 34.8 0.0 1011.0 0.0 14.2 14.2 0.0
01/02/18 00:35 14.2 97 13.7 0.0 4.0 79 34.8 0.0 1011.0 0.0 14.2 14.2 0.0
01/02/18 00:36 14.2 97 13.7 1.8 4.0 91 34.8 0.0 1011.0 0.0 14.2 14.2 0.0
01/02/18 00:37 14.2 97 13.7 1.4 4.0 73 34.8 0.0 1011.0 2.2 14.2 14.2 0.0
01/02/18 00:38 14.2 97 13.7 0.0 4.0 102 34.8 0.0 1011.0 0.0 14.2 14.2 0.0
01/02/18 00:39 14.1 97 13.6 0.0 2.2 58 34.8 0.0 1011.0 0.0 14.1 14.1 0.0
01/02/18 00:40 14.1 97 13.6 1.4 2.2 68 34.8 0.0 1011.0 0.0 14.1 14.1 0.0
01/02/18 00:41 14.1 97 13.6 0.0 2.2 68 34.8 0.0 1011.0 0.0 14.1 14.1 0.0
01/02/18 00:42 14.0 97 13.5 0.0 2.2 1 34.8 0.0 1011.0 0.0 14.0 14.0 0.0
01/02/18 00:43 14.0 97 13.5 0.0 2.2 1 34.8 0.0 1011.0 0.0 14.0 14.0 0.0
01/02/18 00:44 14.0 97 13.5 0.0 2.2 1 34.8 0.0 1011.0 0.0 14.0 14.0 0.0
01/02/18 00:45 14.0 97 13.5 0.0 2.2 1 34.8 0.0 1011.0 0.0 14.0 14.0 0.0
01/02/18 00:46 14.0 97 13.5 0.0 2.2 1 34.8 0.0 1011.0 0.0 14.0 14.0 0.0
01/02/18 00:47 14.0 97 13.5 0.0 0.0 0 34.8 0.0 1011.0 0.0 14.0 14.0 0.0
01/02/18 00:48 14.0 97 13.5 0.0 0.0 0 34.8 0.0 1011.0 0.0 14.0 14.0 0.0
01/02/18 00:49 13.9 97 13.4 0.0 0.0 0 34.8 0.0 1011.0 0.0 13.9 13.9 0.0
01/02/18 00:50 13.9 97 13.4 0.0 2.2 181 34.8 0.0 1011.0 2.2 13.9 13.9 0.0
01/02/18 00:51 13.9 97 13.4 4.0 2.2 181 34.8 0.0 1011.0 1.4 13.9 13.9 0.0
01/02/18 00:52 13.9 97 13.4 1.4 2.2 181 34.8 0.0 1011.0 1.4 13.9 13.9 0.0
01/02/18 00:53 13.9 97 13.4 1.4 6.1 155 34.8 0.0 1011.0 6.1 13.9 13.9 0.0
01/02/18 00:54 13.9 97 13.4 3.2 6.1 147 34.8 0.0 1011.0 6.1 13.9 13.9 0.0
01/02/18 00:55 13.9 97 13.4 2.2 6.1 133 34.8 0.0 1011.0 4.0 13.9 13.9 0.0
01/02/18 00:56 13.9 97 13.4 1.4 6.1 133 34.8 0.0 1011.0 5.0 13.9 13.9 0.0
01/02/18 00:57 13.9 97 13.4 2.2 6.1 137 34.8 0.0 1011.0 2.2 13.9 13.9 0.0
01/02/18 00:58 13.9 97 13.4 2.5 6.1 141 34.8 0.0 1011.0 2.2 13.9 13.9 0.0
01/02/18 00:59 13.9 97 13.4 1.4 6.1 144 34.8 0.0 1011.0 1.4 13.9 13.9 0.0
01/02/18 01:00 13.9 97 13.4 0.0 6.1 140 34.8 0.0 1011.0 0.0 13.9 13.9 0.0
01/02/18 01:01 13.9 97 13.4 1.8 6.1 141 34.8 0.0 1011.0 2.2 13.9 13.9 0.0
01/02/18 01:02 13.9 97 13.4 3.2 8.6 138 34.8 0.0 1011.0 8.6 13.9 13.9 0.0
01/02/18 01:03 13.8 97 13.3 6.1 8.6 138 34.8 0.0 1011.0 0.0 13.8 13.8 0.0
01/02/18 01:04 13.9 97 13.4 1.4 8.6 143 34.8 0.0 1011.0 1.8 13.9 13.9 0.0
01/02/18 01:05 13.9 97 13.4 1.4 8.6 155 34.8 0.0 1011.0 0.0 13.9 13.9 0.0
01/02/18 01:06 13.9 97 13.4 0.0 8.6 155 34.8 0.0 1011.0 0.0 13.9 13.9 0.0
01/02/18 01:07 13.9 97 13.4 0.0 8.6 141 34.8 0.0 1011.0 4.0 13.9 13.9 0.0
01/02/18 01:08 13.9 97 13.4 1.8 8.6 134 34.8 0.0 1011.0 0.0 13.9 13.9 0.0
01/02/18 01:09 13.9 97 13.4 0.0 8.6 129 34.8 0.0 1011.0 0.0 13.9 13.9 0.0
01/02/18 01:10 13.9 97 13.4 0.0 8.6 129 34.8 0.0 1011.0 0.0 13.9 13.9 0.0
01/02/18 01:11 13.9 97 13.4 0.0 8.6 113 34.8 0.0 1011.0 3.2 13.9 13.9 0.0
01/02/18 01:12 13.9 97 13.4 1.4 4.0 142 34.8 0.0 1011.0 4.0 13.9 13.9 0.0
01/02/18 01:13 13.9 97 13.4 1.8 4.0 142 34.8 0.0 1011.0 0.0 13.9 13.9 0.0
01/02/18 01:14 13.9 97 13.4 0.0 4.0 25 34.8 0.0 1011.0 0.0 13.9 13.9 0.0
01/02/18 01:15 13.9 97 13.4 0.0 4.0 25 34.8 0.0 1011.0 0.0 13.9 13.9 0.0
01/02/18 01:16 13.9 97 13.4 0.0 4.0 25 34.8 0.0 1011.0 0.0 13.9 13.9 0.0
01/02/18 01:17 13.9 97 13.4 0.0 4.0 359 34.8 0.0 1011.0 3.2 13.9 13.9 0.0
01/02/18 01:18 13.9 97 13.4 3.2 4.0 359 34.8 0.0 1011.0 0.0 13.9 13.9 0.0
01/02/18 01:19 13.9 97 13.4 0.0 4.0 36 34.8 0.0 1011.0 2.2 13.9 13.9 0.0
01/02/18 01:20 13.8 97 13.3 0.0 4.0 73 34.8 0.0 1011.0 1.8 13.8 13.8 0.0
01/02/18 01:21 13.8 97 13.3 1.8 4.0 105 34.8 0.0 1011.0 0.0 13.8 13.8 0.0
01/02/18 01:22 13.8 97 13.3 0.0 4.0 105 34.8 0.0 1011.0 0.0 13.8 13.8 0.0
01/02/18 01:23 13.8 97 13.3 0.0 3.2 58 34.8 0.0 1011.0 2.5 13.8 13.8 0.0
01/02/18 01:24 13.8 97 13.3 1.8 3.2 58 34.8 0.0 1011.0 0.0 13.8 13.8 0.0
01/02/18 01:25 13.8 97 13.3 0.0 3.2 72 34.8 0.0 1010.0 2.2 13.8 13.8 0.0
01/02/18 01:26 13.8 97 13.3 0.0 3.2 72 34.8 0.0 1010.0 0.0 13.8 13.8 0.0
01/02/18 01:27 13.8 97 13.3 0.0 2.5 86 34.8 0.0 1010.0 0.0 13.8 13.8 0.0
01/02/18 01:28 13.8 97 13.3 0.0 2.5 86 34.8 0.0 1010.0 0.0 13.8 13.8 0.0
01/02/18 01:29 13.8 97 13.3 0.0 2.5 102 34.8 0.0 1010.0 0.0 13.8 13.8 0.0
01/02/18 01:30 13.8 97 13.3 0.0 2.5 86 34.8 0.0 1010.0 0.0 13.8 13.8 0.0
01/02/18 01:31 13.8 97 13.3 1.4 3.2 109 34.8 0.0 1010.0 3.2 13.8 13.8 0.0
01/02/18 01:32 13.7 97 13.2 2.2 3.2 121 34.8 0.0 1010.0 1.4 13.7 13.7 0.0
01/02/18 01:33 13.7 97 13.2 1.4 3.2 166 34.8 0.0 1010.0 2.5 13.7 13.7 0.0
01/02/18 01:34 13.7 97 13.2 2.2 4.3 152 34.8 0.0 1010.0 4.3 13.7 13.7 0.0
01/02/18 01:35 13.7 97 13.2 3.2 4.3 148 34.8 0.0 1010.0 2.5 13.7 13.7 0.0
01/02/18 01:36 13.7 97 13.2 3.2 4.3 149 34.8 0.0 1010.0 1.8 13.7 13.7 0.0
01/02/18 01:37 13.7 97 13.2 0.0 4.3 149 34.8 0.0 1010.0 0.0 13.7 13.7 0.0
01/02/18 01:38 13.7 97 13.2 2.2 4.3 149 34.8 0.0 1010.0 0.0 13.7 13.7 0.0
01/02/18 01:39 13.7 97 13.2 0.0 4.3 149 34.8 0.0 1010.0 0.0 13.7 13.7 0.0
01/02/18 01:40 13.7 97 13.2 0.0 4.3 167 34.8 0.0 1010.0 4.3 13.7 13.7 0.0
01/02/18 01:41 13.7 97 13.2 1.8 4.3 200 34.8 0.0 1010.0 4.3 13.7 13.7 0.0
01/02/18 01:42 13.7 97 13.2 3.2 5.4 179 34.8 0.0 1010.0 5.4 13.7 13.7 0.0
01/02/18 01:43 13.6 97 13.1 4.3 5.4 168 34.8 0.0 1010.0 0.0 13.6 13.6 0.0
01/02/18 01:44 13.6 96 13.0 1.8 5.4 171 34.8 0.0 1010.0 3.2 13.6 13.6 0.0
01/02/18 01:45 13.6 97 13.1 1.8 5.4 179 34.8 0.0 1010.0 0.0 13.6 13.6 0.0
01/02/18 01:46 13.6 96 13.0 0.0 5.4 201 34.8 0.0 1010.0 2.2 13.6 13.6 0.0
01/02/18 01:47 13.6 96 13.0 1.4 5.4 201 34.8 0.0 1010.0 0.0 13.6 13.6 0.0
01/02/18 01:48 13.6 96 13.0 0.0 5.4 201 34.8 0.0 1010.0 0.0 13.6 13.6 0.0
01/02/18 01:49 13.6 96 13.0 0.0 5.4 192 34.8 0.0 1010.0 2.2 13.6 13.6 0.0
01/02/18 01:50 13.6 96 13.0 2.5 5.4 149 34.8 0.0 1010.0 0.0 13.6 13.6 0.0
01/02/18 01:51 13.6 96 13.0 0.0 5.4 149 34.8 0.0 1010.0 0.0 13.6 13.6 0.0
01/02/18 01:52 13.6 96 13.0 0.0 3.2 127 34.8 0.0 1010.0 2.5 13.6 13.6 0.0
01/02/18 01:53 13.6 96 13.0 1.4 3.2 127 34.8 0.0 1010.0 0.0 13.6 13.6 0.0
01/02/18 01:54 13.6 96 13.0 1.8 4.3 129 34.8 0.0 1010.0 4.3 13.6 13.6 0.0
01/02/18 01:55 13.6 96 13.0 5.4 4.3 144 34.8 0.0 1011.0 1.8 13.6 13.6 0.0
01/02/18 01:56 13.6 96 13.0 1.8 4.3 128 34.8 0.0 1011.0 1.8 13.6 13.6 0.0
01/02/18 01:57 13.5 96 12.9 1.4 4.3 129 34.8 0.0 1011.0 2.5 13.5 13.5 0.0
01/02/18 01:58 13.5 96 12.9 1.8 4.3 110 34.8 0.0 1011.0 3.6 13.5 13.5 0.0
01/02/18 01:59 13.5 96 12.9 2.5 4.3 123 34.8 0.0 1011.0 2.2 13.5 13.5 0.0
01/02/18 02:00 13.5 96 12.9 5.0 5.8 127 34.8 0.0 1011.0 5.8 13.5 13.5 0.0
01/02/18 02:01 13.5 96 12.9 4.0 5.8 128 34.8 0.0 1011.0 3.6 13.5 13.5 0.0
01/02/18 02:02 13.4 96 12.8 2.2 5.8 119 34.8 0.0 1011.0 1.4 13.4 13.4 0.0
01/02/18 02:03 13.4 96 12.8 1.8 5.8 129 34.8 0.0 1011.0 3.2 13.4 13.4 0.0
01/02/18 02:04 13.4 96 12.8 2.5 5.8 129 34.8 0.0 1011.0 0.0 13.4 13.4 0.0
01/02/18 02:05 13.4 96 12.8 0.0 5.8 121 34.8 0.0 1011.0 0.0 13.4 13.4 0.0
01/02/18 02:06 13.4 96 12.8 0.0 5.8 128 34.8 0.0 1011.0 0.0 13.4 13.4 0.0
01/02/18 02:07 13.4 96 12.8 0.0 5.8 128 34.8 0.0 1011.0 0.0 13.4 13.4 0.0
01/02/18 02:08 13.4 96 12.8 0.0 5.8 146 34.8 0.0 1011.0 0.0 13.4 13.4 0.0
01/02/18 02:09 13.4 96 12.8 0.0 5.8 149 34.8 0.0 1011.0 0.0 13.4 13.4 0.0
01/02/18 02:10 13.4 96 12.8 0.0 3.6 175 34.8 0.0 1010.0 0.0 13.4 13.4 0.0
01/02/18 02:11 13.4 96 12.8 0.0 3.2 250 34.8 0.0 1010.0 0.0 13.4 13.4 0.0
01/02/18 02:12 13.4 96 12.8 0.0 3.2 225 34.8 0.0 1010.0 0.0 13.4 13.4 0.0
01/02/18 02:13 13.4 96 12.8 0.0 0.0 0 34.8 0.0 1010.0 0.0 13.4 13.4 0.0
01/02/18 02:14 13.4 96 12.8 0.0 2.2 181 34.8 0.0 1010.0 2.2 13.4 13.4 0.0
01/02/18 02:15 13.3 96 12.7 1.8 2.2 181 34.8 0.0 1010.0 0.0 13.3 13.3 0.0
01/02/18 02:16 13.3 96 12.7 1.4 2.5 205 34.8 0.0 1010.0 2.5 13.3 13.3 0.0
01/02/18 02:17 13.3 96 12.7 1.8 2.5 234 34.8 0.0 1010.0 2.2 13.3 13.3 0.0
01/02/18 02:18 13.3 96 12.7 3.6 2.5 234 34.8 0.0 1010.0 0.0 13.3 13.3 0.0
01/02/18 02:19 13.3 96 12.7 2.2 2.5 209 34.8 0.0 1010.0 1.8 13.3 13.3 0.0
01/02/18 02:20 13.3 96 12.7 1.4 2.5 188 34.8 0.0 1010.0 2.5 13.3 13.3 0.0
01/02/18 02:21 13.3 96 12.7 1.4 2.5 157 34.8 0.0 1010.0 2.5 13.3 13.3 0.0
01/02/18 02:22 13.3 96 12.7 2.2 2.5 157 34.8 0.0 1010.0 0.0 13.3 13.3 0.0
01/02/18 02:23 13.3 96 12.7 0.0 2.5 157 34.8 0.0 1010.0 0.0 13.3 13.3 0.0
01/02/18 02:24 13.3 96 12.7 0.0 2.5 135 34.8 0.0 1010.0 0.0 13.3 13.3 0.0
01/02/18 02:25 13.3 96 12.7 0.0 2.5 135 34.8 0.0 1010.0 0.0 13.3 13.3 0.0
01/02/18 02:26 13.3 96 12.7 1.4 2.5 104 34.8 0.0 1010.0 2.2 13.3 13.3 0.0
01/02/18 02:27 13.3 96 12.7 1.4 2.5 113 34.8 0.0 1010.0 0.0 13.3 13.3 0.0
01/02/18 02:28 13.3 96 12.7 1.4 2.5 113 34.8 0.0 1010.0 0.0 13.3 13.3 0.0
01/02/18 02:29 13.3 96 12.7 0.0 2.5 106 34.8 0.0 1010.0 0.0 13.3 13.3 0.0
01/02/18 02:30 13.3 96 12.7 0.0 2.5 135 34.8 0.0 1010.0 0.0 13.3 13.3 0.0
01/02/18 02:31 13.3 96 12.7 0.0 2.2 135 34.8 0.0 1010.0 0.0 13.3 13.3 0.0
01/02/18 02:32 13.3 96 12.7 0.0 6.5 135 34.8 0.0 1010.0 6.5 13.3 13.3 0.0
01/02/18 02:33 13.3 96 12.7 4.0 6.5 114 34.8 0.0 1010.0 3.2 13.3 13.3 0.0
01/02/18 02:34 13.3 96 12.7 2.5 6.5 104 34.8 0.0 1010.0 1.8 13.3 13.3 0.0
01/02/18 02:35 13.3 96 12.7 1.8 7.6 117 34.8 0.0 1010.0 7.6 13.3 13.3 0.0
01/02/18 02:36 13.3 96 12.7 5.4 7.6 127 34.8 0.0 1010.0 3.6 13.3 13.3 0.0
01/02/18 02:37 13.3 96 12.7 1.8 7.6 119 34.8 0.0 1010.0 2.2 13.3 13.3 0.0
01/02/18 02:38 13.3 96 12.7 2.5 7.6 112 34.8 0.0 1010.0 2.2 13.3 13.3 0.0
01/02/18 02:39 13.3 96 12.7 3.2 7.6 115 34.8 0.0 1010.0 2.5 13.3 13.3 0.0
01/02/18 02:40 13.3 96 12.7 3.6 7.6 107 34.8 0.0 1010.0 3.2 13.3 13.3 0.0
01/02/18 02:41 13.3 96 12.7 3.6 7.6 103 34.8 0.0 1010.0 1.4 13.3 13.3 0.0
01/02/18 02:42 13.3 96 12.7 0.0 7.6 91 34.8 0.0 1010.0 0.0 13.3 13.3 0.0
01/02/18 02:43 13.3 96 12.7 0.0 7.6 110 34.8 0.0 1010.0 2.5 13.3 13.3 0.0
01/02/18 02:44 13.3 96 12.7 1.8 7.6 117 34.8 0.0 1010.0 0.0 13.3 13.3 0.0
01/02/18 02:45 13.3 96 12.7 0.0 3.6 98 34.8 0.0 1010.0 0.0 13.3 13.3 0.0
01/02/18 02:46 13.3 96 12.7 0.0 3.2 71 34.8 0.0 1010.0 0.0 13.3 13.3 0.0
01/02/18 02:47 13.3 96 12.7 0.0 3.2 81 34.8 0.0 1010.0 0.0 13.3 13.3 0.0
01/02/18 02:48 13.3 96 12.7 0.0 3.2 97 34.8 0.0 1010.0 0.0 13.3 13.3 0.0
01/02/18 02:49 13.2 96 12.6 0.0 3.2 97 34.8 0.0 1010.0 0.0 13.2 13.2 0.0
01/02/18 02:50 13.2 96 12.6 0.0 2.5 82 34.8 0.0 1010.0 1.8 13.2 13.2 0.0
01/02/18 02:51 13.2 96 12.6 0.0 2.5 134 34.8 0.0 1010.0 1.4 13.2 13.2 0.0
01/02/18 02:52 13.3 96 12.7 0.0 2.5 110 34.8 0.0 1010.0 1.4 13.3 13.3 0.0
01/02/18 02:53 13.2 96 12.6 2.5 2.2 93 34.8 0.0 1010.0 2.2 13.2 13.2 0.0
01/02/18 02:54 13.2 96 12.6 2.5 2.2 93 34.8 0.0 1010.0 0.0 13.2 13.2 0.0
01/02/18 02:55 13.2 96 12.6 1.8 3.2 134 34.8 0.0 1011.0 3.2 13.2 13.2 0.0
01/02/18 02:56 13.2 96 12.6 3.2 4.0 158 34.8 0.0 1011.0 4.0 13.2 13.2 0.0
01/02/18 02:57 13.2 96 12.6 3.2 4.0 146 34.8 0.0 1011.0 1.4 13.2 13.2 0.0
01/02/18 02:58 13.2 95 12.4 2.2 4.0 158 34.8 0.0 1011.0 3.2 13.2 13.2 0.0
01/02/18 02:59 13.1 95 12.3 3.2 4.0 148 34.8 0.0 1011.0 2.5 13.1 13.1 0.0
01/02/18 03:00 13.1 95 12.3 1.8 4.0 164 34.8 0.0 1011.0 0.0 13.1 13.1 0.0
01/02/18 03:01 13.1 95 12.3 1.8 5.0 198 34.8 0.0 1011.0 5.0 13.1 13.1 0.0
01/02/18 03:02 13.1 95 12.3 2.5 5.0 206 34.8 0.0 1011.0 2.2 13.1 13.1 0.0
01/02/18 03:03 13.0 95 12.2 2.2 5.0 228 34.8 0.0 1011.0 4.0 13.0 13.0 0.0
01/02/18 03:04 13.0 95 12.2 3.6 5.0 237 34.8 0.0 1011.0 4.0 13.0 13.0 0.0
01/02/18 03:05 12.9 95 12.1 3.2 5.0 230 34.8 0.0 1011.0 2.2 12.9 12.9 0.0
01/02/18 03:06 12.9 95 12.1 1.8 5.0 256 34.8 0.0 1011.0 2.5 12.9 12.9 0.0
01/02/18 03:07 12.9 95 12.1 2.5 5.0 257 34.8 0.0 1011.0 1.8 12.9 12.9 0.0
01/02/18 03:08 12.9 95 12.1 1.4 5.0 249 34.8 0.0 1011.0 3.2 12.9 12.9 0.0
01/02/18 03:09 12.8 95 12.0 2.5 5.0 257 34.8 0.0 1011.0 1.8 12.8 12.8 0.0
01/02/18 03:10 12.8 95 12.0 1.8 5.0 264 34.8 0.0 1011.0 2.2 12.8 12.8 0.0
01/02/18 03:11 12.8 95 12.0 2.2 4.0 293 34.8 0.0 1011.0 0.0 12.8 12.8 0.0
01/02/18 03:12 12.7 95 11.9 0.0 4.0 313 34.8 0.0 1011.0 0.0 12.7 12.7 0.0
01/02/18 03:13 12.7 95 11.9 0.0 4.0 18 34.8 0.0 1011.0 1.8 12.7 12.7 0.0
01/02/18 03:14 12.7 95 11.9 3.2 3.2 60 34.8 0.0 1011.0 0.0 12.7 12.7 0.0
01/02/18 03:15 12.7 95 11.9 2.2 3.2 72 34.8 0.0 1011.0 3.2 12.7 12.7 0.0
01/02/18 03:16 12.6 95 11.8 1.8 3.2 82 34.8 0.0 1011.0 1.4 12.6 12.6 0.0
01/02/18 03:17 12.6 95 11.8 1.8 5.4 67 34.8 0.0 1011.0 5.4 12.6 12.6 0.0
01/02/18 03:18 12.6 95 11.8 4.0 5.4 67 34.8 0.0 1011.0 0.0 12.6 12.6 0.0
01/02/18 03:19 12.5 95 11.7 1.8 5.4 90 34.8 0.0 1011.0 2.2 12.5 12.5 0.0
01/02/18 03:20 12.5 95 11.7 1.4 6.8 232 34.8 0.0 1011.0 6.8 12.5 12.5 0.0
01/02/18 03:21 12.5 95 11.7 3.6 6.8 228 34.8 0.0 1011.0 2.5 12.5 12.5 0.0
01/02/18 03:22 12.5 95 11.7 2.2 6.8 228 34.8 0.0 1011.0 0.0 12.5 12.5 0.0
01/02/18 03:23 12.5 95 11.7 1.8 6.8 182 34.8 0.0 1011.0 6.5 12.5 12.5 0.0
01/02/18 03:24 12.5 95 11.7 4.0 6.8 203 34.8 0.0 1011.0 6.1 12.5 12.5 0.0
01/02/18 03:25 12.5 95 11.7 2.2 6.8 183 34.8 0.0 1011.0 5.8 12.5 12.5 0.0
01/02/18 03:26 12.5 95 11.7 2.2 6.8 183 34.8 0.0 1011.0 0.0 12.5 12.5 0.0
01/02/18 03:27 12.5 95 11.7 0.0 6.8 195 34.8 0.0 1011.0 0.0 12.5 12.5 0.0
01/02/18 03:28 12.4 95 11.6 0.0 6.8 192 34.8 0.0 1011.0 5.0 12.4 12.4 0.0
01/02/18 03:29 12.4 95 11.6 2.5 6.8 193 34.8 0.0 1011.0 0.0 12.4 12.4 0.0
01/02/18 03:30 12.4 95 11.6 0.0 6.5 172 34.8 0.0 1011.0 0.0 12.4 12.4 0.0
01/02/18 03:31 12.4 95 11.6 0.0 6.5 166 34.8 0.0 1011.0 0.0 12.4 12.4 0.0
01/02/18 03:32 12.4 95 11.6 0.0 6.5 162 34.8 0.0 1011.0 1.4 12.4 12.4 0.0
01/02/18 03:33 12.4 95 11.6 1.8 6.1 176 34.8 0.0 1011.0 0.0 12.4 12.4 0.0
01/02/18 03:34 12.4 95 11.6 1.4 6.1 167 34.8 0.0 1011.0 3.6 12.4 12.4 0.0
01/02/18 03:35 12.4 95 11.6 4.0 5.0 146 34.8 0.0 1011.0 3.2 12.4 12.4 0.0
01/02/18 03:36 12.4 95 11.6 3.6 5.0 124 34.8 0.0 1011.0 4.0 12.4 12.4 0.0
01/02/18 03:37 12.4 95 11.6 1.8 5.8 155 34.8 0.0 1011.0 5.8 12.4 12.4 0.0
01/02/18 03:38 12.3 95 11.5 3.2 5.8 157 34.8 0.0 1011.0 2.5 12.3 12.3 0.0
01/02/18 03:39 12.3 95 11.5 3.2 5.8 153 34.8 0.0 1011.0 1.4 12.3 12.3 0.0
01/02/18 03:40 12.3 95 11.5 1.8 5.8 153 34.8 0.0 1011.0 0.0 12.3 12.3 0.0
01/02/18 03:41 12.3 95 11.5 0.0 5.8 147 34.8 0.0 1011.0 3.2 12.3 12.3 0.0
01/02/18 03:42 12.3 95 11.5 1.4 5.8 162 34.8 0.0 1011.0 1.4 12.3 12.3 0.0
01/02/18 03:43 12.3 95 11.5 1.8 5.8 162 34.8 0.0 1011.0 0.0 12.3 12.3 0.0
01/02/18 03:44 12.3 95 11.5 0.0 5.8 174 34.8 0.0 1011.0 0.0 12.3 12.3 0.0
01/02/18 03:45 12.3 95 11.5 0.0 5.8 155 34.8 0.0 1011.0 4.0 12.3 12.3 0.0
01/02/18 03:46 12.3 95 11.5 1.8 5.8 196 34.8 0.0 1011.0 0.0 12.3 12.3 0.0
01/02/18 03:47 12.3 95 11.5 0.0 4.0 161 34.8 0.0 1011.0 2.2 12.3 12.3 0.0
01/02/18 03:48 12.3 95 11.5 2.2 4.0 132 34.8 0.0 1011.0 2.5 12.3 12.3 0.0
01/02/18 03:49 12.2 95 11.4 3.6 4.0 131 34.8 0.0 1011.0 0.0 12.2 12.2 0.0
01/02/18 03:50 12.2 95 11.4 0.0 4.0 131 34.8 0.0 1011.0 0.0 12.2 12.2 0.0
01/02/18 03:51 12.2 95 11.4 0.0 4.0 126 34.8 0.0 1011.0 0.0 12.2 12.2 0.0
01/02/18 03:52 12.2 94 11.3 0.0 4.0 99 34.8 0.0 1011.0 0.0 12.2 12.2 0.0
01/02/18 03:53 12.2 94 11.3 0.0 4.0 57 34.8 0.0 1011.0 2.5 12.2 12.2 0.0
01/02/18 03:54 12.2 94 11.3 2.5 4.0 57 34.8 0.0 1011.0 0.0 12.2 12.2 0.0
01/02/18 03:55 12.2 94 11.3 2.2 2.5 162 34.8 0.0 1011.0 0.0 12.2 12.2 0.0
01/02/18 03:56 12.2 94 11.3 1.4 2.5 173 34.8 0.0 1011.0 1.4 12.2 12.2 0.0
01/02/18 03:57 12.1 94 11.2 2.2 2.5 227 34.8 0.0 1011.0 2.5 12.1 12.1 0.0
01/02/18 03:58 12.1 94 11.2 1.8 3.2 191 34.8 0.0 1011.0 3.2 12.1 12.1 0.0
01/02/18 03:59 12.1 94 11.2 3.6 3.2 244 34.8 0.0 1011.0 2.2 12.1 12.1 0.0
01/02/18 04:00 12.1 94 11.2 3.6 3.2 290 34.8 0.0 1011.0 2.2 12.1 12.1 0.0
01/02/18 04:01 12.1 94 11.2 1.8 3.2 290 34.8 0.0 1011.0 0.0 12.1 12.1 0.0
01/02/18 04:02 12.1 94 11.2 0.0 3.2 290 34.8 0.0 1011.0 0.0 12.1 12.1 0.0
01/02/18 04:03 12.1 94 11.2 0.0 3.2 277 34.8 0.0 1011.0 1.4 12.1 12.1 0.0
01/02/18 04:04 12.0 94 11.1 1.4 3.2 277 34.8 0.0 1011.0 2.5 12.0 12.0 0.0
01/02/18 04:05 12.0 94 11.1 2.5 3.2 277 34.8 0.0 1011.0 0.0 12.0 12.0 0.0
01/02/18 04:06 12.0 94 11.1 0.0 3.2 277 34.8 0.0 1011.0 0.0 12.0 12.0 0.0
01/02/18 04:07 12.0 94 11.1 0.0 3.6 173 34.8 0.0 1011.0 3.6 12.0 12.0 0.0
01/02/18 04:08 12.0 94 11.1 1.8 3.6 282 34.8 0.0 1011.0 0.0 12.0 12.0 0.0
01/02/18 04:09 12.0 94 11.1 0.0 3.6 12 34.8 0.0 1011.0 0.0 12.0 12.0 0.0
01/02/18 04:10 12.0 94 11.1 0.0 3.6 12 34.8 0.0 1010.0 2.2 12.0 12.0 0.0
01/02/18 04:11 12.0 94 11.1 2.2 3.6 278 34.8 0.0 1010.0 3.2 12.0 12.0 0.0
01/02/18 04:12 12.0 94 11.1 4.0 3.6 320 34.8 0.0 1010.0 2.2 12.0 12.0 0.0
01/02/18 04:13 12.0 94 11.1 2.2 3.6 354 34.8 0.0 1010.0 0.0 12.0 12.0 0.0
01/02/18 04:14 12.0 94 11.1 2.2 3.6 199 34.8 0.0 1010.0 0.0 12.0 12.0 0.0
01/02/18 04:15 12.0 94 11.1 1.4 3.6 252 34.8 0.0 1010.0 1.4 12.0 12.0 0.0
01/02/18 04:16 12.0 94 11.1 0.0 3.6 252 34.8 0.0 1010.0 0.0 12.0 12.0 0.0
01/02/18 04:17 12.0 94 11.1 2.2 3.2 331 34.8 0.0 1010.0 0.0 12.0 12.0 0.0
01/02/18 04:18 12.0 94 11.1 1.4 3.2 314 34.8 0.0 1010.0 1.4 12.0 12.0 0.0
01/02/18 04:19 12.0 94 11.1 1.4 3.6 135 34.8 0.0 1010.0 3.6 12.0 12.0 0.0
01/02/18 04:20 12.0 94 11.1 2.5 3.6 169 34.8 0.0 1010.0 1.8 12.0 12.0 0.0
01/02/18 04:21 12.1 94 11.2 2.2 3.6 134 34.8 0.0 1010.0 2.2 12.1 12.1 0.0
01/02/18 04:22 12.1 94 11.2 1.4 3.6 110 34.8 0.0 1010.0 3.2 12.1 12.1 0.0
01/02/18 04:23 12.1 94 11.2 2.5 3.6 132 34.8 0.0 1010.0 0.0 12.1 12.1 0.0
01/02/18 04:24 12.1 94 11.2 0.0 4.7 154 34.8 0.0 1010.0 4.7 12.1 12.1 0.0
01/02/18 04:25 12.0 94 11.1 3.6 4.7 146 34.8 0.0 1011.0 0.0 12.0 12.0 0.0
01/02/18 04:26 12.0 94 11.1 0.0 4.7 143 34.8 0.0 1011.0 4.0 12.0 12.0 0.0
01/02/18 04:27 12.0 94 11.1 5.0 4.7 143 34.8 0.0 1011.0 0.0 12.0 12.0 0.0
01/02/18 04:28 12.0 94 11.1 1.8 4.7 140 34.8 0.0 1011.0 2.2 12.0 12.0 0.0
01/02/18 04:29 12.0 94 11.1 1.4 4.7 143 34.8 0.0 1011.0 0.0 12.0 12.0 0.0
01/02/18 04:30 12.0 94 11.1 0.0 4.7 141 34.8 0.0 1011.0 4.0 12.0 12.0 0.0
01/02/18 04:31 12.0 94 11.1 2.5 5.0 139 34.8 0.0 1011.0 5.0 12.0 12.0 0.0
01/02/18 04:32 11.9 94 11.0 4.0 5.0 148 34.8 0.0 1011.0 0.0 11.9 11.9 0.0
01/02/18 04:33 11.9 94 11.0 0.0 5.0 148 34.8 0.0 1011.0 0.0 11.9 11.9 0.0
01/02/18 04:34 11.9 94 11.0 0.0 5.0 135 34.8 0.0 1011.0 0.0 11.9 11.9 0.0
01/02/18 04:35 11.9 94 11.0 0.0 5.0 135 34.8 0.0 1011.0 0.0 11.9 11.9 0.0
01/02/18 04:36 11.9 94 11.0 1.4 5.0 135 34.8 0.0 1011.0 0.0 11.9 11.9 0.0
01/02/18 04:37 11.9 94 11.0 2.2 5.0 135 34.8 0.0 1011.0 1.8 11.9 11.9 0.0
01/02/18 04:38 11.8 94 10.9 1.4 5.0 146 34.8 0.0 1011.0 2.2 11.8 11.8 0.0
01/02/18 04:39 11.8 94 10.9 1.8 5.0 143 34.8 0.0 1011.0 4.0 11.8 11.8 0.0
01/02/18 04:40 11.8 94 10.9 2.5 5.0 146 34.8 0.0 1011.0 0.0 11.8 11.8 0.0
01/02/18 04:41 11.8 94 10.9 0.0 4.0 155 34.8 0.0 1011.0 0.0 11.8 11.8 0.0
01/02/18 04:42 11.8 94 10.9 1.4 4.0 155 34.8 0.0 1011.0 0.0 11.8 11.8 0.0
01/02/18 04:43 11.8 94 10.9 0.0 4.0 155 34.8 0.0 1011.0 0.0 11.8 11.8 0.0
01/02/18 04:44 11.8 94 10.9 0.0 4.0 163 34.8 0.0 1011.0 3.2 11.8 11.8 0.0
01/02/18 04:45 11.8 94 10.9 2.2 4.0 163 34.8 0.0 1011.0 0.0 11.8 11.8 0.0
01/02/18 04:46 11.8 94 10.9 0.0 4.0 163 34.8 0.0 1011.0 0.0 11.8 11.8 0.0
01/02/18 04:47 11.8 94 10.9 1.4 4.0 163 34.8 0.0 1011.0 1.8 11.8 11.8 0.0
01/02/18 04:48 11.8 94 10.9 3.2 4.0 178 34.8 0.0 1011.0 3.2 11.8 11.8 0.0
01/02/18 04:49 11.8 94 10.9 3.2 3.2 189 34.8 0.0 1011.0 0.0 11.8 11.8 0.0
01/02/18 04:50 11.8 94 10.9 2.5 3.6 201 34.8 0.0 1011.0 3.6 11.8 11.8 0.0
01/02/18 04:51 11.8 94 10.9 2.5 3.6 193 34.8 0.0 1011.0 1.8 11.8 11.8 0.0
01/02/18 04:52 11.7 94 10.8 1.4 3.6 190 34.8 0.0 1011.0 2.5 11.7 11.7 0.0
01/02/18 04:53 11.7 94 10.8 4.0 3.6 190 34.8 0.0 1011.0 0.0 11.7 11.7 0.0
01/02/18 04:54 11.7 94 10.8 0.0 3.6 194 34.8 0.0 1011.0 0.0 11.7 11.7 0.0
01/02/18 04:55 11.7 94 10.8 0.0 3.6 194 34.8 0.0 1010.0 0.0 11.7 11.7 0.0
01/02/18 04:56 11.7 94 10.8 1.4 3.6 194 34.8 0.0 1010.0 0.0 11.7 11.7 0.0
01/02/18 04:57 11.7 94 10.8 0.0 3.6 203 34.8 0.0 1010.0 0.0 11.7 11.7 0.0
01/02/18 04:58 11.6 94 10.7 0.0 4.7 187 34.8 0.0 1010.0 4.7 11.6 11.6 0.0
01/02/18 04:59 11.6 94 10.7 3.2 4.7 186 34.8 0.0 1010.0 1.4 11.6 11.6 0.0
01/02/18 05:00 11.6 94 10.7 1.8 5.8 137 34.8 0.0 1010.0 5.8 11.6 11.6 0.0
01/02/18 05:01 11.6 94 10.7 2.2 5.8 138 34.8 0.0 1010.0 0.0 11.6 11.6 0.0
01/02/18 05:02 11.6 94 10.7 0.0 5.8 116 34.8 0.0 1010.0 0.0 11.6 11.6 0.0
01/02/18 05:03 11.6 94 10.7 0.0 5.8 149 34.8 0.0 1010.0 2.5 11.6 11.6 0.0
01/02/18 05:04 11.6 94 10.7 1.8 5.8 149 34.8 0.0 1010.0 0.0 11.6 11.6 0.0
01/02/18 05:05 11.6 94 10.7 1.4 5.8 149 34.8 0.0 1010.0 0.0 11.6 11.6 0.0
01/02/18 05:06 11.6 94 10.7 0.0 5.8 171 34.8 0.0 1010.0 2.2 11.6 11.6 0.0
01/02/18 05:07 11.6 94 10.7 1.8 5.8 171 34.8 0.0 1010.0 0.0 11.6 11.6 0.0
01/02/18 05:08 11.6 94 10.7 0.0 5.8 131 34.8 0.0 1010.0 0.0 11.6 11.6 0.0
01/02/18 05:09 11.6 94 10.7 0.0 5.8 46 34.8 0.0 1010.0 0.0 11.6 11.6 0.0
01/02/18 05:10 11.6 94 10.7 1.4 5.0 177 34.8 0.0 1011.0 5.0 11.6 11.6 0.0
01/02/18 05:11 11.6 94 10.7 3.2 5.0 177 34.8 0.0 1011.0 0.0 11.6 11.6 0.0
01/02/18 05:12 11.6 94 10.7 2.2 5.0 177 34.8 0.0 1011.0 0.0 11.6 11.6 0.0
01/02/18 05:13 11.6 94 10.7 1.4 5.0 158 34.8 0.0 1011.0 0.0 11.6 11.6 0.0
01/02/18 05:14 11.6 94 10.7 2.2 5.0 148 34.8 0.0 1011.0 1.8 11.6 11.6 0.0
01/02/18 05:15 11.6 94 10.7 1.8 5.0 148 34.8 0.0 1011.0 0.0 11.6 11.6 0.0
01/02/18 05:16 11.6 94 10.7 0.0 5.0 123 34.8 0.0 1011.0 2.5 11.6 11.6 0.0
01/02/18 05:17 11.6 94 10.7 1.8 5.0 123 34.8 0.0 1011.0 0.0 11.6 11.6 0.0
01/02/18 05:18 11.6 94 10.7 0.0 5.0 123 34.8 0.0 1011.0 0.0 11.6 11.6 0.0
01/02/18 05:19 11.6 94 10.7 0.0 5.0 123 34.8 0.0 1011.0 0.0 11.6 11.6 0.0
01/02/18 05:20 11.6 94 10.7 0.0 5.0 126 34.8 0.0 1011.0 2.5 11.6 11.6 0.0
01/02/18 05:21 11.6 94 10.7 1.4 2.5 116 34.8 0.0 1011.0 0.0 11.6 11.6 0.0
01/02/18 05:22 11.6 94 10.7 0.0 2.5 116 34.8 0.0 1011.0 0.0 11.6 11.6 0.0
01/02/18 05:23 11.6 94 10.7 0.0 2.5 116 34.8 0.0 1011.0 0.0 11.6 11.6 0.0
01/02/18 05:24 11.6 94 10.7 1.4 3.2 135 34.8 0.0 1011.0 3.2 11.6 11.6 0.0
01/02/18 05:25 11.6 94 10.7 1.8 3.2 118 34.8 0.0 1012.0 2.5 11.6 11.6 0.0
01/02/18 05:26 11.6 95 10.8 1.4 3.2 111 34.8 0.0 1012.0 0.0 11.6 11.6 0.0
01/02/18 05:27 11.6 95 10.8 0.0 3.2 111 34.8 0.0 1012.0 0.0 11.6 11.6 0.0
01/02/18 05:28 11.6 95 10.8 0.0 3.2 111 34.8 0.0 1012.0 0.0 11.6 11.6 0.0
01/02/18 05:29 11.6 95 10.8 0.0 3.2 111 34.8 0.0 1012.0 0.0 11.6 11.6 0.0
01/02/18 05:30 11.6 95 10.8 0.0 3.2 115 34.8 0.0 1012.0 1.4 11.6 11.6 0.0
01/02/18 05:31 11.6 95 10.8 1.8 3.2 115 34.8 0.0 1012.0 0.0 11.6 11.6 0.0
01/02/18 05:32 11.6 95 10.8 0.0 3.2 115 34.8 0.0 1012.0 0.0 11.6 11.6 0.0
01/02/18 05:33 11.7 95 10.9 0.0 3.2 115 34.8 0.0 1012.0 0.0 11.7 11.7 0.0
01/02/18 05:34 11.7 95 10.9 0.0 2.5 80 34.8 0.0 1012.0 0.0 11.7 11.7 0.0
01/02/18 05:35 11.7 95 10.9 0.0 1.4 181 34.8 0.0 1012.0 0.0 11.7 11.7 0.0
01/02/18 05:36 11.7 95 10.9 0.0 1.4 90 34.8 0.0 1012.0 1.4 11.7 11.7 0.0
01/02/18 05:37 11.7 95 10.9 2.5 1.8 181 34.8 0.0 1012.0 1.8 11.7 11.7 0.0
01/02/18 05:38 11.7 95 10.9 1.4 1.8 181 34.8 0.0 1012.0 0.0 11.7 11.7 0.0
01/02/18 05:39 11.7 95 10.9 1.4 2.5 90 34.8 0.0 1012.0 2.5 11.7 11.7 0.0
01/02/18 05:40 11.7 95 10.9 2.5 2.5 52 34.8 0.0 1012.0 0.0 11.7 11.7 0.0
01/02/18 05:41 11.7 95 10.9 0.0 2.5 52 34.8 0.0 1012.0 0.0 11.7 11.7 0.0
01/02/18 05:42 11.7 95 10.9 0.0 2.5 52 34.8 0.0 1012.0 0.0 11.7 11.7 0.0
01/02/18 05:43 11.7 95 10.9 0.0 2.5 52 34.8 0.0 1012.0 0.0 11.7 11.7 0.0
01/02/18 05:44 11.7 95 10.9 0.0 4.3 108 34.8 0.0 1012.0 4.3 11.7 11.7 0.0
01/02/18 05:45 11.7 95 10.9 1.8 4.3 115 34.8 0.0 1012.0 1.8 11.7 11.7 0.0
01/02/18 05:46 11.7 95 10.9 2.5 4.3 107 34.8 0.0 1012.0 2.5 11.7 11.7 0.0
01/02/18 05:47 11.7 95 10.9 2.2 4.3 95 34.8 0.0 1012.0 0.0 11.7 11.7 0.0
01/02/18 05:48 11.7 95 10.9 0.0 4.3 95 34.8 0.0 1012.0 0.0 11.7 11.7 0.0
01/02/18 05:49 11.7 95 10.9 0.0 4.3 112 34.8 0.0 1012.0 2.5 11.7 11.7 0.0
01/02/18 05:50 11.7 95 10.9 2.2 4.3 106 34.8 0.0 1012.0 3.6 11.7 11.7 0.0
01/02/18 05:51 11.7 95 10.9 1.4 4.3 119 34.8 0.0 1012.0 2.2 11.7 11.7 0.0
01/02/18 05:52 11.7 95 10.9 1.4 4.3 119 34.8 0.0 1012.0 0.0 11.7 11.7 0.0
01/02/18 05:53 11.8 95 11.0 0.0 4.3 119 34.8 0.0 1012.0 0.0 11.8 11.8 0.0
01/02/18 05:54 11.8 95 11.0 0.0 3.6 115 34.8 0.0 1012.0 2.5 11.8 11.8 0.0
01/02/18 05:55 11.8 95 11.0 1.4 3.6 108 34.8 0.0 1013.0 0.0 11.8 11.8 0.0
01/02/18 05:56 11.8 95 11.0 0.0 3.6 139 34.8 0.0 1013.0 0.0 11.8 11.8 0.0
01/02/18 05:57 11.8 95 11.0 0.0 3.6 174 34.8 0.0 1013.0 3.2 11.8 11.8 0.0
01/02/18 05:58 11.8 95 11.0 4.0 3.6 176 34.8 0.0 1013.0 1.8 11.8 11.8 0.0
01/02/18 05:59 11.8 95 11.0 3.2 3.6 174 34.8 0.0 1013.0 0.0 11.8 11.8 0.0
01/02/18 06:00 11.8 95 11.0 0.0 3.2 193 34.8 0.0 1013.0 1.4 11.8 11.8 0.0
01/02/18 06:01 11.8 95 11.0 3.6 3.2 170 34.8 0.0 1013.0 2.2 11.8 11.8 0.0
01/02/18 06:02 11.8 95 11.0 2.2 5.4 153 34.8 0.0 1013.0 5.4 11.8 11.8 0.0
01/02/18 06:03 11.8 95 11.0 3.2 5.4 139 34.8 0.0 1013.0 2.5 11.8 11.8 0.0
01/02/18 06:04 11.8 95 11.0 1.4 5.4 139 34.8 0.0 1013.0 4.0 11.8 11.8 0.0
01/02/18 06:05 11.9 95 11.1 2.5 5.4 139 34.8 0.0 1013.0 0.0 11.9 11.9 0.0
01/02/18 06:06 11.9 95 11.1 1.8 5.4 139 34.8 0.0 1013.0 0.0 11.9 11.9 0.0
01/02/18 06:07 11.9 95 11.1 0.0 5.4 123 34.8 0.0 1013.0 0.0 11.9 11.9 0.0
01/02/18 06:08 11.9 95 11.1 0.0 5.4 105 34.8 0.0 1013.0 2.2 11.9 11.9 0.0
01/02/18 06:09 11.9 95 11.1 1.4 5.4 105 34.8 0.0 1013.0 0.0 11.9 11.9 0.0
01/02/18 06:10 12.0 94 11.1 0.0 5.4 98 34.8 0.0 1013.0 0.0 12.0 12.0 0.0
01/02/18 06:11 12.0 94 11.1 0.0 5.4 93 34.8 0.0 1013.0 3.6 12.0 12.0 0.0
01/02/18 06:12 12.0 94 11.1 2.2 4.0 71 34.8 0.0 1013.0 0.0 12.0 12.0 0.0
01/02/18 06:13 12.0 94 11.1 0.0 4.0 80 34.8 0.0 1013.0 0.0 12.0 12.0 0.0
01/02/18 06:14 12.1 94 11.2 0.0 3.6 45 34.8 0.0 1013.0 0.0 12.1 12.1 0.0
01/02/18 06:15 12.1 94 11.2 0.0 3.6 45 34.8 0.0 1013.0 0.0 12.1 12.1 0.0
01/02/18 06:16 12.1 94 11.2 0.0 3.6 45 34.8 0.0 1013.0 2.2 12.1 12.1 0.0
01/02/18 06:17 12.1 94 11.2 1.8 5.8 45 34.8 0.0 1013.0 5.8 12.1 12.1 0.0
01/02/18 06:18 12.1 94 11.2 4.0 5.8 45 34.8 0.0 1013.0 0.0 12.1 12.1 0.0
01/02/18 06:19 12.2 94 11.3 0.0 5.8 45 34.8 0.0 1013.0 0.0 12.2 12.2 0.0
01/02/18 06:20 12.2 94 11.3 1.8 5.8 45 34.8 0.0 1013.0 1.8 12.2 12.2 0.0
01/02/18 06:21 12.2 94 11.3 2.2 5.8 45 34.8 0.0 1013.0 0.0 12.2 12.2 0.0
01/02/18 06:22 12.2 94 11.3 0.0 5.8 45 34.8 0.0 1013.0 0.0 12.2 12.2 0.0
01/02/18 06:23 12.3 94 11.4 1.4 5.8 52 34.8 0.0 1013.0 1.4 12.3 12.3 0.0
01/02/18 06:24 12.3 94 11.4 0.0 5.8 72 34.8 0.0 1013.0 3.2 12.3 12.3 0.0
01/02/18 06:25 12.3 94 11.4 2.2 5.8 79 34.8 0.0 1013.0 1.4 12.3 12.3 0.0
01/02/18 06:26 12.3 94 11.4 1.4 5.8 75 34.8 0.0 1013.0 3.6 12.3 12.3 0.0
01/02/18 06:27 12.4 94 11.5 2.5 3.6 97 34.8 0.0 1013.0 0.0 12.4 12.4 0.0
01/02/18 06:28 12.4 94 11.5 0.0 3.6 104 34.8 0.0 1013.0 1.8 12.4 12.4 0.0
01/02/18 06:29 12.4 94 11.5 3.2 3.6 90 34.8 0.0 1013.0 3.2 12.4 12.4 0.0
01/02/18 06:30 12.4 94 11.5 2.5 3.6 90 34.8 0.0 1013.0 1.4 12.4 12.4 0.0
01/02/18 06:31 12.4 94 11.5 0.0 5.0 109 34.8 0.0 1013.0 5.0 12.4 12.4 0.0
01/02/18 06:32 12.4 94 11.5 4.3 9.0 124 34.8 0.0 1013.0 9.0 12.4 12.4 0.0
01/02/18 06:33 12.4 94 11.5 5.8 9.0 119 34.8 0.0 1013.0 0.0 12.3 12.4 0.0
01/02/18 06:34 12.4 94 11.5 0.0 9.0 127 34.8 0.0 1013.0 2.2 12.4 12.4 0.0
01/02/18 06:35 12.5 94 11.6 2.5 9.0 126 34.8 0.0 1013.0 4.3 12.5 12.5 0.0
01/02/18 06:36 12.5 94 11.6 2.2 9.0 139 34.8 0.0 1013.0 3.2 12.5 12.5 0.0
01/02/18 06:37 12.5 94 11.6 3.6 9.0 124 34.8 0.0 1013.0 4.7 12.5 12.5 0.0
01/02/18 06:38 12.5 94 11.6 2.2 9.0 124 34.8 0.0 1013.0 1.8 12.5 12.5 0.0
01/02/18 06:39 12.5 94 11.6 2.2 9.0 135 34.8 0.0 1013.0 3.2 12.5 12.5 0.0
01/02/18 06:40 12.5 94 11.6 3.2 9.0 139 34.8 0.0 1013.0 0.0 12.5 12.5 0.0
01/02/18 06:41 12.5 94 11.6 0.0 9.0 121 34.8 0.0 1013.0 2.5 12.5 12.5 0.0
01/02/18 06:42 12.5 94 11.6 1.8 4.7 113 34.8 0.0 1013.0 0.0 12.5 12.5 0.0
01/02/18 06:43 12.6 94 11.7 0.0 4.7 113 34.8 0.0 1013.0 0.0 12.6 12.6 0.0
01/02/18 06:44 12.6 94 11.7 0.0 4.7 98 34.8 0.0 1013.0 2.2 12.6 12.6 0.0
01/02/18 06:45 12.6 94 11.7 1.4 4.7 82 34.8 0.0 1013.0 1.8 12.6 12.6 0.0
01/02/18 06:46 12.6 94 11.7 1.4 4.7 70 34.8 0.0 1013.0 0.0 12.6 12.6 0.0
01/02/18 06:47 12.6 94 11.7 0.0 4.0 99 34.8 0.0 1013.0 4.0 12.6 12.6 0.0
01/02/18 06:48 12.6 94 11.7 3.2 4.0 88 34.8 0.0 1013.0 1.4 12.6 12.6 0.0
01/02/18 06:49 12.6 94 11.7 1.4 4.0 72 34.8 0.0 1013.0 0.0 12.6 12.6 0.0
01/02/18 06:50 12.7 93 11.6 0.0 4.0 72 34.8 0.0 1013.0 0.0 12.7 12.7 0.0
01/02/18 06:51 12.7 93 11.6 1.4 4.0 82 34.8 0.0 1013.0 0.0 12.7 12.7 0.0
01/02/18 06:52 12.7 93 11.6 0.0 4.0 69 34.8 0.0 1013.0 3.6 12.7 12.7 0.0
01/02/18 06:53 12.7 93 11.6 3.2 5.8 92 34.8 0.0 1013.0 5.8 12.7 12.7 0.0
01/02/18 06:54 12.7 93 11.6 4.3 7.9 141 34.8 0.0 1013.0 7.9 12.7 12.7 0.0
01/02/18 06:55 12.7 93 11.6 5.0 7.9 148 34.8 0.0 1014.0 2.2 12.7 12.7 0.0
01/02/18 06:56 12.9 93 11.8 2.5 7.9 136 34.8 0.0 1014.0 2.5 12.9 12.9 0.0
01/02/18 06:57 13.2 92 11.9 4.7 7.9 110 34.8 0.0 1014.0 4.0 13.2 13.2 0.0
01/02/18 06:58 13.4 92 12.1 2.5 7.9 119 34.8 0.0 1014.0 0.0 13.4 13.4 0.0
01/02/18 06:59 13.6 92 12.3 1.8 7.9 147 34.8 0.0 1014.0 4.0 13.6 13.6 0.0
01/02/18 07:00 13.9 93 12.8 2.5 7.9 119 34.8 0.0 1014.0 4.0 13.9 13.9 0.0
01/02/18 07:01 14.0 92 12.7 2.2 7.9 122 34.8 0.0 1014.0 2.2 14.0 14.0 0.0
01/02/18 07:02 14.0 91 12.6 3.2 7.9 143 34.8 0.0 1014.0 0.0 14.0 14.0 0.0
01/02/18 07:03 14.0 91 12.6 2.2 7.9 140 34.8 0.0 1014.0 5.8 14.0 14.0 0.0
01/02/18 07:04 14.0 91 12.6 4.3 5.8 88 34.8 0.0 1014.0 4.7 14.0 14.0 0.0
01/02/18 07:05 13.8 90 12.2 3.6 5.8 91 34.8 0.0 1014.0 4.0 13.8 13.8 0.0
01/02/18 07:06 13.8 90 12.2 4.0 5.8 83 34.8 0.0 1014.0 4.3 13.8 13.8 0.0
01/02/18 07:07 13.8 90 12.2 2.5 5.8 90 34.8 0.0 1014.0 2.5 13.8 13.8 0.0
01/02/18 07:08 13.8 90 12.2 2.5 5.8 90 34.8 0.0 1014.0 0.0 13.8 13.8 0.0
01/02/18 07:09 13.8 90 12.2 2.2 5.8 73 34.8 0.0 1014.0 4.0 13.8 13.8 0.0
01/02/18 07:10 13.8 90 12.2 3.2 5.8 71 34.8 0.0 1012.0 5.4 13.8 13.8 0.0
01/02/18 07:11 13.8 90 12.2 5.8 5.8 59 34.8 0.0 1012.0 3.2 13.8 13.8 0.0
01/02/18 07:12 13.7 88 11.7 3.2 5.8 56 34.8 0.0 1012.0 3.6 13.7 13.7 0.0
01/02/18 07:13 13.7 88 11.7 1.8 5.4 45 34.8 0.0 1012.0 2.2 13.7 13.7 0.0
01/02/18 07:14 13.8 88 11.8 2.5 5.4 45 34.8 0.0 1012.0 0.0 13.8 13.8 0.0
01/02/18 07:15 13.8 88 11.8 2.5 5.4 32 34.8 0.0 1012.0 4.0 13.8 13.8 0.0
01/02/18 07:16 13.6 88 11.6 4.0 5.4 46 34.8 0.0 1012.0 4.3 13.6 13.6 0.0
01/02/18 07:17 13.6 87 11.5 5.0 5.4 58 34.8 0.0 1012.0 2.2 13.6 13.6 0.0
01/02/18 07:18 13.7 87 11.6 2.5 6.1 84 34.8 0.0 1012.0 6.1 13.7 13.7 0.0
01/02/18 07:19 13.7 87 11.6 4.0 6.1 78 34.8 0.0 1012.0 1.4 13.7 13.7 0.0
01/02/18 07:20 13.7 87 11.6 2.5 6.1 124 34.8 0.0 1012.0 5.0 13.7 13.7 0.0
01/02/18 07:21 13.7 86 11.4 4.3 6.1 122 34.8 0.0 1012.0 5.0 13.7 13.7 0.0
01/02/18 07:22 13.7 86 11.4 5.0 6.1 124 34.8 0.0 1012.0 3.6 13.7 13.7 0.0
01/02/18 07:23 13.7 86 11.4 2.2 6.1 131 34.8 0.0 1012.0 0.0 13.7 13.7 0.0
01/02/18 07:24 13.7 87 11.6 2.2 6.1 130 34.8 0.0 1012.0 4.3 13.7 13.7 0.0
01/02/18 07:25 13.7 87 11.6 3.6 6.1 149 34.8 0.0 1013.0 4.0 13.7 13.7 0.0
01/02/18 07:26 13.8 87 11.7 1.4 6.1 150 34.8 0.0 1013.0 3.2 13.8 13.8 0.0
01/02/18 07:27 13.7 86 11.4 2.2 8.6 145 34.8 0.0 1013.0 8.6 13.7 13.7 0.0
01/02/18 07:28 13.7 86 11.4 4.3 8.6 170 34.8 0.0 1013.0 5.4 13.7 13.7 0.0
01/02/18 07:29 13.7 85 11.2 4.7 8.6 170 34.8 0.0 1013.0 0.0 13.7 13.7 0.0
01/02/18 07:30 13.8 86 11.5 1.4 8.6 157 34.8 0.0 1013.0 4.0 13.8 13.8 0.0
01/02/18 07:31 13.7 86 11.4 2.5 8.6 171 34.8 0.0 1013.0 2.2 13.7 13.7 0.0
01/02/18 07:32 13.8 85 11.3 3.2 8.6 184 34.8 0.0 1013.0 5.8 13.8 13.8 0.0
01/02/18 07:33 13.8 85 11.3 4.3 8.6 166 34.8 0.0 1013.0 5.0 13.8 13.8 0.0
01/02/18 07:34 13.7 85 11.2 4.7 8.6 168 34.8 0.0 1013.0 5.0 13.7 13.7 0.0
01/02/18 07:35 13.7 85 11.2 4.0 8.6 156 34.8 0.0 1013.0 5.8 13.7 13.7 0.0
01/02/18 07:36 13.7 85 11.2 4.3 9.0 145 34.8 0.0 1013.0 9.0 13.7 13.7 0.0
01/02/18 07:37 13.7 84 11.0 4.7 9.0 154 34.8 0.0 1013.0 2.5 13.7 13.7 0.0
01/02/18 07:38 13.8 85 11.3 3.2 9.0 132 34.8 0.0 1013.0 3.2 13.8 13.8 0.0
01/02/18 07:39 13.8 85 11.3 2.2 9.0 147 34.8 0.0 1013.0 5.4 13.8 13.8 0.0
01/02/18 07:40 13.9 85 11.4 3.2 9.0 139 34.8 0.0 1013.0 3.2 13.9 13.9 0.0
01/02/18 07:41 13.9 85 11.4 3.2 9.0 146 34.8 0.0 1013.0 4.0 13.9 13.9 0.0
01/02/18 07:42 13.9 85 11.4 4.0 9.0 93 34.8 0.0 1013.0 4.7 13.9 13.9 0.0
01/02/18 07:43 13.9 85 11.4 4.0 9.0 88 34.8 0.0 1013.0 6.1 13.9 13.9 0.0
01/02/18 07:44 14.0 84 11.3 4.3 9.0 110 34.8 0.0 1013.0 2.5 14.0 14.0 0.0
01/02/18 07:45 14.0 84 11.3 0.0 9.0 95 34.8 0.0 1013.0 0.0 14.0 14.0 0.0
01/02/18 07:46 14.1 84 11.4 1.4 6.1 32 34.8 0.0 1013.0 1.4 14.1 14.1 0.0
01/02/18 07:47 14.2 84 11.5 1.4 6.1 30 34.8 0.0 1013.0 4.0 14.2 14.2 0.0
01/02/18 07:48 14.2 84 11.5 2.2 6.1 50 34.8 0.0 1013.0 4.7 14.2 14.2 0.0
01/02/18 07:49 14.1 84 11.4 2.2 6.1 49 34.8 0.0 1013.0 2.5 14.1 14.1 0.0
01/02/18 07:50 14.1 84 11.4 1.8 6.1 68 34.8 0.0 1013.0 5.0 14.1 14.1 0.0
01/02/18 07:51 14.1 84 11.4 5.0 6.1 75 34.8 0.0 1013.0 1.8 14.1 14.1 0.0
01/02/18 07:52 14.1 84 11.4 2.2 6.1 95 34.8 0.0 1013.0 2.2 14.1 14.1 0.0
01/02/18 07:53 14.2 84 11.5 1.8 5.0 115 34.8 0.0 1013.0 3.6 14.2 14.2 0.0
01/02/18 07:54 14.2 84 11.5 3.6 5.0 104 34.8 0.0 1013.0 3.2 14.2 14.2 0.0
01/02/18 07:55 14.2 84 11.5 3.6 5.0 96 34.8 0.0 1012.0 3.2 14.2 14.2 0.0
01/02/18 07:56 14.3 84 11.6 0.0 5.0 100 34.8 0.0 1012.0 0.0 14.3 14.3 0.0
01/02/18 07:57 14.3 84 11.6 0.0 5.0 116 34.8 0.0 1012.0 2.2 14.3 14.3 0.0
01/02/18 07:58 14.5 84 11.8 2.5 5.0 110 34.8 0.0 1012.0 0.0 14.5 14.5 0.0
01/02/18 07:59 14.4 84 11.7 1.4 5.8 143 34.8 0.0 1012.0 5.8 14.4 14.4 0.0
01/02/18 08:00 14.5 84 11.8 4.7 5.8 163 34.8 0.0 1012.0 2.5 14.5 14.5 0.0
01/02/18 08:01 14.5 84 11.8 2.5 5.8 159 34.8 0.0 1012.0 0.0 14.5 14.5 0.0
01/02/18 08:02 14.5 83 11.6 1.8 5.8 167 34.8 0.0 1012.0 0.0 14.5 14.5 0.0
01/02/18 08:03 14.6 83 11.7 1.8 5.8 169 34.8 0.0 1012.0 3.2 14.6 14.6 0.0
01/02/18 08:04 14.6 83 11.7 4.0 5.8 161 34.8 0.0 1012.0 1.8 14.6 14.6 0.0
01/02/18 08:05 14.7 83 11.8 1.8 5.8 201 34.8 0.0 1012.0 2.2 14.7 14.7 0.0
01/02/18 08:06 14.8 83 11.9 2.2 5.8 195 34.8 0.0 1012.0 1.4 14.8 14.8 0.0
01/02/18 08:07 14.8 83 11.9 1.4 5.8 176 34.8 0.0 1012.0 5.4 14.8 14.8 0.0
01/02/18 08:08 14.7 83 11.8 3.6 5.8 167 34.8 0.0 1012.0 2.2 14.7 14.7 0.0
01/02/18 08:09 14.7 82 11.7 4.3 5.4 112 34.8 0.0 1012.0 4.3 14.7 14.7 0.0
01/02/18 08:10 14.6 82 11.6 4.3 5.4 110 34.8 0.0 1013.0 4.7 14.6 14.6 0.0
01/02/18 08:11 14.6 82 11.6 4.3 5.4 110 34.8 0.0 1013.0 0.0 14.6 14.6 0.0
01/02/18 08:12 14.7 82 11.7 1.4 5.4 110 34.8 0.0 1013.0 0.0 14.7 14.7 0.0
01/02/18 08:13 14.9 83 12.0 0.0 5.4 90 34.8 0.0 1013.0 4.7 14.9 14.9 0.0
01/02/18 08:14 14.8 82 11.8 3.2 8.6 56 34.8 0.0 1013.0 8.6 14.8 14.8 0.0
01/02/18 08:15 14.9 81 11.7 6.1 8.6 68 34.8 0.0 1013.0 1.8 14.9 14.9 0.0
01/02/18 08:16 14.9 81 11.7 2.5 8.6 62 34.8 0.0 1013.0 2.5 14.9 14.9 0.0
01/02/18 08:17 14.9 81 11.7 3.6 8.6 46 34.8 0.0 1013.0 2.5 14.9 14.9 0.0
01/02/18 08:18 15.0 81 11.8 3.6 8.6 46 34.8 0.0 1013.0 3.2 15.0 15.0 0.0
01/02/18 08:19 15.1 81 11.9 3.2 8.6 58 34.8 0.0 1013.0 4.0 15.1 15.1 0.0
01/02/18 08:20 15.2 81 12.0 2.5 8.6 67 34.8 0.0 1013.0 3.2 15.2 15.2 0.0
01/02/18 08:21 15.3 81 12.1 3.2 8.6 49 34.8 0.0 1013.0 2.5 15.3 15.3 0.0
01/02/18 08:22 15.3 81 12.1 2.2 8.6 66 34.8 0.0 1013.0 5.4 15.3 15.3 0.0
01/02/18 08:23 15.3 80 11.9 5.4 8.6 90 34.8 0.0 1013.0 6.1 15.3 15.3 0.0
01/02/18 08:24 15.2 79 11.6 6.1 6.1 120 34.8 0.0 1013.0 6.1 15.2 15.2 0.0
01/02/18 08:25 15.2 78 11.4 4.3 6.1 110 34.8 0.0 1013.0 4.0 15.2 15.2 0.0
01/02/18 08:26 15.2 79 11.6 3.6 6.1 126 34.8 0.0 1013.0 4.3 15.2 15.2 0.0
01/02/18 08:27 15.2 79 11.6 4.0 6.1 122 34.8 0.0 1013.0 4.7 15.2 15.2 0.0
01/02/18 08:28 15.2 78 11.4 4.7 6.1 125 34.8 0.0 1013.0 2.5 15.2 15.2 0.0
01/02/18 08:29 15.2 78 11.4 3.2 6.1 130 34.8 0.0 1013.0 1.8 15.2 15.2 0.0
01/02/18 08:30 15.3 78 11.5 2.2 6.1 138 34.8 0.0 1013.0 1.8 15.3 15.3 0.0
01/02/18 08:31 15.4 78 11.6 2.2 6.1 138 34.8 0.0 1013.0 1.8 15.4 15.4 0.0
01/02/18 08:32 15.6 79 12.0 1.8 6.1 149 34.8 0.0 1013.0 2.2 15.6 15.6 0.0
01/02/18 08:33 15.7 79 12.1 2.5 6.1 128 34.8 0.0 1013.0 3.2 15.7 15.7 0.0
01/02/18 08:34 15.8 79 12.2 2.5 4.7 6 34.8 0.0 1013.0 3.2 15.8 15.8 0.0
01/02/18 08:35 15.9 79 12.3 2.5 4.7 1 34.8 0.0 1013.0 3.2 15.9 15.9 0.0
01/02/18 08:36 16.1 78 12.3 2.5 4.7 18 34.8 0.0 1013.0 3.2 16.1 16.1 0.0
01/02/18 08:37 16.2 78 12.4 2.5 3.2 44 34.8 0.0 1013.0 3.2 16.2 16.2 0.0
01/02/18 08:38 16.2 77 12.2 2.5 3.2 52 34.8 0.0 1013.0 3.2 16.2 16.2 0.0
01/02/18 08:39 16.3 77 12.3 2.2 3.2 59 34.8 0.0 1013.0 2.2 16.3 16.3 0.0
01/02/18 08:40 16.3 76 12.1 2.2 10.1 88 34.8 0.0 1013.0 10.1 16.3 16.3 0.0
01/02/18 08:41 16.2 73 11.4 9.7 10.1 80 34.8 0.0 1013.0 2.5 16.1 16.2 0.0
01/02/18 08:42 16.2 73 11.4 3.6 10.1 87 34.8 0.0 1013.0 6.5 16.2 16.2 0.0
01/02/18 08:43 16.1 73 11.3 5.4 10.1 97 34.8 0.0 1013.0 4.0 16.1 16.1 0.0
01/02/18 08:44 16.0 73 11.2 5.0 10.1 90 34.8 0.0 1013.0 8.6 16.0 16.0 0.0
01/02/18 08:45 16.0 72 11.0 4.7 10.1 102 34.8 0.0 1013.0 4.3 16.0 16.0 0.0
01/02/18 08:46 16.0 72 11.0 5.8 10.1 112 34.8 0.0 1013.0 6.1 16.0 16.0 0.0
01/02/18 08:47 16.1 72 11.0 4.7 10.1 119 34.8 0.0 1013.0 4.7 16.1 16.1 0.0
01/02/18 08:48 16.2 72 11.1 5.4 10.1 125 34.8 0.0 1013.0 3.2 16.2 16.2 0.0
01/02/18 08:49 16.3 71 11.0 5.4 10.1 119 34.8 0.0 1013.0 4.3 16.3 16.3 0.0
01/02/18 08:50 16.4 72 11.3 3.6 8.6 108 34.8 0.0 1013.0 1.4 16.4 16.4 0.0
01/02/18 08:51 16.8 73 11.9 2.5 8.6 113 34.8 0.0 1013.0 0.0 16.8 16.8 0.0
01/02/18 08:52 17.0 72 11.9 2.5 8.6 114 34.8 0.0 1013.0 1.8 17.0 17.0 0.0
01/02/18 08:53 17.3 72 12.2 2.5 8.6 104 34.8 0.0 1013.0 0.0 17.3 17.3 0.0
01/02/18 08:54 17.5 72 12.4 0.0 9.7 95 34.8 0.0 1013.0 9.7 17.5 17.5 0.0
01/02/18 08:55 17.5 71 12.2 4.3 9.7 91 34.8 0.0 1013.0 4.7 17.5 17.5 0.0
01/02/18 08:56 17.5 71 12.2 4.0 9.7 79 34.8 0.0 1013.0 1.4 17.5 17.5 0.0
01/02/18 08:57 17.7 71 12.4 2.2 9.7 70 34.8 0.0 1013.0 2.5 17.7 17.7 0.0
01/02/18 08:58 17.9 71 12.6 3.2 9.7 41 34.8 0.0 1013.0 4.7 17.9 17.9 0.0
01/02/18 08:59 18.2 71 12.9 3.6 9.7 37 34.8 0.0 1013.0 4.0 18.2 18.2 0.0
01/02/18 09:00 18.2 70 12.6 4.0 9.7 49 34.8 0.0 1013.0 1.8 18.2 18.2 0.0
01/02/18 09:01 18.4 70 12.8 3.2 9.7 51 34.8 0.0 1013.0 1.8 18.4 18.4 0.0
01/02/18 09:02 18.6 71 13.2 2.5 9.7 274 34.8 0.0 1013.0 4.0 18.6 18.6 0.0
01/02/18 09:03 18.7 70 13.1 3.2 9.7 163 34.8 0.0 1013.0 4.0 18.7 18.7 0.0
01/02/18 09:04 18.8 69 13.0 2.2 5.4 164 34.8 0.0 1013.0 5.4 18.8 18.8 0.0
01/02/18 09:05 18.9 69 13.1 4.0 5.4 160 34.8 0.0 1013.0 2.5 18.9 18.9 0.0
01/02/18 09:06 19.0 68 13.0 1.8 5.4 177 34.8 0.0 1013.0 1.4 19.0 19.0 0.0
01/02/18 09:07 19.0 68 13.0 3.2 5.4 189 34.8 0.0 1013.0 3.6 19.0 19.0 0.0
01/02/18 09:08 19.0 68 13.0 3.6 5.4 178 34.8 0.0 1013.0 2.2 19.0 19.0 0.0
01/02/18 09:09 19.0 67 12.7 2.2 5.4 156 34.8 0.0 1013.0 5.0 19.0 19.0 0.0
01/02/18 09:10 18.9 66 12.4 4.7 5.4 150 34.8 0.0 1013.0 0.0 18.9 18.9 0.0
01/02/18 09:11 18.9 66 12.4 0.0 5.4 142 34.8 0.0 1013.0 1.8 18.9 18.9 0.0
01/02/18 09:12 19.1 67 12.8 1.8 5.4 124 34.8 0.0 1013.0 2.2 19.1 19.1 0.0
01/02/18 09:13 19.2 66 12.7 2.2 5.4 132 34.8 0.0 1013.0 3.6 19.2 19.2 0.0
01/02/18 09:14 19.1 65 12.4 3.2 5.0 143 34.8 0.0 1013.0 3.2 19.1 19.1 0.0
01/02/18 09:15 19.1 65 12.4 1.8 5.0 143 34.8 0.0 1013.0 2.5 19.1 19.1 0.0
01/02/18 09:16 19.0 65 12.3 4.3 5.0 148 34.8 0.0 1013.0 2.2 19.0 19.0 0.0
01/02/18 09:17 19.2 65 12.5 2.5 5.8 176 34.8 0.0 1013.0 5.8 19.2 19.2 0.0
01/02/18 09:18 19.1 63 11.9 5.8 6.8 149 34.8 0.0 1013.0 6.8 19.1 19.1 0.0
01/02/18 09:19 18.9 62 11.5 5.4 6.8 195 34.8 0.0 1013.0 3.2 18.9 18.9 0.0
01/02/18 09:20 18.7 63 11.5 4.0 6.8 172 34.8 0.0 1013.0 3.2 18.7 18.7 0.0
01/02/18 09:21 18.7 64 11.7 4.3 6.8 158 34.8 0.0 1013.0 2.5 18.7 18.7 0.0
01/02/18 09:22 18.8 65 12.1 2.5 6.8 202 34.8 0.0 1013.0 4.0 18.8 18.8 0.0
01/02/18 09:23 18.9 65 12.2 2.5 6.8 258 34.8 0.0 1013.0 1.4 18.9 18.9 0.0
01/02/18 09:24 18.8 63 11.6 1.4 6.8 12 34.8 0.0 1013.0 6.5 18.8 18.8 0.0
01/02/18 09:25 18.8 62 11.4 6.1 6.8 356 34.8 0.0 1013.0 3.6 18.8 18.8 0.0
01/02/18 09:26 18.6 62 11.2 4.3 6.8 66 34.8 0.0 1013.0 6.1 18.6 18.6 0.0
01/02/18 09:27 18.6 62 11.2 6.5 9.4 102 34.8 0.0 1013.0 9.4 18.6 18.6 0.0
01/02/18 09:28 18.4 62 11.0 3.6 9.4 125 34.8 0.0 1013.0 2.5 18.4 18.4 0.0
01/02/18 09:29 18.4 63 11.2 2.5 9.4 106 34.8 0.0 1013.0 3.6 18.4 18.4 0.0
01/02/18 09:30 18.2 62 10.8 5.4 9.4 127 34.8 0.0 1013.0 5.0 18.2 18.2 0.0
01/02/18 09:31 18.3 63 11.1 5.8 9.4 119 34.8 0.0 1013.0 2.5 18.3 18.3 0.0
01/02/18 09:32 18.4 63 11.2 3.6 9.4 125 34.8 0.0 1013.0 6.5 18.4 18.4 0.0
01/02/18 09:33 18.3 63 11.1 7.6 9.4 112 34.8 0.0 1013.0 6.1 18.3 18.3 0.0
01/02/18 09:34 18.3 63 11.1 3.6 9.4 109 34.8 0.0 1013.0 2.2 18.3 18.3 0.0
01/02/18 09:35 18.5 64 11.6 1.8 9.4 111 34.8 0.0 1013.0 1.4 18.5 18.5 0.0
01/02/18 09:36 18.9 65 12.2 1.4 9.4 105 34.8 0.0 1013.0 0.0 18.9 18.9 0.0
01/02/18 09:37 19.0 65 12.3 0.0 9.4 95 34.8 0.0 1013.0 4.0 19.0 19.0 0.0
01/02/18 09:38 19.0 64 12.0 3.6 6.5 59 34.8 0.0 1013.0 2.2 19.0 19.0 0.0
01/02/18 09:39 19.0 64 12.0 2.2 6.5 83 34.8 0.0 1013.0 4.3 19.0 19.0 0.0
01/02/18 09:40 19.0 63 11.8 4.0 6.5 63 34.8 0.0 1013.0 2.2 19.0 19.0 0.0
01/02/18 09:41 18.9 63 11.7 3.6 6.5 65 34.8 0.0 1013.0 5.8 18.9 18.9 0.0
01/02/18 09:42 18.8 62 11.4 5.0 6.1 38 34.8 0.0 1013.0 4.7 18.8 18.8 0.0
01/02/18 09:43 18.8 62 11.4 4.0 5.8 92 34.8 0.0 1013.0 5.4 18.8 18.8 0.0
01/02/18 09:44 18.8 61 11.1 6.1 6.1 125 34.8 0.0 1013.0 6.1 18.8 18.8 0.0
01/02/18 09:45 18.6 61 10.9 6.8 6.1 167 34.8 0.0 1013.0 5.8 18.6 18.6 0.0
01/02/18 09:46 18.6 61 10.9 4.7 6.1 155 34.8 0.0 1013.0 4.0 18.6 18.6 0.0
01/02/18 09:47 18.6 61 10.9 4.3 6.1 149 34.8 0.0 1013.0 3.2 18.6 18.6 0.0
01/02/18 09:48 18.6 62 11.2 4.7 9.0 146 34.8 0.0 1013.0 9.0 18.6 18.6 0.0
01/02/18 09:49 18.7 62 11.3 4.7 9.0 141 34.8 0.0 1013.0 4.7 18.7 18.7 0.0
01/02/18 09:50 18.7 61 11.0 4.3 9.0 128 34.8 0.0 1013.0 3.6 18.7 18.7 0.0
01/02/18 09:51 18.8 61 11.1 5.8 9.0 150 34.8 0.0 1013.0 4.7 18.8 18.8 0.0
01/02/18 09:52 18.9 62 11.5 3.2 9.0 148 34.8 0.0 1013.0 4.7 18.9 18.9 0.0
01/02/18 09:53 18.8 61 11.1 4.7 9.0 148 34.8 0.0 1013.0 6.1 18.8 18.8 0.0
01/02/18 09:54 18.6 61 10.9 5.4 9.0 136 34.8 0.0 1013.0 3.6 18.6 18.6 0.0
01/02/18 09:55 18.6 62 11.2 4.3 9.0 120 34.8 0.0 1013.0 0.0 18.6 18.6 0.0
01/02/18 09:56 18.7 63 11.5 1.4 9.0 100 34.8 0.0 1013.0 3.2 18.7 18.7 0.0
01/02/18 09:57 18.8 63 11.6 2.5 9.0 102 34.8 0.0 1013.0 2.5 18.8 18.8 0.0
01/02/18 09:58 18.8 62 11.4 5.8 6.1 43 34.8 0.0 1013.0 2.5 18.8 18.8 0.0
01/02/18 09:59 18.7 61 11.0 4.3 6.1 107 34.8 0.0 1013.0 5.4 18.7 18.7 0.0
01/02/18 10:00 18.6 60 10.7 5.0 6.1 132 34.8 0.0 1013.0 5.4 18.6 18.6 0.0
01/02/18 10:01 18.6 60 10.7 7.2 9.7 123 34.8 0.0 1013.0 9.7 18.6 18.6 0.0
01/02/18 10:02 18.5 60 10.6 6.5 9.7 107 34.8 0.0 1013.0 4.7 18.5 18.5 0.0
01/02/18 10:03 18.6 61 10.9 4.7 9.7 112 34.8 0.0 1013.0 5.0 18.6 18.6 0.0
01/02/18 10:04 18.7 62 11.3 3.6 9.7 120 34.8 0.0 1013.0 9.7 18.7 18.7 0.0
01/02/18 10:05 18.8 61 11.1 5.0 9.7 121 34.8 0.0 1013.0 3.2 18.8 18.8 0.0
01/02/18 10:06 19.0 61 11.3 4.0 9.7 123 34.8 0.0 1013.0 4.7 19.0 19.0 0.0
01/02/18 10:07 19.1 61 11.4 2.5 9.7 130 34.8 0.0 1013.0 1.8 19.1 19.1 0.0
01/02/18 10:08 19.1 61 11.4 3.6 9.7 131 34.8 0.0 1013.0 2.5 19.1 19.1 0.0
01/02/18 10:09 19.2 61 11.5 4.0 9.7 125 34.8 0.0 1013.0 1.8 19.2 19.2 0.0
01/02/18 10:10 19.4 61 11.7 1.4 9.7 129 34.8 0.0 1012.0 5.0 19.4 19.4 0.0
01/02/18 10:11 19.5 62 12.0 4.0 9.7 113 34.8 0.0 1012.0 5.4 19.5 19.5 0.0
01/02/18 10:12 19.5 61 11.8 2.5 9.7 127 34.8 0.0 1012.0 5.4 19.5 19.5 0.0
01/02/18 10:13 19.5 61 11.8 3.6 9.7 133 34.8 0.0 1012.0 4.0 19.5 19.5 0.0
01/02/18 10:14 19.3 60 11.3 3.2 5.4 132 34.8 0.0 1012.0 4.3 19.3 19.3 0.0
01/02/18 10:15 19.3 60 11.3 4.0 5.4 132 34.8 0.0 1012.0 2.2 19.3 19.3 0.0
01/02/18 10:16 19.3 61 11.6 3.6 5.4 110 34.8 0.0 1012.0 5.0 19.3 19.3 0.0
01/02/18 10:17 19.2 61 11.5 4.3 5.4 113 34.8 0.0 1012.0 4.0 19.2 19.2 0.0
01/02/18 10:18 19.2 61 11.5 2.5 5.4 121 34.8 0.0 1012.0 0.0 19.2 19.2 0.0
01/02/18 10:19 19.4 62 11.9 1.4 5.4 113 34.8 0.0 1012.0 2.5 19.4 19.4 0.0
01/02/18 10:20 19.5 62 12.0 2.2 5.8 112 34.8 0.0 1012.0 5.8 19.5 19.5 0.0
01/02/18 10:21 19.4 60 11.4 4.7 5.8 119 34.8 0.0 1012.0 2.2 19.4 19.4 0.0
01/02/18 10:22 19.5 61 11.8 1.4 5.8 110 34.8 0.0 1012.0 4.0 19.5 19.5 0.0
01/02/18 10:23 19.5 61 11.8 2.2 5.8 100 34.8 0.0 1012.0 5.4 19.5 19.5 0.0
01/02/18 10:24 19.6 60 11.6 4.7 5.8 109 34.8 0.0 1012.0 5.8 19.6 19.6 0.0
01/02/18 10:25 19.6 60 11.6 4.3 5.8 113 34.8 0.0 1013.0 5.0 19.6 19.6 0.0
01/02/18 10:26 19.8 61 12.1 4.3 5.8 131 34.8 0.0 1013.0 2.5 19.8 19.8 0.0
01/02/18 10:27 19.9 61 12.2 2.2 5.8 131 34.8 0.0 1013.0 1.8 19.9 19.9 0.0
01/02/18 10:28 20.2 61 12.4 1.8 5.8 118 34.8 0.0 1013.0 4.0 20.2 20.2 0.0
01/02/18 10:29 20.5 60 12.5 1.8 5.8 130 34.8 0.0 1013.0 4.7 20.5 20.5 0.0
01/02/18 10:30 20.4 59 12.1 3.6 5.8 130 34.8 0.0 1013.0 4.0 20.4 20.4 0.0
01/02/18 10:31 20.4 59 12.1 4.7 5.8 135 34.8 0.0 1013.0 3.2 20.4 20.4 0.0
01/02/18 10:32 20.0 56 11.0 6.8 9.7 119 34.8 0.0 1013.0 9.7 20.0 20.0 0.0
01/02/18 10:33 19.7 56 10.7 6.8 9.7 120 34.8 0.0 1013.0 6.8 19.7 19.7 0.0
01/02/18 10:34 19.7 57 10.9 5.8 9.7 113 34.8 0.0 1013.0 5.8 19.7 19.7 0.0
01/02/18 10:35 19.7 57 10.9 4.3 9.7 105 34.8 0.0 1013.0 5.0 19.7 19.7 0.0
01/02/18 10:36 19.7 57 10.9 3.6 9.7 101 34.8 0.0 1013.0 3.2 19.7 19.7 0.0
01/02/18 10:37 19.9 58 11.4 2.5 9.7 95 34.8 0.0 1013.0 3.2 19.9 19.9 0.0
01/02/18 10:38 19.9 58 11.4 3.6 9.7 94 34.8 0.0 1013.0 5.8 19.9 19.9 0.0
01/02/18 10:39 19.9 57 11.1 5.0 9.7 81 34.8 0.0 1013.0 9.0 19.9 19.9 0.0
01/02/18 10:40 19.9 57 11.1 5.4 9.7 81 34.8 0.0 1014.0 4.0 19.9 19.9 0.0
01/02/18 10:41 19.8 57 11.0 5.0 9.7 72 34.8 0.0 1014.0 6.8 19.8 19.8 0.0
01/02/18 10:42 19.8 57 11.0 6.1 9.0 86 34.8 0.0 1014.0 5.8 19.8 19.8 0.0
01/02/18 10:43 19.7 57 10.9 6.1 9.0 76 34.8 0.0 1014.0 1.8 19.7 19.7 0.0
01/02/18 10:44 19.9 58 11.4 4.3 9.0 74 34.8 0.0 1014.0 4.0 19.9 19.9 0.0
01/02/18 10:45 20.1 58 11.6 4.0 9.0 74 34.8 0.0 1014.0 4.0 20.1 20.1 0.0
01/02/18 10:46 20.2 58 11.7 3.2 9.0 73 34.8 0.0 1014.0 2.5 20.2 20.2 0.0
01/02/18 10:47 20.2 57 11.4 5.4 9.0 72 34.8 0.0 1014.0 2.5 20.2 20.2 0.0
01/02/18 10:48 20.3 57 11.5 4.0 9.0 79 34.8 0.0 1014.0 4.3 20.3 20.3 0.0
01/02/18 10:49 20.3 57 11.5 5.8 6.8 108 34.8 0.0 1014.0 6.8 20.3 20.3 0.0
01/02/18 10:50 20.1 56 11.0 5.4 7.9 100 34.8 0.0 1014.0 7.9 20.1 20.1 0.0
01/02/18 10:51 19.9 56 10.9 4.7 7.9 89 34.8 0.0 1014.0 4.7 19.9 19.9 0.0
01/02/18 10:52 19.6 56 10.6 4.7 7.9 107 34.8 0.0 1014.0 6.1 19.6 19.6 0.0
01/02/18 10:53 19.5 56 10.5 6.1 7.9 130 34.8 0.0 1014.0 5.8 19.5 19.5 0.0
01/02/18 10:54 19.5 57 10.8 5.0 7.9 145 34.8 0.0 1014.0 6.8 19.5 19.5 0.0
01/02/18 10:55 19.6 57 10.8 4.0 11.9 148 34.8 0.0 1014.0 11.9 19.6 19.6 0.0
01/02/18 10:56 19.7 56 10.7 6.8 11.9 133 34.8 0.0 1014.0 7.9 19.7 19.7 0.0
01/02/18 10:57 19.6 56 10.6 5.8 11.9 134 34.8 0.0 1014.0 4.3 19.6 19.6 0.0
01/02/18 10:58 19.7 57 10.9 5.0 11.9 133 34.8 0.0 1014.0 2.2 19.7 19.7 0.0
01/02/18 10:59 20.0 57 11.2 2.5 11.9 133 34.8 0.0 1014.0 5.0 20.0 20.0 0.0
01/02/18 11:00 20.1 57 11.3 5.4 11.9 123 34.8 0.0 1014.0 4.7 20.1 20.1 0.0
01/02/18 11:01 20.1 56 11.0 5.0 11.9 131 34.8 0.0 1014.0 4.7 20.1 20.1 0.0
01/02/18 11:02 20.0 55 10.7 6.8 11.9 131 34.8 0.0 1014.0 9.0 20.0 20.0 0.0
01/02/18 11:03 20.0 55 10.7 6.8 11.9 126 34.8 0.0 1014.0 5.0 20.0 20.0 0.0
01/02/18 11:04 19.9 56 10.9 4.3 11.9 132 34.8 0.0 1014.0 4.3 19.9 19.9 0.0
01/02/18 11:05 19.8 55 10.5 6.1 9.0 115 34.8 0.0 1014.0 2.5 19.8 19.8 0.0
01/02/18 11:06 19.9 56 10.9 4.0 9.0 119 34.8 0.0 1014.0 5.8 19.9 19.9 0.0
01/02/18 11:07 20.0 56 11.0 5.0 9.0 129 34.8 0.0 1014.0 5.8 20.0 20.0 0.0
01/02/18 11:11 20.5 57 11.7 2.2 9.0 135 34.8 0.0 1013.0 3.2 20.5 20.5 0.0
01/02/18 11:12 20.7 57 11.9 2.5 5.8 119 34.8 0.0 1013.0 3.6 20.7 20.7 0.0
01/02/18 11:13 20.9 57 12.1 2.2 5.8 138 34.8 0.0 1013.0 4.0 20.9 20.9 0.0
01/02/18 11:14 21.0 56 11.9 4.0 5.8 113 34.8 0.0 1013.0 2.2 21.0 21.0 0.0
01/02/18 11:15 21.2 56 12.1 2.5 5.8 137 34.8 0.0 1013.0 1.4 21.2 21.2 0.0
01/02/18 11:16 21.4 56 12.3 3.2 5.8 197 34.8 0.0 1013.0 2.2 21.4 21.4 0.0
01/02/18 11:17 21.6 56 12.4 2.5 4.0 234 34.8 0.0 1013.0 3.2 21.6 21.6 0.0
01/02/18 11:18 21.5 55 12.1 4.0 4.0 218 34.8 0.0 1013.0 3.2 21.5 21.5 0.0
01/02/18 11:19 21.5 55 12.1 4.0 5.0 209 34.8 0.0 1013.0 5.0 21.5 21.5 0.0
01/02/18 11:20 21.3 54 11.6 4.7 5.0 230 34.8 0.0 1013.0 2.2 21.3 21.3 0.0
01/02/18 11:21 21.2 55 11.8 2.5 5.0 215 34.8 0.0 1013.0 4.0 21.2 21.2 0.0
01/02/18 11:22 21.1 55 11.7 5.0 5.0 259 34.8 0.0 1013.0 4.0 21.1 21.1 0.0
01/02/18 11:23 21.0 53 11.1 4.3 9.4 131 34.8 0.0 1013.0 9.4 21.0 21.0 0.0
01/02/18 11:24 21.0 53 11.1 7.6 9.4 126 34.8 0.0 1013.0 4.7 21.0 21.0 0.0
01/02/18 11:25 21.0 54 11.3 4.0 9.4 137 34.8 0.0 1013.0 4.0 21.0 21.0 0.0
01/02/18 11:26 20.8 53 10.9 5.4 9.4 131 34.8 0.0 1013.0 3.2 20.8 20.8 0.0
01/02/18 11:27 21.1 54 11.4 3.2 9.4 125 34.8 0.0 1013.0 3.6 21.1 21.1 0.0
01/02/18 11:28 21.3 54 11.6 4.0 9.4 129 34.8 0.0 1013.0 4.3 21.3 21.3 0.0
01/02/18 11:29 21.4 54 11.7 5.4 9.4 140 34.8 0.0 1013.0 7.9 21.4 21.4 0.0
01/02/18 11:30 21.4 53 11.4 6.1 9.4 141 34.8 0.0 1013.0 4.7 21.4 21.4 0.0
01/02/18 11:31 21.4 53 11.4 5.4 9.4 138 34.8 0.0 1013.0 3.6 21.4 21.4 0.0
01/02/18 11:32 21.6 55 12.2 4.0 9.4 142 34.8 0.0 1013.0 3.2 21.6 21.6 0.0
01/02/18 11:33 21.8 55 12.4 1.8 9.4 141 34.8 0.0 1013.0 5.0 21.8 21.8 0.0
01/02/18 11:34 21.9 54 12.2 5.0 7.9 141 34.8 0.0 1013.0 2.5 21.9 21.9 0.0
01/02/18 11:35 22.0 53 12.0 4.0 7.9 130 34.8 0.0 1013.0 1.8 22.0 22.0 0.0
01/02/18 11:36 21.9 53 11.9 4.3 7.9 131 34.8 0.0 1013.0 5.0 21.9 21.9 0.0
01/02/18 11:37 21.4 52 11.1 5.4 7.9 140 34.8 0.0 1013.0 6.1 21.4 21.4 0.0
01/02/18 11:38 21.4 53 11.4 5.8 7.9 131 34.8 0.0 1013.0 2.2 21.4 21.4 0.0
01/02/18 11:39 21.5 53 11.5 5.8 6.1 130 34.8 0.0 1013.0 2.2 21.5 21.5 0.0
01/02/18 11:40 21.5 53 11.5 5.8 6.1 129 34.8 0.0 1013.0 2.2 21.5 21.5 0.0
01/02/18 11:41 21.4 52 11.1 4.7 6.1 136 34.8 0.0 1013.0 4.3 21.4 21.4 0.0
01/02/18 11:42 21.3 53 11.3 4.7 6.1 136 34.8 0.0 1013.0 2.2 21.3 21.3 0.0
01/02/18 11:43 21.4 53 11.4 3.2 6.1 136 34.8 0.0 1013.0 2.2 21.4 21.4 0.0
01/02/18 11:44 21.5 53 11.5 4.0 6.1 140 34.8 0.0 1013.0 0.0 21.5 21.5 0.0
01/02/18 11:45 22.0 54 12.3 1.4 6.1 143 34.8 0.0 1013.0 3.2 22.0 22.0 0.0
01/02/18 11:46 22.0 53 12.0 4.0 6.5 160 34.8 0.0 1013.0 6.5 22.0 22.0 0.0
01/02/18 11:47 21.8 52 11.5 6.5 6.5 156 34.8 0.0 1013.0 1.8 21.8 21.8 0.0
01/02/18 11:48 21.7 52 11.4 4.3 6.5 163 34.8 0.0 1013.0 4.7 21.7 21.7 0.0
01/02/18 11:49 21.5 52 11.2 6.1 6.5 157 34.8 0.0 1013.0 6.5 21.5 21.5 0.0
01/02/18 11:50 21.5 52 11.2 4.7 13.7 167 34.8 0.0 1013.0 13.7 21.5 21.5 0.0
01/02/18 11:51 21.2 52 10.9 7.9 13.7 172 34.8 0.0 1013.0 6.8 21.2 21.2 0.0
01/02/18 11:52 21.2 52 10.9 3.6 13.7 168 34.8 0.0 1013.0 6.1 21.2 21.2 0.0
01/02/18 11:53 21.3 53 11.3 5.0 13.7 174 34.8 0.0 1013.0 2.2 21.3 21.3 0.0
01/02/18 11:54 21.3 53 11.3 2.5 13.7 176 34.8 0.0 1013.0 2.2 21.3 21.3 0.0
01/02/18 11:55 21.7 54 12.0 2.2 13.7 179 34.8 0.0 1013.0 1.8 21.7 21.7 0.0
01/02/18 11:56 21.9 53 11.9 3.2 13.7 184 34.8 0.0 1013.0 9.0 21.9 21.9 0.0
01/02/18 11:57 21.7 52 11.4 4.7 13.7 174 34.8 0.0 1013.0 6.8 21.7 21.7 0.0
01/02/18 11:58 21.5 52 11.2 5.0 13.7 166 34.8 0.0 1013.0 7.6 21.5 21.5 0.0
01/02/18 11:59 21.4 52 11.1 4.7 13.7 167 34.8 0.0 1013.0 5.0 21.4 21.4 0.0
01/02/18 12:00 21.4 52 11.1 5.0 9.0 151 34.8 0.0 1013.0 6.5 21.4 21.4 0.0
01/02/18 12:01 21.3 52 11.0 5.0 9.0 110 34.8 0.0 1013.0 4.3 21.3 21.3 0.0
01/02/18 13:08 21.1 52 10.9 6.5 6.8 135 34.8 0.0 1013.0 5.8 21.3 21.1 0.0
01/02/18 13:09 21.0 53 11.1 6.5 6.8 135 34.8 0.0 1013.0 5.8 21.1 21.0 0.0
01/02/18 13:10 20.9 53 11.0 5.0 6.8 118 34.8 0.0 1013.0 4.7 20.9 20.9 0.0
01/02/18 13:11 20.9 54 11.2 5.0 6.8 135 34.8 0.0 1013.0 4.7 20.9 20.9 0.0
01/02/18 13:12 20.7 53 10.8 6.1 6.8 149 34.8 0.0 1013.0 4.3 20.7 20.7 0.0
01/02/18 13:13 20.5 53 10.6 6.1 6.8 146 34.8 0.0 1013.0 4.3 20.7 20.5 0.0
01/02/18 13:14 20.5 54 10.9 2.5 7.2 135 34.8 0.0 1013.0 7.2 20.5 20.5 0.0
01/02/18 13:15 20.5 54 10.9 3.6 7.2 118 34.8 0.0 1013.0 1.8 20.5 20.5 0.0
01/02/18 13:16 20.7 54 11.1 3.2 7.2 107 34.8 0.0 1013.0 2.5 20.7 20.7 0.0
01/02/18 13:17 20.6 55 11.2 3.6 7.2 99 34.8 0.0 1013.0 5.0 20.6 20.6 0.0
01/02/18 13:18 20.5 54 10.9 3.6 7.2 89 34.8 0.0 1013.0 5.0 20.6 20.5 0.0
01/02/18 13:19 20.4 54 10.8 3.6 7.2 72 34.8 0.0 1013.0 5.0 20.5 20.4 0.0
01/02/18 13:20 20.5 55 11.1 2.2 7.2 80 34.8 0.0 1013.0 4.0 20.5 20.5 0.0
01/02/18 13:21 20.4 54 10.8 5.0 7.2 75 34.8 0.0 1013.0 5.4 20.4 20.4 0.0
01/02/18 13:22 20.3 54 10.7 4.7 7.2 70 34.8 0.0 1013.0 3.2 20.3 20.3 0.0
01/02/18 13:23 20.3 54 10.7 4.0 7.2 75 34.8 0.0 1013.0 5.0 20.3 20.3 0.0
01/02/18 13:24 20.4 54 10.8 5.8 7.2 88 34.8 0.0 1013.0 5.4 20.3 20.4 0.0
01/02/18 13:25 20.5 55 11.1 5.8 6.8 86 34.8 0.0 1013.0 6.5 20.4 20.5 0.0
01/02/18 13:26 20.5 55 11.1 4.7 8.6 85 34.8 0.0 1013.0 7.6 20.5 20.5 0.0
01/02/18 13:27 20.5 54 10.9 4.7 8.6 83 34.8 0.0 1013.0 5.8 20.5 20.5 0.0
01/02/18 13:28 20.4 54 10.8 4.7 8.6 78 34.8 0.0 1013.0 5.0 20.5 20.4 0.0
01/02/18 13:29 20.3 54 10.7 4.7 8.6 76 34.8 0.0 1013.0 5.0 20.4 20.3 0.0
01/02/18 13:30 20.3 55 11.0 3.6 8.6 82 34.8 0.0 1013.0 3.6 20.3 20.3 0.0
01/02/18 13:31 20.2 55 10.9 3.6 8.6 87 34.8 0.0 1013.0 3.6 20.2 20.2 0.0
01/02/18 13:32 20.3 56 11.2 3.6 8.6 95 34.8 0.0 1013.0 3.2 20.3 20.3 0.0
01/02/18 13:33 20.6 56 11.5 1.8 8.6 103 34.8 0.0 1013.0 1.4 20.3 20.6 0.0
01/02/18 13:34 20.9 56 11.8 1.8 8.6 85 34.8 0.0 1013.0 1.4 20.6 20.9 0.0
01/02/18 13:35 21.0 56 11.9 3.6 8.6 77 34.8 0.0 1013.0 2.5 21.0 21.0 0.0
01/02/18 13:36 20.8 55 11.4 5.0 7.6 91 34.8 0.0 1013.0 6.1 20.8 20.8 0.0
01/02/18 13:37 20.7 55 11.3 5.0 7.6 100 34.8 0.0 1013.0 6.1 20.8 20.7 0.0
01/02/18 13:38 20.8 55 11.4 3.6 6.1 142 34.8 0.0 1013.0 4.3 20.8 20.8 0.0
01/02/18 13:39 20.9 56 11.8 3.6 6.1 150 34.8 0.0 1013.0 3.2 20.8 20.9 0.0
01/02/18 13:40 21.0 55 11.6 2.5 6.1 158 34.8 0.0 1013.0 0.0 21.0 21.0 0.0
01/02/18 13:41 21.2 55 11.8 3.2 6.1 141 34.8 0.0 1013.0 6.1 21.2 21.2 0.0
01/02/18 13:42 21.0 54 11.3 7.9 9.7 133 34.8 0.0 1013.0 4.0 21.0 21.0 0.0
01/02/18 13:43 21.0 54 11.3 7.9 9.7 131 34.8 0.0 1013.0 4.0 21.0 21.0 0.0
01/02/18 13:44 21.1 55 11.7 3.2 9.7 121 34.8 0.0 1013.0 6.1 21.1 21.1 0.0
01/02/18 13:45 21.2 54 11.5 5.0 9.7 140 34.8 0.0 1013.0 2.2 21.2 21.2 0.0
01/02/18 13:46 21.5 55 12.1 2.5 9.7 154 34.8 0.0 1013.0 3.6 21.4 21.5 0.0
01/02/18 13:47 21.4 54 11.7 5.4 9.7 139 34.8 0.0 1013.0 5.8 21.4 21.4 0.0
01/02/18 13:48 21.3 54 11.6 5.8 9.7 135 34.8 0.0 1013.0 4.0 21.3 21.3 0.0
01/02/18 13:49 21.4 53 11.4 5.0 9.7 141 34.8 0.0 1013.0 2.5 21.4 21.4 0.0
01/02/18 13:50 21.6 54 11.9 2.2 9.7 139 34.8 0.0 1013.0 2.2 21.6 21.6 0.0
01/02/18 13:51 21.7 53 11.7 5.0 9.7 136 34.8 0.0 1013.0 6.1 21.7 21.7 0.0
01/02/18 13:52 21.8 54 12.1 5.4 8.6 138 34.8 0.0 1013.0 5.4 21.8 21.8 0.0
01/02/18 13:53 21.9 53 11.9 4.0 8.6 137 34.8 0.0 1012.0 4.7 21.9 21.9 0.0
01/02/18 13:54 21.9 53 11.9 4.3 8.6 141 34.8 0.0 1012.0 7.6 21.9 21.9 0.0
01/02/18 13:55 21.6 52 11.3 5.4 9.7 135 34.8 0.0 1012.0 4.7 21.6 21.6 0.0
01/02/18 13:56 21.3 52 11.0 5.4 11.5 142 34.8 0.0 1012.0 11.5 21.6 21.3 0.0
01/02/18 13:57 21.2 53 11.2 5.4 11.5 139 34.8 0.0 1012.0 11.5 21.3 21.2 0.0
01/02/18 13:58 21.2 53 11.2 5.4 11.5 160 34.8 0.0 1012.0 11.5 21.2 21.2 0.0
01/02/18 13:59 21.1 53 11.1 5.4 11.5 175 34.8 0.0 1012.0 2.5 21.1 21.1 0.0
01/02/18 14:00 21.2 53 11.2 1.4 11.5 177 34.8 0.0 1012.0 0.0 21.2 21.2 0.0
01/02/18 14:02 21.1 53 11.1 5.0 11.5 132 0.0 0.0 1012.0 6.8 21.1 21.1 0.0
01/02/18 14:03 21.1 53 11.1 4.3 11.5 123 0.0 0.0 1012.0 6.5 21.1 21.1 0.0
01/02/18 14:04 21.1 53 11.1 5.4 11.5 126 0.0 0.0 1012.0 2.5 21.1 21.1 0.0
01/02/18 14:05 21.2 54 11.5 2.2 11.5 127 0.0 0.0 1012.0 1.8 21.2 21.2 0.0
01/02/18 14:06 21.4 54 11.7 2.2 11.5 129 0.0 0.0 1012.0 2.5 21.2 21.4 0.0
01/02/18 14:07 21.4 54 11.7 2.2 11.5 129 0.0 0.0 1012.0 2.5 21.4 21.4 0.0
01/02/18 14:08 21.4 54 11.7 4.7 11.5 117 0.0 0.0 1012.0 4.7 21.4 21.4 0.0
01/02/18 14:09 20.9 53 11.0 4.7 9.0 81 0.0 0.0 1012.0 6.5 20.9 20.9 0.0
01/02/18 14:10 20.7 54 11.1 6.1 9.0 91 0.0 0.0 1012.0 2.5 20.7 20.7 0.0
01/02/18 14:11 20.7 54 11.1 3.2 9.0 101 0.0 0.0 1012.0 8.6 20.7 20.7 0.0
01/02/18 14:12 20.6 54 11.0 5.0 9.0 104 0.0 0.0 1012.0 5.0 20.6 20.6 0.0
01/02/18 14:13 20.7 55 11.3 3.6 9.0 120 0.0 0.0 1012.0 1.4 20.7 20.7 0.0
01/02/18 14:14 20.8 55 11.4 3.2 9.7 120 0.0 0.0 1012.0 6.8 20.8 20.8 0.0
01/02/18 14:15 20.8 55 11.4 4.0 9.7 124 0.0 0.0 1012.0 5.4 20.8 20.8 0.0
01/02/18 14:16 20.4 54 10.8 5.8 11.2 100 0.0 0.0 1012.0 11.2 20.6 20.4 0.0
01/02/18 14:17 20.4 54 10.8 5.8 11.2 100 0.0 0.0 1012.0 11.2 20.6 20.4 0.0
01/02/18 14:18 20.4 54 10.8 5.8 11.2 100 0.0 0.0 1012.0 11.2 20.6 20.4 0.0
01/02/18 14:19 20.2 55 10.9 5.8 11.2 105 0.0 0.0 1012.0 11.2 20.4 20.2 0.0
01/02/18 14:20 20.3 55 11.0 5.8 11.2 106 0.0 0.0 1012.0 11.2 20.2 20.3 0.0
01/02/18 14:21 20.3 56 11.2 5.8 11.2 95 0.0 0.0 1012.0 11.2 20.3 20.3 0.0
01/02/18 14:22 20.3 56 11.2 5.8 11.2 81 0.0 0.0 1012.0 11.2 20.3 20.3 0.0
01/02/18 14:23 20.4 56 11.3 5.8 11.2 73 0.0 0.0 1012.0 11.2 20.3 20.4 0.0
01/02/18 14:24 20.3 56 11.2 5.8 11.2 62 0.0 0.0 1012.0 11.2 20.4 20.3 0.0
01/02/18 14:25 20.3 56 11.2 5.8 11.2 62 0.0 0.0 1012.0 11.2 20.4 20.3 0.0
01/02/18 14:26 20.1 56 11.0 5.8 11.2 46 0.0 0.0 1012.0 11.2 20.3 20.1 0.0
01/02/18 14:27 20.1 56 11.0 5.8 11.2 46 0.0 0.0 1012.0 11.2 20.3 20.1 0.0
01/02/18 14:28 19.8 56 10.8 5.8 11.2 46 0.0 0.0 1012.0 11.2 20.1 19.8 0.0
01/02/18 14:29 19.8 57 11.0 5.8 11.2 46 0.0 0.0 1012.0 11.2 19.8 19.8 0.0
01/02/18 14:30 19.8 57 11.0 5.8 11.2 46 0.0 0.0 1012.0 11.2 19.8 19.8 0.0
01/02/18 14:31 19.8 58 11.3 5.8 11.2 46 0.0 0.0 1012.0 11.2 19.8 19.8 0.0
01/02/18 14:32 19.9 58 11.4 5.8 11.2 46 0.0 0.0 1012.0 11.2 19.8 19.9 0.0
01/02/18 14:33 19.8 57 11.0 5.8 11.2 46 0.0 0.0 1012.0 11.2 19.8 19.8 0.0
01/02/18 14:34 19.8 57 11.0 5.8 11.2 46 0.0 0.0 1012.0 11.2 19.8 19.8 0.0
01/02/18 14:35 19.8 58 11.3 5.8 11.2 46 0.0 0.0 1012.0 11.2 19.8 19.8 0.0
01/02/18 14:36 19.8 57 11.0 5.8 11.2 46 0.0 0.0 1012.0 11.2 19.8 19.8 0.0
01/02/18 14:37 19.8 58 11.3 5.8 11.2 46 0.0 0.0 1012.0 11.2 19.8 19.8 0.0
01/02/18 14:38 19.9 58 11.4 3.6 11.2 68 0.0 0.0 1012.0 9.7 19.9 19.9 0.0
01/02/18 14:39 19.7 57 10.9 5.0 11.2 87 0.0 0.0 1012.0 5.4 19.8 19.7 0.0
01/02/18 14:40 19.6 58 11.1 5.8 11.2 108 0.0 0.0 1012.0 3.2 19.7 19.6 0.0
01/02/18 14:41 19.7 58 11.2 5.8 9.7 124 0.0 0.0 1012.0 3.2 19.6 19.7 0.0
01/02/18 14:42 19.8 59 11.6 2.2 9.7 125 0.0 0.0 1012.0 3.2 19.8 19.8 0.0
01/02/18 14:43 19.8 59 11.6 2.5 9.7 122 0.0 0.0 1012.0 3.2 19.8 19.8 0.0
01/02/18 14:44 19.9 59 11.6 2.2 9.7 114 0.0 0.0 1012.0 4.7 19.9 19.9 0.0
01/02/18 14:45 19.8 59 11.6 5.0 9.7 124 0.0 0.0 1012.0 3.2 19.8 19.8 0.0
01/02/18 14:46 19.7 58 11.2 5.0 9.7 126 0.0 0.0 1012.0 3.2 19.8 19.7 0.0
01/02/18 14:47 19.7 59 11.5 5.0 9.7 132 0.0 0.0 1012.0 3.2 19.7 19.7 0.0
01/02/18 14:48 19.7 59 11.5 5.0 9.7 132 0.0 0.0 1012.0 3.2 19.7 19.7 0.0
01/02/18 14:49 19.7 59 11.5 5.0 5.4 149 0.0 0.0 1012.0 3.2 19.7 19.7 0.0
01/02/18 14:50 19.7 59 11.5 5.0 5.4 170 0.0 0.0 1012.0 3.2 19.7 19.7 0.0
01/02/18 14:51 19.6 59 11.4 5.0 5.4 196 0.0 0.0 1012.0 3.2 19.7 19.6 0.0
01/02/18 14:52 19.5 59 11.3 5.0 5.4 210 0.0 0.0 1012.0 3.2 19.6 19.5 0.0
01/02/18 14:53 19.6 60 11.6 5.0 5.4 231 0.0 0.0 1012.0 3.2 19.5 19.6 0.0
01/02/18 14:54 19.6 60 11.6 1.8 5.4 226 0.0 0.0 1012.0 3.2 19.6 19.6 0.0
01/02/18 14:55 19.6 59 11.4 1.8 3.2 231 0.0 0.0 1012.0 3.2 19.6 19.6 0.0
01/02/18 14:56 19.6 59 11.4 4.7 3.2 215 0.0 0.0 1012.0 3.2 19.6 19.6 0.0
01/02/18 14:57 19.5 59 11.3 4.3 4.7 203 0.0 0.0 1012.0 4.7 19.6 19.5 0.0
01/02/18 14:58 19.5 59 11.3 4.0 4.7 186 0.0 0.0 1012.0 4.7 19.5 19.5 0.0
01/02/18 14:59 19.4 59 11.2 5.4 11.9 182 0.0 0.0 1012.0 2.2 19.4 19.4 0.0
01/02/18 15:00 19.4 59 11.2 3.6 11.9 174 0.0 0.0 1012.0 5.4 19.4 19.4 0.0
01/02/18 15:02 19.7 60 11.7 1.8 5.4 212 0.0 0.0 1012.0 2.2 19.7 19.7 0.0
01/02/18 15:03 19.7 59 11.5 1.8 5.4 215 0.0 0.0 1012.0 2.2 19.7 19.7 0.0
01/02/18 15:04 19.7 59 11.5 3.6 6.8 192 0.0 0.0 1012.0 6.8 19.7 19.7 0.0
01/02/18 15:05 19.8 59 11.6 3.6 6.8 188 0.0 0.0 1012.0 1.8 19.7 19.8 0.0
01/02/18 15:06 19.8 59 11.6 2.5 6.8 179 0.0 0.0 1012.0 4.3 19.8 19.8 0.0
01/02/18 15:07 19.7 59 11.5 3.6 9.7 152 0.0 0.0 1012.0 9.7 19.7 19.7 0.0
01/02/18 15:08 19.5 58 11.0 3.6 9.7 121 0.0 0.0 1011.0 9.7 19.7 19.5 0.0
01/02/18 15:09 19.3 59 11.1 3.6 9.7 82 0.0 0.0 1011.0 9.7 19.4 19.3 0.0
01/02/18 15:10 19.3 59 11.1 3.6 9.7 71 0.0 0.0 1011.0 9.7 19.3 19.3 0.0
01/02/18 15:11 19.4 60 11.4 1.4 9.7 60 0.0 0.0 1011.0 2.2 19.3 19.4 0.0
01/02/18 15:12 19.5 60 11.5 1.4 9.7 57 0.0 0.0 1011.0 2.2 19.4 19.5 0.0
01/02/18 15:13 19.6 61 11.9 1.4 9.7 56 0.0 0.0 1011.0 2.2 19.5 19.6 0.0
01/02/18 15:14 19.6 60 11.6 1.4 9.7 50 0.0 0.0 1011.0 2.2 19.6 19.6 0.0
01/02/18 15:15 19.6 60 11.6 1.4 9.7 41 0.0 0.0 1011.0 2.2 19.6 19.6 0.0
01/02/18 15:16 19.6 60 11.6 1.4 9.7 39 0.0 0.0 1011.0 2.2 19.6 19.6 0.0
01/02/18 15:17 19.5 60 11.5 1.4 9.7 31 0.0 0.0 1011.0 2.2 19.6 19.5 0.0
01/02/18 15:18 19.5 60 11.5 1.4 9.7 27 0.0 0.0 1011.0 2.2 19.5 19.5 0.0
01/02/18 15:19 19.5 60 11.5 1.4 9.7 21 0.0 0.0 1011.0 2.2 19.5 19.5 0.0
01/02/18 15:20 19.5 60 11.5 1.4 9.7 12 0.0 0.0 1011.0 2.2 19.5 19.5 0.0
01/02/18 15:21 19.5 60 11.5 1.4 2.2 1 0.0 0.0 1011.0 2.2 19.5 19.5 0.0
01/02/18 15:22 19.5 60 11.5 1.4 2.2 1 0.0 0.0 1011.0 2.2 19.5 19.5 0.0
01/02/18 15:23 19.4 60 11.4 1.4 2.2 1 0.0 0.0 1012.0 2.2 19.5 19.4 0.0
01/02/18 15:24 19.2 59 11.0 1.4 2.2 1 0.0 0.0 1012.0 2.2 19.3 19.2 0.0
01/02/18 15:25 19.1 60 11.1 1.4 2.2 1 0.0 0.0 1012.0 2.2 19.2 19.1 0.0
01/02/18 15:26 19.1 60 11.1 1.4 2.2 1 0.0 0.0 1012.0 2.2 19.2 19.1 0.0
01/02/18 15:27 19.1 60 11.1 1.4 2.2 1 0.0 0.0 1012.0 2.2 19.2 19.1 0.0
01/02/18 15:28 19.2 60 11.2 3.2 4.3 1 0.0 0.0 1012.0 4.3 19.2 19.2 0.0
01/02/18 15:29 19.2 60 11.2 4.0 4.3 3 0.0 0.0 1012.0 1.4 19.2 19.2 0.0
01/02/18 15:30 19.2 60 11.2 4.0 4.3 6 0.0 0.0 1012.0 1.4 19.2 19.2 0.0
01/02/18 15:31 19.3 61 11.6 2.2 4.3 16 0.0 0.0 1012.0 4.0 19.3 19.3 0.0
01/02/18 15:32 19.4 61 11.7 2.2 4.3 24 0.0 0.0 1012.0 0.0 19.3 19.4 0.0
01/02/18 15:33 19.4 60 11.4 5.0 11.2 33 0.0 0.0 1012.0 6.5 19.4 19.4 0.0
01/02/18 15:34 19.3 60 11.3 6.8 11.2 74 0.0 0.0 1012.0 5.0 19.4 19.3 0.0
01/02/18 15:35 19.1 60 11.1 6.8 11.2 85 0.0 0.0 1012.0 5.0 19.3 19.1 0.0
01/02/18 15:36 19.1 60 11.1 4.0 11.2 85 0.0 0.0 1012.0 8.6 19.1 19.1 0.0
01/02/18 15:37 19.1 60 11.1 4.0 11.2 79 0.0 0.0 1012.0 8.6 19.1 19.1 0.0
01/02/18 15:38 19.2 60 11.2 4.0 11.2 75 0.0 0.0 1012.0 8.6 19.1 19.2 0.0
01/02/18 15:39 19.2 61 11.5 4.0 11.2 75 0.0 0.0 1012.0 8.6 19.2 19.2 0.0
01/02/18 15:40 19.4 61 11.7 2.2 11.2 72 0.0 0.0 1012.0 3.2 19.4 19.4 0.0
01/02/18 15:41 19.5 61 11.8 2.2 11.2 77 0.0 0.0 1012.0 4.3 19.5 19.5 0.0
01/02/18 15:42 19.5 61 11.8 2.2 11.2 82 0.0 0.0 1012.0 4.3 19.5 19.5 0.0
01/02/18 15:43 19.4 60 11.4 2.2 10.1 78 0.0 0.0 1012.0 4.3 19.5 19.4 0.0
01/02/18 15:44 19.4 60 11.4 2.2 8.6 90 0.0 0.0 1012.0 4.3 19.4 19.4 0.0
01/02/18 15:45 19.3 61 11.6 2.2 8.6 87 0.0 0.0 1012.0 4.3 19.4 19.3 0.0
01/02/18 15:46 19.3 61 11.6 2.2 8.6 87 0.0 0.0 1012.0 4.3 19.3 19.3 0.0
01/02/18 15:47 19.2 61 11.5 2.2 8.6 116 0.0 0.0 1012.0 4.3 19.2 19.2 0.0
01/02/18 15:48 19.2 61 11.5 2.2 8.6 137 0.0 0.0 1012.0 4.3 19.2 19.2 0.0
01/02/18 15:49 19.3 62 11.8 2.2 8.6 154 0.0 0.0 1012.0 4.3 19.2 19.3 0.0
01/02/18 15:50 19.3 62 11.8 2.2 8.6 166 0.0 0.0 1012.0 4.3 19.3 19.3 0.0
01/02/18 15:51 19.3 62 11.8 2.2 4.3 177 0.0 0.0 1012.0 4.3 19.3 19.3 0.0
01/02/18 15:52 19.3 62 11.8 2.2 4.3 181 0.0 0.0 1012.0 4.3 19.3 19.3 0.0
01/02/18 15:53 19.3 62 11.8 4.3 6.5 174 0.0 0.0 1011.0 6.5 19.3 19.3 0.0
01/02/18 15:54 19.2 61 11.5 4.3 6.5 170 0.0 0.0 1011.0 6.5 19.3 19.2 0.0
01/02/18 15:55 19.0 62 11.6 4.3 6.5 162 0.0 0.0 1011.0 6.5 19.1 19.0 0.0
01/02/18 15:56 18.9 62 11.5 4.3 6.5 158 0.0 0.0 1011.0 6.5 19.0 18.9 0.0
01/02/18 15:57 18.8 62 11.4 4.3 6.5 154 0.0 0.0 1011.0 6.5 18.9 18.8 0.0
01/02/18 15:58 18.8 62 11.4 4.3 6.5 151 0.0 0.0 1011.0 6.5 18.8 18.8 0.0
01/02/18 15:59 18.7 62 11.3 4.3 6.5 147 0.0 0.0 1011.0 6.5 18.8 18.7 0.0
01/02/18 16:02 18.4 62 11.0 4.3 6.5 158 0.0 0.0 1011.0 6.5 18.5 18.4 0.0
01/02/18 16:03 18.4 62 11.0 4.3 6.5 154 0.0 0.0 1011.0 6.5 18.4 18.4 0.0
01/02/18 16:04 18.3 62 10.9 4.3 6.5 149 0.0 0.0 1011.0 6.5 18.4 18.3 0.0
01/02/18 16:05 18.3 62 10.9 4.3 6.5 145 0.0 0.0 1011.0 6.5 18.3 18.3 0.0
01/02/18 16:06 18.2 62 10.8 4.3 6.5 142 0.0 0.0 1011.0 6.5 18.3 18.2 0.0
01/02/18 16:07 18.1 62 10.7 4.3 6.5 140 0.0 0.0 1011.0 6.5 18.2 18.1 0.0
01/02/18 16:08 18.0 62 10.6 4.3 6.5 138 0.0 0.0 1011.0 6.5 18.1 18.0 0.0
01/02/18 16:09 17.9 63 10.8 4.3 6.5 138 0.0 0.0 1011.0 6.5 18.1 17.9 0.0
01/02/18 16:10 17.9 63 10.8 4.3 6.5 138 0.0 0.0 1011.0 6.5 18.1 17.9 0.0
01/02/18 16:11 17.8 63 10.7 4.3 6.5 138 0.0 0.0 1011.0 6.5 18.1 17.8 0.0
01/02/18 16:12 17.8 63 10.7 4.3 6.5 138 0.0 0.0 1011.0 6.5 18.1 17.8 0.0
01/02/18 16:13 17.8 63 10.7 4.3 6.5 138 0.0 0.0 1011.0 6.5 18.1 17.8 0.0
01/02/18 16:14 17.8 63 10.7 4.3 6.5 138 0.0 0.0 1011.0 6.5 18.1 17.8 0.0
01/02/18 16:15 17.7 63 10.6 4.3 6.5 138 0.0 0.0 1011.0 6.5 18.1 17.7 0.0
01/02/18 16:16 17.6 63 10.5 4.3 6.5 138 0.0 0.0 1011.0 6.5 18.1 17.6 0.0
01/02/18 16:17 17.6 64 10.7 4.3 6.5 138 0.0 0.0 1011.0 6.5 18.1 17.6 0.0
01/02/18 16:18 17.6 64 10.7 4.3 6.5 138 0.0 0.0 1011.0 6.5 18.1 17.6 0.0
01/02/18 16:19 17.5 64 10.6 4.3 6.5 138 0.0 0.0 1011.0 6.5 18.1 17.5 0.0
01/02/18 16:20 17.4 64 10.5 4.3 6.5 138 0.0 0.0 1011.0 6.5 18.1 17.4 0.0
01/02/18 16:21 17.4 65 10.7 4.3 6.5 138 0.0 0.0 1011.0 6.5 18.1 17.4 0.0
01/02/18 16:22 17.3 65 10.7 4.3 6.5 138 0.0 0.0 1011.0 6.5 18.1 17.3 0.0
01/02/18 16:23 17.2 65 10.6 4.3 6.5 138 0.0 0.0 1011.0 6.5 18.1 17.2 0.0
01/02/18 16:24 17.2 65 10.6 4.3 6.5 138 0.0 0.0 1011.0 6.5 18.1 17.2 0.0
01/02/18 17:03 15.6 72 10.6 0.0 0.0 0 0.0 0.0 1011.0 0.0 0.0 15.6 0.0
01/02/18 17:04 15.6 72 10.6 0.0 0.0 0 0.0 0.0 1011.0 0.0 0.0 15.6 0.0
01/02/18 17:05 15.6 72 10.6 0.0 0.0 0 0.0 0.0 1011.0 0.0 0.0 15.6 0.0
01/02/18 17:06 15.5 73 10.7 0.0 0.0 0 0.0 0.0 1011.0 0.0 0.0 15.5 0.0
01/02/18 17:07 15.4 73 10.6 0.0 0.0 0 0.0 0.0 1011.0 0.0 0.0 15.4 0.0
01/02/18 17:08 15.4 73 10.6 0.0 0.0 0 0.0 0.0 1011.0 0.0 0.0 15.4 0.0
01/02/18 17:09 15.2 74 10.6 0.0 0.0 0 0.0 0.0 1011.0 0.0 0.0 15.2 0.0
01/02/18 17:10 15.2 74 10.6 0.0 0.0 0 0.0 0.0 1011.0 0.0 0.0 15.2 0.0
01/02/18 17:11 15.2 74 10.6 0.0 0.0 0 0.0 0.0 1011.0 0.0 0.0 15.2 0.0
01/02/18 17:12 15.2 74 10.6 0.0 0.0 0 0.0 0.0 1011.0 0.0 0.0 15.2 0.0
01/02/18 17:13 15.2 74 10.6 0.0 0.0 0 0.0 0.0 1011.0 0.0 0.0 15.2 0.0
01/02/18 17:14 15.1 75 10.7 0.0 0.0 0 0.0 0.0 1011.0 0.0 0.0 15.1 0.0
01/02/18 17:15 15.1 75 10.7 0.0 0.0 0 0.0 0.0 1011.0 0.0 0.0 15.1 0.0
01/02/18 17:16 15.1 75 10.7 0.0 0.0 0 0.0 0.0 1011.0 0.0 0.0 15.1 0.0
01/02/18 17:17 15.1 75 10.7 0.0 0.0 0 0.0 0.0 1011.0 0.0 0.0 15.1 0.0
01/02/18 17:18 15.0 75 10.6 0.0 0.0 0 0.0 0.0 1011.0 0.0 0.0 15.0 0.0
01/02/18 17:19 15.0 76 10.8 0.0 0.0 0 0.0 0.0 1011.0 0.0 0.0 15.0 0.0
01/02/18 17:20 15.0 76 10.8 0.0 0.0 0 0.0 0.0 1011.0 0.0 0.0 15.0 0.0
01/02/18 17:21 14.9 77 10.9 0.0 0.0 0 0.0 0.0 1011.0 0.0 0.0 14.9 0.0
01/02/18 17:22 14.9 77 10.9 0.0 0.0 0 0.0 0.0 1011.0 0.0 0.0 14.9 0.0
01/02/18 17:23 14.9 77 10.9 0.0 0.0 0 0.0 0.0 1011.0 0.0 0.0 14.9 0.0
01/02/18 18:03 13.7 85 11.2 0.0 0.0 0 0.0 0.0 1013.0 0.0 0.0 13.7 0.0
01/02/18 18:04 13.5 85 11.0 0.0 0.0 0 0.0 0.0 1013.0 0.0 0.0 13.5 0.0
01/02/18 18:05 13.5 85 11.0 0.0 0.0 0 0.0 0.0 1013.0 0.0 0.0 13.5 0.0
01/02/18 18:06 13.5 85 11.0 0.0 0.0 0 0.0 0.0 1013.0 0.0 0.0 13.5 0.0
01/02/18 18:07 13.5 86 11.2 0.0 0.0 0 0.0 0.0 1013.0 0.0 0.0 13.5 0.0
01/02/18 18:08 13.5 86 11.2 0.0 0.0 0 0.0 0.0 1013.0 0.0 0.0 13.5 0.0
01/02/18 18:09 13.4 87 11.3 0.0 0.0 0 0.0 0.0 1013.0 0.0 0.0 13.4 0.0
01/02/18 18:10 13.3 87 11.2 0.0 0.0 0 0.0 0.0 1013.0 0.0 0.0 13.3 0.0
01/02/18 18:11 13.3 88 11.4 0.0 0.0 0 0.0 0.0 1013.0 0.0 0.0 13.3 0.0
01/02/18 18:12 13.3 88 11.4 0.0 0.0 0 0.0 0.0 1013.0 0.0 0.0 13.3 0.0
01/02/18 18:13 13.3 88 11.4 0.0 0.0 0 0.0 0.0 1013.0 0.0 0.0 13.3 0.0
01/02/18 18:14 13.3 89 11.5 0.0 0.0 0 0.0 0.0 1013.0 0.0 0.0 13.3 0.0
01/02/18 18:15 13.2 89 11.4 0.0 0.0 0 0.0 0.0 1013.0 0.0 0.0 13.2 0.0
01/02/18 18:16 13.2 89 11.4 0.0 0.0 0 0.0 0.0 1013.0 0.0 0.0 13.2 0.0
01/02/18 18:17 13.2 89 11.4 0.0 0.0 0 0.0 0.0 1013.0 0.0 0.0 13.2 0.0
01/02/18 18:18 13.2 89 11.4 0.0 0.0 0 0.0 0.0 1013.0 0.0 0.0 13.2 0.0
01/02/18 18:19 13.1 90 11.5 0.0 0.0 0 0.0 0.0 1013.0 0.0 0.0 13.1 0.0
01/02/18 18:20 13.1 90 11.5 0.0 0.0 0 0.0 0.0 1013.0 0.0 0.0 13.1 0.0
01/02/18 18:21 13.1 90 11.5 0.0 0.0 0 0.0 0.0 1013.0 0.0 0.0 13.1 0.0
01/02/18 18:22 13.1 91 11.7 0.0 0.0 0 0.0 0.0 1013.0 0.0 0.0 13.1 0.0
01/02/18 18:23 13.1 91 11.7 0.0 0.0 0 0.0 0.0 1012.0 0.0 0.0 13.1 0.0
01/02/18 18:24 13.0 91 11.6 0.0 0.0 0 0.0 0.0 1012.0 0.0 0.0 13.0 0.0
01/02/18 18:25 13.0 91 11.6 0.0 0.0 0 0.0 0.0 1012.0 0.0 0.0 13.0 0.0
01/02/18 18:26 13.1 91 11.7 0.0 0.0 0 0.0 0.0 1012.0 0.0 0.0 13.1 0.0
01/02/18 18:27 13.1 91 11.7 0.0 0.0 0 0.0 0.0 1012.0 0.0 0.0 13.1 0.0
01/02/18 18:28 13.0 91 11.6 0.0 0.0 0 0.0 0.0 1012.0 0.0 0.0 13.0 0.0
01/02/18 18:29 13.0 91 11.6 0.0 0.0 0 0.0 0.0 1012.0 0.0 0.0 13.0 0.0
01/02/18 18:30 13.0 92 11.7 0.0 0.0 0 0.0 0.0 1012.0 0.0 0.0 13.0 0.0
01/02/18 18:31 13.0 92 11.7 0.0 0.0 0 0.0 0.0 1012.0 0.0 0.0 13.0 0.0
01/02/18 18:32 12.9 93 11.8 0.0 0.0 0 0.0 0.0 1012.0 0.0 0.0 12.9 0.0
01/02/18 18:33 12.9 93 11.8 0.0 0.0 0 0.0 0.0 1012.0 0.0 0.0 12.9 0.0
01/02/18 18:34 12.9 93 11.8 0.0 0.0 0 0.0 0.0 1012.0 0.0 0.0 12.9 0.0
01/02/18 18:35 12.9 94 12.0 0.0 0.0 0 0.0 0.0 1012.0 0.0 0.0 12.9 0.0
01/02/18 18:36 12.9 94 12.0 0.0 0.0 0 0.0 0.0 1012.0 0.0 0.0 12.9 0.0
01/02/18 18:37 12.9 94 12.0 0.0 0.0 0 0.0 0.0 1012.0 0.0 0.0 12.9 0.0
01/02/18 18:38 12.9 94 12.0 0.0 0.0 0 0.0 0.0 1012.0 0.0 0.0 12.9 0.0
01/02/18 18:39 12.9 94 12.0 0.0 0.0 0 0.0 0.0 1012.0 0.0 0.0 12.9 0.0
01/02/18 18:40 12.9 94 12.0 0.0 0.0 0 0.0 0.0 1012.0 0.0 0.0 12.9 0.0
01/02/18 18:41 12.8 94 11.9 0.0 0.0 0 0.0 0.0 1012.0 0.0 0.0 12.8 0.0
01/02/18 18:42 12.8 95 12.0 0.0 0.0 0 0.0 0.0 1012.0 0.0 0.0 12.8 0.0
01/02/18 18:43 12.8 95 12.0 0.0 0.0 0 0.0 0.0 1012.0 0.0 0.0 12.8 0.0
01/02/18 18:44 12.8 95 12.0 0.0 0.0 0 0.0 0.0 1012.0 0.0 0.0 12.8 0.0
01/02/18 18:45 12.8 95 12.0 0.0 0.0 0 0.0 0.0 1012.0 0.0 0.0 12.8 0.0
01/02/18 18:46 12.8 95 12.0 0.0 0.0 0 0.0 0.0 1012.0 0.0 0.0 12.8 0.0
01/02/18 18:47 12.7 95 11.9 0.0 0.0 0 0.0 0.0 1012.0 0.0 0.0 12.7 0.0
01/02/18 18:48 12.8 95 12.0 0.0 0.0 0 0.0 0.0 1012.0 0.0 0.0 12.8 0.0
01/02/18 18:49 12.8 95 12.0 0.0 0.0 0 0.0 0.0 1012.0 0.0 0.0 12.8 0.0
01/02/18 18:50 12.8 95 12.0 0.0 0.0 0 0.0 0.0 1012.0 0.0 0.0 12.8 0.0
01/02/18 18:51 12.8 95 12.0 0.0 0.0 0 0.0 0.0 1012.0 0.0 0.0 12.8 0.0
01/02/18 18:52 12.8 94 11.9 0.0 0.0 0 0.0 0.0 1012.0 0.0 0.0 12.8 0.0
01/02/18 18:53 12.8 94 11.9 0.0 0.0 0 0.0 0.0 1013.0 0.0 0.0 12.8 0.0
01/02/18 18:54 12.7 95 11.9 0.0 0.0 0 0.0 0.0 1013.0 0.0 0.0 12.7 0.0
01/02/18 18:55 12.8 95 12.0 0.0 0.0 0 0.0 0.0 1013.0 0.0 0.0 12.8 0.0
01/02/18 18:56 12.8 95 12.0 0.0 0.0 0 0.0 0.0 1013.0 0.0 0.0 12.8 0.0
01/02/18 18:57 12.8 95 12.0 0.0 0.0 0 0.0 0.0 1013.0 0.0 0.0 12.8 0.0
01/02/18 18:58 12.7 95 11.9 0.0 0.0 0 0.0 0.0 1013.0 0.0 0.0 12.7 0.0
01/02/18 18:59 12.7 95 11.9 0.0 0.0 0 0.0 0.0 1013.0 0.0 0.0 12.7 0.0
01/02/18 19:00 12.7 95 11.9 0.0 0.0 0 0.0 0.0 1013.0 0.0 0.0 12.7 0.0
01/02/18 19:03 12.7 95 11.9 0.0 0.0 0 0.0 0.0 1013.0 0.0 0.0 12.7 0.0
01/02/18 19:04 12.7 95 11.9 0.0 0.0 0 0.0 0.0 1013.0 0.0 0.0 12.7 0.0
01/02/18 19:05 12.7 95 11.9 0.0 0.0 0 0.0 0.0 1013.0 0.0 0.0 12.7 0.0
01/02/18 19:06 12.7 95 11.9 0.0 0.0 0 0.0 0.0 1013.0 0.0 0.0 12.7 0.0
01/02/18 19:07 12.6 95 11.8 0.0 0.0 0 0.0 0.0 1013.0 0.0 0.0 12.6 0.0
01/02/18 19:08 12.7 95 11.9 0.0 0.0 0 0.0 0.0 1013.0 0.0 0.0 12.7 0.0
01/02/18 19:09 12.7 95 11.9 0.0 0.0 0 0.0 0.0 1013.0 0.0 0.0 12.7 0.0
01/02/18 19:10 12.7 96 12.1 0.0 0.0 0 0.0 0.0 1013.0 0.0 0.0 12.7 0.0
01/02/18 19:11 12.7 96 12.1 0.0 0.0 0 0.0 0.0 1013.0 0.0 0.0 12.7 0.0
01/02/18 19:12 12.7 96 12.1 0.0 0.0 0 0.0 0.0 1013.0 0.0 0.0 12.7 0.0
01/02/18 19:13 12.7 96 12.1 0.0 0.0 0 0.0 0.0 1013.0 0.0 0.0 12.7 0.0
01/02/18 19:14 12.7 96 12.1 0.0 0.0 0 0.0 0.0 1013.0 0.0 0.0 12.7 0.0
01/02/18 19:15 12.7 96 12.1 0.0 0.0 0 0.0 0.0 1013.0 0.0 0.0 12.7 0.0
01/02/18 19:16 12.7 96 12.1 0.0 0.0 0 0.0 0.0 1013.0 0.0 0.0 12.7 0.0
01/02/18 19:17 12.7 96 12.1 0.0 0.0 0 0.0 0.0 1013.0 0.0 0.0 12.7 0.0
01/02/18 19:18 12.6 96 12.0 0.0 0.0 0 0.0 0.0 1013.0 0.0 0.0 12.6 0.0
01/02/18 19:19 12.7 96 12.1 0.0 0.0 0 0.0 0.0 1013.0 0.0 0.0 12.7 0.0
01/02/18 19:20 12.7 96 12.1 0.0 0.0 0 0.0 0.0 1013.0 0.0 0.0 12.7 0.0
01/02/18 19:21 12.6 96 12.0 0.0 0.0 0 0.0 0.0 1013.0 0.0 0.0 12.6 0.0
01/02/18 19:22 12.6 96 12.0 0.0 0.0 0 0.0 0.0 1013.0 0.0 0.0 12.6 0.0
01/02/18 19:23 12.6 96 12.0 0.0 0.0 0 0.0 0.0 1013.0 0.0 0.0 12.6 0.0
01/02/18 19:24 12.6 96 12.0 0.0 0.0 0 0.0 0.0 1013.0 0.0 0.0 12.6 0.0
01/02/18 19:25 12.6 96 12.0 0.0 0.0 0 0.0 0.0 1013.0 0.0 0.0 12.6 0.0
01/02/18 19:26 12.6 96 12.0 0.0 0.0 0 0.0 0.0 1013.0 0.0 0.0 12.6 0.0
01/02/18 19:27 12.6 96 12.0 0.0 0.0 0 0.0 0.0 1013.0 0.0 0.0 12.6 0.0
01/02/18 19:28 12.5 96 11.9 0.0 0.0 0 0.0 0.0 1013.0 0.0 0.0 12.5 0.0
01/02/18 19:29 12.5 96 11.9 0.0 0.0 0 0.0 0.0 1013.0 0.0 0.0 12.5 0.0
01/02/18 19:30 12.5 96 11.9 0.0 0.0 0 0.0 0.0 1013.0 0.0 0.0 12.5 0.0
01/02/18 19:31 12.5 96 11.9 0.0 0.0 0 0.0 0.0 1013.0 0.0 0.0 12.5 0.0
01/02/18 19:32 12.5 96 11.9 0.0 0.0 0 0.0 0.0 1013.0 0.0 0.0 12.5 0.0
01/02/18 19:33 12.6 96 12.0 0.0 0.0 0 0.0 0.0 1013.0 0.0 0.0 12.6 0.0
01/02/18 19:34 12.5 96 11.9 0.0 0.0 0 0.0 0.0 1013.0 0.0 0.0 12.5 0.0
01/02/18 19:35 12.5 96 11.9 0.0 0.0 0 0.0 0.0 1013.0 0.0 0.0 12.5 0.0
01/02/18 19:36 12.5 96 11.9 0.0 0.0 0 0.0 0.0 1013.0 0.0 0.0 12.5 0.0
01/02/18 19:37 12.5 96 11.9 0.0 0.0 0 0.0 0.0 1013.0 0.0 0.0 12.5 0.0
01/02/18 19:38 12.5 96 11.9 0.0 0.0 0 0.0 0.0 1013.0 0.0 0.0 12.5 0.0
01/02/18 19:39 12.5 96 11.9 0.0 0.0 0 0.0 0.0 1013.0 0.0 0.0 12.5 0.0
01/02/18 19:40 12.5 96 11.9 0.0 0.0 0 0.0 0.0 1013.0 0.0 0.0 12.5 0.0
01/02/18 19:41 12.5 96 11.9 0.0 0.0 0 0.0 0.0 1013.0 0.0 0.0 12.5 0.0
01/02/18 19:42 12.5 96 11.9 0.0 0.0 0 0.0 0.0 1013.0 0.0 0.0 12.5 0.0
01/02/18 19:43 12.5 96 11.9 0.0 0.0 0 0.0 0.0 1013.0 0.0 0.0 12.5 0.0
01/02/18 19:44 12.5 96 11.9 0.0 0.0 0 0.0 0.0 1013.0 0.0 0.0 12.5 0.0
01/02/18 19:45 12.5 96 11.9 0.0 0.0 0 0.0 0.0 1013.0 0.0 0.0 12.5 0.0
01/02/18 19:46 12.5 96 11.9 0.0 0.0 0 0.0 0.0 1013.0 0.0 0.0 12.5 0.0
01/02/18 19:47 12.4 96 11.8 0.0 0.0 0 0.0 0.0 1013.0 0.0 0.0 12.4 0.0
01/02/18 19:48 12.5 96 11.9 0.0 0.0 0 0.0 0.0 1013.0 0.0 0.0 12.5 0.0
01/02/18 19:49 12.4 96 11.8 0.0 0.0 0 0.0 0.0 1013.0 0.0 0.0 12.4 0.0
01/02/18 19:50 12.4 96 11.8 0.0 0.0 0 0.0 0.0 1013.0 0.0 0.0 12.4 0.0
01/02/18 19:51 12.4 96 11.8 0.0 0.0 0 0.0 0.0 1013.0 0.0 0.0 12.4 0.0
01/02/18 19:52 12.4 96 11.8 0.0 0.0 0 0.0 0.0 1013.0 0.0 0.0 12.4 0.0
01/02/18 19:53 12.4 96 11.8 0.0 0.0 0 0.0 0.0 1013.0 0.0 0.0 12.4 0.0
01/02/18 19:54 12.4 96 11.8 0.0 0.0 0 0.0 0.0 1013.0 0.0 0.0 12.4 0.0
01/02/18 19:55 12.4 96 11.8 0.0 0.0 0 0.0 0.0 1013.0 0.0 0.0 12.4 0.0
01/02/18 19:56 12.5 97 12.0 0.0 0.0 0 0.0 0.0 1013.0 0.0 0.0 12.5 0.0
01/02/18 19:57 12.4 97 11.9 0.0 0.0 0 0.0 0.0 1013.0 0.0 0.0 12.4 0.0
01/02/18 19:58 12.4 97 11.9 0.0 0.0 0 0.0 0.0 1013.0 0.0 0.0 12.4 0.0
01/02/18 19:59 12.4 97 11.9 0.0 0.0 0 0.0 0.0 1013.0 0.0 0.0 12.4 0.0
01/02/18 20:00 12.4 96 11.8 0.0 0.0 0 0.0 0.0 1013.0 0.0 0.0 12.4 0.0
01/02/18 20:02 12.4 96 11.8 0.0 0.0 0 0.0 0.0 1013.0 0.0 0.0 12.4 0.0
01/02/18 20:03 12.4 96 11.8 0.0 0.0 0 0.0 0.0 1013.0 0.0 0.0 12.4 0.0
01/02/18 20:04 12.4 96 11.8 0.0 0.0 0 0.0 0.0 1013.0 0.0 0.0 12.4 0.0
01/02/18 20:05 12.4 96 11.8 0.0 0.0 0 0.0 0.0 1013.0 0.0 0.0 12.4 0.0
01/02/18 20:06 12.4 96 11.8 0.0 0.0 0 0.0 0.0 1013.0 0.0 0.0 12.4 0.0
01/02/18 20:07 12.4 96 11.8 0.0 0.0 0 0.0 0.0 1013.0 0.0 0.0 12.4 0.0
01/02/18 20:08 12.4 96 11.8 0.0 0.0 0 0.0 0.0 1013.0 0.0 0.0 12.4 0.0
01/02/18 20:09 12.4 97 11.9 0.0 0.0 0 0.0 0.0 1013.0 0.0 0.0 12.4 0.0
01/02/18 20:10 12.4 97 11.9 0.0 0.0 0 0.0 0.0 1013.0 0.0 0.0 12.4 0.0
01/02/18 20:11 12.4 97 11.9 0.0 0.0 0 0.0 0.0 1013.0 0.0 0.0 12.4 0.0
01/02/18 20:12 12.4 97 11.9 0.0 0.0 0 0.0 0.0 1013.0 0.0 0.0 12.4 0.0
01/02/18 20:13 12.4 97 11.9 0.0 0.0 0 0.0 0.0 1013.0 0.0 0.0 12.4 0.0
01/02/18 20:14 12.4 97 11.9 0.0 0.0 0 0.0 0.0 1013.0 0.0 0.0 12.4 0.0
01/02/18 20:15 12.4 97 11.9 0.0 0.0 0 0.0 0.0 1013.0 0.0 0.0 12.4 0.0
01/02/18 20:16 12.4 97 11.9 0.0 0.0 0 0.0 0.0 1013.0 0.0 0.0 12.4 0.0
01/02/18 20:17 12.4 97 11.9 0.0 0.0 0 0.0 0.0 1013.0 0.0 0.0 12.4 0.0
01/02/18 20:18 12.4 97 11.9 0.0 0.0 0 0.0 0.0 1013.0 0.0 0.0 12.4 0.0
01/02/18 20:19 12.4 97 11.9 0.0 0.0 0 0.0 0.0 1013.0 0.0 0.0 12.4 0.0
01/02/18 20:20 12.4 97 11.9 0.0 0.0 0 0.0 0.0 1013.0 0.0 0.0 12.4 0.0
01/02/18 20:21 12.4 97 11.9 0.0 0.0 0 0.0 0.0 1013.0 0.0 0.0 12.4 0.0
01/02/18 20:22 12.4 97 11.9 0.0 0.0 0 0.0 0.0 1013.0 0.0 0.0 12.4 0.0
01/02/18 20:23 12.4 97 11.9 0.0 0.0 0 0.0 0.0 1013.0 0.0 0.0 12.4 0.0
01/02/18 20:24 12.4 97 11.9 0.0 0.0 0 0.0 0.0 1013.0 0.0 0.0 12.4 0.0
01/02/18 20:25 12.4 97 11.9 0.0 0.0 0 0.0 0.0 1013.0 0.0 0.0 12.4 0.0
01/02/18 20:26 12.4 97 11.9 0.0 0.0 0 0.0 0.0 1013.0 0.0 0.0 12.4 0.0
01/02/18 20:27 12.4 97 11.9 0.0 0.0 0 0.0 0.0 1013.0 0.0 0.0 12.4 0.0
01/02/18 20:28 12.4 97 11.9 0.0 0.0 0 0.0 0.0 1013.0 0.0 0.0 12.4 0.0
01/02/18 20:29 12.4 97 11.9 0.0 0.0 0 0.0 0.0 1013.0 0.0 0.0 12.4 0.0
01/02/18 20:30 12.4 97 11.9 0.0 0.0 0 0.0 0.0 1013.0 0.0 0.0 12.4 0.0
01/02/18 20:31 12.4 97 11.9 0.0 0.0 0 0.0 0.0 1013.0 0.0 0.0 12.4 0.0
01/02/18 20:32 12.4 97 11.9 0.0 0.0 0 0.0 0.0 1013.0 0.0 0.0 12.4 0.0
01/02/18 20:33 12.4 97 11.9 0.0 0.0 0 0.0 0.0 1013.0 0.0 0.0 12.4 0.0
01/02/18 20:34 12.4 97 11.9 0.0 0.0 0 0.0 0.0 1013.0 0.0 0.0 12.4 0.0
01/02/18 20:35 12.4 97 11.9 0.0 0.0 0 0.0 0.0 1013.0 0.0 0.0 12.4 0.0
01/02/18 20:36 12.4 97 11.9 0.0 0.0 0 0.0 0.0 1013.0 0.0 0.0 12.4 0.0
01/02/18 20:37 12.4 97 11.9 0.0 0.0 0 0.0 0.0 1013.0 0.0 0.0 12.4 0.0
01/02/18 20:38 12.4 97 11.9 0.0 0.0 0 0.0 0.0 1013.0 0.0 0.0 12.4 0.0
01/02/18 20:39 12.4 97 11.9 0.0 0.0 0 0.0 0.0 1013.0 0.0 0.0 12.4 0.0
01/02/18 20:40 12.4 97 11.9 0.0 0.0 0 0.0 0.0 1013.0 0.0 0.0 12.4 0.0
01/02/18 20:41 12.4 97 11.9 0.0 0.0 0 0.0 0.0 1013.0 0.0 0.0 12.4 0.0
01/02/18 20:42 12.4 97 11.9 0.0 0.0 0 0.0 0.0 1013.0 0.0 0.0 12.4 0.0
01/02/18 20:43 12.5 97 12.0 0.0 0.0 0 0.0 0.0 1013.0 0.0 0.0 12.5 0.0
01/02/18 20:44 12.4 97 11.9 0.0 0.0 0 0.0 0.0 1013.0 0.0 0.0 12.4 0.0
01/02/18 20:45 12.4 97 11.9 0.0 0.0 0 0.0 0.0 1013.0 0.0 0.0 12.4 0.0
01/02/18 20:46 12.4 97 11.9 0.0 0.0 0 0.0 0.0 1013.0 0.0 0.0 12.4 0.0
01/02/18 20:47 12.4 97 11.9 0.0 0.0 0 0.0 0.0 1013.0 0.0 0.0 12.4 0.0
01/02/18 20:48 12.4 97 11.9 0.0 0.0 0 0.0 0.0 1013.0 0.0 0.0 12.4 0.0
01/02/18 20:49 12.4 97 11.9 0.0 0.0 0 0.0 0.0 1013.0 0.0 0.0 12.4 0.0
01/02/18 20:50 12.4 97 11.9 0.0 0.0 0 0.0 0.0 1013.0 0.0 0.0 12.4 0.0
01/02/18 20:51 12.4 97 11.9 0.0 0.0 0 0.0 0.0 1013.0 0.0 0.0 12.4 0.0
01/02/18 20:52 12.4 97 11.9 0.0 0.0 0 0.0 0.0 1013.0 0.0 0.0 12.4 0.0
01/02/18 20:53 12.4 97 11.9 0.0 0.0 0 0.0 0.0 1013.0 0.0 0.0 12.4 0.0
01/02/18 20:54 12.4 97 11.9 0.0 0.0 0 0.0 0.0 1013.0 0.0 0.0 12.4 0.0
01/02/18 20:55 12.4 97 11.9 0.0 0.0 0 0.0 0.0 1013.0 0.0 0.0 12.4 0.0
01/02/18 20:56 12.4 97 11.9 0.0 0.0 0 0.0 0.0 1013.0 0.0 0.0 12.4 0.0
01/02/18 20:57 12.4 97 11.9 0.0 0.0 0 0.0 0.0 1013.0 0.0 0.0 12.4 0.0
01/02/18 20:58 12.4 97 11.9 0.0 0.0 0 0.0 0.0 1013.0 0.0 0.0 12.4 0.0
01/02/18 20:59 12.4 97 11.9 0.0 0.0 0 0.0 0.0 1013.0 0.0 0.0 12.4 0.0
01/02/18 21:02 12.4 97 11.9 0.0 0.0 0 0.0 0.0 1013.0 0.0 0.0 12.4 0.0
01/02/18 21:03 12.4 97 11.9 0.0 0.0 0 0.0 0.0 1013.0 0.0 0.0 12.4 0.0
01/02/18 21:04 12.4 97 11.9 0.0 0.0 0 0.0 0.0 1013.0 0.0 0.0 12.4 0.0
01/02/18 21:05 12.3 97 11.8 0.0 0.0 0 0.0 0.0 1013.0 0.0 0.0 12.3 0.0
01/02/18 21:06 12.4 97 11.9 0.0 0.0 0 0.0 0.0 1013.0 0.0 0.0 12.4 0.0
01/02/18 21:07 12.4 97 11.9 0.0 0.0 0 0.0 0.0 1013.0 0.0 0.0 12.4 0.0
01/02/18 21:08 12.4 97 11.9 0.0 0.0 0 0.0 0.0 1014.0 0.0 0.0 12.4 0.0
01/02/18 21:09 12.4 97 11.9 0.0 0.0 0 0.0 0.0 1014.0 0.0 0.0 12.4 0.0
01/02/18 21:10 12.4 97 11.9 0.0 0.0 0 0.0 0.0 1014.0 0.0 0.0 12.4 0.0
01/02/18 21:11 12.4 97 11.9 0.0 0.0 0 0.0 0.0 1014.0 0.0 0.0 12.4 0.0
01/02/18 21:12 12.4 97 11.9 0.0 0.0 0 0.0 0.0 1014.0 0.0 0.0 12.4 0.0
01/02/18 21:13 12.3 97 11.8 0.0 0.0 0 0.0 0.0 1014.0 0.0 0.0 12.3 0.0
01/02/18 21:14 12.3 97 11.8 0.0 0.0 0 0.0 0.0 1014.0 0.0 0.0 12.3 0.0
01/02/18 21:15 12.3 97 11.8 0.0 0.0 0 0.0 0.0 1014.0 0.0 0.0 12.3 0.0
01/02/18 21:16 12.4 97 11.9 0.0 0.0 0 0.0 0.0 1014.0 0.0 0.0 12.4 0.0
01/02/18 21:17 12.3 97 11.8 0.0 0.0 0 0.0 0.0 1014.0 0.0 0.0 12.3 0.0
01/02/18 21:18 12.3 97 11.8 0.0 0.0 0 0.0 0.0 1014.0 0.0 0.0 12.3 0.0
01/02/18 21:19 12.3 97 11.8 0.0 0.0 0 0.0 0.0 1014.0 0.0 0.0 12.3 0.0
01/02/18 21:20 12.3 97 11.8 0.0 0.0 0 0.0 0.0 1014.0 0.0 0.0 12.3 0.0
01/02/18 21:21 12.3 97 11.8 0.0 0.0 0 0.0 0.0 1014.0 0.0 0.0 12.3 0.0
01/02/18 21:22 12.4 97 11.9 0.0 0.0 0 0.0 0.0 1014.0 0.0 0.0 12.4 0.0
01/02/18 21:23 12.3 97 11.8 0.0 0.0 0 0.0 0.0 1014.0 0.0 0.0 12.3 0.0
01/02/18 21:24 12.3 97 11.8 0.0 0.0 0 0.0 0.0 1014.0 0.0 0.0 12.3 0.0
01/02/18 21:25 12.3 97 11.8 0.0 0.0 0 0.0 0.0 1014.0 0.0 0.0 12.3 0.0
01/02/18 21:26 12.3 97 11.8 0.0 0.0 0 0.0 0.0 1014.0 0.0 0.0 12.3 0.0
01/02/18 21:27 12.3 97 11.8 0.0 0.0 0 0.0 0.0 1014.0 0.0 0.0 12.3 0.0
01/02/18 21:28 12.3 97 11.8 0.0 0.0 0 0.0 0.0 1014.0 0.0 0.0 12.3 0.0
01/02/18 21:29 12.3 97 11.8 0.0 0.0 0 0.0 0.0 1014.0 0.0 0.0 12.3 0.0
01/02/18 21:30 12.3 97 11.8 0.0 0.0 0 0.0 0.0 1014.0 0.0 0.0 12.3 0.0
01/02/18 21:31 12.3 97 11.8 0.0 0.0 0 0.0 0.0 1014.0 0.0 0.0 12.3 0.0
01/02/18 21:32 12.3 97 11.8 0.0 0.0 0 0.0 0.0 1014.0 0.0 0.0 12.3 0.0
01/02/18 21:33 12.3 97 11.8 0.0 0.0 0 0.0 0.0 1014.0 0.0 0.0 12.3 0.0
01/02/18 21:34 12.2 97 11.7 0.0 0.0 0 0.0 0.0 1014.0 0.0 0.0 12.2 0.0
01/02/18 21:35 12.2 97 11.7 0.0 0.0 0 0.0 0.0 1014.0 0.0 0.0 12.2 0.0
01/02/18 21:36 12.2 97 11.7 0.0 0.0 0 0.0 0.0 1014.0 0.0 0.0 12.2 0.0
01/02/18 21:37 12.2 97 11.7 0.0 0.0 0 0.0 0.0 1014.0 0.0 0.0 12.2 0.0
01/02/18 21:38 12.2 97 11.7 0.0 0.0 0 0.0 0.0 1014.0 0.0 0.0 12.2 0.0
01/02/18 21:39 12.2 97 11.7 0.0 0.0 0 0.0 0.0 1014.0 0.0 0.0 12.2 0.0
01/02/18 21:40 12.2 98 11.9 0.0 0.0 0 0.0 0.0 1014.0 0.0 0.0 12.2 0.0
01/02/18 21:41 12.2 98 11.9 0.0 0.0 0 0.0 0.0 1014.0 0.0 0.0 12.2 0.0
01/02/18 21:42 12.2 98 11.9 0.0 0.0 0 0.0 0.0 1014.0 0.0 0.0 12.2 0.0
01/02/18 21:43 12.2 98 11.9 0.0 0.0 0 0.0 0.0 1014.0 0.0 0.0 12.2 0.0
01/02/18 21:44 12.2 98 11.9 0.0 0.0 0 0.0 0.0 1014.0 0.0 0.0 12.2 0.0
01/02/18 21:45 12.2 98 11.9 0.0 0.0 0 0.0 0.0 1014.0 0.0 0.0 12.2 0.0
01/02/18 21:46 12.2 98 11.9 0.0 0.0 0 0.0 0.0 1014.0 0.0 0.0 12.2 0.0
01/02/18 21:47 12.2 98 11.9 0.0 0.0 0 0.0 0.0 1014.0 0.0 0.0 12.2 0.0
01/02/18 21:48 12.2 98 11.9 0.0 0.0 0 0.0 0.0 1014.0 0.0 0.0 12.2 0.0
01/02/18 21:49 12.2 98 11.9 0.0 0.0 0 0.0 0.0 1014.0 0.0 0.0 12.2 0.0
01/02/18 21:50 12.2 98 11.9 0.0 0.0 0 0.0 0.0 1014.0 0.0 0.0 12.2 0.0
01/02/18 21:51 12.3 98 12.0 0.0 0.0 0 0.0 0.0 1014.0 0.0 0.0 12.3 0.0
01/02/18 21:52 12.2 98 11.9 0.0 0.0 0 0.0 0.0 1014.0 0.0 0.0 12.2 0.0
01/02/18 21:53 12.2 98 11.9 0.0 0.0 0 0.0 0.0 1014.0 0.0 0.0 12.2 0.0
01/02/18 21:54 12.3 98 12.0 0.0 0.0 0 0.0 0.0 1014.0 0.0 0.0 12.3 0.0
01/02/18 21:55 12.3 98 12.0 0.0 0.0 0 0.0 0.0 1014.0 0.0 0.0 12.3 0.0
01/02/18 21:56 12.2 98 11.9 0.0 0.0 0 0.0 0.0 1014.0 0.0 0.0 12.2 0.0
01/02/18 21:57 12.2 98 11.9 0.0 0.0 0 0.0 0.0 1014.0 0.0 0.0 12.2 0.0
01/02/18 21:58 12.2 98 11.9 0.0 0.0 0 0.0 0.0 1014.0 0.0 0.0 12.2 0.0
01/02/18 21:59 12.2 98 11.9 0.0 0.0 0 0.0 0.0 1014.0 0.0 0.0 12.2 0.0
01/02/18 22:00 12.2 98 11.9 0.0 0.0 0 0.0 0.0 1014.0 0.0 0.0 12.2 0.0
01/02/18 22:02 12.2 98 11.9 0.0 0.0 0 0.0 0.0 1014.0 0.0 0.0 12.2 0.0
01/02/18 22:03 12.2 98 11.9 0.0 0.0 0 0.0 0.0 1014.0 0.0 0.0 12.2 0.0
01/02/18 22:04 12.2 98 11.9 0.0 0.0 0 0.0 0.0 1014.0 0.0 0.0 12.2 0.0
01/02/18 22:05 12.2 98 11.9 0.0 0.0 0 0.0 0.0 1014.0 0.0 0.0 12.2 0.0
01/02/18 22:06 12.2 98 11.9 0.0 0.0 0 0.0 0.0 1014.0 0.0 0.0 12.2 0.0
01/02/18 22:07 12.2 98 11.9 0.0 0.0 0 0.0 0.0 1014.0 0.0 0.0 12.2 0.0
01/02/18 22:08 12.2 98 11.9 0.0 0.0 0 0.0 0.0 1014.0 0.0 0.0 12.2 0.0
01/02/18 22:09 12.2 98 11.9 0.0 0.0 0 0.0 0.0 1014.0 0.0 0.0 12.2 0.0
01/02/18 22:10 12.2 98 11.9 0.0 0.0 0 0.0 0.0 1014.0 0.0 0.0 12.2 0.0
01/02/18 22:11 12.2 98 11.9 0.0 0.0 0 0.0 0.0 1014.0 0.0 0.0 12.2 0.0
01/02/18 22:12 12.2 98 11.9 0.0 0.0 0 0.0 0.0 1014.0 0.0 0.0 12.2 0.0
01/02/18 22:13 12.1 98 11.8 0.0 0.0 0 0.0 0.0 1014.0 0.0 0.0 12.1 0.0
01/02/18 22:14 12.2 98 11.9 0.0 0.0 0 0.0 0.0 1014.0 0.0 0.0 12.2 0.0
01/02/18 22:15 12.2 98 11.9 0.0 0.0 0 0.0 0.0 1014.0 0.0 0.0 12.2 0.0
01/02/18 22:16 12.2 98 11.9 0.0 0.0 0 0.0 0.0 1014.0 0.0 0.0 12.2 0.0
01/02/18 22:17 12.1 98 11.8 0.0 0.0 0 0.0 0.0 1014.0 0.0 0.0 12.1 0.0
01/02/18 22:18 12.2 98 11.9 0.0 0.0 0 0.0 0.0 1014.0 0.0 0.0 12.2 0.0
01/02/18 22:19 12.1 98 11.8 0.0 0.0 0 0.0 0.0 1014.0 0.0 0.0 12.1 0.0
01/02/18 22:20 12.1 98 11.8 0.0 0.0 0 0.0 0.0 1014.0 0.0 0.0 12.1 0.0
01/02/18 22:21 12.1 98 11.8 0.0 0.0 0 0.0 0.0 1014.0 0.0 0.0 12.1 0.0
01/02/18 22:22 12.1 98 11.8 0.0 0.0 0 0.0 0.0 1014.0 0.0 0.0 12.1 0.0
01/02/18 22:23 12.1 98 11.8 0.0 0.0 0 0.0 0.0 1014.0 0.0 0.0 12.1 0.0
01/02/18 22:24 12.1 98 11.8 0.0 0.0 0 0.0 0.0 1014.0 0.0 0.0 12.1 0.0
01/02/18 22:25 12.1 98 11.8 0.0 0.0 0 0.0 0.0 1014.0 0.0 0.0 12.1 0.0
01/02/18 22:26 12.1 98 11.8 0.0 0.0 0 0.0 0.0 1014.0 0.0 0.0 12.1 0.0
01/02/18 22:27 12.1 98 11.8 0.0 0.0 0 0.0 0.0 1014.0 0.0 0.0 12.1 0.0
01/02/18 22:28 12.1 98 11.8 0.0 0.0 0 0.0 0.0 1014.0 0.0 0.0 12.1 0.0
01/02/18 22:29 12.1 98 11.8 0.0 0.0 0 0.0 0.0 1014.0 0.0 0.0 12.1 0.0
01/02/18 22:30 12.1 98 11.8 0.0 0.0 0 0.0 0.0 1014.0 0.0 0.0 12.1 0.0
01/02/18 22:31 12.1 98 11.8 0.0 0.0 0 0.0 0.0 1014.0 0.0 0.0 12.1 0.0
01/02/18 22:32 12.1 98 11.8 0.0 0.0 0 0.0 0.0 1014.0 0.0 0.0 12.1 0.0
01/02/18 22:33 12.1 98 11.8 0.0 0.0 0 0.0 0.0 1014.0 0.0 0.0 12.1 0.0
01/02/18 22:34 12.1 98 11.8 0.0 0.0 0 0.0 0.0 1014.0 0.0 0.0 12.1 0.0
01/02/18 22:35 12.1 98 11.8 0.0 0.0 0 0.0 0.0 1014.0 0.0 0.0 12.1 0.0
01/02/18 22:36 12.1 98 11.8 0.0 0.0 0 0.0 0.0 1014.0 0.0 0.0 12.1 0.0
01/02/18 22:37 12.1 98 11.8 0.0 0.0 0 0.0 0.0 1014.0 0.0 0.0 12.1 0.0
01/02/18 22:38 12.1 98 11.8 0.0 0.0 0 0.0 0.0 1014.0 0.0 0.0 12.1 0.0
01/02/18 22:39 12.0 98 11.7 0.0 0.0 0 0.0 0.0 1014.0 0.0 0.0 12.0 0.0
01/02/18 22:40 12.1 98 11.8 0.0 0.0 0 0.0 0.0 1014.0 0.0 0.0 12.1 0.0
01/02/18 22:41 12.0 98 11.7 0.0 0.0 0 0.0 0.0 1014.0 0.0 0.0 12.0 0.0
01/02/18 22:42 12.0 98 11.7 0.0 0.0 0 0.0 0.0 1014.0 0.0 0.0 12.0 0.0
01/02/18 22:43 12.0 98 11.7 0.0 0.0 0 0.0 0.0 1014.0 0.0 0.0 12.0 0.0
01/02/18 22:44 12.0 98 11.7 0.0 0.0 0 0.0 0.0 1014.0 0.0 0.0 12.0 0.0
01/02/18 22:45 12.0 98 11.7 0.0 0.0 0 0.0 0.0 1014.0 0.0 0.0 12.0 0.0
01/02/18 22:46 12.0 98 11.7 0.0 0.0 0 0.0 0.0 1014.0 0.0 0.0 12.0 0.0
01/02/18 22:47 12.0 98 11.7 0.0 0.0 0 0.0 0.0 1014.0 0.0 0.0 12.0 0.0
01/02/18 22:48 12.0 98 11.7 0.0 0.0 0 0.0 0.0 1014.0 0.0 0.0 12.0 0.0
01/02/18 22:49 12.0 98 11.7 0.0 0.0 0 0.0 0.0 1014.0 0.0 0.0 12.0 0.0
01/02/18 22:50 12.1 98 11.8 0.0 0.0 0 0.0 0.0 1014.0 0.0 0.0 12.1 0.0
01/02/18 22:51 12.1 98 11.8 0.0 0.0 0 0.0 0.0 1014.0 0.0 0.0 12.1 0.0
01/02/18 22:52 12.1 98 11.8 0.0 0.0 0 0.0 0.0 1014.0 0.0 0.0 12.1 0.0
01/02/18 22:53 12.1 98 11.8 0.0 0.0 0 0.0 0.0 1014.0 0.0 0.0 12.1 0.0
01/02/18 22:54 12.1 98 11.8 0.0 0.0 0 0.0 0.0 1014.0 0.0 0.0 12.1 0.0
01/02/18 22:55 12.0 98 11.7 0.0 0.0 0 0.0 0.0 1014.0 0.0 0.0 12.0 0.0
01/02/18 22:56 12.0 98 11.7 0.0 0.0 0 0.0 0.0 1014.0 0.0 0.0 12.0 0.0
01/02/18 22:57 12.1 98 11.8 0.0 0.0 0 0.0 0.0 1014.0 0.0 0.0 12.1 0.0
01/02/18 22:58 12.0 98 11.7 0.0 0.0 0 0.0 0.0 1014.0 0.0 0.0 12.0 0.0
01/02/18 22:59 12.0 98 11.7 0.0 0.0 0 0.0 0.0 1014.0 0.0 0.0 12.0 0.0
01/02/18 23:02 12.1 98 11.8 0.0 0.0 0 0.0 0.0 1014.0 0.0 0.0 12.1 0.0
01/02/18 23:03 12.1 98 11.8 0.0 0.0 0 0.0 0.0 1014.0 0.0 0.0 12.1 0.0
01/02/18 23:04 12.1 98 11.8 0.0 0.0 0 0.0 0.0 1014.0 0.0 0.0 12.1 0.0
01/02/18 23:05 12.1 98 11.8 0.0 0.0 0 0.0 0.0 1014.0 0.0 0.0 12.1 0.0
01/02/18 23:06 12.0 98 11.7 0.0 0.0 0 0.0 0.0 1014.0 0.0 0.0 12.0 0.0
01/02/18 23:07 12.1 98 11.8 0.0 0.0 0 0.0 0.0 1014.0 0.0 0.0 12.1 0.0
01/02/18 23:08 12.0 98 11.7 0.0 0.0 0 0.0 0.0 1014.0 0.0 0.0 12.0 0.0
01/02/18 23:09 12.0 98 11.7 0.0 0.0 0 0.0 0.0 1014.0 0.0 0.0 12.0 0.0
01/02/18 23:10 12.0 98 11.7 0.0 0.0 0 0.0 0.0 1014.0 0.0 0.0 12.0 0.0
01/02/18 23:11 12.0 98 11.7 0.0 0.0 0 0.0 0.0 1014.0 0.0 0.0 12.0 0.0
01/02/18 23:12 12.0 98 11.7 0.0 0.0 0 0.0 0.0 1014.0 0.0 0.0 12.0 0.0
01/02/18 23:13 12.0 98 11.7 0.0 0.0 0 0.0 0.0 1014.0 0.0 0.0 12.0 0.0
01/02/18 23:14 12.0 98 11.7 0.0 0.0 0 0.0 0.0 1014.0 0.0 0.0 12.0 0.0
01/02/18 23:15 12.0 98 11.7 0.0 0.0 0 0.0 0.0 1014.0 0.0 0.0 12.0 0.0
01/02/18 23:16 12.0 98 11.7 0.0 0.0 0 0.0 0.0 1014.0 0.0 0.0 12.0 0.0
01/02/18 23:17 12.0 98 11.7 0.0 0.0 0 0.0 0.0 1014.0 0.0 0.0 12.0 0.0
01/02/18 23:18 12.0 98 11.7 0.0 0.0 0 0.0 0.0 1014.0 0.0 0.0 12.0 0.0
01/02/18 23:19 12.0 98 11.7 0.0 0.0 0 0.0 0.0 1014.0 0.0 0.0 12.0 0.0
01/02/18 23:20 12.0 98 11.7 0.0 0.0 0 0.0 0.0 1014.0 0.0 0.0 12.0 0.0
01/02/18 23:21 12.0 98 11.7 0.0 0.0 0 0.0 0.0 1014.0 0.0 0.0 12.0 0.0
01/02/18 23:22 12.0 98 11.7 0.0 0.0 0 0.0 0.0 1014.0 0.0 0.0 12.0 0.0
01/02/18 23:23 12.1 98 11.8 0.0 0.0 0 0.0 0.0 1014.0 0.0 0.0 12.1 0.0
01/02/18 23:24 12.0 98 11.7 0.0 0.0 0 0.0 0.0 1014.0 0.0 0.0 12.0 0.0
01/02/18 23:25 12.0 98 11.7 0.0 0.0 0 0.0 0.0 1014.0 0.0 0.0 12.0 0.0
01/02/18 23:26 12.0 98 11.7 0.0 0.0 0 0.0 0.0 1014.0 0.0 0.0 12.0 0.0
01/02/18 23:27 12.0 98 11.7 0.0 0.0 0 0.0 0.0 1014.0 0.0 0.0 12.0 0.0
01/02/18 23:28 12.0 98 11.7 0.0 0.0 0 0.0 0.0 1014.0 0.0 0.0 12.0 0.0
01/02/18 23:29 12.0 98 11.7 0.0 0.0 0 0.0 0.0 1014.0 0.0 0.0 12.0 0.0
01/02/18 23:30 12.0 98 11.7 0.0 0.0 0 0.0 0.0 1014.0 0.0 0.0 12.0 0.0
01/02/18 23:31 12.0 98 11.7 0.0 0.0 0 0.0 0.0 1014.0 0.0 0.0 12.0 0.0
01/02/18 23:32 12.1 98 11.8 0.0 0.0 0 0.0 0.0 1014.0 0.0 0.0 12.1 0.0
01/02/18 23:33 12.0 98 11.7 0.0 0.0 0 0.0 0.0 1014.0 0.0 0.0 12.0 0.0
01/02/18 23:34 12.0 98 11.7 0.0 0.0 0 0.0 0.0 1014.0 0.0 0.0 12.0 0.0
01/02/18 23:35 12.0 98 11.7 0.0 0.0 0 0.0 0.0 1014.0 0.0 0.0 12.0 0.0
01/02/18 23:36 12.0 98 11.7 0.0 0.0 0 0.0 0.0 1014.0 0.0 0.0 12.0 0.0
01/02/18 23:37 12.0 98 11.7 0.0 0.0 0 0.0 0.0 1014.0 0.0 0.0 12.0 0.0
01/02/18 23:38 12.0 98 11.7 0.0 0.0 0 0.0 0.0 1014.0 0.0 0.0 12.0 0.0
01/02/18 23:39 12.0 98 11.7 0.0 0.0 0 0.0 0.0 1014.0 0.0 0.0 12.0 0.0
01/02/18 23:40 12.0 98 11.7 0.0 0.0 0 0.0 0.0 1014.0 0.0 0.0 12.0 0.0
01/02/18 23:41 12.0 98 11.7 0.0 0.0 0 0.0 0.0 1014.0 0.0 0.0 12.0 0.0
01/02/18 23:42 12.0 98 11.7 0.0 0.0 0 0.0 0.0 1014.0 0.0 0.0 12.0 0.0
01/02/18 23:43 12.0 98 11.7 0.0 0.0 0 0.0 0.0 1014.0 0.0 0.0 12.0 0.0
01/02/18 23:44 12.0 98 11.7 0.0 0.0 0 0.0 0.0 1014.0 0.0 0.0 12.0 0.0
01/02/18 23:45 12.0 98 11.7 0.0 0.0 0 0.0 0.0 1014.0 0.0 0.0 12.0 0.0
01/02/18 23:46 12.0 98 11.7 0.0 0.0 0 0.0 0.0 1014.0 0.0 0.0 12.0 0.0
01/02/18 23:47 11.9 98 11.6 0.0 0.0 0 0.0 0.0 1014.0 0.0 0.0 11.9 0.0
01/02/18 23:48 11.9 98 11.6 0.0 0.0 0 0.0 0.0 1014.0 0.0 0.0 11.9 0.0
01/02/18 23:49 11.9 98 11.6 0.0 0.0 0 0.0 0.0 1014.0 0.0 0.0 11.9 0.0
01/02/18 23:50 11.9 98 11.6 0.0 0.0 0 0.0 0.0 1014.0 0.0 0.0 11.9 0.0
01/02/18 23:51 11.9 98 11.6 0.0 0.0 0 0.0 0.0 1014.0 0.0 0.0 11.9 0.0
01/02/18 23:52 11.9 98 11.6 0.0 0.0 0 0.0 0.0 1014.0 0.0 0.0 11.9 0.0
01/02/18 23:53 11.9 98 11.6 0.0 0.0 0 0.0 0.0 1014.0 0.0 0.0 11.9 0.0
01/02/18 23:54 11.9 98 11.6 0.0 0.0 0 0.0 0.0 1014.0 0.0 0.0 11.9 0.0
01/02/18 23:55 11.9 98 11.6 0.0 0.0 0 0.0 0.0 1014.0 0.0 0.0 11.9 0.0
01/02/18 23:56 11.9 98 11.6 0.0 0.0 0 0.0 0.0 1014.0 0.0 0.0 11.9 0.0
01/02/18 23:57 11.9 98 11.6 0.0 0.0 0 0.0 0.0 1014.0 0.0 0.0 11.9 0.0
01/02/18 23:58 11.9 98 11.6 0.0 0.0 0 0.0 0.0 1014.0 0.0 0.0 11.9 0.0
01/02/18 23:59 11.9 98 11.6 0.0 0.0 0 0.0 0.0 1014.0 0.0 0.0 11.9 0.0
 
  Back to Top
Date Time Temperature Humidity Dewpoint Wind Speed High Gust Wind Bearing Rainfall Rate Total Rainfall Pressure Gust Wind Chill Heat Index UV Index
02/02/18 00:00 11.9 98 11.6 0.0 0.0 0 0.0 0.0 1014.0 0.0 0.0 11.9 0.0
02/02/18 00:02 11.9 98 11.6 0.0 0.0 0 0.0 0.0 1014.0 0.0 0.0 11.9 0.0
02/02/18 00:03 11.8 98 11.5 0.0 0.0 0 0.0 0.0 1014.0 0.0 0.0 11.8 0.0
02/02/18 00:04 11.9 98 11.6 0.0 0.0 0 0.0 0.0 1014.0 0.0 0.0 11.9 0.0
02/02/18 00:05 11.9 98 11.6 0.0 0.0 0 0.0 0.0 1014.0 0.0 0.0 11.9 0.0
02/02/18 00:06 11.9 98 11.6 0.0 0.0 0 0.0 0.0 1014.0 0.0 0.0 11.9 0.0
02/02/18 00:07 11.8 98 11.5 0.0 0.0 0 0.0 0.0 1014.0 0.0 0.0 11.8 0.0
02/02/18 00:08 11.8 98 11.5 0.0 0.0 0 0.0 0.0 1014.0 0.0 0.0 11.8 0.0
02/02/18 00:09 11.8 98 11.5 0.0 0.0 0 0.0 0.0 1014.0 0.0 0.0 11.8 0.0
02/02/18 00:10 11.8 98 11.5 0.0 0.0 0 0.0 0.0 1014.0 0.0 0.0 11.8 0.0
02/02/18 00:11 11.8 98 11.5 0.0 0.0 0 0.0 0.0 1014.0 0.0 0.0 11.8 0.0
02/02/18 00:12 11.8 98 11.5 0.0 0.0 0 0.0 0.0 1014.0 0.0 0.0 11.8 0.0
02/02/18 00:13 11.8 98 11.5 0.0 0.0 0 0.0 0.0 1014.0 0.0 0.0 11.8 0.0
02/02/18 00:14 11.8 98 11.5 0.0 0.0 0 0.0 0.0 1014.0 0.0 0.0 11.8 0.0
02/02/18 00:15 11.8 98 11.5 0.0 0.0 0 0.0 0.0 1014.0 0.0 0.0 11.8 0.0
02/02/18 00:16 11.8 98 11.5 0.0 0.0 0 0.0 0.0 1014.0 0.0 0.0 11.8 0.0
02/02/18 00:17 11.8 98 11.5 0.0 0.0 0 0.0 0.0 1014.0 0.0 0.0 11.8 0.0
02/02/18 00:18 11.8 98 11.5 0.0 0.0 0 0.0 0.0 1014.0 0.0 0.0 11.8 0.0
02/02/18 00:19 11.8 98 11.5 0.0 0.0 0 0.0 0.0 1014.0 0.0 0.0 11.8 0.0
02/02/18 00:20 11.8 98 11.5 0.0 0.0 0 0.0 0.0 1014.0 0.0 0.0 11.8 0.0
02/02/18 00:21 11.7 98 11.4 0.0 0.0 0 0.0 0.0 1014.0 0.0 0.0 11.7 0.0
02/02/18 00:22 11.8 98 11.5 0.0 0.0 0 0.0 0.0 1014.0 0.0 0.0 11.8 0.0
02/02/18 00:23 11.7 98 11.4 0.0 0.0 0 0.0 0.0 1014.0 0.0 0.0 11.7 0.0
02/02/18 00:24 11.7 98 11.4 0.0 0.0 0 0.0 0.0 1014.0 0.0 0.0 11.7 0.0
02/02/18 00:25 11.7 98 11.4 0.0 0.0 0 0.0 0.0 1014.0 0.0 0.0 11.7 0.0
02/02/18 00:26 11.7 98 11.4 0.0 0.0 0 0.0 0.0 1014.0 0.0 0.0 11.7 0.0
02/02/18 00:27 11.7 98 11.4 0.0 0.0 0 0.0 0.0 1014.0 0.0 0.0 11.7 0.0
02/02/18 00:28 11.7 98 11.4 0.0 0.0 0 0.0 0.0 1014.0 0.0 0.0 11.7 0.0
02/02/18 00:29 11.7 98 11.4 0.0 0.0 0 0.0 0.0 1014.0 0.0 0.0 11.7 0.0
02/02/18 00:30 11.7 98 11.4 0.0 0.0 0 0.0 0.0 1014.0 0.0 0.0 11.7 0.0
02/02/18 00:31 11.7 98 11.4 0.0 0.0 0 0.0 0.0 1014.0 0.0 0.0 11.7 0.0
02/02/18 00:32 11.7 98 11.4 0.0 0.0 0 0.0 0.0 1014.0 0.0 0.0 11.7 0.0
02/02/18 00:33 11.7 98 11.4 0.0 0.0 0 0.0 0.0 1014.0 0.0 0.0 11.7 0.0
02/02/18 00:34 11.7 98 11.4 0.0 0.0 0 0.0 0.0 1014.0 0.0 0.0 11.7 0.0
02/02/18 00:35 11.7 98 11.4 0.0 0.0 0 0.0 0.0 1014.0 0.0 0.0 11.7 0.0
02/02/18 00:36 11.7 98 11.4 0.0 0.0 0 0.0 0.0 1014.0 0.0 0.0 11.7 0.0
02/02/18 00:37 11.7 98 11.4 0.0 0.0 0 0.0 0.0 1014.0 0.0 0.0 11.7 0.0
02/02/18 00:38 11.7 98 11.4 0.0 0.0 0 0.0 0.0 1013.0 0.0 0.0 11.7 0.0
02/02/18 00:39 11.7 98 11.4 0.0 0.0 0 0.0 0.0 1013.0 0.0 0.0 11.7 0.0
02/02/18 00:40 11.7 98 11.4 0.0 0.0 0 0.0 0.0 1013.0 0.0 0.0 11.7 0.0
02/02/18 00:41 11.7 98 11.4 0.0 0.0 0 0.0 0.0 1013.0 0.0 0.0 11.7 0.0
02/02/18 00:42 11.7 98 11.4 0.0 0.0 0 0.0 0.0 1013.0 0.0 0.0 11.7 0.0
02/02/18 00:43 11.7 98 11.4 0.0 0.0 0 0.0 0.0 1013.0 0.0 0.0 11.7 0.0
02/02/18 00:44 11.7 98 11.4 0.0 0.0 0 0.0 0.0 1013.0 0.0 0.0 11.7 0.0
02/02/18 00:45 11.7 98 11.4 0.0 0.0 0 0.0 0.0 1013.0 0.0 0.0 11.7 0.0
02/02/18 00:46 11.7 98 11.4 0.0 0.0 0 0.0 0.0 1013.0 0.0 0.0 11.7 0.0
02/02/18 00:47 11.7 98 11.4 0.0 0.0 0 0.0 0.0 1013.0 0.0 0.0 11.7 0.0
02/02/18 00:48 11.7 98 11.4 0.0 0.0 0 0.0 0.0 1013.0 0.0 0.0 11.7 0.0
02/02/18 00:49 11.7 98 11.4 0.0 0.0 0 0.0 0.0 1013.0 0.0 0.0 11.7 0.0
02/02/18 00:50 11.7 98 11.4 0.0 0.0 0 0.0 0.0 1013.0 0.0 0.0 11.7 0.0
02/02/18 00:51 11.7 98 11.4 0.0 0.0 0 0.0 0.0 1013.0 0.0 0.0 11.7 0.0
02/02/18 00:52 11.7 98 11.4 0.0 0.0 0 0.0 0.0 1013.0 0.0 0.0 11.7 0.0
02/02/18 00:53 11.7 98 11.4 0.0 0.0 0 0.0 0.0 1013.0 0.0 0.0 11.7 0.0
02/02/18 00:54 11.7 98 11.4 0.0 0.0 0 0.0 0.0 1013.0 0.0 0.0 11.7 0.0
02/02/18 00:55 11.7 98 11.4 0.0 0.0 0 0.0 0.0 1013.0 0.0 0.0 11.7 0.0
02/02/18 00:56 11.7 98 11.4 0.0 0.0 0 0.0 0.0 1013.0 0.0 0.0 11.7 0.0
02/02/18 00:57 11.7 98 11.4 0.0 0.0 0 0.0 0.0 1013.0 0.0 0.0 11.7 0.0
02/02/18 00:58 11.7 98 11.4 0.0 0.0 0 0.0 0.0 1013.0 0.0 0.0 11.7 0.0
02/02/18 00:59 11.7 98 11.4 0.0 0.0 0 0.0 0.0 1013.0 0.0 0.0 11.7 0.0
02/02/18 01:00 11.7 98 11.4 0.0 0.0 0 0.0 0.0 1013.0 0.0 0.0 11.7 0.0
02/02/18 01:02 11.7 98 11.4 0.0 0.0 0 0.0 0.0 1013.0 0.0 0.0 11.7 0.0
02/02/18 01:03 11.7 98 11.4 0.0 0.0 0 0.0 0.0 1013.0 0.0 0.0 11.7 0.0
02/02/18 01:04 11.7 98 11.4 0.0 0.0 0 0.0 0.0 1013.0 0.0 0.0 11.7 0.0
02/02/18 01:05 11.6 98 11.3 0.0 0.0 0 0.0 0.0 1013.0 0.0 0.0 11.6 0.0
02/02/18 01:06 11.6 98 11.3 0.0 0.0 0 0.0 0.0 1013.0 0.0 0.0 11.6 0.0
02/02/18 01:07 11.6 98 11.3 0.0 0.0 0 0.0 0.0 1013.0 0.0 0.0 11.6 0.0
02/02/18 01:08 11.6 98 11.3 0.0 0.0 0 0.0 0.0 1014.0 0.0 0.0 11.6 0.0
02/02/18 01:09 11.7 98 11.4 0.0 0.0 0 0.0 0.0 1014.0 0.0 0.0 11.7 0.0
02/02/18 01:10 11.7 98 11.4 0.0 0.0 0 0.0 0.0 1014.0 0.0 0.0 11.7 0.0
02/02/18 01:11 11.6 98 11.3 0.0 0.0 0 0.0 0.0 1014.0 0.0 0.0 11.6 0.0
02/02/18 01:12 11.6 98 11.3 0.0 0.0 0 0.0 0.0 1014.0 0.0 0.0 11.6 0.0
02/02/18 01:13 11.6 98 11.3 0.0 0.0 0 0.0 0.0 1014.0 0.0 0.0 11.6 0.0
02/02/18 01:14 11.6 98 11.3 0.0 0.0 0 0.0 0.0 1014.0 0.0 0.0 11.6 0.0
02/02/18 01:15 11.6 98 11.3 0.0 0.0 0 0.0 0.0 1014.0 0.0 0.0 11.6 0.0
02/02/18 01:16 11.6 98 11.3 0.0 0.0 0 0.0 0.0 1014.0 0.0 0.0 11.6 0.0
02/02/18 01:17 11.6 98 11.3 0.0 0.0 0 0.0 0.0 1014.0 0.0 0.0 11.6 0.0
02/02/18 01:18 11.6 98 11.3 0.0 0.0 0 0.0 0.0 1014.0 0.0 0.0 11.6 0.0
02/02/18 01:19 11.6 98 11.3 0.0 0.0 0 0.0 0.0 1014.0 0.0 0.0 11.6 0.0
02/02/18 01:20 11.6 98 11.3 0.0 0.0 0 0.0 0.0 1014.0 0.0 0.0 11.6 0.0
02/02/18 01:21 11.6 98 11.3 0.0 0.0 0 0.0 0.0 1014.0 0.0 0.0 11.6 0.0
02/02/18 01:22 11.6 98 11.3 0.0 0.0 0 0.0 0.0 1014.0 0.0 0.0 11.6 0.0
02/02/18 01:23 11.6 98 11.3 0.0 0.0 0 0.0 0.0 1013.0 0.0 0.0 11.6 0.0
02/02/18 01:24 11.6 98 11.3 0.0 0.0 0 0.0 0.0 1013.0 0.0 0.0 11.6 0.0
02/02/18 01:25 11.6 98 11.3 0.0 0.0 0 0.0 0.0 1013.0 0.0 0.0 11.6 0.0
02/02/18 01:26 11.6 98 11.3 0.0 0.0 0 0.0 0.0 1013.0 0.0 0.0 11.6 0.0
02/02/18 01:27 11.5 98 11.2 0.0 0.0 0 0.0 0.0 1013.0 0.0 0.0 11.5 0.0
02/02/18 01:28 11.5 98 11.2 0.0 0.0 0 0.0 0.0 1013.0 0.0 0.0 11.5 0.0
02/02/18 01:29 11.5 98 11.2 0.0 0.0 0 0.0 0.0 1013.0 0.0 0.0 11.5 0.0
02/02/18 01:30 11.6 98 11.3 0.0 0.0 0 0.0 0.0 1013.0 0.0 0.0 11.6 0.0
02/02/18 01:31 11.5 98 11.2 0.0 0.0 0 0.0 0.0 1013.0 0.0 0.0 11.5 0.0
02/02/18 01:32 11.5 98 11.2 0.0 0.0 0 0.0 0.0 1013.0 0.0 0.0 11.5 0.0
02/02/18 01:33 11.6 98 11.3 0.0 0.0 0 0.0 0.0 1013.0 0.0 0.0 11.6 0.0
02/02/18 01:34 11.6 98 11.3 0.0 0.0 0 0.0 0.0 1013.0 0.0 0.0 11.6 0.0
02/02/18 01:35 11.6 98 11.3 0.0 0.0 0 0.0 0.0 1013.0 0.0 0.0 11.6 0.0
02/02/18 01:36 11.6 98 11.3 0.0 0.0 0 0.0 0.0 1013.0 0.0 0.0 11.6 0.0
02/02/18 01:37 11.6 98 11.3 0.0 0.0 0 0.0 0.0 1013.0 0.0 0.0 11.6 0.0
02/02/18 01:38 11.6 98 11.3 0.0 0.0 0 0.0 0.0 1013.0 0.0 0.0 11.6 0.0
02/02/18 01:39 11.6 98 11.3 0.0 0.0 0 0.0 0.0 1013.0 0.0 0.0 11.6 0.0
02/02/18 01:40 11.6 98 11.3 0.0 0.0 0 0.0 0.0 1013.0 0.0 0.0 11.6 0.0
02/02/18 01:41 11.6 98 11.3 0.0 0.0 0 0.0 0.0 1013.0 0.0 0.0 11.6 0.0
02/02/18 01:42 11.6 98 11.3 0.0 0.0 0 0.0 0.0 1013.0 0.0 0.0 11.6 0.0
02/02/18 01:43 11.6 98 11.3 0.0 0.0 0 0.0 0.0 1013.0 0.0 0.0 11.6 0.0
02/02/18 01:44 11.6 98 11.3 0.0 0.0 0 0.0 0.0 1013.0 0.0 0.0 11.6 0.0
02/02/18 01:45 11.6 98 11.3 0.0 0.0 0 0.0 0.0 1013.0 0.0 0.0 11.6 0.0
02/02/18 01:46 11.6 98 11.3 0.0 0.0 0 0.0 0.0 1013.0 0.0 0.0 11.6 0.0
02/02/18 01:47 11.6 98 11.3 0.0 0.0 0 0.0 0.0 1013.0 0.0 0.0 11.6 0.0
02/02/18 01:48 11.6 98 11.3 0.0 0.0 0 0.0 0.0 1013.0 0.0 0.0 11.6 0.0
02/02/18 01:49 11.6 98 11.3 0.0 0.0 0 0.0 0.0 1013.0 0.0 0.0 11.6 0.0
02/02/18 01:50 11.6 98 11.3 0.0 0.0 0 0.0 0.0 1013.0 0.0 0.0 11.6 0.0
02/02/18 01:51 11.6 98 11.3 0.0 0.0 0 0.0 0.0 1013.0 0.0 0.0 11.6 0.0
02/02/18 01:52 11.6 98 11.3 0.0 0.0 0 0.0 0.0 1013.0 0.0 0.0 11.6 0.0
02/02/18 01:53 11.6 98 11.3 0.0 0.0 0 0.0 0.0 1013.0 0.0 0.0 11.6 0.0
02/02/18 01:54 11.6 98 11.3 0.0 0.0 0 0.0 0.0 1013.0 0.0 0.0 11.6 0.0
02/02/18 01:55 11.6 98 11.3 0.0 0.0 0 0.0 0.0 1013.0 0.0 0.0 11.6 0.0
02/02/18 01:56 11.5 98 11.2 0.0 0.0 0 0.0 0.0 1013.0 0.0 0.0 11.5 0.0
02/02/18 01:57 11.5 98 11.2 0.0 0.0 0 0.0 0.0 1013.0 0.0 0.0 11.5 0.0
02/02/18 01:58 11.5 98 11.2 0.0 0.0 0 0.0 0.0 1013.0 0.0 0.0 11.5 0.0
02/02/18 01:59 11.5 98 11.2 0.0 0.0 0 0.0 0.0 1013.0 0.0 0.0 11.5 0.0
02/02/18 02:02 11.5 98 11.2 0.0 0.0 0 0.0 0.0 1013.0 0.0 0.0 11.5 0.0
02/02/18 02:03 11.5 98 11.2 0.0 0.0 0 0.0 0.0 1013.0 0.0 0.0 11.5 0.0
02/02/18 02:04 11.5 98 11.2 0.0 0.0 0 0.0 0.0 1013.0 0.0 0.0 11.5 0.0
02/02/18 02:05 11.5 98 11.2 0.0 0.0 0 0.0 0.0 1013.0 0.0 0.0 11.5 0.0
02/02/18 02:06 11.5 98 11.2 0.0 0.0 0 0.0 0.0 1013.0 0.0 0.0 11.5 0.0
02/02/18 02:07 11.5 98 11.2 0.0 0.0 0 0.0 0.0 1013.0 0.0 0.0 11.5 0.0
02/02/18 02:08 11.5 98 11.2 0.0 0.0 0 0.0 0.0 1013.0 0.0 0.0 11.5 0.0
02/02/18 02:09 11.5 98 11.2 0.0 0.0 0 0.0 0.0 1013.0 0.0 0.0 11.5 0.0
02/02/18 02:10 11.5 98 11.2 0.0 0.0 0 0.0 0.0 1013.0 0.0 0.0 11.5 0.0
02/02/18 02:11 11.5 98 11.2 0.0 0.0 0 0.0 0.0 1013.0 0.0 0.0 11.5 0.0
02/02/18 02:12 11.5 98 11.2 0.0 0.0 0 0.0 0.0 1013.0 0.0 0.0 11.5 0.0
02/02/18 02:13 11.5 98 11.2 0.0 0.0 0 0.0 0.0 1013.0 0.0 0.0 11.5 0.0
02/02/18 02:14 11.5 98 11.2 0.0 0.0 0 0.0 0.0 1013.0 0.0 0.0 11.5 0.0
02/02/18 02:15 11.5 98 11.2 0.0 0.0 0 0.0 0.0 1013.0 0.0 0.0 11.5 0.0
02/02/18 02:16 11.5 98 11.2 0.0 0.0 0 0.0 0.0 1013.0 0.0 0.0 11.5 0.0
02/02/18 02:17 11.5 98 11.2 0.0 0.0 0 0.0 0.0 1013.0 0.0 0.0 11.5 0.0
02/02/18 02:18 11.5 98 11.2 0.0 0.0 0 0.0 0.0 1013.0 0.0 0.0 11.5 0.0
02/02/18 02:19 11.4 98 11.1 0.0 0.0 0 0.0 0.0 1013.0 0.0 0.0 11.4 0.0
02/02/18 02:20 11.5 98 11.2 0.0 0.0 0 0.0 0.0 1013.0 0.0 0.0 11.5 0.0
02/02/18 02:21 11.4 98 11.1 0.0 0.0 0 0.0 0.0 1013.0 0.0 0.0 11.4 0.0
02/02/18 02:22 11.4 98 11.1 0.0 0.0 0 0.0 0.0 1013.0 0.0 0.0 11.4 0.0
02/02/18 02:23 11.4 98 11.1 0.0 0.0 0 0.0 0.0 1013.0 0.0 0.0 11.4 0.0
02/02/18 02:24 11.4 98 11.1 0.0 0.0 0 0.0 0.0 1013.0 0.0 0.0 11.4 0.0
02/02/18 02:25 11.4 98 11.1 0.0 0.0 0 0.0 0.0 1013.0 0.0 0.0 11.4 0.0
02/02/18 02:26 11.4 98 11.1 0.0 0.0 0 0.0 0.0 1013.0 0.0 0.0 11.4 0.0
02/02/18 02:27 11.4 98 11.1 0.0 0.0 0 0.0 0.0 1013.0 0.0 0.0 11.4 0.0
02/02/18 02:28 11.4 98 11.1 0.0 0.0 0 0.0 0.0 1013.0 0.0 0.0 11.4 0.0
02/02/18 02:29 11.4 98 11.1 0.0 0.0 0 0.0 0.0 1013.0 0.0 0.0 11.4 0.0
02/02/18 02:30 11.4 98 11.1 0.0 0.0 0 0.0 0.0 1013.0 0.0 0.0 11.4 0.0
02/02/18 02:31 11.4 98 11.1 0.0 0.0 0 0.0 0.0 1013.0 0.0 0.0 11.4 0.0
02/02/18 02:32 11.4 98 11.1 0.0 0.0 0 0.0 0.0 1013.0 0.0 0.0 11.4 0.0
02/02/18 02:33 11.4 98 11.1 0.0 0.0 0 0.0 0.0 1013.0 0.0 0.0 11.4 0.0
02/02/18 02:34 11.4 98 11.1 0.0 0.0 0 0.0 0.0 1013.0 0.0 0.0 11.4 0.0
02/02/18 02:35 11.4 98 11.1 0.0 0.0 0 0.0 0.0 1013.0 0.0 0.0 11.4 0.0
02/02/18 02:36 11.4 98 11.1 0.0 0.0 0 0.0 0.0 1013.0 0.0 0.0 11.4 0.0
02/02/18 02:37 11.4 98 11.1 0.0 0.0 0 0.0 0.0 1013.0 0.0 0.0 11.4 0.0
02/02/18 02:38 11.4 98 11.1 0.0 0.0 0 0.0 0.0 1013.0 0.0 0.0 11.4 0.0
02/02/18 02:39 11.4 98 11.1 0.0 0.0 0 0.0 0.0 1013.0 0.0 0.0 11.4 0.0
02/02/18 02:40 11.4 98 11.1 0.0 0.0 0 0.0 0.0 1013.0 0.0 0.0 11.4 0.0
02/02/18 02:41 11.4 98 11.1 0.0 0.0 0 0.0 0.0 1013.0 0.0 0.0 11.4 0.0
02/02/18 02:42 11.4 98 11.1 0.0 0.0 0 0.0 0.0 1013.0 0.0 0.0 11.4 0.0
02/02/18 02:43 11.4 98 11.1 0.0 0.0 0 0.0 0.0 1013.0 0.0 0.0 11.4 0.0
02/02/18 02:44 11.4 98 11.1 0.0 0.0 0 0.0 0.0 1013.0 0.0 0.0 11.4 0.0
02/02/18 02:45 11.4 98 11.1 0.0 0.0 0 0.0 0.0 1013.0 0.0 0.0 11.4 0.0
02/02/18 02:46 11.4 98 11.1 0.0 0.0 0 0.0 0.0 1013.0 0.0 0.0 11.4 0.0
02/02/18 02:47 11.4 98 11.1 0.0 0.0 0 0.0 0.0 1013.0 0.0 0.0 11.4 0.0
02/02/18 02:48 11.4 98 11.1 0.0 0.0 0 0.0 0.0 1013.0 0.0 0.0 11.4 0.0
02/02/18 02:49 11.4 98 11.1 0.0 0.0 0 0.0 0.0 1013.0 0.0 0.0 11.4 0.0
02/02/18 02:50 11.4 98 11.1 0.0 0.0 0 0.0 0.0 1013.0 0.0 0.0 11.4 0.0
02/02/18 02:51 11.4 98 11.1 0.0 0.0 0 0.0 0.0 1013.0 0.0 0.0 11.4 0.0
02/02/18 02:52 11.4 98 11.1 0.0 0.0 0 0.0 0.0 1013.0 0.0 0.0 11.4 0.0
02/02/18 02:53 11.5 98 11.2 0.0 0.0 0 0.0 0.0 1013.0 0.0 0.0 11.5 0.0
02/02/18 02:54 11.5 98 11.2 0.0 0.0 0 0.0 0.0 1013.0 0.0 0.0 11.5 0.0
02/02/18 02:55 11.5 98 11.2 0.0 0.0 0 0.0 0.0 1013.0 0.0 0.0 11.5 0.0
02/02/18 02:56 11.5 98 11.2 0.0 0.0 0 0.0 0.0 1013.0 0.0 0.0 11.5 0.0
02/02/18 02:57 11.5 98 11.2 0.0 0.0 0 0.0 0.0 1013.0 0.0 0.0 11.5 0.0
02/02/18 02:58 11.5 98 11.2 0.0 0.0 0 0.0 0.0 1013.0 0.0 0.0 11.5 0.0
02/02/18 02:59 11.5 98 11.2 0.0 0.0 0 0.0 0.0 1013.0 0.0 0.0 11.5 0.0
02/02/18 03:00 11.5 98 11.2 0.0 0.0 0 0.0 0.0 1013.0 0.0 0.0 11.5 0.0
02/02/18 03:02 11.5 98 11.2 0.0 0.0 0 0.0 0.0 1013.0 0.0 0.0 11.5 0.0
02/02/18 03:03 11.4 98 11.1 0.0 0.0 0 0.0 0.0 1013.0 0.0 0.0 11.4 0.0
02/02/18 03:04 11.4 98 11.1 0.0 0.0 0 0.0 0.0 1013.0 0.0 0.0 11.4 0.0
02/02/18 03:05 11.4 98 11.1 0.0 0.0 0 0.0 0.0 1013.0 0.0 0.0 11.4 0.0
02/02/18 03:06 11.4 98 11.1 0.0 0.0 0 0.0 0.0 1013.0 0.0 0.0 11.4 0.0
02/02/18 03:07 11.4 98 11.1 0.0 0.0 0 0.0 0.0 1013.0 0.0 0.0 11.4 0.0
02/02/18 03:08 11.4 98 11.1 0.0 0.0 0 0.0 0.0 1013.0 0.0 0.0 11.4 0.0
02/02/18 03:09 11.4 98 11.1 0.0 0.0 0 0.0 0.0 1013.0 0.0 0.0 11.4 0.0
02/02/18 03:10 11.5 98 11.2 0.0 0.0 0 0.0 0.0 1013.0 0.0 0.0 11.5 0.0
02/02/18 03:11 11.5 98 11.2 0.0 0.0 0 0.0 0.0 1013.0 0.0 0.0 11.5 0.0
02/02/18 03:12 11.4 98 11.1 0.0 0.0 0 0.0 0.0 1013.0 0.0 0.0 11.4 0.0
02/02/18 03:13 11.4 98 11.1 0.0 0.0 0 0.0 0.0 1013.0 0.0 0.0 11.4 0.0
02/02/18 03:14 11.4 98 11.1 0.0 0.0 0 0.0 0.0 1013.0 0.0 0.0 11.4 0.0
02/02/18 03:15 11.4 98 11.1 0.0 0.0 0 0.0 0.0 1013.0 0.0 0.0 11.4 0.0
02/02/18 03:16 11.4 98 11.1 0.0 0.0 0 0.0 0.0 1013.0 0.0 0.0 11.4 0.0
02/02/18 03:17 11.4 98 11.1 0.0 0.0 0 0.0 0.0 1013.0 0.0 0.0 11.4 0.0
02/02/18 03:18 11.4 98 11.1 0.0 0.0 0 0.0 0.0 1013.0 0.0 0.0 11.4 0.0
02/02/18 03:19 11.5 98 11.2 0.0 0.0 0 0.0 0.0 1013.0 0.0 0.0 11.5 0.0
02/02/18 03:20 11.5 98 11.2 0.0 0.0 0 0.0 0.0 1013.0 0.0 0.0 11.5 0.0
02/02/18 03:21 11.4 98 11.1 0.0 0.0 0 0.0 0.0 1013.0 0.0 0.0 11.4 0.0
02/02/18 03:22 11.5 98 11.2 0.0 0.0 0 0.0 0.0 1013.0 0.0 0.0 11.5 0.0
02/02/18 03:23 11.5 98 11.2 0.0 0.0 0 0.0 0.0 1013.0 0.0 0.0 11.5 0.0
02/02/18 03:24 11.4 98 11.1 0.0 0.0 0 0.0 0.0 1013.0 0.0 0.0 11.4 0.0
02/02/18 03:25 11.5 98 11.2 0.0 0.0 0 0.0 0.0 1013.0 0.0 0.0 11.5 0.0
02/02/18 03:26 11.4 98 11.1 0.0 0.0 0 0.0 0.0 1013.0 0.0 0.0 11.4 0.0
02/02/18 03:27 11.5 98 11.2 0.0 0.0 0 0.0 0.0 1013.0 0.0 0.0 11.5 0.0
02/02/18 03:28 11.5 98 11.2 0.0 0.0 0 0.0 0.0 1013.0 0.0 0.0 11.5 0.0
02/02/18 03:29 11.5 98 11.2 0.0 0.0 0 0.0 0.0 1013.0 0.0 0.0 11.5 0.0
02/02/18 03:30 11.5 98 11.2 0.0 0.0 0 0.0 0.0 1013.0 0.0 0.0 11.5 0.0
02/02/18 03:31 11.5 98 11.2 0.0 0.0 0 0.0 0.0 1013.0 0.0 0.0 11.5 0.0
02/02/18 03:32 11.5 98 11.2 0.0 0.0 0 0.0 0.0 1013.0 0.0 0.0 11.5 0.0
02/02/18 03:33 11.5 98 11.2 0.0 0.0 0 0.0 0.0 1013.0 0.0 0.0 11.5 0.0
02/02/18 03:34 11.5 98 11.2 0.0 0.0 0 0.0 0.0 1013.0 0.0 0.0 11.5 0.0
02/02/18 03:35 11.5 98 11.2 0.0 0.0 0 0.0 0.0 1013.0 0.0 0.0 11.5 0.0
02/02/18 03:36 11.4 98 11.1 0.0 0.0 0 0.0 0.0 1013.0 0.0 0.0 11.4 0.0
02/02/18 03:37 11.4 98 11.1 0.0 0.0 0 0.0 0.0 1013.0 0.0 0.0 11.4 0.0
02/02/18 03:38 11.4 98 11.1 0.0 0.0 0 0.0 0.0 1013.0 0.0 0.0 11.4 0.0
02/02/18 03:39 11.4 98 11.1 0.0 0.0 0 0.0 0.0 1013.0 0.0 0.0 11.4 0.0
02/02/18 03:40 11.4 98 11.1 0.0 0.0 0 0.0 0.0 1013.0 0.0 0.0 11.4 0.0
02/02/18 03:41 11.4 98 11.1 0.0 0.0 0 0.0 0.0 1013.0 0.0 0.0 11.4 0.0
02/02/18 03:42 11.4 98 11.1 0.0 0.0 0 0.0 0.0 1013.0 0.0 0.0 11.4 0.0
02/02/18 03:43 11.4 98 11.1 0.0 0.0 0 0.0 0.0 1013.0 0.0 0.0 11.4 0.0
02/02/18 03:44 11.4 98 11.1 0.0 0.0 0 0.0 0.0 1013.0 0.0 0.0 11.4 0.0
02/02/18 03:45 11.4 98 11.1 0.0 0.0 0 0.0 0.0 1013.0 0.0 0.0 11.4 0.0
02/02/18 03:46 11.3 98 11.0 0.0 0.0 0 0.0 0.0 1013.0 0.0 0.0 11.3 0.0
02/02/18 03:47 11.3 98 11.0 0.0 0.0 0 0.0 0.0 1013.0 0.0 0.0 11.3 0.0
02/02/18 03:48 11.3 98 11.0 0.0 0.0 0 0.0 0.0 1013.0 0.0 0.0 11.3 0.0
02/02/18 03:49 11.3 98 11.0 0.0 0.0 0 0.0 0.0 1013.0 0.0 0.0 11.3 0.0
02/02/18 03:50 11.3 98 11.0 0.0 0.0 0 0.0 0.0 1013.0 0.0 0.0 11.3 0.0
02/02/18 03:51 11.3 98 11.0 0.0 0.0 0 0.0 0.0 1013.0 0.0 0.0 11.3 0.0
02/02/18 03:52 11.3 98 11.0 0.0 0.0 0 0.0 0.0 1013.0 0.0 0.0 11.3 0.0
02/02/18 03:53 11.3 98 11.0 0.0 0.0 0 0.0 0.0 1013.0 0.0 0.0 11.3 0.0
02/02/18 03:54 11.3 98 11.0 0.0 0.0 0 0.0 0.0 1013.0 0.0 0.0 11.3 0.0
02/02/18 03:55 11.3 98 11.0 0.0 0.0 0 0.0 0.0 1013.0 0.0 0.0 11.3 0.0
02/02/18 03:56 11.3 98 11.0 0.0 0.0 0 0.0 0.0 1013.0 0.0 0.0 11.3 0.0
02/02/18 03:57 11.3 98 11.0 0.0 0.0 0 0.0 0.0 1013.0 0.0 0.0 11.3 0.0
02/02/18 03:58 11.3 98 11.0 0.0 0.0 0 0.0 0.0 1013.0 0.0 0.0 11.3 0.0
02/02/18 03:59 11.3 98 11.0 0.0 0.0 0 0.0 0.0 1013.0 0.0 0.0 11.3 0.0
02/02/18 04:00 11.3 98 11.0 0.0 0.0 0 0.0 0.0 1013.0 0.0 0.0 11.3 0.0
02/02/18 04:02 11.3 98 11.0 0.0 0.0 0 0.0 0.0 1013.0 0.0 0.0 11.3 0.0
02/02/18 04:03 11.3 98 11.0 0.0 0.0 0 0.0 0.0 1013.0 0.0 0.0 11.3 0.0
02/02/18 04:04 11.3 98 11.0 0.0 0.0 0 0.0 0.0 1013.0 0.0 0.0 11.3 0.0
02/02/18 04:05 11.3 98 11.0 0.0 0.0 0 0.0 0.0 1013.0 0.0 0.0 11.3 0.0
02/02/18 04:06 11.3 98 11.0 0.0 0.0 0 0.0 0.0 1013.0 0.0 0.0 11.3 0.0
02/02/18 04:07 11.3 98 11.0 0.0 0.0 0 0.0 0.0 1013.0 0.0 0.0 11.3 0.0
02/02/18 04:08 11.3 98 11.0 0.0 0.0 0 0.0 0.0 1013.0 0.0 0.0 11.3 0.0
02/02/18 04:09 11.3 98 11.0 0.0 0.0 0 0.0 0.0 1013.0 0.0 0.0 11.3 0.0
02/02/18 04:10 11.3 98 11.0 0.0 0.0 0 0.0 0.0 1013.0 0.0 0.0 11.3 0.0
02/02/18 04:11 11.3 98 11.0 0.0 0.0 0 0.0 0.0 1013.0 0.0 0.0 11.3 0.0
02/02/18 04:12 11.3 98 11.0 0.0 0.0 0 0.0 0.0 1013.0 0.0 0.0 11.3 0.0
02/02/18 04:13 11.3 98 11.0 0.0 0.0 0 0.0 0.0 1013.0 0.0 0.0 11.3 0.0
02/02/18 04:14 11.3 98 11.0 0.0 0.0 0 0.0 0.0 1013.0 0.0 0.0 11.3 0.0
02/02/18 04:15 11.3 98 11.0 0.0 0.0 0 0.0 0.0 1013.0 0.0 0.0 11.3 0.0
02/02/18 04:16 11.3 98 11.0 0.0 0.0 0 0.0 0.0 1013.0 0.0 0.0 11.3 0.0
02/02/18 04:17 11.3 98 11.0 0.0 0.0 0 0.0 0.0 1013.0 0.0 0.0 11.3 0.0
02/02/18 04:18 11.3 98 11.0 0.0 0.0 0 0.0 0.0 1013.0 0.0 0.0 11.3 0.0
02/02/18 04:19 11.3 98 11.0 0.0 0.0 0 0.0 0.0 1013.0 0.0 0.0 11.3 0.0
02/02/18 04:20 11.3 98 11.0 0.0 0.0 0 0.0 0.0 1013.0 0.0 0.0 11.3 0.0
02/02/18 04:21 11.3 98 11.0 0.0 0.0 0 0.0 0.0 1013.0 0.0 0.0 11.3 0.0
02/02/18 04:22 11.4 98 11.1 0.0 0.0 0 0.0 0.0 1013.0 0.0 0.0 11.4 0.0
02/02/18 04:23 11.4 98 11.1 0.0 0.0 0 0.0 0.0 1014.0 0.0 0.0 11.4 0.0
02/02/18 04:24 11.4 98 11.1 0.0 0.0 0 0.0 0.0 1014.0 0.0 0.0 11.4 0.0
02/02/18 04:25 11.4 98 11.1 0.0 0.0 0 0.0 0.0 1014.0 0.0 0.0 11.4 0.0
02/02/18 04:26 11.4 98 11.1 0.0 0.0 0 0.0 0.0 1014.0 0.0 0.0 11.4 0.0
02/02/18 04:27 11.4 98 11.1 0.0 0.0 0 0.0 0.0 1014.0 0.0 0.0 11.4 0.0
02/02/18 04:28 11.4 98 11.1 0.0 0.0 0 0.0 0.0 1014.0 0.0 0.0 11.4 0.0
02/02/18 04:29 11.4 98 11.1 0.0 0.0 0 0.0 0.0 1014.0 0.0 0.0 11.4 0.0
02/02/18 04:30 11.4 98 11.1 0.0 0.0 0 0.0 0.0 1014.0 0.0 0.0 11.4 0.0
02/02/18 04:31 11.4 98 11.1 0.0 0.0 0 0.0 0.0 1014.0 0.0 0.0 11.4 0.0
02/02/18 04:32 11.4 98 11.1 0.0 0.0 0 0.0 0.0 1014.0 0.0 0.0 11.4 0.0
02/02/18 04:33 11.4 98 11.1 0.0 0.0 0 0.0 0.0 1014.0 0.0 0.0 11.4 0.0
02/02/18 04:34 11.4 98 11.1 0.0 0.0 0 0.0 0.0 1014.0 0.0 0.0 11.4 0.0
02/02/18 04:35 11.4 98 11.1 0.0 0.0 0 0.0 0.0 1014.0 0.0 0.0 11.4 0.0
02/02/18 04:36 11.4 98 11.1 0.0 0.0 0 0.0 0.0 1014.0 0.0 0.0 11.4 0.0
02/02/18 04:37 11.4 98 11.1 0.0 0.0 0 0.0 0.0 1014.0 0.0 0.0 11.4 0.0
02/02/18 04:38 11.3 98 11.0 0.0 0.0 0 0.0 0.0 1013.0 0.0 0.0 11.3 0.0
02/02/18 04:39 11.3 98 11.0 0.0 0.0 0 0.0 0.0 1013.0 0.0 0.0 11.3 0.0
02/02/18 04:40 11.3 98 11.0 0.0 0.0 0 0.0 0.0 1013.0 0.0 0.0 11.3 0.0
02/02/18 04:41 11.3 98 11.0 0.0 0.0 0 0.0 0.0 1013.0 0.0 0.0 11.3 0.0
02/02/18 04:42 11.3 98 11.0 0.0 0.0 0 0.0 0.0 1013.0 0.0 0.0 11.3 0.0
02/02/18 04:43 11.3 98 11.0 0.0 0.0 0 0.0 0.0 1013.0 0.0 0.0 11.3 0.0
02/02/18 04:44 11.3 98 11.0 0.0 0.0 0 0.0 0.0 1013.0 0.0 0.0 11.3 0.0
02/02/18 04:45 11.2 98 10.9 0.0 0.0 0 0.0 0.0 1013.0 0.0 0.0 11.2 0.0
02/02/18 04:46 11.2 98 10.9 0.0 0.0 0 0.0 0.0 1013.0 0.0 0.0 11.2 0.0
02/02/18 04:47 11.2 98 10.9 0.0 0.0 0 0.0 0.0 1013.0 0.0 0.0 11.2 0.0
02/02/18 04:48 11.2 98 10.9 0.0 0.0 0 0.0 0.0 1013.0 0.0 0.0 11.2 0.0
02/02/18 04:49 11.2 98 10.9 0.0 0.0 0 0.0 0.0 1013.0 0.0 0.0 11.2 0.0
02/02/18 04:50 11.1 98 10.8 0.0 0.0 0 0.0 0.0 1013.0 0.0 0.0 11.1 0.0
02/02/18 04:51 11.1 98 10.8 0.0 0.0 0 0.0 0.0 1013.0 0.0 0.0 11.1 0.0
02/02/18 04:52 11.1 98 10.8 0.0 0.0 0 0.0 0.0 1013.0 0.0 0.0 11.1 0.0
02/02/18 04:53 11.1 98 10.8 0.0 0.0 0 0.0 0.0 1013.0 0.0 0.0 11.1 0.0
02/02/18 04:54 11.1 98 10.8 0.0 0.0 0 0.0 0.0 1013.0 0.0 0.0 11.1 0.0
02/02/18 04:55 11.1 98 10.8 0.0 0.0 0 0.0 0.0 1013.0 0.0 0.0 11.1 0.0
02/02/18 04:56 11.1 98 10.8 0.0 0.0 0 0.0 0.0 1013.0 0.0 0.0 11.1 0.0
02/02/18 04:57 11.0 98 10.7 0.0 0.0 0 0.0 0.0 1013.0 0.0 0.0 11.0 0.0
02/02/18 04:58 11.0 98 10.7 0.0 0.0 0 0.0 0.0 1013.0 0.0 0.0 11.0 0.0
02/02/18 04:59 11.0 98 10.7 0.0 0.0 0 0.0 0.0 1013.0 0.0 0.0 11.0 0.0
02/02/18 05:00 11.0 98 10.7 0.0 0.0 0 0.0 0.0 1013.0 0.0 0.0 11.0 0.0
02/02/18 05:02 11.0 98 10.7 0.0 0.0 0 0.0 0.0 1013.0 0.0 0.0 11.0 0.0
02/02/18 05:03 11.0 98 10.7 0.0 0.0 0 0.0 0.0 1013.0 0.0 0.0 11.0 0.0
02/02/18 05:04 11.0 98 10.7 0.0 0.0 0 0.0 0.0 1013.0 0.0 0.0 11.0 0.0
02/02/18 05:05 11.0 98 10.7 0.0 0.0 0 0.0 0.0 1013.0 0.0 0.0 11.0 0.0
02/02/18 05:06 11.0 98 10.7 0.0 0.0 0 0.0 0.0 1013.0 0.0 0.0 11.0 0.0
02/02/18 05:07 11.0 98 10.7 0.0 0.0 0 0.0 0.0 1013.0 0.0 0.0 11.0 0.0
02/02/18 05:08 11.0 98 10.7 0.0 0.0 0 0.0 0.0 1012.0 0.0 0.0 11.0 0.0
02/02/18 05:09 11.0 98 10.7 0.0 0.0 0 0.0 0.0 1012.0 0.0 0.0 11.0 0.0
02/02/18 05:10 11.0 98 10.7 0.0 0.0 0 0.0 0.0 1012.0 0.0 0.0 11.0 0.0
02/02/18 05:11 11.0 98 10.7 0.0 0.0 0 0.0 0.0 1012.0 0.0 0.0 11.0 0.0
02/02/18 05:12 11.0 98 10.7 0.0 0.0 0 0.0 0.0 1012.0 0.0 0.0 11.0 0.0
02/02/18 05:13 11.0 98 10.7 0.0 0.0 0 0.0 0.0 1012.0 0.0 0.0 11.0 0.0
02/02/18 05:14 11.0 98 10.7 0.0 0.0 0 0.0 0.0 1012.0 0.0 0.0 11.0 0.0
02/02/18 05:15 11.0 98 10.7 0.0 0.0 0 0.0 0.0 1012.0 0.0 0.0 11.0 0.0
02/02/18 05:16 11.0 98 10.7 0.0 0.0 0 0.0 0.0 1012.0 0.0 0.0 11.0 0.0
02/02/18 05:17 10.9 98 10.6 0.0 0.0 0 0.0 0.0 1012.0 0.0 0.0 10.9 0.0
02/02/18 05:18 10.9 98 10.6 0.0 0.0 0 0.0 0.0 1012.0 0.0 0.0 10.9 0.0
02/02/18 05:19 10.9 98 10.6 0.0 0.0 0 0.0 0.0 1012.0 0.0 0.0 10.9 0.0
02/02/18 05:20 10.9 98 10.6 0.0 0.0 0 0.0 0.0 1012.0 0.0 0.0 10.9 0.0
02/02/18 05:21 10.9 98 10.6 0.0 0.0 0 0.0 0.0 1012.0 0.0 0.0 10.9 0.0
02/02/18 05:22 11.0 98 10.7 0.0 0.0 0 0.0 0.0 1012.0 0.0 0.0 11.0 0.0
02/02/18 05:23 10.9 98 10.6 0.0 0.0 0 0.0 0.0 1013.0 0.0 0.0 10.9 0.0
02/02/18 05:24 10.9 98 10.6 0.0 0.0 0 0.0 0.0 1013.0 0.0 0.0 10.9 0.0
02/02/18 05:25 10.9 98 10.6 0.0 0.0 0 0.0 0.0 1013.0 0.0 0.0 10.9 0.0
02/02/18 05:26 10.9 98 10.6 0.0 0.0 0 0.0 0.0 1013.0 0.0 0.0 10.9 0.0
02/02/18 05:27 10.9 98 10.6 0.0 0.0 0 0.0 0.0 1013.0 0.0 0.0 10.9 0.0
02/02/18 05:28 10.9 98 10.6 0.0 0.0 0 0.0 0.0 1013.0 0.0 0.0 10.9 0.0
02/02/18 05:29 10.9 98 10.6 0.0 0.0 0 0.0 0.0 1013.0 0.0 0.0 10.9 0.0
02/02/18 05:30 10.9 98 10.6 0.0 0.0 0 0.0 0.0 1013.0 0.0 0.0 10.9 0.0
02/02/18 05:31 10.9 98 10.6 0.0 0.0 0 0.0 0.0 1013.0 0.0 0.0 10.9 0.0
02/02/18 05:32 10.9 98 10.6 0.0 0.0 0 0.0 0.0 1013.0 0.0 0.0 10.9 0.0
02/02/18 05:33 10.9 98 10.6 0.0 0.0 0 0.0 0.0 1013.0 0.0 0.0 10.9 0.0
02/02/18 05:34 10.9 98 10.6 0.0 0.0 0 0.0 0.0 1013.0 0.0 0.0 10.9 0.0
02/02/18 05:35 10.9 98 10.6 0.0 0.0 0 0.0 0.0 1013.0 0.0 0.0 10.9 0.0
02/02/18 05:36 10.9 98 10.6 0.0 0.0 0 0.0 0.0 1013.0 0.0 0.0 10.9 0.0
02/02/18 05:37 10.9 98 10.6 0.0 0.0 0 0.0 0.0 1013.0 0.0 0.0 10.9 0.0
02/02/18 05:38 10.9 98 10.6 0.0 0.0 0 0.0 0.0 1013.0 0.0 0.0 10.9 0.0
02/02/18 05:39 10.9 98 10.6 0.0 0.0 0 0.0 0.0 1013.0 0.0 0.0 10.9 0.0
02/02/18 05:40 10.9 98 10.6 0.0 0.0 0 0.0 0.0 1013.0 0.0 0.0 10.9 0.0
02/02/18 05:41 10.9 98 10.6 0.0 0.0 0 0.0 0.0 1013.0 0.0 0.0 10.9 0.0
02/02/18 05:42 10.9 98 10.6 0.0 0.0 0 0.0 0.0 1013.0 0.0 0.0 10.9 0.0
02/02/18 05:43 10.9 98 10.6 0.0 0.0 0 0.0 0.0 1013.0 0.0 0.0 10.9 0.0
02/02/18 05:44 11.0 98 10.7 0.0 0.0 0 0.0 0.0 1013.0 0.0 0.0 11.0 0.0
02/02/18 05:45 11.0 98 10.7 0.0 0.0 0 0.0 0.0 1013.0 0.0 0.0 11.0 0.0
02/02/18 05:46 11.0 98 10.7 0.0 0.0 0 0.0 0.0 1013.0 0.0 0.0 11.0 0.0
02/02/18 05:47 11.0 98 10.7 0.0 0.0 0 0.0 0.0 1013.0 0.0 0.0 11.0 0.0
02/02/18 05:48 11.0 98 10.7 0.0 0.0 0 0.0 0.0 1013.0 0.0 0.0 11.0 0.0
02/02/18 05:49 11.0 98 10.7 0.0 0.0 0 0.0 0.0 1013.0 0.0 0.0 11.0 0.0
02/02/18 05:50 11.0 98 10.7 0.0 0.0 0 0.0 0.0 1013.0 0.0 0.0 11.0 0.0
02/02/18 05:51 11.0 98 10.7 0.0 0.0 0 0.0 0.0 1013.0 0.0 0.0 11.0 0.0
02/02/18 05:52 11.0 98 10.7 0.0 0.0 0 0.0 0.0 1013.0 0.0 0.0 11.0 0.0
02/02/18 05:53 10.9 98 10.6 0.0 0.0 0 0.0 0.0 1013.0 0.0 0.0 10.9 0.0
02/02/18 05:54 10.9 98 10.6 0.0 0.0 0 0.0 0.0 1013.0 0.0 0.0 10.9 0.0
02/02/18 05:55 10.9 98 10.6 0.0 0.0 0 0.0 0.0 1013.0 0.0 0.0 10.9 0.0
02/02/18 05:56 10.9 98 10.6 0.0 0.0 0 0.0 0.0 1013.0 0.0 0.0 10.9 0.0
02/02/18 05:57 11.0 98 10.7 0.0 0.0 0 0.0 0.0 1013.0 0.0 0.0 11.0 0.0
02/02/18 05:58 11.0 98 10.7 0.0 0.0 0 0.0 0.0 1013.0 0.0 0.0 11.0 0.0
02/02/18 05:59 11.0 98 10.7 0.0 0.0 0 0.0 0.0 1013.0 0.0 0.0 11.0 0.0
02/02/18 06:03 11.0 98 10.7 0.0 0.0 0 0.0 0.0 1013.0 0.0 0.0 11.0 0.0
02/02/18 06:04 11.0 98 10.7 0.0 0.0 0 0.0 0.0 1013.0 0.0 0.0 11.0 0.0
02/02/18 06:05 11.0 98 10.7 0.0 0.0 0 0.0 0.0 1013.0 0.0 0.0 11.0 0.0
02/02/18 07:03 11.3 98 11.0 0.0 0.0 0 0.0 0.0 1013.0 0.0 0.0 11.3 0.0
02/02/18 07:04 11.3 98 11.0 0.0 0.0 0 0.0 0.0 1013.0 0.0 0.0 11.3 0.0
02/02/18 07:05 11.3 98 11.0 0.0 0.0 0 0.0 0.0 1013.0 0.0 0.0 11.3 0.0
02/02/18 07:06 11.3 98 11.0 0.0 0.0 0 0.0 0.0 1013.0 0.0 0.0 11.3 0.0
02/02/18 07:07 11.3 98 11.0 0.0 0.0 0 0.0 0.0 1013.0 0.0 0.0 11.3 0.0
02/02/18 07:08 11.3 98 11.0 0.0 0.0 0 0.0 0.0 1013.0 0.0 0.0 11.3 0.0
02/02/18 07:09 11.3 98 11.0 0.0 0.0 0 0.0 0.0 1013.0 0.0 0.0 11.3 0.0
02/02/18 07:10 11.3 98 11.0 0.0 0.0 0 0.0 0.0 1013.0 0.0 0.0 11.3 0.0
02/02/18 07:11 11.3 98 11.0 0.0 0.0 0 0.0 0.0 1013.0 0.0 0.0 11.3 0.0
02/02/18 07:12 11.4 98 11.1 0.0 0.0 0 0.0 0.0 1013.0 0.0 0.0 11.4 0.0
02/02/18 07:13 11.4 98 11.1 0.0 0.0 0 0.0 0.0 1013.0 0.0 0.0 11.4 0.0
02/02/18 07:14 11.4 98 11.1 0.0 0.0 0 0.0 0.0 1013.0 0.0 0.0 11.4 0.0
02/02/18 07:15 11.4 98 11.1 0.0 0.0 0 0.0 0.0 1013.0 0.0 0.0 11.4 0.0
02/02/18 07:16 11.4 98 11.1 0.0 0.0 0 0.0 0.0 1013.0 0.0 0.0 11.4 0.0
02/02/18 07:17 11.4 98 11.1 0.0 0.0 0 0.0 0.0 1013.0 0.0 0.0 11.4 0.0
02/02/18 07:18 11.4 98 11.1 0.0 0.0 0 0.0 0.0 1013.0 0.0 0.0 11.4 0.0
02/02/18 07:19 11.4 98 11.1 0.0 0.0 0 0.0 0.0 1013.0 0.0 0.0 11.4 0.0
02/02/18 07:20 11.4 98 11.1 0.0 0.0 0 0.0 0.0 1013.0 0.0 0.0 11.4 0.0
02/02/18 07:21 11.5 98 11.2 0.0 0.0 0 0.0 0.0 1013.0 0.0 0.0 11.5 0.0
02/02/18 07:22 11.4 98 11.1 0.0 0.0 0 0.0 0.0 1013.0 0.0 0.0 11.4 0.0
02/02/18 07:23 11.4 98 11.1 0.0 0.0 0 0.0 0.0 1013.0 0.0 0.0 11.4 0.0
02/02/18 07:24 11.4 98 11.1 0.0 0.0 0 0.0 0.0 1013.0 0.0 0.0 11.4 0.0
02/02/18 07:25 11.4 98 11.1 0.0 0.0 0 0.0 0.0 1013.0 0.0 0.0 11.4 0.0
02/02/18 07:26 11.4 98 11.1 0.0 0.0 0 0.0 0.0 1013.0 0.0 0.0 11.4 0.0
02/02/18 07:27 11.3 98 11.0 0.0 0.0 0 0.0 0.0 1013.0 0.0 0.0 11.3 0.0
02/02/18 07:28 11.3 98 11.0 0.0 0.0 0 0.0 0.0 1013.0 0.0 0.0 11.3 0.0
02/02/18 07:29 11.4 98 11.1 0.0 0.0 0 0.0 0.0 1013.0 0.0 0.0 11.4 0.0
02/02/18 07:30 11.4 98 11.1 0.0 0.0 0 0.0 0.0 1013.0 0.0 0.0 11.4 0.0
02/02/18 07:31 11.4 98 11.1 0.0 0.0 0 0.0 0.0 1013.0 0.0 0.0 11.4 0.0
02/02/18 07:32 11.3 98 11.0 0.0 0.0 0 0.0 0.0 1013.0 0.0 0.0 11.3 0.0
02/02/18 07:33 11.3 98 11.0 0.0 0.0 0 0.0 0.0 1013.0 0.0 0.0 11.3 0.0
02/02/18 07:34 11.3 98 11.0 0.0 0.0 0 0.0 0.0 1013.0 0.0 0.0 11.3 0.0
02/02/18 07:35 11.3 98 11.0 0.0 0.0 0 0.0 0.0 1013.0 0.0 0.0 11.3 0.0
02/02/18 07:36 11.3 98 11.0 0.0 0.0 0 0.0 0.0 1013.0 0.0 0.0 11.3 0.0
02/02/18 07:37 11.3 98 11.0 0.0 0.0 0 0.0 0.0 1013.0 0.0 0.0 11.3 0.0
02/02/18 07:38 11.4 98 11.1 0.0 0.0 0 0.0 0.0 1013.0 0.0 0.0 11.4 0.0
02/02/18 07:39 11.3 98 11.0 0.0 0.0 0 0.0 0.0 1013.0 0.0 0.0 11.3 0.0
02/02/18 07:40 11.4 98 11.1 0.0 0.0 0 0.0 0.0 1013.0 0.0 0.0 11.4 0.0
02/02/18 07:41 11.4 98 11.1 0.0 0.0 0 0.0 0.0 1013.0 0.0 0.0 11.4 0.0
02/02/18 07:42 11.4 98 11.1 0.0 0.0 0 0.0 0.0 1013.0 0.0 0.0 11.4 0.0
02/02/18 07:43 11.4 98 11.1 0.0 0.0 0 0.0 0.0 1013.0 0.0 0.0 11.4 0.0
02/02/18 07:44 11.4 98 11.1 0.0 0.0 0 0.0 0.0 1013.0 0.0 0.0 11.4 0.0
02/02/18 07:45 11.4 98 11.1 0.0 0.0 0 0.0 0.0 1013.0 0.0 0.0 11.4 0.0
02/02/18 07:46 11.4 98 11.1 0.0 0.0 0 0.0 0.0 1013.0 0.0 0.0 11.4 0.0
02/02/18 07:47 11.5 98 11.2 0.0 0.0 0 0.0 0.0 1013.0 0.0 0.0 11.5 0.0
02/02/18 07:48 11.5 98 11.2 0.0 0.0 0 0.0 0.0 1013.0 0.0 0.0 11.5 0.0
02/02/18 07:49 11.5 98 11.2 0.0 0.0 0 0.0 0.0 1013.0 0.0 0.0 11.5 0.0
02/02/18 07:50 11.5 98 11.2 0.0 0.0 0 0.0 0.0 1013.0 0.0 0.0 11.5 0.0
02/02/18 07:51 11.5 98 11.2 0.0 0.0 0 0.0 0.0 1013.0 0.0 0.0 11.5 0.0
02/02/18 07:52 11.5 98 11.2 0.0 0.0 0 0.0 0.0 1013.0 0.0 0.0 11.5 0.0
02/02/18 07:53 11.5 98 11.2 0.0 0.0 0 0.0 0.0 1013.0 0.0 0.0 11.5 0.0
02/02/18 07:54 11.5 98 11.2 0.0 0.0 0 0.0 0.0 1013.0 0.0 0.0 11.5 0.0
02/02/18 07:55 11.4 98 11.1 0.0 0.0 0 0.0 0.0 1013.0 0.0 0.0 11.4 0.0
02/02/18 07:56 11.4 98 11.1 0.0 0.0 0 0.0 0.0 1013.0 0.0 0.0 11.4 0.0
02/02/18 07:57 11.4 98 11.1 0.0 0.0 0 0.0 0.0 1013.0 0.0 0.0 11.4 0.0
02/02/18 07:58 11.4 98 11.1 0.0 0.0 0 0.0 0.0 1013.0 0.0 0.0 11.4 0.0
02/02/18 07:59 11.4 98 11.1 0.0 0.0 0 0.0 0.0 1013.0 0.0 0.0 11.4 0.0
02/02/18 08:03 11.4 98 11.1 0.0 0.0 0 0.0 0.0 1013.0 0.0 0.0 11.4 0.0
02/02/18 08:04 11.4 98 11.1 0.0 0.0 0 0.0 0.0 1013.0 0.0 0.0 11.4 0.0
02/02/18 08:05 11.5 98 11.2 0.0 0.0 0 0.0 0.0 1013.0 0.0 0.0 11.5 0.0
02/02/18 08:06 11.5 98 11.2 0.0 0.0 0 0.0 0.0 1013.0 0.0 0.0 11.5 0.0
02/02/18 08:07 11.5 98 11.2 0.0 0.0 0 0.0 0.0 1013.0 0.0 0.0 11.5 0.0
02/02/18 08:08 11.5 98 11.2 0.0 0.0 0 0.0 0.0 1014.0 0.0 0.0 11.5 0.0
02/02/18 08:09 11.5 98 11.2 0.0 0.0 0 0.0 0.0 1014.0 0.0 0.0 11.5 0.0
02/02/18 08:10 11.5 98 11.2 0.0 0.0 0 0.0 0.0 1014.0 0.0 0.0 11.5 0.0
02/02/18 08:11 11.5 98 11.2 0.0 0.0 0 0.0 0.0 1014.0 0.0 0.0 11.5 0.0
02/02/18 08:12 11.5 98 11.2 0.0 0.0 0 0.0 0.0 1014.0 0.0 0.0 11.5 0.0
02/02/18 08:13 11.5 98 11.2 0.0 0.0 0 0.0 0.0 1014.0 0.0 0.0 11.5 0.0
02/02/18 08:14 11.5 98 11.2 0.0 0.0 0 0.0 0.0 1014.0 0.0 0.0 11.5 0.0
02/02/18 08:15 11.5 98 11.2 0.0 0.0 0 0.0 0.0 1014.0 0.0 0.0 11.5 0.0
02/02/18 08:16 11.6 98 11.3 0.0 0.0 0 0.0 0.0 1014.0 0.0 0.0 11.6 0.0
02/02/18 08:17 11.6 98 11.3 0.0 0.0 0 0.0 0.0 1014.0 0.0 0.0 11.6 0.0
02/02/18 08:18 11.6 98 11.3 0.0 0.0 0 0.0 0.0 1014.0 0.0 0.0 11.6 0.0
02/02/18 08:19 11.6 98 11.3 0.0 0.0 0 0.0 0.0 1014.0 0.0 0.0 11.6 0.0
02/02/18 08:20 11.6 98 11.3 0.0 0.0 0 0.0 0.0 1014.0 0.0 0.0 11.6 0.0
02/02/18 08:21 11.7 98 11.4 0.0 0.0 0 0.0 0.0 1014.0 0.0 0.0 11.7 0.0
02/02/18 08:22 11.7 98 11.4 0.0 0.0 0 0.0 0.0 1014.0 0.0 0.0 11.7 0.0
02/02/18 08:23 11.7 98 11.4 0.0 0.0 0 0.0 0.0 1014.0 0.0 0.0 11.7 0.0
02/02/18 08:24 11.7 98 11.4 0.0 0.0 0 0.0 0.0 1014.0 0.0 0.0 11.7 0.0
02/02/18 08:25 11.7 98 11.4 0.0 0.0 0 0.0 0.0 1014.0 0.0 0.0 11.7 0.0
02/02/18 08:26 11.7 98 11.4 0.0 0.0 0 0.0 0.0 1014.0 0.0 0.0 11.7 0.0
02/02/18 08:27 11.7 98 11.4 0.0 0.0 0 0.0 0.0 1014.0 0.0 0.0 11.7 0.0
02/02/18 08:28 11.7 98 11.4 0.0 0.0 0 0.0 0.0 1014.0 0.0 0.0 11.7 0.0
02/02/18 08:29 11.7 98 11.4 0.0 0.0 0 0.0 0.0 1014.0 0.0 0.0 11.7 0.0
02/02/18 08:30 11.7 98 11.4 0.0 0.0 0 0.0 0.0 1014.0 0.0 0.0 11.7 0.0
02/02/18 08:31 11.7 98 11.4 0.0 0.0 0 0.0 0.0 1014.0 0.0 0.0 11.7 0.0
02/02/18 08:32 11.7 98 11.4 0.0 0.0 0 0.0 0.0 1014.0 0.0 0.0 11.7 0.0
02/02/18 08:33 11.7 98 11.4 0.0 0.0 0 0.0 0.0 1014.0 0.0 0.0 11.7 0.0
02/02/18 08:34 11.7 98 11.4 0.0 0.0 0 0.0 0.0 1014.0 0.0 0.0 11.7 0.0
02/02/18 08:35 11.7 98 11.4 0.0 0.0 0 0.0 0.0 1014.0 0.0 0.0 11.7 0.0
02/02/18 08:36 11.7 98 11.4 0.0 0.0 0 0.0 0.0 1014.0 0.0 0.0 11.7 0.0
02/02/18 08:37 11.7 98 11.4 0.0 0.0 0 0.0 0.0 1014.0 0.0 0.0 11.7 0.0
02/02/18 08:38 11.7 98 11.4 0.0 0.0 0 0.0 0.0 1013.0 0.0 0.0 11.7 0.0
02/02/18 08:39 11.7 98 11.4 0.0 0.0 0 0.0 0.0 1013.0 0.0 0.0 11.7 0.0
02/02/18 08:40 11.7 98 11.4 0.0 0.0 0 0.0 0.0 1013.0 0.0 0.0 11.7 0.0
02/02/18 08:41 11.7 98 11.4 0.0 0.0 0 0.0 0.0 1013.0 0.0 0.0 11.7 0.0
02/02/18 08:42 11.7 98 11.4 0.0 0.0 0 0.0 0.0 1013.0 0.0 0.0 11.7 0.0
02/02/18 08:43 11.7 98 11.4 0.0 0.0 0 0.0 0.0 1013.0 0.0 0.0 11.7 0.0
02/02/18 08:44 11.7 98 11.4 0.0 0.0 0 0.0 0.0 1013.0 0.0 0.0 11.7 0.0
02/02/18 08:45 11.7 98 11.4 0.0 0.0 0 0.0 0.0 1013.0 0.0 0.0 11.7 0.0
02/02/18 08:46 11.7 98 11.4 0.0 0.0 0 0.0 0.0 1013.0 0.0 0.0 11.7 0.0
02/02/18 08:47 11.7 98 11.4 0.0 0.0 0 0.0 0.0 1013.0 0.0 0.0 11.7 0.0
02/02/18 08:48 11.7 98 11.4 0.0 0.0 0 0.0 0.0 1013.0 0.0 0.0 11.7 0.0
02/02/18 08:49 11.7 98 11.4 0.0 0.0 0 0.0 0.0 1013.0 0.0 0.0 11.7 0.0
02/02/18 08:50 11.7 98 11.4 0.0 0.0 0 0.0 0.0 1013.0 0.0 0.0 11.7 0.0
02/02/18 08:51 11.7 98 11.4 0.0 0.0 0 0.0 0.0 1013.0 0.0 0.0 11.7 0.0
02/02/18 08:52 11.7 98 11.4 0.0 0.0 0 0.0 0.0 1013.0 0.0 0.0 11.7 0.0
02/02/18 08:53 11.7 98 11.4 0.0 0.0 0 0.0 0.0 1014.0 0.0 0.0 11.7 0.0
02/02/18 08:54 11.7 98 11.4 0.0 0.0 0 0.0 0.0 1014.0 0.0 0.0 11.7 0.0
02/02/18 08:55 11.7 98 11.4 0.0 0.0 0 0.0 0.0 1014.0 0.0 0.0 11.7 0.0
02/02/18 08:56 11.7 98 11.4 0.0 0.0 0 0.0 0.0 1014.0 0.0 0.0 11.7 0.0
02/02/18 08:57 11.7 98 11.4 0.0 0.0 0 0.0 0.0 1014.0 0.0 0.0 11.7 0.0
02/02/18 08:58 11.8 98 11.5 0.0 0.0 0 0.0 0.0 1014.0 0.0 0.0 11.8 0.0
02/02/18 08:59 11.8 98 11.5 0.0 0.0 0 0.0 0.0 1014.0 0.0 0.0 11.8 0.0
02/02/18 09:03 11.8 98 11.5 0.0 0.0 0 0.0 0.0 1014.0 0.0 0.0 11.8 0.0
02/02/18 09:04 11.9 98 11.6 0.0 0.0 0 0.0 0.0 1014.0 0.0 0.0 11.9 0.0
02/02/18 09:05 11.9 98 11.6 0.0 0.0 0 0.0 0.0 1014.0 0.0 0.0 11.9 0.0
02/02/18 09:06 11.9 98 11.6 0.0 0.0 0 0.0 0.0 1014.0 0.0 0.0 11.9 0.0
02/02/18 09:07 11.9 98 11.6 0.0 0.0 0 0.0 0.0 1014.0 0.0 0.0 11.9 0.0
02/02/18 09:08 11.9 98 11.6 0.0 0.0 0 0.0 0.0 1014.0 0.0 0.0 11.9 0.0
02/02/18 09:09 11.9 98 11.6 0.0 0.0 0 0.0 0.0 1014.0 0.0 0.0 11.9 0.0
02/02/18 09:10 11.9 98 11.6 0.0 0.0 0 0.0 0.0 1014.0 0.0 0.0 11.9 0.0
02/02/18 09:11 11.9 98 11.6 0.0 0.0 0 0.0 0.0 1014.0 0.0 0.0 11.9 0.0
02/02/18 10:03 12.4 98 12.1 0.0 0.0 0 0.0 0.0 1015.0 0.0 0.0 12.4 0.0
02/02/18 10:04 12.4 98 12.1 0.0 0.0 0 0.0 0.0 1015.0 0.0 0.0 12.4 0.0
02/02/18 10:05 12.4 98 12.1 0.0 0.0 0 0.0 0.0 1015.0 0.0 0.0 12.4 0.0
02/02/18 10:06 12.5 98 12.2 0.0 0.0 0 0.0 0.0 1015.0 0.0 0.0 12.5 0.0
02/02/18 10:07 12.5 98 12.2 0.0 0.0 0 0.0 0.0 1015.0 0.0 0.0 12.5 0.0
02/02/18 10:08 12.4 98 12.1 0.0 0.0 0 0.0 0.0 1015.0 0.0 0.0 12.4 0.0
02/02/18 10:09 12.4 98 12.1 0.0 0.0 0 0.0 0.0 1015.0 0.0 0.0 12.4 0.0
02/02/18 10:10 12.5 98 12.2 0.0 0.0 0 0.0 0.0 1015.0 0.0 0.0 12.5 0.0
02/02/18 10:11 12.5 98 12.2 0.0 0.0 0 0.0 0.0 1015.0 0.0 0.0 12.5 0.0
02/02/18 10:12 12.5 98 12.2 0.0 0.0 0 0.0 0.0 1015.0 0.0 0.0 12.5 0.0
02/02/18 10:13 12.5 98 12.2 0.0 0.0 0 0.0 0.0 1015.0 0.0 0.0 12.5 0.0
02/02/18 10:14 12.5 98 12.2 0.0 0.0 0 0.0 0.0 1015.0 0.0 0.0 12.5 0.0
02/02/18 10:15 12.6 98 12.3 0.0 0.0 0 0.0 0.0 1015.0 0.0 0.0 12.6 0.0
02/02/18 10:16 12.6 98 12.3 0.0 0.0 0 0.0 0.0 1015.0 0.0 0.0 12.6 0.0
02/02/18 10:17 12.7 98 12.4 0.0 0.0 0 0.0 0.0 1015.0 0.0 0.0 12.7 0.0
02/02/18 11:02 14.0 97 13.5 2.5 0.0 0 0.0 0.0 1015.0 0.0 0.0 14.0 0.0
02/02/18 11:03 14.0 97 13.5 2.5 0.0 0 0.0 0.0 1015.0 0.0 14.0 14.0 0.0
02/02/18 11:04 13.8 97 13.3 2.5 0.0 0 0.0 0.0 1015.0 0.0 14.0 13.8 0.0
02/02/18 11:05 13.9 97 13.4 2.5 0.0 0 0.0 0.0 1015.0 0.0 14.0 13.9 0.0
02/02/18 11:06 13.9 97 13.4 2.5 0.0 0 0.0 0.0 1015.0 0.0 14.0 13.9 0.0
02/02/18 11:07 13.9 97 13.4 2.5 0.0 0 0.0 0.0 1015.0 0.0 14.0 13.9 0.0
02/02/18 11:08 13.9 97 13.4 2.5 0.0 0 0.0 0.0 1015.0 0.0 14.0 13.9 0.0
02/02/18 11:09 13.9 97 13.4 2.5 0.0 0 0.0 0.0 1015.0 0.0 14.0 13.9 0.0
02/02/18 11:10 13.9 97 13.4 2.5 0.0 0 0.0 0.0 1015.0 0.0 14.0 13.9 0.0
02/02/18 11:11 13.9 97 13.4 2.5 0.0 0 0.0 0.0 1015.0 0.0 14.0 13.9 0.0
02/02/18 11:12 13.9 97 13.4 2.5 0.0 0 0.0 0.0 1015.0 0.0 14.0 13.9 0.0
02/02/18 11:13 13.9 97 13.4 2.5 0.0 0 0.0 0.0 1015.0 0.0 14.0 13.9 0.0
02/02/18 11:14 14.0 96 13.4 2.5 0.0 0 0.0 0.0 1015.0 0.0 14.0 14.0 0.0
02/02/18 11:15 14.0 96 13.4 2.5 0.0 0 0.0 0.0 1015.0 0.0 14.0 14.0 0.0
02/02/18 11:16 14.0 96 13.4 1.4 0.0 0 0.0 0.0 1015.0 0.0 14.0 14.0 0.0
02/02/18 11:17 14.1 97 13.6 0.0 0.0 0 0.0 0.0 1015.0 0.0 14.1 14.1 0.0
02/02/18 11:18 14.2 97 13.7 0.0 0.0 0 0.0 0.0 1015.0 0.0 14.1 14.2 0.0
02/02/18 11:19 14.1 97 13.6 0.0 0.0 0 0.0 0.0 1015.0 0.0 14.2 14.1 0.0
02/02/18 11:20 14.2 97 13.7 0.0 0.0 0 0.0 0.0 1015.0 0.0 14.1 14.2 0.0
02/02/18 11:21 14.3 97 13.8 0.0 0.0 0 0.0 0.0 1015.0 0.0 14.2 14.3 0.0
02/02/18 11:22 14.3 97 13.8 0.0 0.0 0 0.0 0.0 1015.0 0.0 14.3 14.3 0.0
02/02/18 11:23 14.4 97 13.9 0.0 0.0 0 0.0 0.0 1015.0 0.0 14.3 14.4 0.0
02/02/18 11:24 14.4 97 13.9 0.0 0.0 0 0.0 0.0 1015.0 0.0 14.4 14.4 0.0
02/02/18 11:25 14.4 97 13.9 0.0 0.0 0 0.0 0.0 1015.0 0.0 14.4 14.4 0.0
02/02/18 11:26 14.5 97 14.0 0.0 0.0 0 0.0 0.0 1015.0 0.0 14.4 14.5 0.0
02/02/18 11:27 14.4 97 13.9 0.0 0.0 0 0.0 0.0 1015.0 0.0 14.5 14.4 0.0
02/02/18 11:28 14.4 97 13.9 0.0 0.0 0 0.0 0.0 1015.0 0.0 14.4 14.4 0.0
02/02/18 11:29 14.4 96 13.8 0.0 0.0 0 0.0 0.0 1015.0 0.0 14.4 14.4 0.0
02/02/18 11:30 14.4 96 13.8 0.0 0.0 0 0.0 0.0 1015.0 0.0 14.4 14.4 0.0
02/02/18 11:31 14.4 96 13.8 0.0 0.0 0 0.0 0.0 1015.0 0.0 14.4 14.4 0.0
02/02/18 11:32 14.4 96 13.8 0.0 0.0 0 0.0 0.0 1015.0 0.0 14.4 14.4 0.0
02/02/18 11:33 14.4 96 13.8 0.0 0.0 0 0.0 0.0 1015.0 0.0 14.4 14.4 0.0
02/02/18 11:34 14.5 96 13.9 0.0 2.5 270 0.0 0.0 1015.0 2.5 14.5 14.5 0.0
02/02/18 11:35 14.5 96 13.9 0.0 2.5 270 0.0 0.0 1015.0 2.5 14.5 14.5 0.0
02/02/18 11:36 14.5 96 13.9 1.8 2.5 250 0.0 0.0 1015.0 1.4 14.6 14.5 0.0
02/02/18 11:37 14.6 96 14.0 1.8 4.3 335 0.0 0.0 1015.0 4.3 14.5 14.6 0.0
02/02/18 11:38 14.7 96 14.1 1.8 4.3 15 0.0 0.0 1015.0 4.3 14.6 14.7 0.0
02/02/18 11:39 14.7 96 14.1 1.8 4.3 27 0.0 0.0 1015.0 4.3 14.7 14.7 0.0
02/02/18 11:40 14.7 96 14.1 0.0 4.3 31 0.0 0.0 1015.0 0.0 14.7 14.7 0.0
02/02/18 11:41 14.8 96 14.2 0.0 4.3 25 0.0 0.0 1015.0 3.6 14.8 14.8 0.0
02/02/18 11:42 14.9 96 14.3 1.8 5.8 95 0.0 0.0 1015.0 1.8 14.9 14.9 0.0
02/02/18 11:43 14.9 96 14.3 1.4 5.8 103 0.0 0.0 1015.0 0.0 14.9 14.9 0.0
02/02/18 12:02 14.6 95 13.8 0.0 0.0 0 0.0 0.0 1014.0 0.0 0.0 14.6 0.0
02/02/18 12:03 14.6 95 13.8 0.0 0.0 0 0.0 0.0 1014.0 0.0 14.6 14.6 0.0
02/02/18 12:04 14.6 95 13.8 0.0 0.0 0 0.0 0.0 1014.0 0.0 14.6 14.6 0.0
02/02/18 12:05 14.5 95 13.7 0.0 0.0 0 0.0 0.0 1014.0 0.0 14.6 14.5 0.0
02/02/18 12:06 14.5 95 13.7 0.0 0.0 0 0.0 0.0 1014.0 0.0 14.5 14.5 0.0
02/02/18 12:07 14.5 95 13.7 0.0 0.0 0 0.0 0.0 1014.0 0.0 14.5 14.5 0.0
02/02/18 12:08 14.5 95 13.7 0.0 0.0 0 0.0 0.0 1014.0 0.0 14.5 14.5 0.0
02/02/18 12:09 14.4 95 13.6 0.0 0.0 0 0.0 0.0 1014.0 0.0 14.5 14.4 0.0
02/02/18 12:10 14.4 95 13.6 0.0 0.0 0 0.0 0.0 1014.0 0.0 14.4 14.4 0.0
02/02/18 12:11 14.4 95 13.6 0.0 0.0 0 0.0 0.0 1014.0 0.0 14.4 14.4 0.0
02/02/18 12:12 14.4 95 13.6 0.0 0.0 0 0.0 0.0 1014.0 0.0 14.4 14.4 0.0
02/02/18 12:13 14.3 95 13.5 0.0 0.0 0 0.0 0.0 1014.0 0.0 14.4 14.3 0.0
02/02/18 12:14 14.3 95 13.5 0.0 0.0 0 0.0 0.0 1014.0 0.0 14.3 14.3 0.0
02/02/18 12:15 14.3 95 13.5 0.0 0.0 0 0.0 0.0 1014.0 0.0 14.3 14.3 0.0
02/02/18 12:16 14.2 95 13.4 0.0 0.0 0 0.0 0.0 1014.0 0.0 14.3 14.2 0.0
02/02/18 12:17 14.2 95 13.4 0.0 0.0 0 0.0 0.0 1014.0 0.0 14.3 14.2 0.0
02/02/18 12:18 14.2 95 13.4 0.0 0.0 0 0.0 0.0 1014.0 0.0 14.3 14.2 0.0
02/02/18 12:19 14.1 95 13.3 0.0 0.0 0 0.0 0.0 1014.0 0.0 14.3 14.1 0.0
02/02/18 12:20 14.1 95 13.3 0.0 0.0 0 0.0 0.0 1014.0 0.0 14.1 14.1 0.0
02/02/18 12:21 14.2 95 13.4 0.0 0.0 0 0.0 0.0 1014.0 0.0 14.1 14.2 0.0
02/02/18 12:22 14.2 96 13.6 0.0 4.0 225 0.0 0.0 1014.0 4.0 14.2 14.2 0.0
02/02/18 12:23 14.3 96 13.7 1.8 4.0 225 0.0 0.0 1014.0 0.0 14.3 14.3 0.0
02/02/18 12:24 14.4 96 13.8 0.0 4.0 225 0.0 0.0 1014.0 1.4 14.4 14.4 0.0
02/02/18 12:25 14.4 96 13.8 0.0 4.0 225 0.0 0.0 1014.0 2.2 14.4 14.4 0.0
02/02/18 12:26 14.5 96 13.9 1.8 4.3 208 0.0 0.0 1014.0 3.2 14.5 14.5 0.0
02/02/18 12:27 14.6 96 14.0 2.2 4.3 200 0.0 0.0 1014.0 0.0 14.6 14.6 0.0
02/02/18 12:28 14.8 96 14.2 0.0 4.3 200 0.0 0.0 1014.0 0.0 14.8 14.8 0.0
02/02/18 12:29 15.0 96 14.4 0.0 4.3 203 0.0 0.0 1014.0 1.8 14.9 15.0 0.0
02/02/18 12:30 15.1 96 14.5 0.0 4.7 191 0.0 0.0 1014.0 4.7 15.0 15.1 0.0
02/02/18 12:31 15.2 96 14.6 2.2 4.7 185 0.0 0.0 1014.0 2.5 15.2 15.2 0.0
02/02/18 12:32 15.2 96 14.6 3.2 4.7 178 0.0 0.0 1014.0 4.7 15.2 15.2 0.0
02/02/18 12:33 15.3 96 14.7 1.4 4.7 161 0.0 0.0 1014.0 3.2 15.3 15.3 0.0
02/02/18 12:34 15.4 96 14.8 0.0 5.0 148 0.0 0.0 1014.0 5.0 15.4 15.4 0.0
02/02/18 12:35 15.5 96 14.9 2.2 5.0 132 0.0 0.0 1014.0 0.0 15.5 15.5 0.0
02/02/18 12:36 15.6 96 15.0 1.8 5.0 130 0.0 0.0 1014.0 0.0 15.6 15.6 0.0
02/02/18 12:37 15.8 96 15.2 0.0 5.0 132 0.0 0.0 1014.0 0.0 15.8 15.8 0.0
02/02/18 12:38 15.9 96 15.3 1.4 5.0 146 0.0 0.0 1014.0 0.0 15.9 15.9 0.0
02/02/18 12:39 16.0 95 15.2 2.2 5.0 144 0.0 0.0 1014.0 0.0 16.0 16.0 0.0
02/02/18 12:40 15.9 96 15.3 2.2 5.0 152 0.0 0.0 1014.0 0.0 15.9 15.9 0.0
02/02/18 12:41 16.1 95 15.3 2.2 5.0 168 0.0 0.0 1014.0 1.4 16.1 16.1 0.0
02/02/18 12:42 16.1 95 15.3 2.2 5.4 178 0.0 0.0 1014.0 5.4 16.1 16.1 0.0
02/02/18 12:43 16.2 95 15.4 2.5 5.4 156 0.0 0.0 1014.0 1.8 16.2 16.2 0.0
02/02/18 12:44 16.3 94 15.3 2.5 5.4 155 0.0 0.0 1014.0 1.8 16.2 16.3 0.0
02/02/18 12:45 16.3 94 15.3 2.5 5.4 175 0.0 0.0 1014.0 1.8 16.3 16.3 0.0
02/02/18 12:46 16.1 94 15.1 2.5 5.4 170 0.0 0.0 1014.0 1.8 16.3 16.1 0.0
02/02/18 12:47 16.1 94 15.1 2.5 5.4 170 0.0 0.0 1014.0 1.8 16.3 16.1 0.0
02/02/18 12:48 16.0 93 14.9 2.5 5.4 143 0.0 0.0 1014.0 1.8 16.1 16.0 0.0
02/02/18 12:49 15.9 93 14.8 2.5 5.4 116 0.0 0.0 1014.0 1.8 16.0 15.9 0.0
02/02/18 12:50 15.9 93 14.8 2.5 5.4 101 0.0 0.0 1014.0 1.8 15.9 15.9 0.0
02/02/18 12:51 15.9 93 14.8 2.5 5.4 38 0.0 0.0 1014.0 1.8 15.9 15.9 0.0
02/02/18 12:52 15.7 93 14.6 2.5 4.0 45 0.0 0.0 1014.0 1.8 15.8 15.7 0.0
02/02/18 12:53 15.6 92 14.3 2.5 1.8 46 0.0 0.0 1014.0 1.8 15.7 15.6 0.0
02/02/18 12:54 15.6 92 14.3 2.5 1.8 46 0.0 0.0 1014.0 1.8 15.6 15.6 0.0
02/02/18 12:55 15.4 92 14.1 2.5 1.8 46 0.0 0.0 1014.0 1.8 15.6 15.4 0.0
02/02/18 12:56 15.4 92 14.1 2.5 1.8 46 0.0 0.0 1014.0 1.8 15.4 15.4 0.0
02/02/18 12:57 15.4 92 14.1 2.5 1.8 46 0.0 0.0 1014.0 1.8 15.4 15.4 0.0
02/02/18 12:58 15.3 92 14.0 2.5 1.8 46 0.0 0.0 1014.0 1.8 15.4 15.3 0.0
02/02/18 12:59 15.3 93 14.2 2.5 1.8 46 0.0 0.0 1014.0 1.8 15.4 15.3 0.0
02/02/18 13:00 15.3 93 14.2 2.5 1.8 46 0.0 0.0 1014.0 1.8 15.4 15.3 0.0
02/02/18 13:02 15.2 93 14.1 0.0 0.0 0 0.0 0.0 1014.0 0.0 0.0 15.2 0.0
02/02/18 13:03 15.3 93 14.2 0.0 0.0 0 0.0 0.0 1014.0 0.0 0.0 15.3 0.0
02/02/18 13:04 15.2 93 14.1 0.0 0.0 0 0.0 0.0 1014.0 0.0 0.0 15.2 0.0
02/02/18 13:05 15.2 93 14.1 0.0 0.0 0 0.0 0.0 1014.0 0.0 0.0 15.2 0.0
02/02/18 13:06 15.2 93 14.1 0.0 0.0 0 0.0 0.0 1014.0 0.0 0.0 15.2 0.0
02/02/18 13:07 15.3 93 14.2 0.0 1.8 73 0.0 0.0 1014.0 1.8 15.3 15.3 0.0
02/02/18 13:08 15.3 93 14.2 1.4 1.8 89 0.0 0.0 1014.0 1.4 15.3 15.3 0.0
02/02/18 13:09 15.5 93 14.4 0.0 1.8 89 0.0 0.0 1014.0 1.8 15.5 15.5 0.0
02/02/18 13:10 15.6 93 14.5 1.4 1.8 99 0.0 0.0 1014.0 0.0 15.5 15.6 0.0
02/02/18 13:11 15.6 94 14.6 1.4 1.8 115 0.0 0.0 1014.0 0.0 15.6 15.6 0.0
02/02/18 13:12 15.6 93 14.5 0.0 2.5 124 0.0 0.0 1014.0 2.5 15.6 15.6 0.0
02/02/18 13:13 15.5 93 14.4 0.0 2.5 126 0.0 0.0 1014.0 2.5 15.6 15.5 0.0
02/02/18 13:14 15.6 93 14.5 0.0 2.5 129 0.0 0.0 1014.0 2.5 15.6 15.6 0.0
02/02/18 13:15 15.7 93 14.6 0.0 2.5 129 0.0 0.0 1014.0 2.5 15.6 15.7 0.0
02/02/18 13:16 15.6 93 14.5 0.0 2.5 130 0.0 0.0 1014.0 2.5 15.7 15.6 0.0
02/02/18 13:17 15.6 93 14.5 0.0 2.5 130 0.0 0.0 1014.0 2.5 15.6 15.6 0.0
02/02/18 13:18 15.6 93 14.5 0.0 2.5 130 0.0 0.0 1014.0 2.5 15.6 15.6 0.0
02/02/18 13:19 15.7 93 14.6 0.0 2.5 130 0.0 0.0 1014.0 2.5 15.6 15.7 0.0
02/02/18 13:20 15.7 93 14.6 0.0 2.5 135 0.0 0.0 1014.0 2.5 15.7 15.7 0.0
02/02/18 13:21 15.6 93 14.5 0.0 2.5 135 0.0 0.0 1014.0 2.5 15.7 15.6 0.0
02/02/18 13:22 15.4 92 14.1 0.0 2.5 135 0.0 0.0 1014.0 2.5 15.6 15.4 0.0
02/02/18 13:23 15.3 92 14.0 0.0 2.5 135 0.0 0.0 1014.0 2.5 15.4 15.3 0.0
02/02/18 13:24 15.3 92 14.0 0.0 2.5 135 0.0 0.0 1014.0 2.5 15.3 15.3 0.0
02/02/18 13:25 15.2 92 13.9 0.0 2.5 135 0.0 0.0 1014.0 2.5 15.3 15.2 0.0
02/02/18 13:26 15.2 92 13.9 0.0 2.5 135 0.0 0.0 1014.0 2.5 15.2 15.2 0.0
02/02/18 13:27 15.1 92 13.8 0.0 2.5 135 0.0 0.0 1014.0 2.5 15.2 15.1 0.0
02/02/18 13:28 15.0 92 13.7 0.0 2.5 135 0.0 0.0 1014.0 2.5 15.2 15.0 0.0
02/02/18 13:29 15.0 92 13.7 0.0 2.5 135 0.0 0.0 1014.0 2.5 15.2 15.0 0.0
02/02/18 13:30 14.8 92 13.5 0.0 2.5 135 0.0 0.0 1014.0 2.5 15.2 14.8 0.0
02/02/18 13:31 14.8 92 13.5 0.0 2.5 135 0.0 0.0 1014.0 2.5 15.2 14.8 0.0
02/02/18 13:32 14.7 92 13.4 0.0 2.5 135 0.0 0.0 1014.0 2.5 15.2 14.7 0.0
02/02/18 13:33 14.7 92 13.4 0.0 2.5 135 0.0 0.0 1014.0 2.5 15.2 14.7 0.0
02/02/18 13:34 14.7 93 13.6 0.0 2.5 135 0.0 0.0 1014.0 2.5 15.2 14.7 0.0
02/02/18 13:35 14.7 93 13.6 0.0 2.5 135 0.0 0.0 1014.0 2.5 15.2 14.7 0.0
02/02/18 13:36 14.6 93 13.5 0.0 2.5 135 0.0 0.0 1014.0 2.5 15.2 14.6 0.0
02/02/18 13:37 14.5 93 13.4 0.0 2.5 135 0.0 0.0 1014.0 2.5 15.2 14.5 0.0
02/02/18 13:38 14.5 93 13.4 0.0 2.5 135 0.0 0.0 1014.0 2.5 15.2 14.5 0.0
02/02/18 13:39 14.5 93 13.4 0.0 2.5 135 0.0 0.0 1014.0 2.5 15.2 14.5 0.0
02/02/18 13:40 14.5 93 13.4 0.0 2.5 135 0.0 0.0 1014.0 2.5 15.2 14.5 0.0
02/02/18 13:41 14.6 93 13.5 1.4 2.2 135 0.0 0.0 1014.0 2.2 14.6 14.6 0.0
02/02/18 13:42 14.6 93 13.5 1.4 2.2 135 0.0 0.0 1014.0 0.0 14.6 14.6 0.0
02/02/18 13:43 14.7 94 13.7 0.0 2.2 192 0.0 0.0 1014.0 2.2 14.7 14.7 0.0
02/02/18 13:44 14.8 94 13.8 0.0 2.2 219 0.0 0.0 1014.0 2.2 14.7 14.8 0.0
02/02/18 13:45 14.8 94 13.8 0.0 2.2 234 0.0 0.0 1014.0 2.2 14.7 14.8 0.0
02/02/18 13:46 14.9 94 13.9 1.8 2.2 234 0.0 0.0 1014.0 0.0 14.8 14.9 0.0
02/02/18 13:47 14.9 94 13.9 1.4 5.4 205 0.0 0.0 1014.0 3.2 14.9 14.9 0.0
02/02/18 13:48 15.0 94 14.0 3.6 5.4 176 0.0 0.0 1014.0 0.0 15.0 15.0 0.0
02/02/18 13:49 15.1 94 14.1 0.0 5.4 178 0.0 0.0 1014.0 0.0 15.1 15.1 0.0
02/02/18 13:50 15.3 94 14.3 1.8 5.4 200 0.0 0.0 1014.0 4.3 15.3 15.3 0.0
02/02/18 13:51 15.4 94 14.4 2.2 5.4 204 0.0 0.0 1014.0 1.8 15.4 15.4 0.0
02/02/18 13:52 15.5 95 14.7 2.2 5.4 200 0.0 0.0 1014.0 3.2 15.4 15.5 0.0
02/02/18 13:53 15.5 95 14.7 2.5 5.4 204 0.0 0.0 1014.0 2.5 15.5 15.5 0.0
02/02/18 13:54 15.4 94 14.4 2.5 5.4 202 0.0 0.0 1014.0 0.0 15.5 15.4 0.0
02/02/18 13:55 15.4 94 14.4 2.5 5.4 202 0.0 0.0 1014.0 0.0 15.5 15.4 0.0
02/02/18 13:56 15.4 94 14.4 1.4 5.4 199 0.0 0.0 1014.0 0.0 15.4 15.4 0.0
02/02/18 13:57 15.5 94 14.5 0.0 4.7 192 0.0 0.0 1014.0 3.2 15.5 15.5 0.0
02/02/18 13:58 15.6 94 14.6 0.0 4.7 190 0.0 0.0 1014.0 1.8 15.5 15.6 0.0
02/02/18 13:59 15.6 94 14.6 0.0 4.7 190 0.0 0.0 1014.0 1.8 15.5 15.6 0.0
02/02/18 14:00 15.6 94 14.6 0.0 4.3 188 0.0 0.0 1014.0 1.8 15.6 15.6 0.0
02/02/18 14:02 15.4 94 14.4 5.4 6.5 224 0.0 0.0 1014.0 5.8 0.0 15.4 0.0
02/02/18 14:03 15.4 94 14.4 5.4 6.5 227 0.0 0.0 1014.0 5.8 15.4 15.4 0.0
02/02/18 14:04 15.5 94 14.5 1.8 6.5 234 0.0 0.0 1014.0 4.7 15.5 15.5 0.0
02/02/18 14:05 15.5 93 14.4 1.8 6.5 238 0.0 0.0 1014.0 4.7 15.5 15.5 0.0
02/02/18 14:06 15.4 93 14.3 1.8 6.5 242 0.0 0.0 1014.0 4.7 15.5 15.4 0.0
02/02/18 14:07 15.4 93 14.3 1.4 6.5 242 0.0 0.0 1014.0 0.0 15.4 15.4 0.0
02/02/18 14:08 15.4 93 14.3 1.4 6.5 245 0.0 0.0 1014.0 0.0 15.4 15.4 0.0
02/02/18 14:09 15.4 93 14.3 1.4 6.5 247 0.0 0.0 1014.0 0.0 15.4 15.4 0.0
02/02/18 14:10 15.3 93 14.2 1.4 6.5 250 0.0 0.0 1014.0 0.0 15.4 15.3 0.0
02/02/18 14:11 15.4 92 14.1 1.4 6.5 252 0.0 0.0 1014.0 0.0 15.3 15.4 0.0
02/02/18 14:12 15.4 92 14.1 1.4 5.8 242 0.0 0.0 1014.0 0.0 15.4 15.4 0.0
02/02/18 14:13 15.4 92 14.1 4.0 5.8 229 0.0 0.0 1014.0 5.8 15.4 15.4 0.0
02/02/18 14:14 15.4 92 14.1 4.0 5.8 208 0.0 0.0 1014.0 5.8 15.4 15.4 0.0
02/02/18 14:15 15.4 92 14.1 4.0 5.8 143 0.0 0.0 1014.0 5.8 15.4 15.4 0.0
02/02/18 14:16 15.4 92 14.1 4.0 5.8 135 0.0 0.0 1014.0 5.8 15.4 15.4 0.0
02/02/18 14:17 15.3 92 14.0 4.0 5.8 135 0.0 0.0 1014.0 5.8 15.4 15.3 0.0
02/02/18 14:18 15.2 92 13.9 4.0 5.8 135 0.0 0.0 1014.0 5.8 15.3 15.2 0.0
02/02/18 14:19 15.2 92 13.9 4.0 5.8 135 0.0 0.0 1014.0 5.8 15.2 15.2 0.0
02/02/18 14:20 15.1 92 13.8 4.0 5.8 135 0.0 0.0 1014.0 5.8 15.2 15.1 0.0
02/02/18 14:21 15.1 92 13.8 4.0 5.8 135 0.0 0.0 1014.0 5.8 15.1 15.1 0.0
02/02/18 14:22 15.0 92 13.7 4.0 5.8 135 0.0 0.0 1014.0 5.8 15.1 15.0 0.0
02/02/18 14:23 14.9 93 13.8 4.0 5.8 135 0.0 0.0 1014.0 5.8 15.0 14.9 0.0
02/02/18 14:24 14.9 93 13.8 4.0 5.8 135 0.0 0.0 1014.0 5.8 14.9 14.9 0.0
02/02/18 14:25 14.8 93 13.7 4.0 5.8 135 0.0 0.0 1014.0 5.8 14.9 14.8 0.0
02/02/18 14:26 14.7 93 13.6 4.0 5.8 135 0.0 0.0 1014.0 5.8 14.8 14.7 0.0
02/02/18 14:27 14.6 92 13.3 4.0 5.8 135 0.0 0.0 1014.0 5.8 14.7 14.6 0.0
02/02/18 14:42 14.7 92 13.4 4.0 5.8 135 0.0 0.0 1014.0 5.8 14.6 14.7 0.0
02/02/18 14:43 14.7 92 13.4 4.0 5.8 135 0.0 0.0 1014.0 5.8 14.6 14.7 0.0
02/02/18 14:44 14.5 94 13.5 1.8 0.0 0 0.0 0.0 1014.0 0.0 14.7 14.5 0.0
02/02/18 14:45 14.4 94 13.4 1.8 0.0 0 0.0 0.0 1014.0 0.0 14.5 14.4 0.0
02/02/18 14:46 14.4 94 13.4 1.8 0.0 0 0.0 0.0 1014.0 0.0 14.4 14.4 0.0
02/02/18 14:47 14.4 94 13.4 1.8 0.0 0 0.0 0.0 1014.0 0.0 14.4 14.4 0.0
02/02/18 14:48 14.3 94 13.3 1.8 0.0 0 0.0 0.0 1014.0 0.0 14.4 14.3 0.0
02/02/18 14:49 14.3 94 13.3 4.0 9.7 135 0.0 0.0 1014.0 9.7 14.3 14.3 0.0
02/02/18 14:50 14.2 94 13.2 4.0 9.7 135 0.0 0.0 1014.0 9.7 14.3 14.2 0.0
02/02/18 14:51 14.2 94 13.2 0.0 9.7 137 0.0 0.0 1014.0 2.5 14.2 14.2 0.0
02/02/18 14:52 14.3 94 13.3 2.5 9.7 137 0.0 0.0 1014.0 1.4 14.3 14.3 0.0
02/02/18 14:53 14.4 94 13.4 3.6 9.7 150 0.0 0.0 1014.0 2.2 14.4 14.4 0.0
02/02/18 14:54 14.4 94 13.4 2.2 9.7 155 0.0 0.0 1014.0 6.1 14.4 14.4 0.0
02/02/18 14:55 14.4 94 13.4 4.7 9.7 150 0.0 0.0 1014.0 2.2 14.4 14.4 0.0
02/02/18 14:56 14.5 94 13.5 3.6 9.7 145 0.0 0.0 1014.0 5.8 14.5 14.5 0.0
02/02/18 14:57 14.5 94 13.5 3.6 9.7 140 0.0 0.0 1014.0 0.0 14.5 14.5 0.0
02/02/18 14:58 14.6 94 13.6 0.0 9.7 140 0.0 0.0 1014.0 0.0 14.6 14.6 0.0
02/02/18 14:59 14.6 94 13.6 0.0 9.7 140 0.0 0.0 1014.0 0.0 14.6 14.6 0.0
02/02/18 15:00 14.5 94 13.5 0.0 9.7 141 0.0 0.0 1014.0 0.0 14.6 14.5 0.0
02/02/18 15:02 14.5 94 13.5 0.0 6.1 149 0.0 0.0 1014.0 0.0 0.0 14.5 0.0
02/02/18 15:03 14.5 94 13.5 0.0 6.1 150 0.0 0.0 1014.0 0.0 14.5 14.5 0.0
02/02/18 15:04 14.5 94 13.5 0.0 6.1 150 0.0 0.0 1014.0 0.0 14.5 14.5 0.0
02/02/18 15:05 14.5 94 13.5 4.3 5.8 142 0.0 0.0 1014.0 4.0 14.5 14.5 0.0
02/02/18 15:06 14.5 94 13.5 5.4 6.5 137 0.0 0.0 1014.0 2.5 14.5 14.5 0.0
02/02/18 15:07 14.5 94 13.5 1.4 6.5 129 0.0 0.0 1014.0 2.5 14.5 14.5 0.0
02/02/18 15:08 14.6 94 13.6 5.0 6.8 147 0.0 0.0 1014.0 3.2 14.5 14.6 0.0
02/02/18 15:09 14.7 94 13.7 5.0 6.8 150 0.0 0.0 1014.0 3.2 14.6 14.7 0.0
02/02/18 15:10 14.7 94 13.7 5.0 6.8 153 0.0 0.0 1014.0 3.2 14.7 14.7 0.0
02/02/18 15:11 14.7 94 13.7 5.0 6.8 155 0.0 0.0 1014.0 3.2 14.7 14.7 0.0
02/02/18 15:12 14.7 94 13.7 5.0 6.8 157 0.0 0.0 1014.0 3.2 14.7 14.7 0.0
02/02/18 15:13 14.7 94 13.7 5.0 6.8 159 0.0 0.0 1014.0 3.2 14.7 14.7 0.0
02/02/18 15:14 14.7 94 13.7 5.0 6.8 160 0.0 0.0 1014.0 3.2 14.7 14.7 0.0
02/02/18 15:15 14.7 94 13.7 5.0 6.8 162 0.0 0.0 1014.0 3.2 14.7 14.7 0.0
02/02/18 15:16 14.8 94 13.8 5.0 6.8 177 0.0 0.0 1014.0 3.2 14.8 14.8 0.0
02/02/18 15:17 14.8 94 13.8 5.0 6.8 181 0.0 0.0 1014.0 3.2 14.8 14.8 0.0
02/02/18 15:18 14.7 93 13.6 5.0 6.8 181 0.0 0.0 1014.0 3.2 14.8 14.7 0.0
02/02/18 15:19 14.7 93 13.6 5.8 3.2 181 0.0 0.0 1014.0 2.5 14.7 14.7 0.0
02/02/18 15:20 14.8 93 13.7 5.8 3.2 181 0.0 0.0 1014.0 2.5 14.7 14.8 0.0
02/02/18 15:21 14.8 93 13.7 3.6 5.0 170 0.0 0.0 1014.0 1.8 14.8 14.8 0.0
02/02/18 15:22 14.9 93 13.8 3.6 5.0 169 0.0 0.0 1014.0 1.8 14.8 14.9 0.0
02/02/18 15:23 15.0 92 13.7 3.6 5.0 165 0.0 0.0 1014.0 1.8 15.0 15.0 0.0
02/02/18 15:24 15.1 92 13.8 2.2 5.0 161 0.0 0.0 1014.0 1.8 15.0 15.1 0.0
02/02/18 15:25 15.1 92 13.8 2.2 5.0 159 0.0 0.0 1014.0 1.8 15.1 15.1 0.0
02/02/18 15:26 15.1 92 13.8 2.2 5.0 156 0.0 0.0 1014.0 1.8 15.1 15.1 0.0
02/02/18 15:27 15.1 92 13.8 2.2 5.0 153 0.0 0.0 1014.0 1.8 15.1 15.1 0.0
02/02/18 15:28 15.1 92 13.8 2.2 5.0 150 0.0 0.0 1014.0 1.8 15.1 15.1 0.0
02/02/18 15:29 15.1 92 13.8 2.2 5.0 147 0.0 0.0 1014.0 1.8 15.1 15.1 0.0
02/02/18 15:30 15.1 92 13.8 2.2 5.0 141 0.0 0.0 1014.0 1.8 15.1 15.1 0.0
02/02/18 15:31 15.1 92 13.8 2.2 1.8 135 0.0 0.0 1014.0 1.8 15.1 15.1 0.0
02/02/18 15:32 15.1 92 13.8 2.2 1.8 135 0.0 0.0 1014.0 1.8 15.1 15.1 0.0
02/02/18 15:33 15.2 92 13.9 2.2 1.8 135 0.0 0.0 1014.0 1.8 15.1 15.2 0.0
02/02/18 15:34 15.2 92 13.9 2.2 1.8 135 0.0 0.0 1014.0 1.8 15.2 15.2 0.0
02/02/18 15:35 15.2 92 13.9 2.2 1.8 135 0.0 0.0 1014.0 1.8 15.2 15.2 0.0
02/02/18 15:36 15.2 92 13.9 2.2 1.8 135 0.0 0.0 1014.0 1.8 15.2 15.2 0.0
02/02/18 15:37 15.2 92 13.9 2.2 1.8 135 0.0 0.0 1014.0 1.8 15.2 15.2 0.0
02/02/18 15:38 15.2 92 13.9 2.2 1.8 135 0.0 0.0 1014.0 1.8 15.2 15.2 0.0
02/02/18 15:39 15.3 92 14.0 2.2 1.8 135 0.0 0.0 1014.0 1.8 15.2 15.3 0.0
02/02/18 15:40 15.3 92 14.0 2.2 1.8 135 0.0 0.0 1014.0 1.8 15.2 15.3 0.0
02/02/18 15:41 15.3 92 14.0 2.2 1.8 135 0.0 0.0 1014.0 1.8 15.2 15.3 0.0
02/02/18 15:42 15.4 92 14.1 2.2 1.8 135 0.0 0.0 1014.0 1.8 15.2 15.4 0.0
02/02/18 15:43 15.4 92 14.1 2.2 1.8 135 0.0 0.0 1014.0 1.8 15.2 15.4 0.0
02/02/18 15:44 15.4 92 14.1 2.2 1.8 135 0.0 0.0 1014.0 1.8 15.2 15.4 0.0
02/02/18 15:45 15.4 92 14.1 2.2 1.8 135 0.0 0.0 1014.0 1.8 15.2 15.4 0.0
02/02/18 15:46 15.3 92 14.0 2.2 1.8 135 0.0 0.0 1014.0 1.8 15.2 15.3 0.0
02/02/18 16:02 16.2 86 13.9 3.6 6.8 45 0.0 0.0 1014.0 6.8 0.0 16.2 0.0
02/02/18 16:03 16.5 86 14.1 5.8 7.6 47 0.0 0.0 1014.0 4.7 16.5 16.5 0.0
02/02/18 16:04 16.6 87 14.4 3.6 7.6 33 0.0 0.0 1014.0 1.8 16.6 16.6 0.0
02/02/18 16:05 16.8 87 14.6 3.2 7.6 35 0.0 0.0 1014.0 4.3 16.8 16.8 0.0
02/02/18 16:06 16.8 87 14.6 5.0 7.6 49 0.0 0.0 1014.0 6.8 16.8 16.8 0.0
02/02/18 16:07 16.7 85 14.2 7.2 8.6 64 0.0 0.0 1014.0 4.0 16.7 16.7 0.0
02/02/18 16:08 16.7 84 14.0 5.0 8.6 84 0.0 0.0 1013.0 3.2 16.7 16.7 0.0
02/02/18 16:09 16.6 83 13.7 5.0 8.6 106 0.0 0.0 1013.0 5.4 16.6 16.6 0.0
02/02/18 16:10 16.6 83 13.7 5.0 8.6 117 0.0 0.0 1013.0 5.0 16.6 16.6 0.0
02/02/18 16:11 16.7 83 13.8 4.7 8.6 107 0.0 0.0 1013.0 4.7 16.7 16.7 0.0
02/02/18 16:12 16.7 83 13.8 4.3 8.6 108 0.0 0.0 1013.0 5.4 16.7 16.7 0.0
02/02/18 16:13 16.7 83 13.8 4.3 8.6 111 0.0 0.0 1013.0 7.9 16.7 16.7 0.0
02/02/18 16:14 16.6 82 13.5 6.8 8.6 126 0.0 0.0 1013.0 6.5 16.6 16.6 0.0
02/02/18 16:15 16.6 82 13.5 6.1 8.6 132 0.0 0.0 1013.0 8.6 16.6 16.6 0.0
02/02/18 16:16 16.6 81 13.3 5.8 8.6 141 0.0 0.0 1013.0 6.1 16.6 16.6 0.0
02/02/18 16:17 16.6 81 13.3 3.6 8.6 132 0.0 0.0 1013.0 4.7 16.6 16.6 0.0
02/02/18 16:18 16.6 81 13.3 4.3 8.6 121 0.0 0.0 1013.0 5.0 16.6 16.6 0.0
02/02/18 16:19 16.6 82 13.5 4.3 8.6 107 0.0 0.0 1013.0 5.0 16.6 16.6 0.0
02/02/18 17:02 16.0 83 13.1 0.0 0.0 0 0.0 0.0 1014.0 0.0 0.0 16.0 0.0
02/02/18 17:03 16.0 84 13.3 0.0 0.0 0 0.0 0.0 1014.0 0.0 0.0 16.0 0.0
02/02/18 17:04 16.0 84 13.3 0.0 0.0 0 0.0 0.0 1014.0 0.0 0.0 16.0 0.0
02/02/18 17:05 16.0 84 13.3 0.0 0.0 0 0.0 0.0 1014.0 0.0 0.0 16.0 0.0
02/02/18 17:06 16.0 84 13.3 0.0 0.0 0 0.0 0.0 1014.0 0.0 0.0 16.0 0.0
02/02/18 17:07 16.0 84 13.3 0.0 0.0 0 0.0 0.0 1014.0 0.0 0.0 16.0 0.0
02/02/18 17:08 15.8 84 13.1 0.0 0.0 0 0.0 0.0 1014.0 0.0 0.0 15.8 0.0
02/02/18 17:09 15.6 84 12.9 0.0 0.0 0 0.0 0.0 1014.0 0.0 0.0 15.6 0.0
02/02/18 17:10 15.5 84 12.8 0.0 0.0 0 0.0 0.0 1014.0 0.0 0.0 15.5 0.0
02/02/18 17:36 15.5 84 12.8 0.0 0.0 0 0.0 0.0 1014.0 0.0 0.0 15.5 0.0
02/02/18 17:37 15.5 84 12.8 0.0 0.0 0 0.0 0.0 1014.0 0.0 0.0 15.5 0.0
02/02/18 17:38 15.5 88 13.5 3.2 4.3 135 0.0 0.0 1014.0 4.3 15.5 15.5 0.0
02/02/18 17:39 15.5 88 13.5 3.2 4.3 135 0.0 0.0 1014.0 4.3 15.5 15.5 0.0
02/02/18 17:40 15.5 88 13.5 3.2 4.3 135 0.0 0.0 1014.0 4.3 15.5 15.5 0.0
02/02/18 17:41 15.5 88 13.5 3.2 4.3 135 0.0 0.0 1014.0 4.3 15.5 15.5 0.0
02/02/18 17:42 15.4 87 13.2 3.2 4.3 135 0.0 0.0 1014.0 4.3 15.5 15.4 0.0
02/02/18 17:43 15.4 87 13.2 3.2 4.3 135 0.0 0.0 1014.0 4.3 15.4 15.4 0.0
02/02/18 17:44 15.4 87 13.2 3.2 4.3 135 0.0 0.0 1014.0 4.3 15.4 15.4 0.0
02/02/18 17:45 15.4 87 13.2 3.2 4.3 135 0.0 0.0 1014.0 4.3 15.4 15.4 0.0
02/02/18 17:46 15.4 87 13.2 3.2 4.3 135 0.0 0.0 1014.0 4.3 15.4 15.4 0.0
02/02/18 17:47 15.3 87 13.1 3.2 4.3 135 0.0 0.0 1014.0 4.3 15.4 15.3 0.0
02/02/18 17:48 15.3 87 13.1 3.2 4.3 135 0.0 0.0 1014.0 4.3 15.4 15.3 0.0
02/02/18 17:49 15.3 87 13.1 3.2 4.3 135 0.0 0.0 1014.0 4.3 15.4 15.3 0.0
02/02/18 17:50 15.3 87 13.1 3.2 4.3 135 0.0 0.0 1014.0 4.3 15.4 15.3 0.0
02/02/18 17:51 15.3 87 13.1 3.2 4.3 135 0.0 0.0 1014.0 4.3 15.4 15.3 0.0
02/02/18 17:52 15.3 88 13.3 3.2 4.3 135 0.0 0.0 1014.0 4.3 15.4 15.3 0.0
02/02/18 17:53 15.3 88 13.3 3.2 4.3 135 0.0 0.0 1014.0 4.3 15.4 15.3 0.0
02/02/18 17:54 15.3 88 13.3 3.2 4.3 135 0.0 0.0 1014.0 4.3 15.4 15.3 0.0
02/02/18 17:55 15.3 87 13.1 3.2 4.3 135 0.0 0.0 1014.0 4.3 15.4 15.3 0.0
02/02/18 17:56 15.2 87 13.0 3.2 4.3 135 0.0 0.0 1014.0 4.3 15.4 15.2 0.0
02/02/18 17:57 15.2 87 13.0 3.2 4.3 135 0.0 0.0 1014.0 4.3 15.4 15.2 0.0
02/02/18 17:58 15.3 87 13.1 3.2 4.3 135 0.0 0.0 1014.0 4.3 15.4 15.3 0.0
02/02/18 17:59 15.2 87 13.0 3.2 4.3 135 0.0 0.0 1014.0 4.3 15.4 15.2 0.0
02/02/18 18:00 15.2 87 13.0 3.2 4.3 135 0.0 0.0 1014.0 4.3 15.4 15.2 0.0
02/02/18 18:02 15.2 87 13.0 0.0 0.0 0 0.0 0.0 1014.0 0.0 0.0 15.2 0.0
02/02/18 18:03 15.2 87 13.0 0.0 0.0 0 0.0 0.0 1014.0 0.0 0.0 15.2 0.0
02/02/18 18:04 15.2 86 12.9 0.0 0.0 0 0.0 0.0 1014.0 0.0 0.0 15.2 0.0
02/02/18 18:05 15.2 86 12.9 0.0 0.0 0 0.0 0.0 1014.0 0.0 0.0 15.2 0.0
02/02/18 18:06 15.2 86 12.9 0.0 0.0 0 0.0 0.0 1014.0 0.0 0.0 15.2 0.0
02/02/18 18:07 15.2 86 12.9 0.0 0.0 0 0.0 0.0 1014.0 0.0 0.0 15.2 0.0
02/02/18 18:08 15.1 86 12.8 0.0 0.0 0 0.0 0.0 1014.0 0.0 0.0 15.1 0.0
02/02/18 18:09 15.1 86 12.8 0.0 0.0 0 0.0 0.0 1014.0 0.0 0.0 15.1 0.0
02/02/18 18:10 15.1 86 12.8 0.0 0.0 0 0.0 0.0 1014.0 0.0 0.0 15.1 0.0
02/02/18 18:11 15.0 86 12.7 0.0 0.0 0 0.0 0.0 1014.0 0.0 0.0 15.0 0.0
02/02/18 18:12 15.0 86 12.7 0.0 0.0 0 0.0 0.0 1014.0 0.0 0.0 15.0 0.0
02/02/18 18:13 15.0 86 12.7 0.0 0.0 0 0.0 0.0 1014.0 0.0 0.0 15.0 0.0
02/02/18 18:14 15.0 86 12.7 0.0 0.0 0 0.0 0.0 1014.0 0.0 0.0 15.0 0.0
02/02/18 18:15 14.9 86 12.6 0.0 0.0 0 0.0 0.0 1014.0 0.0 0.0 14.9 0.0
02/02/18 18:16 14.9 86 12.6 0.0 0.0 0 0.0 0.0 1014.0 0.0 0.0 14.9 0.0
02/02/18 18:17 14.9 87 12.8 0.0 0.0 0 0.0 0.0 1014.0 0.0 0.0 14.9 0.0
02/02/18 18:18 14.9 87 12.8 0.0 0.0 0 0.0 0.0 1014.0 0.0 0.0 14.9 0.0
02/02/18 18:19 14.9 87 12.8 0.0 0.0 0 0.0 0.0 1014.0 0.0 0.0 14.9 0.0
02/02/18 18:20 14.9 87 12.8 0.0 0.0 0 0.0 0.0 1014.0 0.0 0.0 14.9 0.0
02/02/18 18:21 14.9 87 12.8 0.0 0.0 0 0.0 0.0 1014.0 0.0 0.0 14.9 0.0
02/02/18 18:22 14.9 87 12.8 0.0 0.0 0 0.0 0.0 1014.0 0.0 0.0 14.9 0.0
02/02/18 18:23 14.9 87 12.8 0.0 0.0 0 0.0 0.0 1014.0 0.0 0.0 14.9 0.0
02/02/18 18:24 14.8 87 12.7 0.0 0.0 0 0.0 0.0 1014.0 0.0 0.0 14.8 0.0
02/02/18 18:25 14.7 87 12.6 0.0 0.0 0 0.0 0.0 1014.0 0.0 0.0 14.7 0.0
02/02/18 18:26 14.7 87 12.6 0.0 0.0 0 0.0 0.0 1014.0 0.0 0.0 14.7 0.0
02/02/18 18:27 14.7 87 12.6 0.0 0.0 0 0.0 0.0 1014.0 0.0 0.0 14.7 0.0
02/02/18 18:28 14.7 87 12.6 0.0 0.0 0 0.0 0.0 1014.0 0.0 0.0 14.7 0.0
02/02/18 18:29 14.7 87 12.6 0.0 0.0 0 0.0 0.0 1014.0 0.0 0.0 14.7 0.0
02/02/18 18:30 14.6 87 12.5 0.0 0.0 0 0.0 0.0 1014.0 0.0 0.0 14.6 0.0
02/02/18 18:31 14.6 87 12.5 0.0 0.0 0 0.0 0.0 1014.0 0.0 0.0 14.6 0.0
02/02/18 18:32 14.6 87 12.5 0.0 0.0 0 0.0 0.0 1014.0 0.0 0.0 14.6 0.0
02/02/18 18:33 14.5 87 12.4 0.0 0.0 0 0.0 0.0 1014.0 0.0 0.0 14.5 0.0
02/02/18 18:34 14.5 87 12.4 0.0 0.0 0 0.0 0.0 1014.0 0.0 0.0 14.5 0.0
02/02/18 18:35 14.5 87 12.4 0.0 0.0 0 0.0 0.0 1014.0 0.0 0.0 14.5 0.0
02/02/18 18:36 14.4 88 12.4 0.0 0.0 0 0.0 0.0 1014.0 0.0 0.0 14.4 0.0
02/02/18 18:37 14.4 88 12.4 0.0 0.0 0 0.0 0.0 1014.0 0.0 0.0 14.4 0.0
02/02/18 18:38 14.3 88 12.3 0.0 0.0 0 0.0 0.0 1014.0 0.0 0.0 14.3 0.0
02/02/18 18:39 14.3 88 12.3 0.0 0.0 0 0.0 0.0 1014.0 0.0 0.0 14.3 0.0
02/02/18 18:40 14.3 88 12.3 0.0 0.0 0 0.0 0.0 1014.0 0.0 0.0 14.3 0.0
02/02/18 18:41 14.2 88 12.2 0.0 0.0 0 0.0 0.0 1014.0 0.0 0.0 14.2 0.0
02/02/18 18:42 14.2 89 12.4 0.0 0.0 0 0.0 0.0 1014.0 0.0 0.0 14.2 0.0
02/02/18 18:43 14.1 89 12.3 0.0 0.0 0 0.0 0.0 1014.0 0.0 0.0 14.1 0.0
02/02/18 18:44 14.1 89 12.3 0.0 0.0 0 0.0 0.0 1014.0 0.0 0.0 14.1 0.0
02/02/18 18:45 14.1 89 12.3 0.0 0.0 0 0.0 0.0 1014.0 0.0 0.0 14.1 0.0
02/02/18 18:46 14.0 90 12.4 0.0 0.0 0 0.0 0.0 1014.0 0.0 0.0 14.0 0.0
02/02/18 18:47 14.0 90 12.4 0.0 0.0 0 0.0 0.0 1014.0 0.0 0.0 14.0 0.0
02/02/18 18:48 14.0 90 12.4 0.0 0.0 0 0.0 0.0 1014.0 0.0 0.0 14.0 0.0
02/02/18 18:49 14.0 90 12.4 0.0 0.0 0 0.0 0.0 1014.0 0.0 0.0 14.0 0.0
02/02/18 18:50 14.0 91 12.6 0.0 0.0 0 0.0 0.0 1014.0 0.0 0.0 14.0 0.0
02/02/18 18:51 13.9 91 12.5 0.0 0.0 0 0.0 0.0 1014.0 0.0 0.0 13.9 0.0
02/02/18 18:52 13.9 91 12.5 0.0 0.0 0 0.0 0.0 1014.0 0.0 0.0 13.9 0.0
02/02/18 18:53 14.0 91 12.6 0.0 0.0 0 0.0 0.0 1014.0 0.0 0.0 14.0 0.0
02/02/18 18:54 14.0 91 12.6 0.0 0.0 0 0.0 0.0 1014.0 0.0 0.0 14.0 0.0
02/02/18 18:55 14.0 92 12.7 0.0 0.0 0 0.0 0.0 1014.0 0.0 0.0 14.0 0.0
02/02/18 18:56 13.9 92 12.6 0.0 0.0 0 0.0 0.0 1014.0 0.0 0.0 13.9 0.0
02/02/18 18:57 13.9 92 12.6 0.0 0.0 0 0.0 0.0 1014.0 0.0 0.0 13.9 0.0
02/02/18 18:58 14.0 92 12.7 0.0 0.0 0 0.0 0.0 1014.0 0.0 0.0 14.0 0.0
02/02/18 18:59 13.9 92 12.6 0.0 0.0 0 0.0 0.0 1014.0 0.0 0.0 13.9 0.0
02/02/18 19:00 13.9 92 12.6 0.0 0.0 0 0.0 0.0 1014.0 0.0 0.0 13.9 0.0
02/02/18 19:03 13.9 93 12.8 0.0 0.0 0 0.0 0.0 1014.0 0.0 0.0 13.9 0.0
02/02/18 19:04 13.9 93 12.8 0.0 0.0 0 0.0 0.0 1014.0 0.0 0.0 13.9 0.0
02/02/18 19:05 13.9 93 12.8 0.0 0.0 0 0.0 0.0 1014.0 0.0 0.0 13.9 0.0
02/02/18 19:06 13.9 93 12.8 0.0 0.0 0 0.0 0.0 1014.0 0.0 0.0 13.9 0.0
02/02/18 19:07 13.9 93 12.8 0.0 0.0 0 0.0 0.0 1014.0 0.0 0.0 13.9 0.0
02/02/18 19:08 13.9 93 12.8 0.0 0.0 0 0.0 0.0 1015.0 0.0 0.0 13.9 0.0
02/02/18 19:09 13.9 93 12.8 0.0 0.0 0 0.0 0.0 1015.0 0.0 0.0 13.9 0.0
02/02/18 19:10 13.8 93 12.7 0.0 0.0 0 0.0 0.0 1015.0 0.0 0.0 13.8 0.0
02/02/18 19:11 13.8 93 12.7 0.0 0.0 0 0.0 0.0 1015.0 0.0 0.0 13.8 0.0
02/02/18 19:12 13.8 93 12.7 0.0 0.0 0 0.0 0.0 1015.0 0.0 0.0 13.8 0.0
02/02/18 19:13 13.8 93 12.7 0.0 0.0 0 0.0 0.0 1015.0 0.0 0.0 13.8 0.0
02/02/18 19:14 13.8 93 12.7 0.0 0.0 0 0.0 0.0 1015.0 0.0 0.0 13.8 0.0
02/02/18 19:15 13.7 94 12.8 0.0 0.0 0 0.0 0.0 1015.0 0.0 0.0 13.7 0.0
02/02/18 19:16 13.7 94 12.8 0.0 0.0 0 0.0 0.0 1015.0 0.0 0.0 13.7 0.0
02/02/18 19:17 13.7 94 12.8 0.0 0.0 0 0.0 0.0 1015.0 0.0 0.0 13.7 0.0
02/02/18 19:18 13.7 94 12.8 0.0 0.0 0 0.0 0.0 1015.0 0.0 0.0 13.7 0.0
02/02/18 19:19 13.7 94 12.8 0.0 0.0 0 0.0 0.0 1015.0 0.0 0.0 13.7 0.0
02/02/18 19:20 13.7 94 12.8 0.0 0.0 0 0.0 0.0 1015.0 0.0 0.0 13.7 0.0
02/02/18 19:21 13.7 94 12.8 0.0 0.0 0 0.0 0.0 1015.0 0.0 0.0 13.7 0.0
02/02/18 19:22 13.7 94 12.8 0.0 0.0 0 0.0 0.0 1015.0 0.0 0.0 13.7 0.0
02/02/18 19:23 13.7 94 12.8 0.0 0.0 0 0.0 0.0 1015.0 0.0 0.0 13.7 0.0
02/02/18 19:24 13.7 94 12.8 0.0 0.0 0 0.0 0.0 1015.0 0.0 0.0 13.7 0.0
02/02/18 19:25 13.6 94 12.7 0.0 0.0 0 0.0 0.0 1015.0 0.0 0.0 13.6 0.0
02/02/18 19:26 13.7 94 12.8 0.0 0.0 0 0.0 0.0 1015.0 0.0 0.0 13.7 0.0
02/02/18 19:27 13.7 94 12.8 0.0 0.0 0 0.0 0.0 1015.0 0.0 0.0 13.7 0.0
02/02/18 19:28 13.6 94 12.7 0.0 0.0 0 0.0 0.0 1015.0 0.0 0.0 13.6 0.0
02/02/18 19:29 13.6 94 12.7 0.0 0.0 0 0.0 0.0 1015.0 0.0 0.0 13.6 0.0
02/02/18 19:30 13.6 94 12.7 0.0 0.0 0 0.0 0.0 1015.0 0.0 0.0 13.6 0.0
02/02/18 19:31 13.6 94 12.7 0.0 0.0 0 0.0 0.0 1015.0 0.0 0.0 13.6 0.0
02/02/18 19:32 13.6 94 12.7 0.0 0.0 0 0.0 0.0 1015.0 0.0 0.0 13.6 0.0
02/02/18 19:33 13.6 94 12.7 0.0 0.0 0 0.0 0.0 1015.0 0.0 0.0 13.6 0.0
02/02/18 19:34 13.6 95 12.8 0.0 0.0 0 0.0 0.0 1015.0 0.0 0.0 13.6 0.0
02/02/18 19:35 13.5 95 12.7 0.0 0.0 0 0.0 0.0 1015.0 0.0 0.0 13.5 0.0
02/02/18 19:36 13.5 95 12.7 0.0 0.0 0 0.0 0.0 1015.0 0.0 0.0 13.5 0.0
02/02/18 19:37 13.5 95 12.7 0.0 0.0 0 0.0 0.0 1015.0 0.0 0.0 13.5 0.0
02/02/18 19:38 13.5 95 12.7 0.0 0.0 0 0.0 0.0 1014.0 0.0 0.0 13.5 0.0
02/02/18 19:39 13.5 95 12.7 0.0 0.0 0 0.0 0.0 1014.0 0.0 0.0 13.5 0.0
02/02/18 19:40 13.5 95 12.7 0.0 0.0 0 0.0 0.0 1014.0 0.0 0.0 13.5 0.0
02/02/18 19:41 13.5 95 12.7 0.0 0.0 0 0.0 0.0 1014.0 0.0 0.0 13.5 0.0
02/02/18 19:42 13.5 95 12.7 0.0 0.0 0 0.0 0.0 1014.0 0.0 0.0 13.5 0.0
02/02/18 19:43 13.5 95 12.7 0.0 0.0 0 0.0 0.0 1014.0 0.0 0.0 13.5 0.0
02/02/18 19:44 13.5 95 12.7 0.0 0.0 0 0.0 0.0 1014.0 0.0 0.0 13.5 0.0
02/02/18 19:45 13.5 95 12.7 0.0 0.0 0 0.0 0.0 1014.0 0.0 0.0 13.5 0.0
02/02/18 19:46 13.5 95 12.7 0.0 0.0 0 0.0 0.0 1014.0 0.0 0.0 13.5 0.0
02/02/18 19:47 13.5 95 12.7 0.0 0.0 0 0.0 0.0 1014.0 0.0 0.0 13.5 0.0
02/02/18 19:48 13.5 95 12.7 0.0 0.0 0 0.0 0.0 1014.0 0.0 0.0 13.5 0.0
02/02/18 19:49 13.5 95 12.7 0.0 0.0 0 0.0 0.0 1014.0 0.0 0.0 13.5 0.0
02/02/18 19:50 13.5 95 12.7 0.0 0.0 0 0.0 0.0 1014.0 0.0 0.0 13.5 0.0
02/02/18 19:51 13.5 95 12.7 0.0 0.0 0 0.0 0.0 1014.0 0.0 0.0 13.5 0.0
02/02/18 19:52 13.5 95 12.7 0.0 0.0 0 0.0 0.0 1014.0 0.0 0.0 13.5 0.0
02/02/18 19:53 13.5 95 12.7 0.0 0.0 0 0.0 0.0 1015.0 0.0 0.0 13.5 0.0
02/02/18 19:54 13.5 95 12.7 0.0 0.0 0 0.0 0.0 1015.0 0.0 0.0 13.5 0.0
02/02/18 19:55 13.5 95 12.7 0.0 0.0 0 0.0 0.0 1015.0 0.0 0.0 13.5 0.0
02/02/18 19:56 13.5 95 12.7 0.0 0.0 0 0.0 0.0 1015.0 0.0 0.0 13.5 0.0
02/02/18 19:57 13.5 95 12.7 0.0 0.0 0 0.0 0.0 1015.0 0.0 0.0 13.5 0.0
02/02/18 19:58 13.4 95 12.6 0.0 0.0 0 0.0 0.0 1015.0 0.0 0.0 13.4 0.0
02/02/18 19:59 13.4 95 12.6 0.0 0.0 0 0.0 0.0 1015.0 0.0 0.0 13.4 0.0
02/02/18 20:00 13.4 95 12.6 0.0 0.0 0 0.0 0.0 1015.0 0.0 0.0 13.4 0.0
02/02/18 20:03 13.3 95 12.5 0.0 0.0 0 0.0 0.0 1015.0 0.0 0.0 13.3 0.0
02/02/18 20:04 13.4 95 12.6 0.0 0.0 0 0.0 0.0 1015.0 0.0 0.0 13.4 0.0
02/02/18 20:05 13.3 95 12.5 0.0 0.0 0 0.0 0.0 1015.0 0.0 0.0 13.3 0.0
02/02/18 20:06 13.3 95 12.5 0.0 0.0 0 0.0 0.0 1015.0 0.0 0.0 13.3 0.0
02/02/18 20:07 13.3 95 12.5 0.0 0.0 0 0.0 0.0 1015.0 0.0 0.0 13.3 0.0
02/02/18 20:08 13.3 95 12.5 0.0 0.0 0 0.0 0.0 1015.0 0.0 0.0 13.3 0.0
02/02/18 20:09 13.3 95 12.5 0.0 0.0 0 0.0 0.0 1015.0 0.0 0.0 13.3 0.0
02/02/18 20:10 13.3 95 12.5 0.0 0.0 0 0.0 0.0 1015.0 0.0 0.0 13.3 0.0
02/02/18 20:11 13.2 95 12.4 0.0 0.0 0 0.0 0.0 1015.0 0.0 0.0 13.2 0.0
02/02/18 20:12 13.3 95 12.5 0.0 0.0 0 0.0 0.0 1015.0 0.0 0.0 13.3 0.0
02/02/18 20:13 13.3 96 12.7 0.0 0.0 0 0.0 0.0 1015.0 0.0 0.0 13.3 0.0
02/02/18 20:14 13.2 96 12.6 0.0 0.0 0 0.0 0.0 1015.0 0.0 0.0 13.2 0.0
02/02/18 20:15 13.2 96 12.6 0.0 0.0 0 0.0 0.0 1015.0 0.0 0.0 13.2 0.0
02/02/18 20:16 13.2 96 12.6 0.0 0.0 0 0.0 0.0 1015.0 0.0 0.0 13.2 0.0
02/02/18 20:17 13.2 96 12.6 0.0 0.0 0 0.0 0.0 1015.0 0.0 0.0 13.2 0.0
02/02/18 21:03 12.6 98 12.3 0.0 0.0 0 0.0 0.0 1014.0 0.0 0.0 12.6 0.0
02/02/18 21:04 12.6 98 12.3 0.0 0.0 0 0.0 0.0 1014.0 0.0 0.0 12.6 0.0
02/02/18 21:05 12.6 98 12.3 0.0 0.0 0 0.0 0.0 1014.0 0.0 0.0 12.6 0.0
02/02/18 21:06 12.6 98 12.3 0.0 0.0 0 0.0 0.0 1014.0 0.0 0.0 12.6 0.0
02/02/18 21:07 12.6 98 12.3 0.0 0.0 0 0.0 0.0 1014.0 0.0 0.0 12.6 0.0
02/02/18 21:08 12.6 98 12.3 0.0 0.0 0 0.0 0.0 1014.0 0.0 0.0 12.6 0.0
02/02/18 21:09 12.6 98 12.3 0.0 0.0 0 0.0 0.0 1014.0 0.0 0.0 12.6 0.0
02/02/18 21:10 12.5 98 12.2 0.0 0.0 0 0.0 0.0 1014.0 0.0 0.0 12.5 0.0
02/02/18 21:11 12.5 98 12.2 0.0 0.0 0 0.0 0.0 1014.0 0.0 0.0 12.5 0.0
02/02/18 21:12 12.5 98 12.2 0.0 0.0 0 0.0 0.0 1014.0 0.0 0.0 12.5 0.0
02/02/18 21:13 12.5 98 12.2 0.0 0.0 0 0.0 0.0 1014.0 0.0 0.0 12.5 0.0
02/02/18 21:14 12.5 98 12.2 0.0 0.0 0 0.0 0.0 1014.0 0.0 0.0 12.5 0.0
02/02/18 21:15 12.5 98 12.2 0.0 0.0 0 0.0 0.0 1014.0 0.0 0.0 12.5 0.0
02/02/18 21:16 12.5 98 12.2 0.0 0.0 0 0.0 0.0 1014.0 0.0 0.0 12.5 0.0
02/02/18 21:17 12.5 98 12.2 0.0 0.0 0 0.0 0.0 1014.0 0.0 0.0 12.5 0.0
02/02/18 21:18 12.5 98 12.2 0.0 0.0 0 0.0 0.0 1014.0 0.0 0.0 12.5 0.0
02/02/18 21:19 12.5 98 12.2 0.0 0.0 0 0.0 0.0 1014.0 0.0 0.0 12.5 0.0
02/02/18 21:20 12.5 98 12.2 0.0 0.0 0 0.0 0.0 1014.0 0.0 0.0 12.5 0.0
02/02/18 21:21 12.5 98 12.2 0.0 0.0 0 0.0 0.0 1014.0 0.0 0.0 12.5 0.0
02/02/18 21:22 12.5 98 12.2 0.0 0.0 0 0.0 0.0 1014.0 0.0 0.0 12.5 0.0
02/02/18 21:23 12.4 98 12.1 0.0 0.0 0 0.0 0.0 1015.0 0.0 0.0 12.4 0.0
02/02/18 21:24 12.4 98 12.1 0.0 0.0 0 0.0 0.0 1015.0 0.0 0.0 12.4 0.0
02/02/18 21:25 12.4 98 12.1 0.0 0.0 0 0.0 0.0 1015.0 0.0 0.0 12.4 0.0
02/02/18 21:26 12.4 98 12.1 0.0 0.0 0 0.0 0.0 1015.0 0.0 0.0 12.4 0.0
02/02/18 21:27 12.4 98 12.1 0.0 0.0 0 0.0 0.0 1015.0 0.0 0.0 12.4 0.0
02/02/18 21:28 12.4 98 12.1 0.0 0.0 0 0.0 0.0 1015.0 0.0 0.0 12.4 0.0
02/02/18 21:29 12.4 98 12.1 0.0 0.0 0 0.0 0.0 1015.0 0.0 0.0 12.4 0.0
02/02/18 21:30 12.5 98 12.2 0.0 0.0 0 0.0 0.0 1015.0 0.0 0.0 12.5 0.0
02/02/18 21:31 12.4 98 12.1 0.0 0.0 0 0.0 0.0 1015.0 0.0 0.0 12.4 0.0
02/02/18 21:32 12.4 98 12.1 0.0 0.0 0 0.0 0.0 1015.0 0.0 0.0 12.4 0.0
02/02/18 21:33 12.4 98 12.1 0.0 0.0 0 0.0 0.0 1015.0 0.0 0.0 12.4 0.0
02/02/18 21:34 12.4 98 12.1 0.0 0.0 0 0.0 0.0 1015.0 0.0 0.0 12.4 0.0
02/02/18 21:35 12.4 98 12.1 0.0 0.0 0 0.0 0.0 1015.0 0.0 0.0 12.4 0.0
02/02/18 21:36 12.4 98 12.1 0.0 0.0 0 0.0 0.0 1015.0 0.0 0.0 12.4 0.0
02/02/18 21:37 12.4 98 12.1 0.0 0.0 0 0.0 0.0 1015.0 0.0 0.0 12.4 0.0
02/02/18 21:38 12.4 98 12.1 0.0 0.0 0 0.0 0.0 1015.0 0.0 0.0 12.4 0.0
02/02/18 21:39 12.4 98 12.1 0.0 0.0 0 0.0 0.0 1015.0 0.0 0.0 12.4 0.0
02/02/18 21:40 12.4 98 12.1 0.0 0.0 0 0.0 0.0 1015.0 0.0 0.0 12.4 0.0
02/02/18 21:41 12.4 98 12.1 0.0 0.0 0 0.0 0.0 1015.0 0.0 0.0 12.4 0.0
02/02/18 21:42 12.4 98 12.1 0.0 0.0 0 0.0 0.0 1015.0 0.0 0.0 12.4 0.0
02/02/18 21:43 12.3 98 12.0 0.0 0.0 0 0.0 0.0 1015.0 0.0 0.0 12.3 0.0
02/02/18 21:44 12.4 98 12.1 0.0 0.0 0 0.0 0.0 1015.0 0.0 0.0 12.4 0.0
02/02/18 21:45 12.3 98 12.0 0.0 0.0 0 0.0 0.0 1015.0 0.0 0.0 12.3 0.0
02/02/18 21:46 12.3 98 12.0 0.0 0.0 0 0.0 0.0 1015.0 0.0 0.0 12.3 0.0
02/02/18 21:47 12.3 98 12.0 0.0 0.0 0 0.0 0.0 1015.0 0.0 0.0 12.3 0.0
02/02/18 21:48 12.3 98 12.0 0.0 0.0 0 0.0 0.0 1015.0 0.0 0.0 12.3 0.0
02/02/18 21:49 12.3 98 12.0 0.0 0.0 0 0.0 0.0 1015.0 0.0 0.0 12.3 0.0
02/02/18 21:50 12.3 98 12.0 0.0 0.0 0 0.0 0.0 1015.0 0.0 0.0 12.3 0.0
02/02/18 21:51 12.3 98 12.0 0.0 0.0 0 0.0 0.0 1015.0 0.0 0.0 12.3 0.0
02/02/18 21:52 12.3 98 12.0 0.0 0.0 0 0.0 0.0 1015.0 0.0 0.0 12.3 0.0
02/02/18 21:53 12.3 98 12.0 0.0 0.0 0 0.0 0.0 1015.0 0.0 0.0 12.3 0.0
02/02/18 21:54 12.3 98 12.0 0.0 0.0 0 0.0 0.0 1015.0 0.0 0.0 12.3 0.0
02/02/18 21:55 12.3 98 12.0 0.0 0.0 0 0.0 0.0 1015.0 0.0 0.0 12.3 0.0
02/02/18 21:56 12.3 98 12.0 0.0 0.0 0 0.0 0.0 1015.0 0.0 0.0 12.3 0.0
02/02/18 21:57 12.2 98 11.9 0.0 0.0 0 0.0 0.0 1015.0 0.0 0.0 12.2 0.0
02/02/18 21:58 12.2 98 11.9 0.0 0.0 0 0.0 0.0 1015.0 0.0 0.0 12.2 0.0
02/02/18 21:59 12.2 98 11.9 0.0 0.0 0 0.0 0.0 1015.0 0.0 0.0 12.2 0.0
02/02/18 22:00 12.3 98 12.0 0.0 0.0 0 0.0 0.0 1015.0 0.0 0.0 12.3 0.0
02/02/18 22:02 12.2 98 11.9 0.0 0.0 0 0.0 0.0 1015.0 0.0 0.0 12.2 0.0
02/02/18 22:03 12.2 98 11.9 0.0 0.0 0 0.0 0.0 1015.0 0.0 0.0 12.2 0.0
02/02/18 22:04 12.2 98 11.9 0.0 0.0 0 0.0 0.0 1015.0 0.0 0.0 12.2 0.0
02/02/18 22:05 12.2 98 11.9 0.0 0.0 0 0.0 0.0 1015.0 0.0 0.0 12.2 0.0
02/02/18 22:06 12.2 98 11.9 0.0 0.0 0 0.0 0.0 1015.0 0.0 0.0 12.2 0.0
02/02/18 22:07 12.2 98 11.9 0.0 0.0 0 0.0 0.0 1015.0 0.0 0.0 12.2 0.0
02/02/18 22:08 12.2 98 11.9 0.0 0.0 0 0.0 0.0 1015.0 0.0 0.0 12.2 0.0
02/02/18 22:09 12.2 98 11.9 0.0 0.0 0 0.0 0.0 1015.0 0.0 0.0 12.2 0.0
02/02/18 22:10 12.2 98 11.9 0.0 0.0 0 0.0 0.0 1015.0 0.0 0.0 12.2 0.0
02/02/18 22:11 12.2 98 11.9 0.0 0.0 0 0.0 0.0 1015.0 0.0 0.0 12.2 0.0
02/02/18 22:12 12.2 98 11.9 0.0 0.0 0 0.0 0.0 1015.0 0.0 0.0 12.2 0.0
02/02/18 22:13 12.2 98 11.9 0.0 0.0 0 0.0 0.0 1015.0 0.0 0.0 12.2 0.0
02/02/18 22:14 12.2 98 11.9 0.0 0.0 0 0.0 0.0 1015.0 0.0 0.0 12.2 0.0
02/02/18 22:15 12.2 98 11.9 0.0 0.0 0 0.0 0.0 1015.0 0.0 0.0 12.2 0.0
02/02/18 22:16 12.1 98 11.8 0.0 0.0 0 0.0 0.0 1015.0 0.0 0.0 12.1 0.0
02/02/18 22:17 12.1 98 11.8 0.0 0.0 0 0.0 0.0 1015.0 0.0 0.0 12.1 0.0
02/02/18 22:18 12.2 98 11.9 0.0 0.0 0 0.0 0.0 1015.0 0.0 0.0 12.2 0.0
02/02/18 22:19 12.1 98 11.8 0.0 0.0 0 0.0 0.0 1015.0 0.0 0.0 12.1 0.0
02/02/18 22:20 12.1 98 11.8 0.0 0.0 0 0.0 0.0 1015.0 0.0 0.0 12.1 0.0
02/02/18 22:21 12.1 98 11.8 0.0 0.0 0 0.0 0.0 1015.0 0.0 0.0 12.1 0.0
02/02/18 22:22 12.1 98 11.8 0.0 0.0 0 0.0 0.0 1015.0 0.0 0.0 12.1 0.0
02/02/18 22:23 12.1 98 11.8 0.0 0.0 0 0.0 0.0 1016.0 0.0 0.0 12.1 0.0
02/02/18 22:24 12.1 98 11.8 0.0 0.0 0 0.0 0.0 1016.0 0.0 0.0 12.1 0.0
02/02/18 22:25 12.1 98 11.8 0.0 0.0 0 0.0 0.0 1016.0 0.0 0.0 12.1 0.0
02/02/18 22:26 12.1 98 11.8 0.0 0.0 0 0.0 0.0 1016.0 0.0 0.0 12.1 0.0
02/02/18 22:27 12.1 98 11.8 0.0 0.0 0 0.0 0.0 1016.0 0.0 0.0 12.1 0.0
02/02/18 22:28 12.1 98 11.8 0.0 0.0 0 0.0 0.0 1016.0 0.0 0.0 12.1 0.0
02/02/18 22:29 12.1 98 11.8 0.0 0.0 0 0.0 0.0 1016.0 0.0 0.0 12.1 0.0
02/02/18 22:30 12.1 98 11.8 0.0 0.0 0 0.0 0.0 1016.0 0.0 0.0 12.1 0.0
02/02/18 22:31 12.1 98 11.8 0.0 0.0 0 0.0 0.0 1016.0 0.0 0.0 12.1 0.0
02/02/18 22:32 12.1 98 11.8 0.0 0.0 0 0.0 0.0 1016.0 0.0 0.0 12.1 0.0
02/02/18 22:33 12.0 98 11.7 0.0 0.0 0 0.0 0.0 1016.0 0.0 0.0 12.0 0.0
02/02/18 22:34 12.0 98 11.7 0.0 0.0 0 0.0 0.0 1016.0 0.0 0.0 12.0 0.0
02/02/18 22:35 12.0 98 11.7 0.0 0.0 0 0.0 0.0 1016.0 0.0 0.0 12.0 0.0
02/02/18 22:36 12.0 98 11.7 0.0 0.0 0 0.0 0.0 1016.0 0.0 0.0 12.0 0.0
02/02/18 22:37 12.0 98 11.7 0.0 0.0 0 0.0 0.0 1016.0 0.0 0.0 12.0 0.0
02/02/18 22:38 12.0 98 11.7 0.0 0.0 0 0.0 0.0 1016.0 0.0 0.0 12.0 0.0
02/02/18 22:39 12.0 98 11.7 0.0 0.0 0 0.0 0.0 1016.0 0.0 0.0 12.0 0.0
02/02/18 22:40 12.0 98 11.7 0.0 0.0 0 0.0 0.0 1016.0 0.0 0.0 12.0 0.0
02/02/18 22:41 12.0 98 11.7 0.0 0.0 0 0.0 0.0 1016.0 0.0 0.0 12.0 0.0
02/02/18 22:42 12.0 98 11.7 0.0 0.0 0 0.0 0.0 1016.0 0.0 0.0 12.0 0.0
02/02/18 22:43 12.0 98 11.7 0.0 0.0 0 0.0 0.0 1016.0 0.0 0.0 12.0 0.0
02/02/18 22:44 12.0 98 11.7 0.0 0.0 0 0.0 0.0 1016.0 0.0 0.0 12.0 0.0
02/02/18 22:45 12.0 98 11.7 0.0 0.0 0 0.0 0.0 1016.0 0.0 0.0 12.0 0.0
02/02/18 22:46 12.0 98 11.7 0.0 0.0 0 0.0 0.0 1016.0 0.0 0.0 12.0 0.0
02/02/18 22:47 12.0 98 11.7 0.0 0.0 0 0.0 0.0 1016.0 0.0 0.0 12.0 0.0
02/02/18 22:48 12.0 98 11.7 0.0 0.0 0 0.0 0.0 1016.0 0.0 0.0 12.0 0.0
02/02/18 22:49 12.0 98 11.7 0.0 0.0 0 0.0 0.0 1016.0 0.0 0.0 12.0 0.0
02/02/18 22:50 12.1 98 11.8 0.0 0.0 0 0.0 0.0 1016.0 0.0 0.0 12.1 0.0
02/02/18 22:51 12.0 98 11.7 0.0 0.0 0 0.0 0.0 1016.0 0.0 0.0 12.0 0.0
02/02/18 22:52 12.1 98 11.8 0.0 0.0 0 0.0 0.0 1016.0 0.0 0.0 12.1 0.0
02/02/18 22:53 12.0 98 11.7 0.0 0.0 0 0.0 0.0 1016.0 0.0 0.0 12.0 0.0
02/02/18 22:54 12.0 98 11.7 0.0 0.0 0 0.0 0.0 1016.0 0.0 0.0 12.0 0.0
02/02/18 22:55 12.1 98 11.8 0.0 0.0 0 0.0 0.0 1016.0 0.0 0.0 12.1 0.0
02/02/18 22:56 12.1 98 11.8 0.0 0.0 0 0.0 0.0 1016.0 0.0 0.0 12.1 0.0
02/02/18 22:57 12.1 98 11.8 0.0 0.0 0 0.0 0.0 1016.0 0.0 0.0 12.1 0.0
02/02/18 22:58 12.1 98 11.8 0.0 0.0 0 0.0 0.0 1016.0 0.0 0.0 12.1 0.0
02/02/18 22:59 12.0 98 11.7 0.0 0.0 0 0.0 0.0 1016.0 0.0 0.0 12.0 0.0
02/02/18 23:02 12.1 98 11.8 0.0 0.0 0 0.0 0.0 1016.0 0.0 0.0 12.1 0.0
02/02/18 23:03 12.1 98 11.8 0.0 0.0 0 0.0 0.0 1016.0 0.0 0.0 12.1 0.0
02/02/18 23:04 12.1 98 11.8 0.0 0.0 0 0.0 0.0 1016.0 0.0 0.0 12.1 0.0
02/02/18 23:05 12.1 98 11.8 0.0 0.0 0 0.0 0.0 1016.0 0.0 0.0 12.1 0.0
02/02/18 23:06 12.1 98 11.8 0.0 0.0 0 0.0 0.0 1016.0 0.0 0.0 12.1 0.0
02/02/18 23:07 12.1 98 11.8 0.0 0.0 0 0.0 0.0 1016.0 0.0 0.0 12.1 0.0
02/02/18 23:08 12.1 98 11.8 0.0 0.0 0 0.0 0.0 1015.0 0.0 0.0 12.1 0.0
02/02/18 23:09 12.1 98 11.8 0.0 0.0 0 0.0 0.0 1015.0 0.0 0.0 12.1 0.0
02/02/18 23:10 12.1 98 11.8 0.0 0.0 0 0.0 0.0 1015.0 0.0 0.0 12.1 0.0
02/02/18 23:11 12.1 98 11.8 0.0 0.0 0 0.0 0.0 1015.0 0.0 0.0 12.1 0.0
02/02/18 23:12 12.1 98 11.8 0.0 0.0 0 0.0 0.0 1015.0 0.0 0.0 12.1 0.0
02/02/18 23:13 12.1 98 11.8 0.0 0.0 0 0.0 0.0 1015.0 0.0 0.0 12.1 0.0
02/02/18 23:14 12.1 98 11.8 0.0 0.0 0 0.0 0.0 1015.0 0.0 0.0 12.1 0.0
02/02/18 23:15 12.1 98 11.8 0.0 0.0 0 0.0 0.0 1015.0 0.0 0.0 12.1 0.0
02/02/18 23:16 12.1 98 11.8 0.0 0.0 0 0.0 0.0 1015.0 0.0 0.0 12.1 0.0
02/02/18 23:17 12.1 98 11.8 0.0 0.0 0 0.0 0.0 1015.0 0.0 0.0 12.1 0.0
02/02/18 23:18 12.1 98 11.8 0.0 0.0 0 0.0 0.0 1015.0 0.0 0.0 12.1 0.0
02/02/18 23:19 12.1 98 11.8 0.0 0.0 0 0.0 0.0 1015.0 0.0 0.0 12.1 0.0
02/02/18 23:20 12.1 98 11.8 0.0 0.0 0 0.0 0.0 1015.0 0.0 0.0 12.1 0.0
02/02/18 23:21 12.2 98 11.9 0.0 0.0 0 0.0 0.0 1015.0 0.0 0.0 12.2 0.0
02/02/18 23:22 12.1 98 11.8 0.0 0.0 0 0.0 0.0 1015.0 0.0 0.0 12.1 0.0
02/02/18 23:23 12.1 98 11.8 0.0 0.0 0 0.0 0.0 1016.0 0.0 0.0 12.1 0.0
02/02/18 23:24 12.2 98 11.9 0.0 0.0 0 0.0 0.0 1016.0 0.0 0.0 12.2 0.0
02/02/18 23:25 12.1 98 11.8 0.0 0.0 0 0.0 0.0 1016.0 0.0 0.0 12.1 0.0
02/02/18 23:26 12.1 98 11.8 0.0 0.0 0 0.0 0.0 1016.0 0.0 0.0 12.1 0.0
02/02/18 23:27 12.1 98 11.8 0.0 0.0 0 0.0 0.0 1016.0 0.0 0.0 12.1 0.0
02/02/18 23:28 12.2 98 11.9 0.0 0.0 0 0.0 0.0 1016.0 0.0 0.0 12.2 0.0
02/02/18 23:29 12.1 98 11.8 0.0 0.0 0 0.0 0.0 1016.0 0.0 0.0 12.1 0.0
02/02/18 23:30 12.1 98 11.8 0.0 0.0 0 0.0 0.0 1016.0 0.0 0.0 12.1 0.0
02/02/18 23:31 12.1 98 11.8 0.0 0.0 0 0.0 0.0 1016.0 0.0 0.0 12.1 0.0
02/02/18 23:32 12.1 98 11.8 0.0 0.0 0 0.0 0.0 1016.0 0.0 0.0 12.1 0.0
02/02/18 23:33 12.1 98 11.8 0.0 0.0 0 0.0 0.0 1016.0 0.0 0.0 12.1 0.0
02/02/18 23:34 12.1 98 11.8 0.0 0.0 0 0.0 0.0 1016.0 0.0 0.0 12.1 0.0
02/02/18 23:35 12.1 98 11.8 0.0 0.0 0 0.0 0.0 1016.0 0.0 0.0 12.1 0.0
02/02/18 23:36 12.1 98 11.8 0.0 0.0 0 0.0 0.0 1016.0 0.0 0.0 12.1 0.0
02/02/18 23:37 12.1 98 11.8 0.0 0.0 0 0.0 0.0 1016.0 0.0 0.0 12.1 0.0
02/02/18 23:38 12.1 98 11.8 0.0 0.0 0 0.0 0.0 1015.0 0.0 0.0 12.1 0.0
02/02/18 23:39 12.1 98 11.8 0.0 0.0 0 0.0 0.0 1015.0 0.0 0.0 12.1 0.0
02/02/18 23:40 12.1 98 11.8 0.0 0.0 0 0.0 0.0 1015.0 0.0 0.0 12.1 0.0
02/02/18 23:41 12.2 98 11.9 0.0 0.0 0 0.0 0.0 1015.0 0.0 0.0 12.2 0.0
02/02/18 23:42 12.1 98 11.8 0.0 0.0 0 0.0 0.0 1015.0 0.0 0.0 12.1 0.0
02/02/18 23:43 12.1 98 11.8 0.0 0.0 0 0.0 0.0 1015.0 0.0 0.0 12.1 0.0
02/02/18 23:44 12.1 98 11.8 0.0 0.0 0 0.0 0.0 1015.0 0.0 0.0 12.1 0.0
02/02/18 23:45 12.1 98 11.8 0.0 0.0 0 0.0 0.0 1015.0 0.0 0.0 12.1 0.0
02/02/18 23:46 12.1 98 11.8 0.0 0.0 0 0.0 0.0 1015.0 0.0 0.0 12.1 0.0
02/02/18 23:47 12.1 98 11.8 0.0 0.0 0 0.0 0.0 1015.0 0.0 0.0 12.1 0.0
02/02/18 23:48 12.2 98 11.9 0.0 0.0 0 0.0 0.0 1015.0 0.0 0.0 12.2 0.0
02/02/18 23:49 12.1 98 11.8 0.0 0.0 0 0.0 0.0 1015.0 0.0 0.0 12.1 0.0
02/02/18 23:50 12.2 98 11.9 0.0 0.0 0 0.0 0.0 1015.0 0.0 0.0 12.2 0.0
02/02/18 23:51 12.2 98 11.9 0.0 0.0 0 0.0 0.0 1015.0 0.0 0.0 12.2 0.0
02/02/18 23:52 12.2 98 11.9 0.0 0.0 0 0.0 0.0 1015.0 0.0 0.0 12.2 0.0
02/02/18 23:53 12.2 98 11.9 0.0 0.0 0 0.0 0.0 1015.0 0.0 0.0 12.2 0.0
02/02/18 23:54 12.2 98 11.9 0.0 0.0 0 0.0 0.0 1015.0 0.0 0.0 12.2 0.0
02/02/18 23:55 12.2 98 11.9 0.0 0.0 0 0.0 0.0 1015.0 0.0 0.0 12.2 0.0
02/02/18 23:56 12.2 98 11.9 0.0 0.0 0 0.0 0.0 1015.0 0.0 0.0 12.2 0.0
02/02/18 23:57 12.2 98 11.9 0.0 0.0 0 0.0 0.0 1015.0 0.0 0.0 12.2 0.0
02/02/18 23:58 12.2 98 11.9 0.0 0.0 0 0.0 0.0 1015.0 0.0 0.0 12.2 0.0
02/02/18 23:59 12.2 98 11.9 0.0 0.0 0 0.0 0.0 1015.0 0.0 0.0 12.2 0.0
 
  Back to Top
Date Time Temperature Humidity Dewpoint Wind Speed High Gust Wind Bearing Rainfall Rate Total Rainfall Pressure Gust Wind Chill Heat Index UV Index
03/02/18 00:00 12.2 98 11.9 0.0 0.0 0 0.0 0.0 1015.0 0.0 0.0 12.2 0.0
03/02/18 00:02 12.2 98 11.9 0.0 0.0 0 0.0 0.0 1015.0 0.0 0.0 12.2 0.0
03/02/18 00:03 12.2 98 11.9 0.0 0.0 0 0.0 0.0 1015.0 0.0 0.0 12.2 0.0
03/02/18 00:04 12.2 98 11.9 0.0 0.0 0 0.0 0.0 1015.0 0.0 0.0 12.2 0.0
03/02/18 00:05 12.2 98 11.9 0.0 0.0 0 0.0 0.0 1015.0 0.0 0.0 12.2 0.0
03/02/18 00:06 12.2 98 11.9 0.0 0.0 0 0.0 0.0 1015.0 0.0 0.0 12.2 0.0
03/02/18 00:07 12.2 98 11.9 0.0 0.0 0 0.0 0.0 1015.0 0.0 0.0 12.2 0.0
03/02/18 00:08 12.2 98 11.9 0.0 0.0 0 0.0 0.0 1015.0 0.0 0.0 12.2 0.0
03/02/18 00:09 12.1 98 11.8 0.0 0.0 0 0.0 0.0 1015.0 0.0 0.0 12.1 0.0
03/02/18 00:10 12.1 98 11.8 0.0 0.0 0 0.0 0.0 1015.0 0.0 0.0 12.1 0.0
03/02/18 00:11 12.1 98 11.8 0.0 0.0 0 0.0 0.0 1015.0 0.0 0.0 12.1 0.0
03/02/18 00:12 12.1 98 11.8 0.0 0.0 0 0.0 0.0 1015.0 0.0 0.0 12.1 0.0
03/02/18 00:13 12.1 98 11.8 0.0 0.0 0 0.0 0.0 1015.0 0.0 0.0 12.1 0.0
03/02/18 00:14 12.1 98 11.8 0.0 0.0 0 0.0 0.0 1015.0 0.0 0.0 12.1 0.0
03/02/18 00:15 12.1 98 11.8 0.0 0.0 0 0.0 0.0 1015.0 0.0 0.0 12.1 0.0
03/02/18 00:16 12.2 98 11.9 0.0 0.0 0 0.0 0.0 1015.0 0.0 0.0 12.2 0.0
03/02/18 00:17 12.2 98 11.9 0.0 0.0 0 0.0 0.0 1015.0 0.0 0.0 12.2 0.0
03/02/18 00:18 12.1 98 11.8 0.0 0.0 0 0.0 0.0 1015.0 0.0 0.0 12.1 0.0
03/02/18 00:19 12.1 98 11.8 0.0 0.0 0 0.0 0.0 1015.0 0.0 0.0 12.1 0.0
03/02/18 00:20 12.1 98 11.8 0.0 0.0 0 0.0 0.0 1015.0 0.0 0.0 12.1 0.0
03/02/18 00:21 12.2 98 11.9 0.0 0.0 0 0.0 0.0 1015.0 0.0 0.0 12.2 0.0
03/02/18 00:22 12.2 98 11.9 0.0 0.0 0 0.0 0.0 1015.0 0.0 0.0 12.2 0.0
03/02/18 00:23 12.2 98 11.9 0.0 0.0 0 0.0 0.0 1015.0 0.0 0.0 12.2 0.0
03/02/18 00:24 12.2 98 11.9 0.0 0.0 0 0.0 0.0 1015.0 0.0 0.0 12.2 0.0
03/02/18 00:25 12.2 98 11.9 0.0 0.0 0 0.0 0.0 1015.0 0.0 0.0 12.2 0.0
03/02/18 00:26 12.2 98 11.9 0.0 0.0 0 0.0 0.0 1015.0 0.0 0.0 12.2 0.0
03/02/18 00:27 12.2 98 11.9 0.0 0.0 0 0.0 0.0 1015.0 0.0 0.0 12.2 0.0
03/02/18 00:28 12.2 98 11.9 0.0 0.0 0 0.0 0.0 1015.0 0.0 0.0 12.2 0.0
03/02/18 00:29 12.2 98 11.9 0.0 0.0 0 0.0 0.0 1015.0 0.0 0.0 12.2 0.0
03/02/18 00:30 12.2 98 11.9 0.0 0.0 0 0.0 0.0 1015.0 0.0 0.0 12.2 0.0
03/02/18 00:31 12.2 98 11.9 0.0 0.0 0 0.0 0.0 1015.0 0.0 0.0 12.2 0.0
03/02/18 00:32 12.2 98 11.9 0.0 0.0 0 0.0 0.0 1015.0 0.0 0.0 12.2 0.0
03/02/18 00:33 12.2 98 11.9 0.0 0.0 0 0.0 0.0 1015.0 0.0 0.0 12.2 0.0
03/02/18 00:34 12.2 98 11.9 0.0 0.0 0 0.0 0.0 1015.0 0.0 0.0 12.2 0.0
03/02/18 00:35 12.2 98 11.9 0.0 0.0 0 0.0 0.0 1015.0 0.0 0.0 12.2 0.0
03/02/18 00:36 12.2 98 11.9 0.0 0.0 0 0.0 0.0 1015.0 0.0 0.0 12.2 0.0
03/02/18 00:37 12.2 98 11.9 0.0 0.0 0 0.0 0.0 1015.0 0.0 0.0 12.2 0.0
03/02/18 00:38 12.2 98 11.9 0.0 0.0 0 0.0 0.0 1015.0 0.0 0.0 12.2 0.0
03/02/18 00:39 12.2 98 11.9 0.0 0.0 0 0.0 0.0 1015.0 0.0 0.0 12.2 0.0
03/02/18 00:40 12.1 98 11.8 0.0 0.0 0 0.0 0.0 1015.0 0.0 0.0 12.1 0.0
03/02/18 00:41 12.1 98 11.8 0.0 0.0 0 0.0 0.0 1015.0 0.0 0.0 12.1 0.0
03/02/18 00:42 12.1 98 11.8 0.0 0.0 0 0.0 0.0 1015.0 0.0 0.0 12.1 0.0
03/02/18 00:43 12.1 98 11.8 0.0 0.0 0 0.0 0.0 1015.0 0.0 0.0 12.1 0.0
03/02/18 00:44 12.1 98 11.8 0.0 0.0 0 0.0 0.0 1015.0 0.0 0.0 12.1 0.0
03/02/18 00:45 12.1 98 11.8 0.0 0.0 0 0.0 0.0 1015.0 0.0 0.0 12.1 0.0
03/02/18 00:46 12.1 98 11.8 0.0 0.0 0 0.0 0.0 1015.0 0.0 0.0 12.1 0.0
03/02/18 00:47 12.1 98 11.8 0.0 0.0 0 0.0 0.0 1015.0 0.0 0.0 12.1 0.0
03/02/18 00:48 12.1 98 11.8 0.0 0.0 0 0.0 0.0 1015.0 0.0 0.0 12.1 0.0
03/02/18 00:49 12.1 98 11.8 0.0 0.0 0 0.0 0.0 1015.0 0.0 0.0 12.1 0.0
03/02/18 00:50 12.1 98 11.8 0.0 0.0 0 0.0 0.0 1015.0 0.0 0.0 12.1 0.0
03/02/18 00:51 12.1 98 11.8 0.0 0.0 0 0.0 0.0 1015.0 0.0 0.0 12.1 0.0
03/02/18 00:52 12.1 98 11.8 0.0 0.0 0 0.0 0.0 1015.0 0.0 0.0 12.1 0.0
03/02/18 00:53 12.1 98 11.8 0.0 0.0 0 0.0 0.0 1015.0 0.0 0.0 12.1 0.0
03/02/18 00:54 12.1 98 11.8 0.0 0.0 0 0.0 0.0 1015.0 0.0 0.0 12.1 0.0
03/02/18 00:55 12.1 98 11.8 0.0 0.0 0 0.0 0.0 1015.0 0.0 0.0 12.1 0.0
03/02/18 00:56 12.1 98 11.8 0.0 0.0 0 0.0 0.0 1015.0 0.0 0.0 12.1 0.0
03/02/18 00:57 12.1 98 11.8 0.0 0.0 0 0.0 0.0 1015.0 0.0 0.0 12.1 0.0
03/02/18 00:58 12.1 98 11.8 0.0 0.0 0 0.0 0.0 1015.0 0.0 0.0 12.1 0.0
03/02/18 00:59 12.2 98 11.9 0.0 0.0 0 0.0 0.0 1015.0 0.0 0.0 12.2 0.0
03/02/18 01:00 12.2 98 11.9 0.0 0.0 0 0.0 0.0 1015.0 0.0 0.0 12.2 0.0
03/02/18 01:02 12.2 98 11.9 0.0 0.0 0 0.0 0.0 1015.0 0.0 0.0 12.2 0.0
03/02/18 01:03 12.2 98 11.9 0.0 0.0 0 0.0 0.0 1015.0 0.0 0.0 12.2 0.0
03/02/18 01:04 12.2 98 11.9 0.0 0.0 0 0.0 0.0 1015.0 0.0 0.0 12.2 0.0
03/02/18 01:05 12.2 98 11.9 0.0 0.0 0 0.0 0.0 1015.0 0.0 0.0 12.2 0.0
03/02/18 01:06 12.2 98 11.9 0.0 0.0 0 0.0 0.0 1015.0 0.0 0.0 12.2 0.0
03/02/18 01:07 12.2 98 11.9 0.0 0.0 0 0.0 0.0 1015.0 0.0 0.0 12.2 0.0
03/02/18 01:08 12.2 98 11.9 0.0 0.0 0 0.0 0.0 1014.0 0.0 0.0 12.2 0.0
03/02/18 01:09 12.2 98 11.9 0.0 0.0 0 0.0 0.0 1014.0 0.0 0.0 12.2 0.0
03/02/18 01:10 12.2 98 11.9 0.0 0.0 0 0.0 0.0 1014.0 0.0 0.0 12.2 0.0
03/02/18 01:11 12.2 98 11.9 0.0 0.0 0 0.0 0.0 1014.0 0.0 0.0 12.2 0.0
03/02/18 01:12 12.2 98 11.9 0.0 0.0 0 0.0 0.0 1014.0 0.0 0.0 12.2 0.0
03/02/18 01:13 12.2 98 11.9 0.0 0.0 0 0.0 0.0 1014.0 0.0 0.0 12.2 0.0
03/02/18 01:14 12.2 98 11.9 0.0 0.0 0 0.0 0.0 1014.0 0.0 0.0 12.2 0.0
03/02/18 01:15 12.2 98 11.9 0.0 0.0 0 0.0 0.0 1014.0 0.0 0.0 12.2 0.0
03/02/18 01:16 12.2 98 11.9 0.0 0.0 0 0.0 0.0 1014.0 0.0 0.0 12.2 0.0
03/02/18 01:17 12.2 98 11.9 0.0 0.0 0 0.0 0.0 1014.0 0.0 0.0 12.2 0.0
03/02/18 01:18 12.2 98 11.9 0.0 0.0 0 0.0 0.0 1014.0 0.0 0.0 12.2 0.0
03/02/18 01:19 12.2 98 11.9 0.0 0.0 0 0.0 0.0 1014.0 0.0 0.0 12.2 0.0
03/02/18 01:20 12.2 98 11.9 0.0 0.0 0 0.0 0.0 1014.0 0.0 0.0 12.2 0.0
03/02/18 01:21 12.2 98 11.9 0.0 0.0 0 0.0 0.0 1014.0 0.0 0.0 12.2 0.0
03/02/18 01:22 12.2 98 11.9 0.0 0.0 0 0.0 0.0 1014.0 0.0 0.0 12.2 0.0
03/02/18 01:23 12.2 98 11.9 0.0 0.0 0 0.0 0.0 1015.0 0.0 0.0 12.2 0.0
03/02/18 01:24 12.2 98 11.9 0.0 0.0 0 0.0 0.0 1015.0 0.0 0.0 12.2 0.0
03/02/18 01:25 12.2 98 11.9 0.0 0.0 0 0.0 0.0 1015.0 0.0 0.0 12.2 0.0
03/02/18 01:26 12.2 98 11.9 0.0 0.0 0 0.0 0.0 1015.0 0.0 0.0 12.2 0.0
03/02/18 01:27 12.2 98 11.9 0.0 0.0 0 0.0 0.0 1015.0 0.0 0.0 12.2 0.0
03/02/18 01:28 12.2 98 11.9 0.0 0.0 0 0.0 0.0 1015.0 0.0 0.0 12.2 0.0
03/02/18 01:29 12.1 98 11.8 0.0 0.0 0 0.0 0.0 1015.0 0.0 0.0 12.1 0.0
03/02/18 01:30 12.1 98 11.8 0.0 0.0 0 0.0 0.0 1015.0 0.0 0.0 12.1 0.0
03/02/18 01:31 12.1 98 11.8 0.0 0.0 0 0.0 0.0 1015.0 0.0 0.0 12.1 0.0
03/02/18 01:32 12.1 98 11.8 0.0 0.0 0 0.0 0.0 1015.0 0.0 0.0 12.1 0.0
03/02/18 01:33 12.1 98 11.8 0.0 0.0 0 0.0 0.0 1015.0 0.0 0.0 12.1 0.0
03/02/18 01:34 12.1 98 11.8 0.0 0.0 0 0.0 0.0 1015.0 0.0 0.0 12.1 0.0
03/02/18 01:35 12.1 98 11.8 0.0 0.0 0 0.0 0.0 1015.0 0.0 0.0 12.1 0.0
03/02/18 01:36 12.1 98 11.8 0.0 0.0 0 0.0 0.0 1015.0 0.0 0.0 12.1 0.0
03/02/18 01:37 12.1 98 11.8 0.0 0.0 0 0.0 0.0 1015.0 0.0 0.0 12.1 0.0
03/02/18 01:38 12.1 98 11.8 0.0 0.0 0 0.0 0.0 1015.0 0.0 0.0 12.1 0.0
03/02/18 01:39 12.1 98 11.8 0.0 0.0 0 0.0 0.0 1015.0 0.0 0.0 12.1 0.0
03/02/18 01:40 12.1 98 11.8 0.0 0.0 0 0.0 0.0 1015.0 0.0 0.0 12.1 0.0
03/02/18 01:41 12.1 98 11.8 0.0 0.0 0 0.0 0.0 1015.0 0.0 0.0 12.1 0.0
03/02/18 01:42 12.1 98 11.8 0.0 0.0 0 0.0 0.0 1015.0 0.0 0.0 12.1 0.0
03/02/18 01:43 12.1 98 11.8 0.0 0.0 0 0.0 0.0 1015.0 0.0 0.0 12.1 0.0
03/02/18 01:44 12.1 98 11.8 0.0 0.0 0 0.0 0.0 1015.0 0.0 0.0 12.1 0.0
03/02/18 01:45 12.1 98 11.8 0.0 0.0 0 0.0 0.0 1015.0 0.0 0.0 12.1 0.0
03/02/18 01:46 12.1 98 11.8 0.0 0.0 0 0.0 0.0 1015.0 0.0 0.0 12.1 0.0
03/02/18 01:47 12.1 98 11.8 0.0 0.0 0 0.0 0.0 1015.0 0.0 0.0 12.1 0.0
03/02/18 01:48 12.1 98 11.8 0.0 0.0 0 0.0 0.0 1015.0 0.0 0.0 12.1 0.0
03/02/18 01:49 12.1 98 11.8 0.0 0.0 0 0.0 0.0 1015.0 0.0 0.0 12.1 0.0
03/02/18 01:50 12.1 98 11.8 0.0 0.0 0 0.0 0.0 1015.0 0.0 0.0 12.1 0.0
03/02/18 01:51 12.1 98 11.8 0.0 0.0 0 0.0 0.0 1015.0 0.0 0.0 12.1 0.0
03/02/18 01:52 12.1 98 11.8 0.0 0.0 0 0.0 0.0 1015.0 0.0 0.0 12.1 0.0
03/02/18 01:53 12.1 98 11.8 0.0 0.0 0 0.0 0.0 1015.0 0.0 0.0 12.1 0.0
03/02/18 01:54 12.1 98 11.8 0.0 0.0 0 0.0 0.0 1015.0 0.0 0.0 12.1 0.0
03/02/18 01:55 12.1 98 11.8 0.0 0.0 0 0.0 0.0 1015.0 0.0 0.0 12.1 0.0
03/02/18 01:56 12.1 98 11.8 0.0 0.0 0 0.0 0.0 1015.0 0.0 0.0 12.1 0.0
03/02/18 01:57 12.1 98 11.8 0.0 0.0 0 0.0 0.0 1015.0 0.0 0.0 12.1 0.0
03/02/18 01:58 12.1 98 11.8 0.0 0.0 0 0.0 0.0 1015.0 0.0 0.0 12.1 0.0
03/02/18 01:59 12.1 98 11.8 0.0 0.0 0 0.0 0.0 1015.0 0.0 0.0 12.1 0.0
03/02/18 02:02 12.1 98 11.8 0.0 0.0 0 0.0 0.0 1015.0 0.0 0.0 12.1 0.0
03/02/18 02:03 12.1 98 11.8 0.0 0.0 0 0.0 0.0 1015.0 0.0 0.0 12.1 0.0
03/02/18 02:04 12.1 98 11.8 0.0 0.0 0 0.0 0.0 1015.0 0.0 0.0 12.1 0.0
03/02/18 02:05 12.1 98 11.8 0.0 0.0 0 0.0 0.0 1015.0 0.0 0.0 12.1 0.0
03/02/18 02:06 12.1 98 11.8 0.0 0.0 0 0.0 0.0 1015.0 0.0 0.0 12.1 0.0
03/02/18 02:07 12.1 98 11.8 0.0 0.0 0 0.0 0.0 1015.0 0.0 0.0 12.1 0.0
03/02/18 02:08 12.1 98 11.8 0.0 0.0 0 0.0 0.0 1015.0 0.0 0.0 12.1 0.0
03/02/18 02:09 12.1 98 11.8 0.0 0.0 0 0.0 0.0 1015.0 0.0 0.0 12.1 0.0
03/02/18 02:10 12.1 98 11.8 0.0 0.0 0 0.0 0.0 1015.0 0.0 0.0 12.1 0.0
03/02/18 02:11 12.1 98 11.8 0.0 0.0 0 0.0 0.0 1015.0 0.0 0.0 12.1 0.0
03/02/18 02:12 12.1 98 11.8 0.0 0.0 0 0.0 0.0 1015.0 0.0 0.0 12.1 0.0
03/02/18 02:13 12.1 98 11.8 0.0 0.0 0 0.0 0.0 1015.0 0.0 0.0 12.1 0.0
03/02/18 02:14 12.1 98 11.8 0.0 0.0 0 0.0 0.0 1015.0 0.0 0.0 12.1 0.0
03/02/18 02:15 12.1 98 11.8 0.0 0.0 0 0.0 0.0 1015.0 0.0 0.0 12.1 0.0
03/02/18 02:16 12.1 98 11.8 0.0 0.0 0 0.0 0.0 1015.0 0.0 0.0 12.1 0.0
03/02/18 03:02 12.0 98 11.7 0.0 0.0 0 0.0 0.0 1015.0 0.0 0.0 12.0 0.0
03/02/18 03:03 12.0 98 11.7 0.0 0.0 0 0.0 0.0 1015.0 0.0 0.0 12.0 0.0
03/02/18 03:04 12.0 98 11.7 0.0 0.0 0 0.0 0.0 1015.0 0.0 0.0 12.0 0.0
03/02/18 03:05 12.0 98 11.7 0.0 0.0 0 0.0 0.0 1015.0 0.0 0.0 12.0 0.0
03/02/18 03:06 12.0 98 11.7 0.0 0.0 0 0.0 0.0 1015.0 0.0 0.0 12.0 0.0
03/02/18 03:07 12.0 98 11.7 0.0 0.0 0 0.0 0.0 1015.0 0.0 0.0 12.0 0.0
03/02/18 03:08 12.0 98 11.7 0.0 0.0 0 0.0 0.0 1015.0 0.0 0.0 12.0 0.0
03/02/18 03:09 12.0 98 11.7 0.0 0.0 0 0.0 0.0 1015.0 0.0 0.0 12.0 0.0
03/02/18 03:10 11.9 98 11.6 0.0 0.0 0 0.0 0.0 1015.0 0.0 0.0 11.9 0.0
03/02/18 03:11 12.0 98 11.7 0.0 0.0 0 0.0 0.0 1015.0 0.0 0.0 12.0 0.0
03/02/18 03:12 12.0 98 11.7 0.0 0.0 0 0.0 0.0 1015.0 0.0 0.0 12.0 0.0
03/02/18 03:13 11.9 98 11.6 0.0 0.0 0 0.0 0.0 1015.0 0.0 0.0 11.9 0.0
03/02/18 03:14 11.9 98 11.6 0.0 0.0 0 0.0 0.0 1015.0 0.0 0.0 11.9 0.0
03/02/18 03:15 11.9 98 11.6 0.0 0.0 0 0.0 0.0 1015.0 0.0 0.0 11.9 0.0
03/02/18 03:16 11.9 98 11.6 0.0 0.0 0 0.0 0.0 1015.0 0.0 0.0 11.9 0.0
03/02/18 03:17 11.9 98 11.6 0.0 0.0 0 0.0 0.0 1015.0 0.0 0.0 11.9 0.0
03/02/18 03:18 11.9 98 11.6 0.0 0.0 0 0.0 0.0 1015.0 0.0 0.0 11.9 0.0
03/02/18 03:19 11.9 98 11.6 0.0 0.0 0 0.0 0.0 1015.0 0.0 0.0 11.9 0.0
03/02/18 03:20 12.0 98 11.7 0.0 0.0 0 0.0 0.0 1015.0 0.0 0.0 12.0 0.0
03/02/18 03:21 11.9 98 11.6 0.0 0.0 0 0.0 0.0 1015.0 0.0 0.0 11.9 0.0
03/02/18 03:22 11.9 98 11.6 0.0 0.0 0 0.0 0.0 1015.0 0.0 0.0 11.9 0.0
03/02/18 03:23 12.0 98 11.7 0.0 0.0 0 0.0 0.0 1015.0 0.0 0.0 12.0 0.0
03/02/18 03:24 12.0 98 11.7 0.0 0.0 0 0.0 0.0 1015.0 0.0 0.0 12.0 0.0
03/02/18 03:25 12.0 98 11.7 0.0 0.0 0 0.0 0.0 1015.0 0.0 0.0 12.0 0.0
03/02/18 03:26 12.0 98 11.7 0.0 0.0 0 0.0 0.0 1015.0 0.0 0.0 12.0 0.0
03/02/18 03:27 12.0 98 11.7 0.0 0.0 0 0.0 0.0 1015.0 0.0 0.0 12.0 0.0
03/02/18 03:28 12.0 98 11.7 0.0 0.0 0 0.0 0.0 1015.0 0.0 0.0 12.0 0.0
03/02/18 03:29 12.0 98 11.7 0.0 0.0 0 0.0 0.0 1015.0 0.0 0.0 12.0 0.0
03/02/18 03:30 12.0 98 11.7 0.0 0.0 0 0.0 0.0 1015.0 0.0 0.0 12.0 0.0
03/02/18 03:31 12.0 98 11.7 0.0 0.0 0 0.0 0.0 1015.0 0.0 0.0 12.0 0.0
03/02/18 03:32 12.0 98 11.7 0.0 0.0 0 0.0 0.0 1015.0 0.0 0.0 12.0 0.0
03/02/18 03:33 12.0 98 11.7 0.0 0.0 0 0.0 0.0 1015.0 0.0 0.0 12.0 0.0
03/02/18 03:34 12.0 98 11.7 0.0 0.0 0 0.0 0.0 1015.0 0.0 0.0 12.0 0.0
03/02/18 03:35 12.0 98 11.7 0.0 0.0 0 0.0 0.0 1015.0 0.0 0.0 12.0 0.0
03/02/18 03:36 12.0 98 11.7 0.0 0.0 0 0.0 0.0 1015.0 0.0 0.0 12.0 0.0
03/02/18 03:37 11.9 98 11.6 0.0 0.0 0 0.0 0.0 1015.0 0.0 0.0 11.9 0.0
03/02/18 03:38 11.9 98 11.6 0.0 0.0 0 0.0 0.0 1015.0 0.0 0.0 11.9 0.0
03/02/18 04:02 11.9 98 11.6 0.0 0.0 0 0.0 0.0 1015.0 0.0 0.0 11.9 0.0
03/02/18 04:03 11.9 98 11.6 0.0 0.0 0 0.0 0.0 1015.0 0.0 0.0 11.9 0.0
03/02/18 04:04 11.9 98 11.6 0.0 0.0 0 0.0 0.0 1015.0 0.0 0.0 11.9 0.0
03/02/18 04:05 11.9 98 11.6 0.0 0.0 0 0.0 0.0 1015.0 0.0 0.0 11.9 0.0
03/02/18 04:06 11.9 98 11.6 0.0 0.0 0 0.0 0.0 1015.0 0.0 0.0 11.9 0.0
03/02/18 04:07 11.9 98 11.6 0.0 0.0 0 0.0 0.0 1015.0 0.0 0.0 11.9 0.0
03/02/18 04:08 11.9 98 11.6 0.0 0.0 0 0.0 0.0 1015.0 0.0 0.0 11.9 0.0
03/02/18 04:09 11.9 98 11.6 0.0 0.0 0 0.0 0.0 1015.0 0.0 0.0 11.9 0.0
03/02/18 04:10 11.9 98 11.6 0.0 0.0 0 0.0 0.0 1015.0 0.0 0.0 11.9 0.0
03/02/18 04:11 11.9 98 11.6 0.0 0.0 0 0.0 0.0 1015.0 0.0 0.0 11.9 0.0
03/02/18 04:12 11.9 98 11.6 0.0 0.0 0 0.0 0.0 1015.0 0.0 0.0 11.9 0.0
03/02/18 04:13 11.9 98 11.6 0.0 0.0 0 0.0 0.0 1015.0 0.0 0.0 11.9 0.0
03/02/18 04:14 11.9 98 11.6 0.0 0.0 0 0.0 0.0 1015.0 0.0 0.0 11.9 0.0
03/02/18 04:15 11.9 98 11.6 0.0 0.0 0 0.0 0.0 1015.0 0.0 0.0 11.9 0.0
03/02/18 04:16 11.9 98 11.6 0.0 0.0 0 0.0 0.0 1015.0 0.0 0.0 11.9 0.0
03/02/18 04:17 11.9 98 11.6 0.0 0.0 0 0.0 0.0 1015.0 0.0 0.0 11.9 0.0
03/02/18 04:18 11.9 98 11.6 0.0 0.0 0 0.0 0.0 1015.0 0.0 0.0 11.9 0.0
03/02/18 04:19 11.9 98 11.6 0.0 0.0 0 0.0 0.0 1015.0 0.0 0.0 11.9 0.0
03/02/18 04:20 11.9 98 11.6 0.0 0.0 0 0.0 0.0 1015.0 0.0 0.0 11.9 0.0
03/02/18 04:21 11.9 98 11.6 0.0 0.0 0 0.0 0.0 1015.0 0.0 0.0 11.9 0.0
03/02/18 04:22 11.9 98 11.6 0.0 0.0 0 0.0 0.0 1015.0 0.0 11.9 11.9 0.0
03/02/18 04:23 11.9 98 11.6 0.0 0.0 0 0.0 0.0 1015.0 0.0 11.9 11.9 0.0
03/02/18 04:24 11.9 98 11.6 0.0 0.0 0 0.0 0.0 1015.0 0.0 11.9 11.9 0.0
03/02/18 04:25 11.9 98 11.6 0.0 0.0 0 0.0 0.0 1015.0 0.0 11.9 11.9 0.0
03/02/18 04:26 11.9 98 11.6 0.0 0.0 0 0.0 0.0 1015.0 0.0 11.9 11.9 0.0
03/02/18 04:27 11.9 98 11.6 0.0 0.0 0 0.0 0.0 1015.0 0.0 11.9 11.9 0.0
03/02/18 04:28 11.9 98 11.6 0.0 0.0 0 0.0 0.0 1015.0 0.0 11.9 11.9 0.0
03/02/18 04:29 11.9 98 11.6 0.0 0.0 0 0.0 0.0 1015.0 0.0 11.9 11.9 0.0
03/02/18 04:30 11.9 98 11.6 0.0 0.0 0 0.0 0.0 1015.0 0.0 11.9 11.9 0.0
03/02/18 04:31 11.9 98 11.6 0.0 0.0 0 0.0 0.0 1015.0 0.0 11.9 11.9 0.0
03/02/18 04:32 11.9 98 11.6 0.0 0.0 0 0.0 0.0 1015.0 0.0 11.9 11.9 0.0
03/02/18 04:33 11.9 98 11.6 0.0 0.0 0 0.0 0.0 1015.0 0.0 11.9 11.9 0.0
03/02/18 04:34 11.9 98 11.6 0.0 0.0 0 0.0 0.0 1015.0 0.0 11.9 11.9 0.0
03/02/18 04:35 11.9 98 11.6 0.0 0.0 0 0.0 0.0 1015.0 0.0 11.9 11.9 0.0
03/02/18 04:36 11.9 98 11.6 0.0 0.0 0 0.0 0.0 1015.0 0.0 11.9 11.9 0.0
03/02/18 04:37 11.9 98 11.6 0.0 0.0 0 0.0 0.0 1015.0 0.0 11.9 11.9 0.0
03/02/18 04:38 11.8 98 11.5 0.0 0.0 0 0.0 0.0 1015.0 0.0 11.9 11.8 0.0
03/02/18 04:39 11.8 98 11.5 0.0 0.0 0 0.0 0.0 1015.0 0.0 11.9 11.8 0.0
03/02/18 04:40 11.8 98 11.5 0.0 0.0 0 0.0 0.0 1015.0 0.0 11.9 11.8 0.0
03/02/18 04:41 11.9 98 11.6 0.0 0.0 0 0.0 0.0 1015.0 0.0 11.9 11.9 0.0
03/02/18 04:42 11.8 98 11.5 0.0 0.0 0 0.0 0.0 1015.0 0.0 11.9 11.8 0.0
03/02/18 04:43 11.8 98 11.5 0.0 0.0 0 0.0 0.0 1015.0 0.0 11.9 11.8 0.0
03/02/18 04:44 11.9 98 11.6 0.0 0.0 0 0.0 0.0 1015.0 0.0 11.9 11.9 0.0
03/02/18 04:45 11.9 98 11.6 0.0 0.0 0 0.0 0.0 1015.0 0.0 11.9 11.9 0.0
03/02/18 04:46 11.9 98 11.6 0.0 0.0 0 0.0 0.0 1015.0 0.0 11.9 11.9 0.0
03/02/18 04:47 11.9 98 11.6 0.0 0.0 0 0.0 0.0 1015.0 0.0 11.9 11.9 0.0
03/02/18 04:48 11.9 98 11.6 0.0 0.0 0 0.0 0.0 1015.0 0.0 11.9 11.9 0.0
03/02/18 04:49 11.9 98 11.6 0.0 0.0 0 0.0 0.0 1015.0 0.0 11.9 11.9 0.0
03/02/18 04:50 11.9 98 11.6 0.0 0.0 0 0.0 0.0 1015.0 0.0 11.9 11.9 0.0
03/02/18 04:51 11.9 98 11.6 0.0 0.0 0 0.0 0.0 1015.0 0.0 11.9 11.9 0.0
03/02/18 04:52 11.9 98 11.6 0.0 0.0 0 0.0 0.0 1015.0 0.0 11.9 11.9 0.0
03/02/18 04:53 11.9 98 11.6 0.0 0.0 0 0.0 0.0 1015.0 0.0 11.9 11.9 0.0
03/02/18 04:54 11.8 98 11.5 0.0 0.0 0 0.0 0.0 1015.0 0.0 11.9 11.8 0.0
03/02/18 04:55 11.9 98 11.6 0.0 0.0 0 0.0 0.0 1015.0 0.0 11.9 11.9 0.0
03/02/18 05:05 11.8 98 11.5 0.0 0.0 0 0.0 0.0 1015.0 0.0 0.0 11.8 0.0
03/02/18 05:06 11.8 98 11.5 0.0 0.0 0 0.0 0.0 1015.0 0.0 0.0 11.8 0.0
03/02/18 05:07 11.8 98 11.5 0.0 0.0 0 0.0 0.0 1015.0 0.0 0.0 11.8 0.0
03/02/18 05:08 11.8 98 11.5 0.0 0.0 0 0.0 0.0 1015.0 0.0 0.0 11.8 0.0
03/02/18 05:09 11.8 98 11.5 0.0 0.0 0 0.0 0.0 1015.0 0.0 0.0 11.8 0.0
03/02/18 05:10 11.8 98 11.5 0.0 0.0 0 0.0 0.0 1015.0 0.0 0.0 11.8 0.0
03/02/18 05:11 11.8 98 11.5 0.0 0.0 0 0.0 0.0 1015.0 0.0 0.0 11.8 0.0
03/02/18 05:12 11.8 98 11.5 0.0 0.0 0 0.0 0.0 1015.0 0.0 0.0 11.8 0.0
03/02/18 05:13 11.9 98 11.6 0.0 0.0 0 0.0 0.0 1015.0 0.0 0.0 11.9 0.0
03/02/18 05:14 11.8 98 11.5 0.0 0.0 0 0.0 0.0 1015.0 0.0 0.0 11.8 0.0
03/02/18 05:15 11.8 98 11.5 0.0 0.0 0 0.0 0.0 1015.0 0.0 0.0 11.8 0.0
03/02/18 05:16 11.9 98 11.6 0.0 0.0 0 0.0 0.0 1015.0 0.0 0.0 11.9 0.0
03/02/18 05:17 11.9 98 11.6 0.0 0.0 0 0.0 0.0 1015.0 0.0 0.0 11.9 0.0
03/02/18 05:18 11.9 98 11.6 0.0 0.0 0 0.0 0.0 1015.0 0.0 0.0 11.9 0.0
03/02/18 05:19 11.9 98 11.6 0.0 0.0 0 0.0 0.0 1015.0 0.0 0.0 11.9 0.0
03/02/18 05:20 11.9 98 11.6 0.0 0.0 0 0.0 0.0 1015.0 0.0 0.0 11.9 0.0
03/02/18 05:21 11.9 98 11.6 0.0 0.0 0 0.0 0.0 1015.0 0.0 0.0 11.9 0.0
03/02/18 05:22 11.9 98 11.6 0.0 0.0 0 0.0 0.0 1015.0 0.0 0.0 11.9 0.0
03/02/18 05:23 11.9 98 11.6 0.0 0.0 0 0.0 0.0 1015.0 0.0 0.0 11.9 0.0
03/02/18 05:24 11.9 98 11.6 0.0 0.0 0 0.0 0.0 1015.0 0.0 0.0 11.9 0.0
03/02/18 05:25 11.9 98 11.6 0.0 0.0 0 0.0 0.0 1015.0 0.0 0.0 11.9 0.0
03/02/18 05:26 11.9 98 11.6 0.0 0.0 0 0.0 0.0 1015.0 0.0 0.0 11.9 0.0
03/02/18 05:27 11.9 98 11.6 0.0 0.0 0 0.0 0.0 1015.0 0.0 0.0 11.9 0.0
03/02/18 05:28 11.9 98 11.6 0.0 0.0 0 0.0 0.0 1015.0 0.0 0.0 11.9 0.0
03/02/18 05:29 11.9 98 11.6 0.0 0.0 0 0.0 0.0 1015.0 0.0 0.0 11.9 0.0
03/02/18 05:30 11.9 98 11.6 0.0 0.0 0 0.0 0.0 1015.0 0.0 0.0 11.9 0.0
03/02/18 05:31 11.9 98 11.6 0.0 0.0 0 0.0 0.0 1015.0 0.0 0.0 11.9 0.0
03/02/18 05:32 11.9 98 11.6 0.0 0.0 0 0.0 0.0 1015.0 0.0 0.0 11.9 0.0
03/02/18 05:33 11.9 98 11.6 0.0 0.0 0 0.0 0.0 1015.0 0.0 0.0 11.9 0.0
03/02/18 05:34 11.9 98 11.6 0.0 0.0 0 0.0 0.0 1015.0 0.0 0.0 11.9 0.0
03/02/18 05:35 11.9 98 11.6 0.0 0.0 0 0.0 0.0 1015.0 0.0 0.0 11.9 0.0
03/02/18 05:36 11.9 98 11.6 0.0 0.0 0 0.0 0.0 1015.0 0.0 0.0 11.9 0.0
03/02/18 05:37 11.9 98 11.6 0.0 0.0 0 0.0 0.0 1015.0 0.0 0.0 11.9 0.0
03/02/18 05:38 11.9 98 11.6 0.0 0.0 0 0.0 0.0 1015.0 0.0 0.0 11.9 0.0
03/02/18 05:39 11.9 98 11.6 0.0 0.0 0 0.0 0.0 1015.0 0.0 0.0 11.9 0.0
03/02/18 05:40 11.9 98 11.6 0.0 0.0 0 0.0 0.0 1015.0 0.0 0.0 11.9 0.0
03/02/18 05:41 11.9 98 11.6 0.0 0.0 0 0.0 0.0 1015.0 0.0 0.0 11.9 0.0
03/02/18 05:42 11.9 98 11.6 0.0 0.0 0 0.0 0.0 1015.0 0.0 0.0 11.9 0.0
03/02/18 05:43 11.9 98 11.6 0.0 0.0 0 0.0 0.0 1015.0 0.0 0.0 11.9 0.0
03/02/18 05:44 11.9 98 11.6 0.0 0.0 0 0.0 0.0 1015.0 0.0 0.0 11.9 0.0
03/02/18 05:45 11.9 98 11.6 0.0 0.0 0 0.0 0.0 1015.0 0.0 0.0 11.9 0.0
03/02/18 05:46 11.9 98 11.6 0.0 0.0 0 0.0 0.0 1015.0 0.0 0.0 11.9 0.0
03/02/18 05:47 11.9 98 11.6 0.0 0.0 0 0.0 0.0 1015.0 0.0 0.0 11.9 0.0
03/02/18 05:48 11.9 98 11.6 0.0 0.0 0 0.0 0.0 1015.0 0.0 0.0 11.9 0.0
03/02/18 05:49 11.9 98 11.6 0.0 0.0 0 0.0 0.0 1015.0 0.0 0.0 11.9 0.0
03/02/18 05:50 11.9 98 11.6 0.0 0.0 0 0.0 0.0 1015.0 0.0 0.0 11.9 0.0
03/02/18 05:51 11.9 98 11.6 0.0 0.0 0 0.0 0.0 1015.0 0.0 0.0 11.9 0.0
03/02/18 05:52 11.9 98 11.6 0.0 0.0 0 0.0 0.0 1015.0 0.0 0.0 11.9 0.0
03/02/18 05:53 11.9 98 11.6 0.0 0.0 0 0.0 0.0 1015.0 0.0 0.0 11.9 0.0
03/02/18 05:54 11.9 98 11.6 0.0 0.0 0 0.0 0.0 1015.0 0.0 0.0 11.9 0.0
03/02/18 05:55 11.9 98 11.6 0.0 0.0 0 0.0 0.0 1015.0 0.0 0.0 11.9 0.0
03/02/18 05:56 11.9 98 11.6 0.0 0.0 0 0.0 0.0 1015.0 0.0 0.0 11.9 0.0
03/02/18 05:57 12.0 98 11.7 0.0 0.0 0 0.0 0.0 1015.0 0.0 0.0 12.0 0.0
03/02/18 05:58 12.0 98 11.7 0.0 0.0 0 0.0 0.0 1015.0 0.0 0.0 12.0 0.0
03/02/18 05:59 12.0 98 11.7 0.0 0.0 0 0.0 0.0 1015.0 0.0 0.0 12.0 0.0
03/02/18 06:00 12.0 98 11.7 0.0 0.0 0 0.0 0.0 1015.0 0.0 0.0 12.0 0.0
03/02/18 06:02 12.0 98 11.7 0.0 0.0 0 0.0 0.0 1015.0 0.0 0.0 12.0 0.0
03/02/18 06:03 12.0 98 11.7 0.0 0.0 0 0.0 0.0 1015.0 0.0 0.0 12.0 0.0
03/02/18 06:04 12.0 98 11.7 0.0 0.0 0 0.0 0.0 1015.0 0.0 0.0 12.0 0.0
03/02/18 06:05 12.0 98 11.7 0.0 0.0 0 0.0 0.0 1015.0 0.0 0.0 12.0 0.0
03/02/18 06:06 12.0 98 11.7 0.0 0.0 0 0.0 0.0 1015.0 0.0 0.0 12.0 0.0
03/02/18 06:07 12.0 98 11.7 0.0 0.0 0 0.0 0.0 1015.0 0.0 0.0 12.0 0.0
03/02/18 06:08 12.0 98 11.7 0.0 0.0 0 0.0 0.0 1015.0 0.0 0.0 12.0 0.0
03/02/18 06:09 12.0 98 11.7 0.0 0.0 0 0.0 0.0 1015.0 0.0 0.0 12.0 0.0
03/02/18 06:10 12.0 98 11.7 0.0 0.0 0 0.0 0.0 1015.0 0.0 0.0 12.0 0.0
03/02/18 06:11 12.0 98 11.7 0.0 0.0 0 0.0 0.0 1015.0 0.0 0.0 12.0 0.0
03/02/18 06:12 12.0 98 11.7 0.0 0.0 0 0.0 0.0 1015.0 0.0 0.0 12.0 0.0
03/02/18 06:13 12.0 98 11.7 0.0 0.0 0 0.0 0.0 1015.0 0.0 0.0 12.0 0.0
03/02/18 06:14 12.0 98 11.7 0.0 0.0 0 0.0 0.0 1015.0 0.0 0.0 12.0 0.0
03/02/18 06:15 12.0 98 11.7 0.0 0.0 0 0.0 0.0 1015.0 0.0 0.0 12.0 0.0
03/02/18 06:16 12.0 98 11.7 0.0 0.0 0 0.0 0.0 1015.0 0.0 0.0 12.0 0.0
03/02/18 06:17 12.0 98 11.7 0.0 0.0 0 0.0 0.0 1015.0 0.0 0.0 12.0 0.0
03/02/18 06:18 12.0 98 11.7 0.0 0.0 0 0.0 0.0 1015.0 0.0 0.0 12.0 0.0
03/02/18 06:19 12.0 98 11.7 0.0 0.0 0 0.0 0.0 1015.0 0.0 0.0 12.0 0.0
03/02/18 06:20 12.0 98 11.7 0.0 0.0 0 0.0 0.0 1015.0 0.0 0.0 12.0 0.0
03/02/18 06:21 12.0 98 11.7 0.0 0.0 0 0.0 0.0 1015.0 0.0 0.0 12.0 0.0
03/02/18 06:22 12.0 98 11.7 0.0 0.0 0 0.0 0.0 1015.0 0.0 0.0 12.0 0.0
03/02/18 06:23 12.0 98 11.7 0.0 0.0 0 0.0 0.0 1015.0 0.0 0.0 12.0 0.0
03/02/18 06:24 12.0 98 11.7 0.0 0.0 0 0.0 0.0 1015.0 0.0 0.0 12.0 0.0
03/02/18 06:25 12.0 98 11.7 0.0 0.0 0 0.0 0.0 1015.0 0.0 0.0 12.0 0.0
03/02/18 06:26 12.0 98 11.7 0.0 0.0 0 0.0 0.0 1015.0 0.0 0.0 12.0 0.0
03/02/18 06:27 12.1 98 11.8 0.0 0.0 0 0.0 0.0 1015.0 0.0 0.0 12.1 0.0
03/02/18 06:28 12.1 98 11.8 0.0 0.0 0 0.0 0.0 1015.0 0.0 0.0 12.1 0.0
03/02/18 06:29 12.1 98 11.8 0.0 0.0 0 0.0 0.0 1015.0 0.0 0.0 12.1 0.0
03/02/18 06:30 12.1 98 11.8 0.0 0.0 0 0.0 0.0 1015.0 0.0 0.0 12.1 0.0
03/02/18 06:31 12.1 98 11.8 0.0 0.0 0 0.0 0.0 1015.0 0.0 0.0 12.1 0.0
03/02/18 06:32 12.1 98 11.8 0.0 0.0 0 0.0 0.0 1015.0 0.0 0.0 12.1 0.0
03/02/18 06:33 12.1 98 11.8 0.0 0.0 0 0.0 0.0 1015.0 0.0 0.0 12.1 0.0
03/02/18 06:34 12.1 98 11.8 0.0 0.0 0 0.0 0.0 1015.0 0.0 0.0 12.1 0.0
03/02/18 06:35 12.1 98 11.8 0.0 0.0 0 0.0 0.0 1015.0 0.0 0.0 12.1 0.0
03/02/18 06:36 12.1 98 11.8 0.0 0.0 0 0.0 0.0 1015.0 0.0 0.0 12.1 0.0
03/02/18 06:37 12.1 98 11.8 0.0 0.0 0 0.0 0.0 1015.0 0.0 0.0 12.1 0.0
03/02/18 06:38 12.1 98 11.8 0.0 0.0 0 0.0 0.0 1015.0 0.0 0.0 12.1 0.0
03/02/18 06:39 12.1 98 11.8 0.0 0.0 0 0.0 0.0 1015.0 0.0 0.0 12.1 0.0
03/02/18 06:40 12.1 98 11.8 0.0 0.0 0 0.0 0.0 1015.0 0.0 0.0 12.1 0.0
03/02/18 06:41 12.1 98 11.8 0.0 0.0 0 0.0 0.0 1015.0 0.0 0.0 12.1 0.0
03/02/18 06:42 12.1 98 11.8 0.0 0.0 0 0.0 0.0 1015.0 0.0 0.0 12.1 0.0
03/02/18 06:43 12.1 98 11.8 0.0 0.0 0 0.0 0.0 1015.0 0.0 0.0 12.1 0.0
03/02/18 06:44 12.1 98 11.8 0.0 0.0 0 0.0 0.0 1015.0 0.0 0.0 12.1 0.0
03/02/18 06:45 12.1 98 11.8 0.0 0.0 0 0.0 0.0 1015.0 0.0 0.0 12.1 0.0
03/02/18 06:46 12.1 98 11.8 0.0 0.0 0 0.0 0.0 1015.0 0.0 0.0 12.1 0.0
03/02/18 06:47 12.2 98 11.9 0.0 0.0 0 0.0 0.0 1015.0 0.0 0.0 12.2 0.0
03/02/18 06:48 12.2 98 11.9 0.0 0.0 0 0.0 0.0 1015.0 0.0 0.0 12.2 0.0
03/02/18 06:49 12.2 98 11.9 0.0 0.0 0 0.0 0.0 1015.0 0.0 0.0 12.2 0.0
03/02/18 06:50 12.2 98 11.9 0.0 0.0 0 0.0 0.0 1015.0 0.0 0.0 12.2 0.0
03/02/18 06:51 12.2 98 11.9 0.0 0.0 0 0.0 0.0 1015.0 0.0 0.0 12.2 0.0
03/02/18 06:52 12.2 98 11.9 0.0 0.0 0 0.0 0.0 1015.0 0.0 0.0 12.2 0.0
03/02/18 06:53 12.2 98 11.9 0.0 0.0 0 0.0 0.0 1016.0 0.0 0.0 12.2 0.0
03/02/18 06:54 12.2 98 11.9 0.0 0.0 0 0.0 0.0 1016.0 0.0 0.0 12.2 0.0
03/02/18 06:55 12.2 98 11.9 0.0 0.0 0 0.0 0.0 1016.0 0.0 0.0 12.2 0.0
03/02/18 06:56 12.2 98 11.9 0.0 0.0 0 0.0 0.0 1016.0 0.0 0.0 12.2 0.0
03/02/18 06:57 12.3 98 12.0 0.0 0.0 0 0.0 0.0 1016.0 0.0 0.0 12.3 0.0
03/02/18 06:58 12.3 98 12.0 0.0 0.0 0 0.0 0.0 1016.0 0.0 0.0 12.3 0.0
03/02/18 06:59 12.3 98 12.0 0.0 0.0 0 0.0 0.0 1016.0 0.0 0.0 12.3 0.0
03/02/18 07:00 12.3 98 12.0 0.0 0.0 0 0.0 0.0 1016.0 0.0 0.0 12.3 0.0
03/02/18 07:02 12.4 98 12.1 0.0 0.0 0 0.0 0.0 1016.0 0.0 0.0 12.4 0.0
03/02/18 07:03 12.4 98 12.1 0.0 0.0 0 0.0 0.0 1016.0 0.0 0.0 12.4 0.0
03/02/18 07:04 12.4 98 12.1 0.0 0.0 0 0.0 0.0 1016.0 0.0 0.0 12.4 0.0
03/02/18 07:05 12.4 98 12.1 0.0 0.0 0 0.0 0.0 1016.0 0.0 0.0 12.4 0.0
03/02/18 07:06 12.5 98 12.2 0.0 0.0 0 0.0 0.0 1016.0 0.0 0.0 12.5 0.0
03/02/18 07:07 12.5 98 12.2 0.0 0.0 0 0.0 0.0 1016.0 0.0 0.0 12.5 0.0
03/02/18 07:08 12.5 98 12.2 0.0 0.0 0 0.0 0.0 1016.0 0.0 0.0 12.5 0.0
03/02/18 07:09 12.5 98 12.2 0.0 0.0 0 0.0 0.0 1016.0 0.0 0.0 12.5 0.0
03/02/18 07:10 12.5 98 12.2 0.0 0.0 0 0.0 0.0 1016.0 0.0 0.0 12.5 0.0
03/02/18 07:11 12.5 98 12.2 0.0 0.0 0 0.0 0.0 1016.0 0.0 0.0 12.5 0.0
03/02/18 07:12 12.5 98 12.2 0.0 0.0 0 0.0 0.0 1016.0 0.0 0.0 12.5 0.0
03/02/18 07:13 12.5 98 12.2 0.0 0.0 0 0.0 0.0 1016.0 0.0 0.0 12.5 0.0
03/02/18 07:14 12.6 98 12.3 0.0 0.0 0 0.0 0.0 1016.0 0.0 0.0 12.6 0.0
03/02/18 07:15 12.6 98 12.3 0.0 0.0 0 0.0 0.0 1016.0 0.0 0.0 12.6 0.0
03/02/18 07:16 12.6 98 12.3 0.0 0.0 0 0.0 0.0 1016.0 0.0 0.0 12.6 0.0
03/02/18 07:17 12.6 98 12.3 0.0 0.0 0 0.0 0.0 1016.0 0.0 0.0 12.6 0.0
03/02/18 07:18 12.6 98 12.3 0.0 0.0 0 0.0 0.0 1016.0 0.0 0.0 12.6 0.0
03/02/18 07:19 12.6 98 12.3 0.0 0.0 0 0.0 0.0 1016.0 0.0 0.0 12.6 0.0
03/02/18 07:20 12.7 98 12.4 0.0 0.0 0 0.0 0.0 1016.0 0.0 0.0 12.7 0.0
03/02/18 07:21 12.7 98 12.4 0.0 0.0 0 0.0 0.0 1016.0 0.0 0.0 12.7 0.0
03/02/18 07:22 12.7 98 12.4 0.0 0.0 0 0.0 0.0 1016.0 0.0 0.0 12.7 0.0
03/02/18 07:23 12.7 98 12.4 0.0 0.0 0 0.0 0.0 1016.0 0.0 0.0 12.7 0.0
03/02/18 07:24 12.7 98 12.4 0.0 0.0 0 0.0 0.0 1016.0 0.0 0.0 12.7 0.0
03/02/18 07:25 12.8 98 12.5 0.0 0.0 0 0.0 0.0 1016.0 0.0 0.0 12.8 0.0
03/02/18 07:26 12.8 98 12.5 0.0 0.0 0 0.0 0.0 1016.0 0.0 0.0 12.8 0.0
03/02/18 07:27 12.8 98 12.5 0.0 0.0 0 0.0 0.0 1016.0 0.0 0.0 12.8 0.0
03/02/18 07:28 12.8 98 12.5 0.0 0.0 0 0.0 0.0 1016.0 0.0 0.0 12.8 0.0
03/02/18 07:29 12.8 98 12.5 0.0 0.0 0 0.0 0.0 1016.0 0.0 0.0 12.8 0.0
03/02/18 07:30 12.8 98 12.5 0.0 0.0 0 0.0 0.0 1016.0 0.0 0.0 12.8 0.0
03/02/18 07:31 12.8 98 12.5 0.0 0.0 0 0.0 0.0 1016.0 0.0 0.0 12.8 0.0
03/02/18 07:32 12.9 98 12.6 0.0 0.0 0 0.0 0.0 1016.0 0.0 0.0 12.9 0.0
03/02/18 07:33 12.8 98 12.5 0.0 0.0 0 0.0 0.0 1016.0 0.0 0.0 12.8 0.0
03/02/18 07:34 12.8 98 12.5 0.0 0.0 0 0.0 0.0 1016.0 0.0 0.0 12.8 0.0
03/02/18 07:35 12.9 98 12.6 0.0 0.0 0 0.0 0.0 1016.0 0.0 0.0 12.9 0.0
03/02/18 07:36 12.8 98 12.5 0.0 0.0 0 0.0 0.0 1016.0 0.0 0.0 12.8 0.0
03/02/18 07:37 12.8 98 12.5 0.0 0.0 0 0.0 0.0 1016.0 0.0 0.0 12.8 0.0
03/02/18 07:38 12.8 98 12.5 0.0 0.0 0 0.0 0.0 1016.0 0.0 0.0 12.8 0.0
03/02/18 07:39 12.8 98 12.5 0.0 0.0 0 0.0 0.0 1016.0 0.0 0.0 12.8 0.0
03/02/18 07:40 12.8 98 12.5 0.0 0.0 0 0.0 0.0 1016.0 0.0 0.0 12.8 0.0
03/02/18 07:41 12.8 98 12.5 0.0 0.0 0 0.0 0.0 1016.0 0.0 0.0 12.8 0.0
03/02/18 07:42 12.8 98 12.5 0.0 0.0 0 0.0 0.0 1016.0 0.0 0.0 12.8 0.0
03/02/18 07:43 12.8 98 12.5 0.0 0.0 0 0.0 0.0 1016.0 0.0 0.0 12.8 0.0
03/02/18 07:44 12.8 98 12.5 0.0 0.0 0 0.0 0.0 1016.0 0.0 0.0 12.8 0.0
03/02/18 07:45 12.8 98 12.5 0.0 0.0 0 0.0 0.0 1016.0 0.0 0.0 12.8 0.0
03/02/18 07:46 12.7 98 12.4 0.0 0.0 0 0.0 0.0 1016.0 0.0 0.0 12.7 0.0
03/02/18 07:47 12.7 98 12.4 0.0 0.0 0 0.0 0.0 1016.0 0.0 0.0 12.7 0.0
03/02/18 07:48 12.7 98 12.4 0.0 0.0 0 0.0 0.0 1016.0 0.0 0.0 12.7 0.0
03/02/18 07:49 12.7 98 12.4 0.0 0.0 0 0.0 0.0 1016.0 0.0 0.0 12.7 0.0
03/02/18 07:50 12.8 98 12.5 0.0 0.0 0 0.0 0.0 1016.0 0.0 0.0 12.8 0.0
03/02/18 07:51 12.8 98 12.5 0.0 0.0 0 0.0 0.0 1016.0 0.0 0.0 12.8 0.0
03/02/18 07:52 12.7 98 12.4 0.0 0.0 0 0.0 0.0 1016.0 0.0 0.0 12.7 0.0
03/02/18 07:53 12.7 98 12.4 0.0 0.0 0 0.0 0.0 1016.0 0.0 0.0 12.7 0.0
03/02/18 07:54 12.7 98 12.4 0.0 0.0 0 0.0 0.0 1016.0 0.0 0.0 12.7 0.0
03/02/18 07:55 12.8 98 12.5 0.0 0.0 0 0.0 0.0 1016.0 0.0 0.0 12.8 0.0
03/02/18 07:56 12.8 98 12.5 0.0 0.0 0 0.0 0.0 1016.0 0.0 0.0 12.8 0.0
03/02/18 07:57 12.8 98 12.5 0.0 0.0 0 0.0 0.0 1016.0 0.0 0.0 12.8 0.0
03/02/18 07:58 12.7 98 12.4 0.0 0.0 0 0.0 0.0 1016.0 0.0 0.0 12.7 0.0
03/02/18 07:59 12.7 98 12.4 0.0 0.0 0 0.0 0.0 1016.0 0.0 0.0 12.7 0.0
03/02/18 08:00 12.7 98 12.4 0.0 0.0 0 0.0 0.0 1016.0 0.0 0.0 12.7 0.0
03/02/18 08:00 14.0 98 13.7 0.0 0.0 0 34.8 0.0 1018.0 0.0 14.0 14.0 0.0
03/02/18 08:01 14.1 98 13.8 0.0 0.0 0 34.8 0.0 1018.0 0.0 14.1 14.1 0.0
03/02/18 09:02 14.1 98 13.8 0.0 0.0 0 34.8 0.0 1018.0 0.0 14.1 14.1 0.0
03/02/18 09:03 14.0 97 13.5 0.0 0.0 0 34.8 0.0 1018.0 0.0 14.1 14.0 0.0
03/02/18 09:04 14.1 97 13.6 0.0 0.0 0 34.8 0.0 1018.0 0.0 14.1 14.1 0.0
03/02/18 09:05 14.0 97 13.5 0.0 0.0 0 34.8 0.0 1018.0 0.0 14.1 14.0 0.0
03/02/18 09:06 14.0 97 13.5 0.0 0.0 0 34.8 0.0 1018.0 0.0 14.1 14.0 0.0
03/02/18 09:07 14.0 97 13.5 0.0 0.0 0 34.8 0.0 1018.0 0.0 14.1 14.0 0.0
03/02/18 09:08 14.0 97 13.5 0.0 0.0 0 34.8 0.0 1017.0 0.0 14.1 14.0 0.0
03/02/18 09:09 14.0 97 13.5 0.0 0.0 0 34.8 0.0 1017.0 0.0 14.1 14.0 0.0
03/02/18 09:10 14.0 97 13.5 1.4 0.0 0 34.8 0.0 1017.0 0.0 14.0 14.0 0.0
03/02/18 09:11 14.2 97 13.7 1.4 1.4 135 34.8 0.0 1017.0 1.4 14.1 14.2 0.0
03/02/18 09:12 14.2 97 13.7 1.4 1.4 135 34.8 0.0 1017.0 1.4 14.2 14.2 0.0
03/02/18 09:13 14.3 97 13.8 1.8 3.6 234 34.8 0.0 1017.0 0.0 14.3 14.3 0.0
03/02/18 09:14 14.3 97 13.8 1.8 3.6 234 34.8 0.0 1017.0 0.0 14.3 14.3 0.0
03/02/18 09:15 14.5 97 14.0 1.8 3.6 234 34.8 0.0 1017.0 0.0 14.3 14.5 0.0
03/02/18 09:16 14.6 97 14.1 1.8 3.6 234 34.8 0.0 1017.0 0.0 14.5 14.6 0.0
03/02/18 09:17 14.7 97 14.2 1.8 3.6 234 34.8 0.0 1017.0 0.0 14.6 14.7 0.0
03/02/18 09:18 14.8 97 14.3 1.8 3.6 234 34.8 0.0 1017.0 0.0 14.7 14.8 0.0
03/02/18 09:19 14.9 97 14.4 1.8 3.6 234 34.8 0.0 1017.0 0.0 14.8 14.9 0.0
03/02/18 09:20 15.0 96 14.4 1.8 3.6 234 34.8 0.0 1017.0 0.0 14.9 15.0 0.0
03/02/18 09:21 14.9 97 14.4 1.8 3.6 249 34.8 0.0 1017.0 0.0 15.0 14.9 0.0
03/02/18 09:22 14.9 97 14.4 1.8 3.6 261 34.8 0.0 1017.0 0.0 14.9 14.9 0.0
03/02/18 09:23 15.0 96 14.4 1.8 3.6 270 34.8 0.0 1017.0 0.0 14.9 15.0 0.0
03/02/18 09:24 15.0 96 14.4 1.8 0.0 0 34.8 0.0 1017.0 0.0 15.0 15.0 0.0
03/02/18 09:25 15.0 96 14.4 1.8 0.0 0 34.8 0.0 1017.0 0.0 15.0 15.0 0.0
03/02/18 09:26 15.1 95 14.3 0.0 5.0 257 34.8 0.0 1017.0 4.3 15.1 15.1 0.0
03/02/18 09:27 15.2 95 14.4 2.5 5.0 243 34.8 0.0 1017.0 0.0 15.2 15.2 0.0
03/02/18 09:28 15.4 95 14.6 0.0 5.0 263 34.8 0.0 1017.0 0.0 15.4 15.4 0.0
03/02/18 09:29 15.5 95 14.7 1.4 5.0 306 34.8 0.0 1017.0 2.2 15.5 15.5 0.0
03/02/18 09:30 15.7 95 14.9 1.8 5.0 323 34.8 0.0 1017.0 0.0 15.7 15.7 0.0
03/02/18 09:31 16.0 95 15.2 1.8 5.0 329 34.8 0.0 1017.0 2.2 16.0 16.0 0.0
03/02/18 09:32 16.2 95 15.4 0.0 5.0 334 34.8 0.0 1017.0 0.0 16.2 16.2 0.0
03/02/18 09:33 16.5 95 15.7 2.2 5.0 342 34.8 0.0 1017.0 1.8 16.5 16.5 0.0
03/02/18 09:34 16.9 94 15.9 2.2 5.0 349 34.8 0.0 1017.0 2.5 16.7 16.9 0.0
03/02/18 09:35 16.8 93 15.7 4.0 5.0 348 34.8 0.0 1017.0 0.0 16.8 16.8 0.0
03/02/18 09:36 17.1 92 15.8 4.0 5.0 358 34.8 0.0 1017.0 0.0 16.8 17.1 0.0
03/02/18 09:37 17.0 91 15.5 1.4 4.0 17 34.8 0.0 1017.0 0.0 17.0 17.0 0.0
03/02/18 09:38 17.0 91 15.5 0.0 4.0 16 34.8 0.0 1017.0 0.0 17.0 17.0 0.0
03/02/18 09:39 16.8 91 15.3 0.0 4.0 13 34.8 0.0 1017.0 0.0 17.0 16.8 0.0
03/02/18 09:40 17.0 89 15.2 4.3 4.7 46 34.8 0.0 1017.0 2.5 17.0 17.0 0.0
03/02/18 09:41 17.0 87 14.8 4.3 4.7 70 34.8 0.0 1017.0 2.5 16.8 17.0 0.0
03/02/18 09:42 17.0 87 14.8 4.3 4.7 77 34.8 0.0 1017.0 2.5 17.0 17.0 0.0
03/02/18 09:43 16.8 88 14.8 4.3 4.7 70 34.8 0.0 1017.0 2.5 17.0 16.8 0.0
03/02/18 09:44 16.9 87 14.7 4.3 4.7 97 34.8 0.0 1017.0 2.5 16.8 16.9 0.0
03/02/18 09:45 16.7 87 14.5 4.3 4.7 92 34.8 0.0 1017.0 2.5 16.9 16.7 0.0
03/02/18 09:46 16.6 87 14.4 4.3 4.7 88 34.8 0.0 1017.0 2.5 16.7 16.6 0.0
03/02/18 09:47 16.7 87 14.5 3.2 4.7 72 34.8 0.0 1017.0 4.0 16.7 16.7 0.0
03/02/18 09:48 16.8 86 14.4 2.5 5.0 60 34.8 0.0 1017.0 5.0 16.8 16.8 0.0
03/02/18 09:49 16.6 84 13.9 4.7 8.6 69 34.8 0.0 1017.0 5.4 16.6 16.6 0.0
03/02/18 09:50 16.6 84 13.9 3.2 8.6 54 34.8 0.0 1017.0 5.4 16.6 16.6 0.0
03/02/18 09:51 16.6 83 13.7 2.5 8.6 50 34.8 0.0 1017.0 3.6 16.6 16.6 0.0
03/02/18 09:52 16.7 83 13.8 2.5 8.6 46 34.8 0.0 1017.0 3.6 16.6 16.7 0.0
03/02/18 09:53 16.6 82 13.5 2.5 8.6 40 34.8 0.0 1017.0 3.6 16.7 16.6 0.0
03/02/18 09:54 16.6 82 13.5 2.5 8.6 31 34.8 0.0 1017.0 3.6 16.6 16.6 0.0
03/02/18 09:55 16.5 83 13.6 2.5 8.6 17 34.8 0.0 1017.0 3.6 16.6 16.5 0.0
03/02/18 09:56 16.7 84 14.0 2.5 8.6 330 34.8 0.0 1017.0 3.6 16.6 16.7 0.0
03/02/18 09:57 16.7 84 14.0 1.4 8.6 342 34.8 0.0 1017.0 0.0 16.7 16.7 0.0
03/02/18 09:58 16.7 84 14.0 1.4 8.6 298 34.8 0.0 1017.0 0.0 16.7 16.7 0.0
03/02/18 09:59 16.6 83 13.7 1.8 5.4 266 34.8 0.0 1017.0 2.5 16.6 16.6 0.0
03/02/18 10:00 16.6 83 13.7 3.6 5.0 241 34.8 0.0 1017.0 1.4 16.6 16.6 0.0
03/02/18 10:02 16.6 83 13.7 3.6 3.6 6 0.0 0.0 1017.0 1.4 0.0 16.6 0.0
03/02/18 10:03 16.5 83 13.6 4.0 3.6 351 0.0 0.0 1017.0 1.4 16.5 16.5 0.0
03/02/18 10:04 16.5 83 13.6 4.0 3.6 336 0.0 0.0 1017.0 1.4 16.5 16.5 0.0
03/02/18 10:05 16.4 82 13.3 4.0 3.6 261 0.0 0.0 1017.0 1.4 16.5 16.4 0.0
03/02/18 10:06 16.4 83 13.5 3.6 4.3 224 0.0 0.0 1017.0 4.3 16.4 16.4 0.0
03/02/18 10:07 16.4 83 13.5 1.8 4.3 198 0.0 0.0 1017.0 2.5 16.4 16.4 0.0
03/02/18 10:08 16.4 83 13.5 1.4 4.3 183 0.0 0.0 1017.0 4.0 16.4 16.4 0.0
03/02/18 10:09 16.4 83 13.5 2.2 4.3 165 0.0 0.0 1017.0 2.2 16.4 16.4 0.0
03/02/18 10:10 16.5 83 13.6 2.2 4.3 157 0.0 0.0 1017.0 1.8 16.5 16.5 0.0
03/02/18 10:11 16.5 82 13.4 4.0 5.0 145 0.0 0.0 1017.0 4.0 16.5 16.5 0.0
03/02/18 10:12 16.6 82 13.5 2.5 5.0 141 0.0 0.0 1017.0 2.5 16.6 16.6 0.0
03/02/18 10:13 16.8 83 13.9 4.0 6.1 156 0.0 0.0 1017.0 4.0 16.8 16.8 0.0
03/02/18 10:14 17.0 82 13.9 3.2 7.6 152 0.0 0.0 1017.0 7.6 17.0 17.0 0.0
03/02/18 10:15 17.1 83 14.2 3.6 7.6 155 0.0 0.0 1017.0 2.2 17.1 17.1 0.0
03/02/18 10:16 17.3 83 14.4 1.4 7.6 147 0.0 0.0 1017.0 1.4 17.3 17.3 0.0
03/02/18 10:17 17.4 83 14.5 1.4 7.6 142 0.0 0.0 1017.0 0.0 17.4 17.4 0.0
03/02/18 10:18 17.6 82 14.5 0.0 7.6 139 0.0 0.0 1017.0 5.0 17.6 17.6 0.0
03/02/18 10:19 17.6 80 14.1 5.4 9.7 75 0.0 0.0 1017.0 4.7 17.6 17.6 0.0
03/02/18 10:20 17.5 80 14.0 3.6 9.7 70 0.0 0.0 1017.0 2.2 17.5 17.5 0.0
03/02/18 10:21 17.6 80 14.1 2.2 9.7 64 0.0 0.0 1017.0 5.8 17.6 17.6 0.0
03/02/18 10:22 17.6 79 13.9 4.0 9.7 63 0.0 0.0 1017.0 4.3 17.6 17.6 0.0
03/02/18 10:23 17.7 79 14.0 4.0 9.7 52 0.0 0.0 1018.0 2.5 17.7 17.7 0.0
03/02/18 10:24 17.7 79 14.0 2.5 9.7 53 0.0 0.0 1018.0 2.5 17.7 17.7 0.0
03/02/18 10:25 17.6 79 13.9 3.2 9.7 56 0.0 0.0 1018.0 4.0 17.6 17.6 0.0
03/02/18 10:26 17.6 78 13.7 2.5 9.7 55 0.0 0.0 1018.0 4.7 17.6 17.6 0.0
03/02/18 10:27 17.5 78 13.6 3.2 9.7 67 0.0 0.0 1018.0 5.8 17.5 17.5 0.0
03/02/18 10:28 17.3 77 13.2 4.3 9.7 69 0.0 0.0 1018.0 4.0 17.3 17.3 0.0
03/02/18 10:29 17.4 77 13.3 2.5 9.4 98 0.0 0.0 1018.0 6.1 17.4 17.4 0.0
03/02/18 10:30 17.4 76 13.1 4.0 9.4 108 0.0 0.0 1018.0 2.2 17.4 17.4 0.0
03/02/18 10:31 17.4 77 13.3 2.5 7.6 105 0.0 0.0 1018.0 4.0 17.4 17.4 0.0
03/02/18 10:32 17.4 76 13.1 4.7 7.6 91 0.0 0.0 1018.0 2.2 17.4 17.4 0.0
03/02/18 11:02 17.7 73 12.8 3.2 4.0 226 0.0 0.0 1017.0 2.5 17.7 17.7 0.0
03/02/18 11:03 17.9 74 13.2 2.2 4.3 207 0.0 0.0 1017.0 4.3 17.9 17.9 0.0
03/02/18 11:04 18.0 73 13.1 3.2 4.3 352 0.0 0.0 1017.0 4.3 18.0 18.0 0.0
03/02/18 11:05 18.4 73 13.5 3.2 4.7 356 0.0 0.0 1017.0 4.7 18.4 18.4 0.0
03/02/18 11:06 18.6 73 13.7 2.2 4.7 357 0.0 0.0 1017.0 1.4 18.6 18.6 0.0
03/02/18 11:07 18.8 74 14.1 1.8 4.7 358 0.0 0.0 1017.0 1.8 18.8 18.8 0.0
03/02/18 11:08 19.1 74 14.4 2.2 4.7 358 0.0 0.0 1017.0 2.5 19.1 19.1 0.0
03/02/18 11:09 19.3 75 14.8 2.2 5.0 358 0.0 0.0 1017.0 2.5 19.3 19.3 0.0
03/02/18 11:10 19.4 75 14.9 2.5 5.0 358 0.0 0.0 1017.0 0.0 19.4 19.4 0.0
03/02/18 11:11 19.5 73 14.5 3.6 5.4 1 0.0 0.0 1017.0 3.2 19.5 19.5 0.0
03/02/18 11:12 19.8 72 14.6 2.2 5.4 9 0.0 0.0 1017.0 1.4 19.7 19.8 0.0
03/02/18 11:13 19.7 72 14.5 1.4 7.9 15 0.0 0.0 1017.0 7.9 19.7 19.7 0.0
03/02/18 11:14 19.5 70 13.9 5.4 7.9 31 0.0 0.0 1017.0 3.6 19.5 19.5 0.0
03/02/18 11:15 19.4 70 13.8 3.6 7.9 48 0.0 0.0 1017.0 5.4 19.4 19.4 0.0
03/02/18 11:16 19.3 70 13.7 3.6 7.9 67 0.0 0.0 1017.0 1.8 19.3 19.3 0.0
03/02/18 11:17 19.3 70 13.7 3.2 7.9 70 0.0 0.0 1017.0 4.7 19.3 19.3 0.0
03/02/18 11:18 19.3 70 13.7 2.2 7.9 70 0.0 0.0 1017.0 1.8 19.3 19.3 0.0
03/02/18 11:19 19.4 70 13.8 1.4 7.9 75 0.0 0.0 1017.0 5.0 19.4 19.4 0.0
03/02/18 11:20 19.2 68 13.1 3.6 7.9 78 0.0 0.0 1017.0 3.2 19.4 19.2 0.0
03/02/18 11:21 19.3 68 13.2 3.2 7.9 95 0.0 0.0 1017.0 4.0 19.3 19.3 0.0
03/02/18 11:22 19.3 68 13.2 2.5 7.9 104 0.0 0.0 1017.0 5.8 19.3 19.3 0.0
03/02/18 11:23 19.4 68 13.3 4.0 6.1 122 0.0 0.0 1017.0 4.3 19.4 19.4 0.0
03/02/18 11:24 19.4 68 13.3 4.0 8.6 122 0.0 0.0 1017.0 6.1 19.4 19.4 0.0
03/02/18 11:25 19.3 67 13.0 5.0 8.6 115 0.0 0.0 1017.0 6.1 19.3 19.3 0.0
03/02/18 11:26 19.2 67 12.9 4.0 8.6 115 0.0 0.0 1017.0 3.2 19.2 19.2 0.0
03/02/18 11:27 19.2 68 13.1 1.8 8.6 123 0.0 0.0 1017.0 4.0 19.2 19.2 0.0
03/02/18 11:28 19.2 67 12.9 4.7 8.6 126 0.0 0.0 1017.0 3.2 19.2 19.2 0.0
03/02/18 11:29 19.1 66 12.6 4.3 8.6 137 0.0 0.0 1017.0 5.0 19.1 19.1 0.0
03/02/18 11:30 19.1 67 12.8 4.7 8.6 142 0.0 0.0 1017.0 4.0 19.1 19.1 0.0
03/02/18 11:31 19.1 66 12.6 4.7 8.6 146 0.0 0.0 1017.0 4.3 19.1 19.1 0.0
03/02/18 11:32 19.1 66 12.6 5.0 8.6 146 0.0 0.0 1017.0 3.6 19.1 19.1 0.0
03/02/18 11:33 19.1 66 12.6 2.5 8.6 146 0.0 0.0 1017.0 1.8 19.1 19.1 0.0
03/02/18 11:34 19.3 67 13.0 3.2 7.9 148 0.0 0.0 1017.0 4.3 19.3 19.3 0.0
03/02/18 11:35 19.2 66 12.7 4.7 7.9 142 0.0 0.0 1017.0 4.3 19.2 19.2 0.0
03/02/18 11:36 19.2 66 12.7 4.7 7.9 137 0.0 0.0 1017.0 2.5 19.2 19.2 0.0
03/02/18 11:37 19.2 66 12.7 4.0 7.9 127 0.0 0.0 1017.0 5.0 19.2 19.2 0.0
03/02/18 11:38 19.1 65 12.4 5.4 7.9 121 0.0 0.0 1017.0 2.2 19.1 19.1 0.0
03/02/18 11:39 19.2 66 12.7 3.6 7.9 98 0.0 0.0 1017.0 5.0 19.2 19.2 0.0
03/02/18 11:40 19.4 66 12.9 3.6 7.9 81 0.0 0.0 1017.0 3.2 19.4 19.4 0.0
03/02/18 11:41 19.4 65 12.6 4.0 7.9 61 0.0 0.0 1017.0 2.5 19.4 19.4 0.0
03/02/18 11:42 19.6 66 13.1 4.0 7.9 87 0.0 0.0 1017.0 4.3 19.5 19.6 0.0
03/02/18 11:43 19.7 65 12.9 3.6 7.9 81 0.0 0.0 1017.0 1.8 19.7 19.7 0.0
03/02/18 11:44 19.8 66 13.3 3.2 7.9 79 0.0 0.0 1017.0 2.5 19.8 19.8 0.0
03/02/18 11:45 19.9 66 13.4 2.5 7.9 79 0.0 0.0 1017.0 5.8 19.9 19.9 0.0
03/02/18 11:46 19.9 63 12.6 7.2 12.6 103 0.0 0.0 1017.0 5.0 19.9 19.9 0.0
03/02/18 11:47 20.0 64 13.0 4.3 12.6 113 0.0 0.0 1017.0 4.7 20.0 20.0 0.0
03/02/18 11:48 20.0 64 13.0 4.0 12.6 108 0.0 0.0 1017.0 1.4 20.0 20.0 0.0
03/02/18 11:49 20.3 65 13.5 3.6 12.6 129 0.0 0.0 1017.0 1.8 20.3 20.3 0.0
03/02/18 11:50 20.8 64 13.7 2.5 12.6 140 0.0 0.0 1017.0 4.0 20.8 20.8 0.0
03/02/18 11:51 21.0 65 14.2 2.2 12.6 134 0.0 0.0 1017.0 1.4 21.0 21.0 0.0
03/02/18 11:52 21.0 62 13.4 3.6 12.6 125 0.0 0.0 1017.0 7.9 21.0 21.0 0.0
03/02/18 11:53 20.9 62 13.3 5.4 12.6 129 0.0 0.0 1017.0 5.0 20.9 20.9 0.0
03/02/18 11:54 20.7 62 13.2 4.7 12.6 120 0.0 0.0 1017.0 5.8 20.7 20.7 0.0
03/02/18 11:55 20.8 62 13.3 4.3 12.6 114 0.0 0.0 1017.0 4.3 20.8 20.8 0.0
03/02/18 11:56 20.8 63 13.5 2.5 11.2 100 0.0 0.0 1017.0 1.4 20.8 20.8 0.0
03/02/18 11:57 20.9 64 13.8 2.2 11.2 89 0.0 0.0 1017.0 0.0 20.9 20.9 0.0
03/02/18 11:58 21.2 63 13.9 1.8 11.2 92 0.0 0.0 1017.0 0.0 21.2 21.2 0.0
03/02/18 11:59 21.3 63 14.0 0.0 11.2 83 0.0 0.0 1017.0 0.0 21.3 21.3 0.0
03/02/18 12:00 21.3 63 14.0 2.2 11.2 74 0.0 0.0 1017.0 1.8 21.3 21.3 0.0
03/02/18 12:02 21.8 61 13.9 3.6 7.9 128 0.0 0.0 1017.0 3.6 21.8 21.8 0.0
03/02/18 12:03 22.1 61 14.2 4.3 7.6 157 0.0 0.0 1017.0 2.2 22.1 22.1 0.0
03/02/18 12:04 22.1 61 14.2 4.0 9.4 148 0.0 0.0 1017.0 4.7 22.1 22.1 0.0
03/02/18 12:05 22.1 58 13.4 3.2 9.4 155 0.0 0.0 1017.0 2.5 22.2 22.1 0.0
03/02/18 12:06 22.0 58 13.4 3.6 9.4 150 0.0 0.0 1017.0 4.3 22.1 22.0 0.0
03/02/18 12:07 21.8 58 13.2 4.0 9.4 146 0.0 0.0 1017.0 6.8 21.8 21.8 0.0
03/02/18 12:08 22.2 58 13.5 4.7 9.4 148 0.0 0.0 1017.0 5.8 22.2 22.2 0.0
03/02/18 12:09 22.2 58 13.5 4.3 9.4 143 0.0 0.0 1017.0 2.2 22.2 22.2 0.0
03/02/18 12:10 22.2 58 13.5 2.2 9.4 140 0.0 0.0 1017.0 4.7 22.2 22.2 0.0
03/02/18 12:11 22.2 58 13.5 3.6 9.4 150 0.0 0.0 1017.0 4.3 22.2 22.2 0.0
03/02/18 12:12 22.3 57 13.4 4.0 9.4 147 0.0 0.0 1017.0 3.6 22.3 22.3 0.0
03/02/18 12:13 22.4 57 13.5 4.0 9.4 136 0.0 0.0 1017.0 3.2 22.4 22.4 0.0
03/02/18 12:14 22.4 58 13.7 2.5 6.8 132 0.0 0.0 1017.0 1.8 22.4 22.4 0.0
03/02/18 12:15 22.5 56 13.3 3.2 6.8 124 0.0 0.0 1017.0 3.2 22.5 22.5 0.0
03/02/18 12:16 22.3 54 12.5 6.5 10.1 122 0.0 0.0 1017.0 4.3 22.3 22.3 0.0
03/02/18 12:17 22.2 54 12.4 4.0 10.1 104 0.0 0.0 1017.0 3.2 22.2 22.2 0.0
03/02/18 12:18 22.4 55 12.9 3.2 10.1 104 0.0 0.0 1017.0 2.2 22.4 22.4 0.0
03/02/18 12:19 22.8 56 13.6 4.0 10.1 76 0.0 0.0 1017.0 8.6 22.8 22.8 0.0
03/02/18 12:20 22.5 52 12.2 6.5 10.1 73 0.0 0.0 1017.0 6.5 22.7 22.5 0.0
03/02/18 12:21 22.6 54 12.8 6.8 10.1 66 0.0 0.0 1017.0 4.7 22.6 22.6 0.0
03/02/18 12:22 22.5 53 12.4 4.3 10.1 56 0.0 0.0 1017.0 5.8 22.5 22.5 0.0
03/02/18 12:23 22.7 54 12.9 5.0 10.1 48 0.0 0.0 1017.0 2.2 22.7 22.7 0.0
03/02/18 12:24 22.8 53 12.7 3.6 10.1 50 0.0 0.0 1017.0 7.9 22.8 22.8 0.0
03/02/18 12:25 22.8 53 12.7 6.5 10.1 56 0.0 0.0 1017.0 5.4 22.8 22.8 0.0
03/02/18 12:26 22.9 53 12.8 5.0 8.6 47 0.0 0.0 1017.0 4.7 22.9 22.9 0.0
03/02/18 12:27 23.1 54 13.3 3.2 8.6 49 0.0 0.0 1017.0 5.0 23.1 23.1 0.0
03/02/18 12:28 23.2 52 12.8 4.0 8.6 49 0.0 0.0 1017.0 4.0 23.2 23.2 0.0
03/02/18 12:29 23.2 53 13.1 4.7 8.6 53 0.0 0.0 1017.0 3.2 23.2 23.2 0.0
03/02/18 12:30 23.4 53 13.3 3.2 7.9 49 0.0 0.0 1017.0 4.7 23.4 23.4 0.0
03/02/18 12:31 23.7 53 13.6 3.6 7.9 54 0.0 0.0 1017.0 1.8 23.7 23.7 0.0
03/02/18 12:32 24.0 54 14.1 2.2 7.9 72 0.0 0.0 1017.0 4.3 24.0 24.0 0.0
03/02/18 12:33 23.8 52 13.4 4.7 7.9 84 0.0 0.0 1017.0 2.2 23.8 23.8 0.0
03/02/18 12:34 23.8 53 13.6 2.5 7.9 87 0.0 0.0 1017.0 1.8 23.8 23.8 0.0
03/02/18 12:35 23.7 52 13.3 1.8 9.0 73 0.0 0.0 1017.0 5.8 23.7 23.7 0.0
03/02/18 12:36 23.7 50 12.7 4.3 9.7 86 0.0 0.0 1017.0 4.3 23.7 23.7 0.0
03/02/18 12:37 23.7 51 13.0 5.4 9.7 91 0.0 0.0 1017.0 4.0 23.7 23.7 0.0
03/02/18 12:38 24.0 52 13.5 2.2 9.7 94 0.0 0.0 1016.0 5.0 24.0 24.0 0.0
03/02/18 12:39 24.1 51 13.3 3.6 9.7 109 0.0 0.0 1016.0 3.2 24.1 24.1 0.0
03/02/18 12:40 24.3 52 13.8 3.2 9.7 103 0.0 0.0 1016.0 4.0 24.3 24.3 0.0
03/02/18 12:41 24.5 52 14.0 3.2 9.7 90 0.0 0.0 1016.0 5.4 24.5 24.5 0.0
03/02/18 12:42 24.4 51 13.6 5.0 9.7 93 0.0 0.0 1016.0 2.5 24.4 24.4 0.0
03/02/18 12:43 24.3 50 13.2 4.0 9.7 93 0.0 0.0 1016.0 4.7 24.2 24.3 0.0
03/02/18 12:44 24.2 49 12.8 4.0 9.7 98 0.0 0.0 1016.0 6.5 24.2 24.2 0.0
03/02/18 12:45 24.5 50 13.4 4.0 9.7 107 0.0 0.0 1016.0 1.4 24.5 24.5 0.0
03/02/18 12:46 24.7 50 13.6 1.8 7.9 97 0.0 0.0 1016.0 4.3 24.7 24.7 0.0
03/02/18 12:47 24.8 49 13.4 4.7 7.9 122 0.0 0.0 1016.0 4.3 24.8 24.8 0.0
03/02/18 12:48 24.8 49 13.4 4.7 7.9 111 0.0 0.0 1016.0 6.1 24.8 24.8 0.0
03/02/18 12:49 24.4 47 12.4 6.5 9.7 88 0.0 0.0 1016.0 6.1 24.4 24.4 0.0
03/02/18 12:50 24.4 49 13.0 5.0 9.7 108 0.0 0.0 1016.0 0.0 24.3 24.4 0.0
03/02/18 12:51 24.7 49 13.3 0.0 9.7 130 0.0 0.0 1016.0 2.2 24.4 24.7 0.0
03/02/18 12:52 24.6 48 12.9 3.2 9.7 106 0.0 0.0 1016.0 1.8 24.6 24.6 0.0
03/02/18 12:53 24.5 49 13.1 3.2 9.7 90 0.0 0.0 1016.0 1.8 24.6 24.5 0.0
03/02/18 12:54 24.4 49 13.0 2.5 9.7 103 0.0 0.0 1016.0 5.8 24.4 24.4 0.0
03/02/18 12:55 24.1 47 12.1 4.3 9.7 88 0.0 0.0 1016.0 4.3 24.1 24.1 0.0
03/02/18 12:56 23.8 47 11.8 4.7 9.7 84 0.0 0.0 1016.0 1.8 23.8 23.8 0.0
03/02/18 12:57 23.6 48 11.9 2.2 9.7 74 0.0 0.0 1016.0 2.2 23.6 23.6 0.0
03/02/18 12:58 23.7 49 12.3 2.2 9.7 83 0.0 0.0 1016.0 1.4 23.7 23.7 0.0
03/02/18 12:59 23.6 49 12.3 2.2 6.8 111 0.0 0.0 1016.0 4.7 23.7 23.6 0.0
03/02/18 13:00 23.4 49 12.1 4.7 6.8 101 0.0 0.0 1016.0 1.8 23.4 23.4 0.0
03/02/18 13:02 23.2 48 11.6 4.7 5.8 71 0.0 0.0 1016.0 1.8 23.2 23.2 0.0
03/02/18 13:03 23.5 49 12.2 1.8 5.8 64 0.0 0.0 1016.0 2.2 23.5 23.5 0.0
03/02/18 13:04 23.9 50 12.8 2.2 5.8 53 0.0 0.0 1016.0 3.6 23.9 23.9 0.0
03/02/18 13:05 23.8 49 12.4 4.3 9.0 61 0.0 0.0 1016.0 4.7 23.8 23.8 0.0
03/02/18 13:06 23.1 48 11.5 5.4 9.0 89 0.0 0.0 1016.0 9.0 23.4 23.1 0.0
03/02/18 13:07 22.9 48 11.3 7.2 14.0 98 0.0 0.0 1016.0 8.6 22.9 22.9 0.0
03/02/18 13:08 23.0 49 11.7 6.5 14.0 100 0.0 0.0 1016.0 0.0 23.0 23.0 0.0
03/02/18 13:09 23.4 50 12.4 0.0 14.0 101 0.0 0.0 1016.0 7.6 23.4 23.4 0.0
03/02/18 13:10 23.5 49 12.2 5.0 14.0 91 0.0 0.0 1016.0 6.8 23.5 23.5 0.0
03/02/18 13:11 23.3 49 12.0 4.7 14.0 85 0.0 0.0 1016.0 7.9 23.3 23.3 0.0
03/02/18 13:12 23.0 48 11.4 5.0 14.0 89 0.0 0.0 1016.0 6.1 23.0 23.0 0.0
03/02/18 13:13 22.8 50 11.8 5.0 14.0 97 0.0 0.0 1016.0 1.8 22.8 22.8 0.0
03/02/18 13:14 23.1 50 12.1 1.4 14.0 102 0.0 0.0 1016.0 0.0 23.1 23.1 0.0
03/02/18 13:15 23.5 50 12.5 1.8 14.0 103 0.0 0.0 1016.0 1.8 23.5 23.5 0.0
03/02/18 13:16 23.8 50 12.7 3.2 14.0 99 0.0 0.0 1016.0 0.0 23.8 23.8 0.0
03/02/18 13:17 24.0 51 13.2 1.4 9.0 94 0.0 0.0 1016.0 2.2 24.0 24.0 0.0
03/02/18 13:18 24.1 50 13.0 2.2 9.0 96 0.0 0.0 1016.0 1.8 24.1 24.1 0.0
03/02/18 13:19 24.0 50 12.9 2.2 9.0 96 0.0 0.0 1016.0 1.8 24.1 24.0 0.0
03/02/18 13:20 23.8 49 12.4 1.8 9.0 106 0.0 0.0 1016.0 1.4 23.8 23.8 0.0
03/02/18 13:21 24.0 50 12.9 0.0 6.1 129 0.0 0.0 1016.0 2.2 24.0 24.0 0.0
03/02/18 13:22 24.2 50 13.1 1.8 6.1 135 0.0 0.0 1016.0 0.0 24.2 24.2 0.0
03/02/18 13:23 24.5 50 13.4 0.0 5.4 135 0.0 0.0 1016.0 0.0 24.5 24.5 0.0
03/02/18 13:24 24.8 49 13.4 0.0 5.4 135 0.0 0.0 1016.0 0.0 24.8 24.8 0.0
03/02/18 13:25 25.0 50 13.9 1.4 5.4 135 0.0 0.0 1016.0 3.2 25.0 25.0 0.0
03/02/18 13:26 24.9 49 13.4 2.2 5.0 135 0.0 0.0 1016.0 4.3 24.9 24.9 0.0
03/02/18 13:27 25.1 49 13.6 4.0 5.8 135 0.0 0.0 1016.0 2.5 25.1 25.1 0.0
03/02/18 13:28 25.6 49 14.1 2.2 5.8 129 0.0 0.0 1016.0 4.0 25.3 25.6 0.0
03/02/18 13:29 25.6 48 13.8 4.0 6.8 128 0.0 0.0 1016.0 3.6 25.6 25.6 0.0
03/02/18 13:30 25.7 46 13.2 4.3 6.8 131 0.0 0.0 1016.0 3.6 25.7 25.7 0.0
03/02/18 13:31 25.5 47 13.4 3.2 6.8 116 0.0 0.0 1016.0 4.7 25.5 25.5 0.0
03/02/18 13:32 25.2 46 12.8 4.0 6.8 110 0.0 0.0 1016.0 0.0 25.2 25.2 0.0
03/02/18 13:33 25.0 45 12.2 1.8 6.8 113 0.0 0.0 1016.0 5.0 25.0 25.0 0.0
03/02/18 13:34 24.9 46 12.5 4.0 6.8 114 0.0 0.0 1016.0 2.5 24.9 24.9 0.0
03/02/18 13:35 24.7 45 12.0 5.0 6.8 104 0.0 0.0 1016.0 2.5 24.7 24.7 0.0
03/02/18 13:36 24.8 46 12.4 2.2 6.8 94 0.0 0.0 1016.0 1.8 24.6 24.8 0.0
03/02/18 13:37 25.2 46 12.8 1.8 6.8 86 0.0 0.0 1016.0 2.5 25.2 25.2 0.0
03/02/18 13:38 25.2 46 12.8 3.2 6.8 87 0.0 0.0 1016.0 1.4 25.2 25.2 0.0
03/02/18 13:39 25.8 46 13.3 1.4 6.8 83 0.0 0.0 1016.0 1.4 25.8 25.8 0.0
03/02/18 13:40 25.8 46 13.3 3.2 9.4 104 0.0 0.0 1016.0 6.1 25.8 25.8 0.0
03/02/18 13:41 25.7 44 12.5 4.3 9.4 120 0.0 0.0 1016.0 4.7 25.7 25.7 0.0
03/02/18 13:42 25.7 43 12.2 4.7 9.4 120 0.0 0.0 1016.0 9.4 25.7 25.7 0.0
03/02/18 13:43 25.7 43 12.2 5.4 9.4 116 0.0 0.0 1016.0 3.6 25.7 25.7 0.0
03/02/18 13:44 25.5 43 12.0 3.2 9.4 117 0.0 0.0 1016.0 2.5 25.5 25.5 0.0
03/02/18 13:45 26.0 44 12.8 2.5 9.4 137 0.0 0.0 1016.0 3.2 26.0 26.0 0.0
03/02/18 13:46 26.1 43 12.5 2.2 9.4 146 0.0 0.0 1016.0 5.4 26.1 26.1 0.0
03/02/18 13:47 26.1 44 12.9 3.2 9.4 139 0.0 0.0 1016.0 7.6 26.1 26.1 0.0
03/02/18 13:48 25.8 43 12.3 5.4 9.4 115 0.0 0.0 1016.0 6.1 25.8 25.8 0.0
03/02/18 13:49 25.5 42 11.6 6.1 9.4 121 0.0 0.0 1016.0 9.0 25.5 25.5 0.0
03/02/18 13:50 25.3 42 11.5 6.1 9.7 81 0.0 0.0 1016.0 6.8 25.3 25.3 0.0
03/02/18 13:51 25.0 42 11.2 5.8 9.7 95 0.0 0.0 1016.0 5.0 25.1 25.0 0.0
03/02/18 13:52 25.3 43 11.8 4.0 9.7 97 0.0 0.0 1016.0 3.2 25.3 25.3 0.0
03/02/18 13:53 25.5 43 12.0 2.5 9.7 106 0.0 0.0 1015.0 2.2 25.5 25.5 0.0
03/02/18 13:54 25.4 43 11.9 1.8 9.7 107 0.0 0.0 1015.0 0.0 25.4 25.4 0.0
03/02/18 13:55 25.3 44 12.2 0.0 9.7 98 0.0 0.0 1015.0 2.2 25.3 25.3 0.0
03/02/18 13:56 25.1 44 12.0 2.2 9.7 93 0.0 0.0 1015.0 1.4 25.1 25.1 0.0
03/02/18 13:57 25.1 44 12.0 1.4 9.7 107 0.0 0.0 1015.0 0.0 25.1 25.1 0.0
03/02/18 13:58 25.3 44 12.2 0.0 9.7 123 0.0 0.0 1015.0 0.0 25.3 25.3 0.0
03/02/18 13:59 26.2 44 13.0 0.0 9.7 119 0.0 0.0 1015.0 1.8 26.2 26.2 0.0
03/02/18 14:00 26.5 44 13.3 1.4 6.8 135 0.0 0.0 1015.0 3.2 26.5 26.5 0.0
03/02/18 14:02 26.4 44 13.2 2.5 4.0 73 0.0 0.0 1015.0 2.2 26.4 26.4 0.0
03/02/18 14:03 26.2 44 13.0 2.5 4.0 67 0.0 0.0 1015.0 2.2 26.4 26.2 0.0
03/02/18 14:04 25.8 43 12.3 2.5 4.0 63 0.0 0.0 1015.0 2.2 26.2 25.8 0.0
03/02/18 14:05 25.7 43 12.2 2.5 4.7 56 0.0 0.0 1015.0 1.8 25.7 25.7 0.0
03/02/18 14:06 25.8 44 12.6 2.5 4.7 51 0.0 0.0 1015.0 2.2 25.5 25.8 0.0
03/02/18 14:07 26.2 44 13.0 2.2 4.7 41 0.0 0.0 1015.0 1.4 26.2 26.2 0.0
03/02/18 14:08 26.5 43 12.9 2.2 4.7 36 0.0 0.0 1015.0 1.8 26.5 26.5 0.0
03/02/18 14:09 26.4 43 12.8 1.8 4.7 22 0.0 0.0 1015.0 4.0 26.4 26.4 0.0
03/02/18 14:10 26.4 43 12.8 2.2 4.7 10 0.0 0.0 1015.0 2.2 26.4 26.4 0.0
03/02/18 14:11 26.6 44 13.3 0.0 4.7 357 0.0 0.0 1015.0 0.0 26.6 26.6 0.0
03/02/18 14:12 26.8 44 13.5 2.2 5.4 298 0.0 0.0 1015.0 5.4 26.8 26.9 0.0
03/02/18 14:13 26.9 43 13.3 4.0 5.8 261 0.0 0.0 1015.0 1.8 26.9 26.9 0.0
03/02/18 14:14 27.2 42 13.2 2.2 5.8 209 0.0 0.0 1015.0 3.2 27.2 27.1 0.0
03/02/18 14:15 27.5 42 13.4 2.2 5.8 211 0.0 0.0 1015.0 0.0 27.5 27.4 0.0
03/02/18 14:16 27.7 42 13.6 0.0 5.8 211 0.0 0.0 1015.0 3.2 27.7 27.5 0.0
03/02/18 14:17 27.8 41 13.3 1.4 5.8 203 0.0 0.0 1015.0 0.0 27.8 27.6 0.0
03/02/18 14:18 27.8 42 13.7 0.0 5.8 199 0.0 0.0 1015.0 2.5 27.8 27.6 0.0
03/02/18 14:19 27.6 42 13.5 2.2 5.8 181 0.0 0.0 1015.0 2.5 27.6 27.5 0.0
03/02/18 14:20 27.3 41 12.9 1.8 5.8 171 0.0 0.0 1015.0 1.4 27.3 27.1 0.0
03/02/18 14:21 27.0 42 13.0 1.4 5.8 165 0.0 0.0 1015.0 1.8 27.1 27.0 0.0
03/02/18 14:22 26.6 42 12.6 2.2 5.8 153 0.0 0.0 1015.0 2.5 27.0 26.6 0.0
03/02/18 14:23 26.1 42 12.2 3.2 4.0 156 0.0 0.0 1015.0 2.5 26.6 26.1 0.0
03/02/18 14:24 25.8 42 11.9 2.2 4.0 151 0.0 0.0 1015.0 0.0 25.8 25.8 0.0
03/02/18 14:25 25.6 42 11.7 1.4 4.0 147 0.0 0.0 1015.0 0.0 25.6 25.6 0.0
03/02/18 14:26 25.6 42 11.7 0.0 4.0 143 0.0 0.0 1015.0 1.8 25.6 25.6 0.0
03/02/18 14:27 25.6 42 11.7 2.2 4.0 127 0.0 0.0 1015.0 3.6 25.6 25.6 0.0
03/02/18 14:28 25.9 42 12.0 1.8 4.0 113 0.0 0.0 1015.0 1.4 25.9 25.9 0.0
03/02/18 14:29 26.2 41 11.9 2.5 5.4 92 0.0 0.0 1015.0 3.2 26.1 26.2 0.0
03/02/18 14:30 26.1 41 11.8 4.7 9.0 99 0.0 0.0 1015.0 9.0 26.2 26.1 0.0
03/02/18 14:31 25.9 42 12.0 4.3 9.0 104 0.0 0.0 1015.0 3.2 25.9 25.9 0.0
03/02/18 14:32 25.4 41 11.2 5.4 9.7 104 0.0 0.0 1015.0 9.7 25.4 25.4 0.0
03/02/18 14:33 25.0 41 10.8 5.4 9.7 107 0.0 0.0 1015.0 3.2 25.0 25.0 0.0
03/02/18 14:34 25.2 42 11.4 2.2 9.7 109 0.0 0.0 1015.0 2.2 25.2 25.2 0.0
03/02/18 14:35 25.5 42 11.6 2.5 9.7 115 0.0 0.0 1015.0 0.0 25.5 25.5 0.0
03/02/18 14:36 26.2 42 12.3 1.4 9.7 120 0.0 0.0 1015.0 1.8 25.9 26.2 0.0
03/02/18 14:37 26.5 42 12.5 1.8 9.7 133 0.0 0.0 1015.0 3.6 26.2 26.5 0.0
03/02/18 14:38 26.6 42 12.6 3.2 9.7 151 0.0 0.0 1015.0 2.2 26.5 26.6 0.0
03/02/18 14:39 27.0 41 12.6 1.8 9.7 166 0.0 0.0 1015.0 1.4 27.0 26.9 0.0
03/02/18 14:40 27.1 41 12.7 3.2 9.7 187 0.0 0.0 1015.0 4.3 27.1 27.0 0.0
03/02/18 14:41 26.6 41 12.3 3.2 9.7 189 0.0 0.0 1015.0 4.3 27.1 26.6 0.0
03/02/18 14:42 26.1 41 11.8 3.2 9.7 194 0.0 0.0 1015.0 4.3 26.6 26.1 0.0
03/02/18 14:43 25.5 41 11.3 3.2 6.1 209 0.0 0.0 1015.0 4.3 26.1 25.5 0.0
03/02/18 14:44 24.6 41 10.5 3.2 6.1 225 0.0 0.0 1015.0 4.3 24.9 24.6 0.0
03/02/18 14:45 24.4 42 10.7 3.2 6.1 225 0.0 0.0 1015.0 4.3 24.6 24.4 0.0
03/02/18 14:46 24.4 42 10.7 3.2 6.1 225 0.0 0.0 1015.0 4.3 24.4 24.4 0.0
03/02/18 14:47 24.3 42 10.6 3.2 6.1 225 0.0 0.0 1015.0 4.3 24.4 24.3 0.0
03/02/18 14:48 24.2 42 10.5 3.6 8.6 225 0.0 0.0 1015.0 4.3 24.2 24.2 0.0
03/02/18 14:49 24.3 42 10.6 3.2 8.6 225 0.0 0.0 1015.0 0.0 24.3 24.3 0.0
03/02/18 14:50 24.5 42 10.7 0.0 8.6 225 0.0 0.0 1015.0 0.0 24.5 24.5 0.0
03/02/18 14:51 24.8 42 11.0 4.0 8.6 32 0.0 0.0 1015.0 4.7 24.8 24.8 0.0
03/02/18 14:52 25.1 42 11.3 2.2 8.6 49 0.0 0.0 1015.0 0.0 25.1 25.1 0.0
03/02/18 14:53 25.4 42 11.6 0.0 8.6 96 0.0 0.0 1014.0 3.6 25.4 25.4 0.0
03/02/18 14:54 25.6 42 11.7 1.8 8.6 144 0.0 0.0 1014.0 3.2 25.6 25.6 0.0
03/02/18 14:55 25.7 42 11.8 2.2 8.6 130 0.0 0.0 1014.0 5.0 25.6 25.7 0.0
03/02/18 14:56 25.9 42 12.0 4.0 8.6 117 0.0 0.0 1014.0 2.5 25.9 25.9 0.0
03/02/18 14:57 26.1 42 12.2 3.2 8.6 118 0.0 0.0 1014.0 4.7 26.1 26.1 0.0
03/02/18 14:58 25.8 42 11.9 4.3 6.1 154 0.0 0.0 1014.0 2.5 25.8 25.8 0.0
03/02/18 14:59 25.7 42 11.8 2.5 6.1 169 0.0 0.0 1014.0 3.2 25.7 25.7 0.0
03/02/18 15:00 25.3 41 11.1 2.2 6.1 157 0.0 0.0 1014.0 4.3 25.3 25.3 0.0
03/02/18 15:02 25.3 42 11.5 1.8 5.0 118 0.0 0.0 1014.0 3.6 25.3 25.3 0.0
03/02/18 15:03 25.3 42 11.5 1.8 5.0 108 0.0 0.0 1014.0 0.0 25.3 25.3 0.0
03/02/18 15:04 25.5 42 11.6 1.8 5.0 110 0.0 0.0 1014.0 0.0 25.3 25.5 0.0
03/02/18 15:05 25.5 42 11.6 3.6 5.4 95 0.0 0.0 1014.0 5.4 25.5 25.5 0.0
03/02/18 15:06 25.5 42 11.6 2.5 5.4 87 0.0 0.0 1014.0 3.6 25.5 25.5 0.0
03/02/18 15:07 25.6 42 11.7 3.2 5.4 75 0.0 0.0 1014.0 4.3 25.5 25.6 0.0
03/02/18 15:08 25.7 42 11.8 3.2 5.4 66 0.0 0.0 1014.0 4.3 25.6 25.7 0.0
03/02/18 15:09 25.7 42 11.8 3.6 5.4 70 0.0 0.0 1014.0 5.0 25.7 25.7 0.0
03/02/18 15:10 25.9 41 11.6 3.6 5.4 77 0.0 0.0 1014.0 4.0 25.9 25.9 0.0
03/02/18 15:11 25.9 41 11.6 3.6 5.4 74 0.0 0.0 1014.0 2.2 25.9 25.9 0.0
03/02/18 15:12 25.9 41 11.6 1.8 5.4 76 0.0 0.0 1014.0 2.5 25.9 25.9 0.0
03/02/18 15:13 26.5 41 12.2 2.5 5.4 89 0.0 0.0 1014.0 4.3 26.5 26.5 0.0
03/02/18 15:14 26.7 41 12.4 3.2 5.8 107 0.0 0.0 1014.0 5.8 26.7 26.7 0.0
03/02/18 15:15 26.4 40 11.7 5.4 8.6 110 0.0 0.0 1014.0 7.9 26.7 26.4 0.0
03/02/18 15:16 26.0 41 11.7 5.8 8.6 105 0.0 0.0 1014.0 5.4 26.0 26.0 0.0
03/02/18 15:17 25.6 41 11.4 5.8 8.6 104 0.0 0.0 1014.0 5.4 26.0 25.6 0.0
03/02/18 15:18 25.2 41 11.0 4.0 8.6 104 0.0 0.0 1014.0 2.5 25.2 25.2 0.0
03/02/18 15:19 25.1 41 10.9 2.2 8.6 98 0.0 0.0 1014.0 4.3 25.1 25.1 0.0
03/02/18 15:20 25.2 41 11.0 3.2 8.6 89 0.0 0.0 1014.0 1.4 25.2 25.2 0.0
03/02/18 15:21 25.1 41 10.9 2.5 8.6 83 0.0 0.0 1014.0 4.3 25.1 25.1 0.0
03/02/18 15:22 24.7 41 10.6 5.0 8.6 92 0.0 0.0 1014.0 4.3 24.9 24.7 0.0
03/02/18 15:23 24.4 41 10.3 4.7 8.6 90 0.0 0.0 1014.0 3.2 24.4 24.4 0.0
03/02/18 15:24 24.3 41 10.2 2.5 8.6 85 0.0 0.0 1014.0 0.0 24.3 24.3 0.0
03/02/18 15:25 24.3 41 10.2 1.8 7.9 75 0.0 0.0 1014.0 3.2 24.3 24.3 0.0
03/02/18 15:26 24.3 42 10.6 1.8 5.4 75 0.0 0.0 1014.0 1.8 24.3 24.3 0.0
03/02/18 15:27 24.4 42 10.7 1.8 5.4 80 0.0 0.0 1014.0 1.8 24.3 24.4 0.0
03/02/18 15:28 24.3 42 10.6 1.8 5.4 85 0.0 0.0 1014.0 1.8 24.4 24.3 0.0
03/02/18 15:29 24.3 42 10.6 0.0 5.4 98 0.0 0.0 1014.0 0.0 24.3 24.3 0.0
03/02/18 15:30 24.0 42 10.3 1.8 5.4 110 0.0 0.0 1014.0 4.0 24.2 24.0 0.0
03/02/18 15:31 23.7 43 10.4 1.8 5.4 120 0.0 0.0 1014.0 4.0 24.0 23.7 0.0
03/02/18 15:32 23.6 43 10.3 3.6 4.7 141 0.0 0.0 1014.0 3.6 23.7 23.6 0.0
03/02/18 15:33 23.4 44 10.4 3.6 4.7 164 0.0 0.0 1014.0 3.6 23.6 23.4 0.0
03/02/18 15:34 23.3 44 10.4 2.2 4.7 184 0.0 0.0 1014.0 2.2 23.3 23.3 0.0
03/02/18 15:35 23.2 44 10.3 2.2 4.7 185 0.0 0.0 1014.0 2.2 23.3 23.2 0.0
03/02/18 15:36 23.0 44 10.1 1.8 4.7 189 0.0 0.0 1014.0 1.8 23.0 23.0 0.0
03/02/18 15:37 22.7 45 10.2 1.8 4.7 196 0.0 0.0 1014.0 2.5 22.9 22.7 0.0
03/02/18 15:38 22.5 46 10.3 1.8 4.7 201 0.0 0.0 1015.0 2.5 22.7 22.5 0.0
03/02/18 15:39 22.1 46 9.9 1.8 4.7 211 0.0 0.0 1015.0 2.5 22.5 22.1 0.0
03/02/18 15:40 22.1 46 9.9 6.1 4.7 192 0.0 0.0 1015.0 4.3 22.1 22.1 0.0
03/02/18 15:41 21.9 47 10.1 6.1 4.7 208 0.0 0.0 1015.0 4.3 22.1 21.9 0.0
03/02/18 15:42 21.7 47 9.9 6.5 5.4 229 0.0 0.0 1015.0 5.4 21.7 21.7 0.0
03/02/18 15:43 21.9 47 10.1 3.2 6.1 223 0.0 0.0 1015.0 6.1 21.9 21.9 0.0
03/02/18 15:44 22.1 47 10.3 3.2 6.1 224 0.0 0.0 1015.0 4.7 21.9 22.1 0.0
03/02/18 15:45 22.6 48 11.0 5.0 6.5 197 0.0 0.0 1015.0 6.5 22.4 22.6 0.0
03/02/18 15:46 22.8 48 11.2 5.0 6.5 188 0.0 0.0 1015.0 6.5 22.6 22.8 0.0
03/02/18 15:47 23.0 48 11.4 5.0 6.5 177 0.0 0.0 1015.0 6.5 22.8 23.0 0.0
03/02/18 15:48 23.3 48 11.7 2.5 6.5 172 0.0 0.0 1015.0 1.4 23.3 23.3 0.0
03/02/18 15:49 23.5 48 11.9 2.5 6.5 171 0.0 0.0 1015.0 1.4 23.3 23.5 0.0
03/02/18 15:50 23.8 49 12.4 2.5 6.5 169 0.0 0.0 1015.0 1.4 23.5 23.8 0.0
03/02/18 15:51 23.9 48 12.2 2.5 6.5 165 0.0 0.0 1015.0 1.4 23.8 23.9 0.0
03/02/18 15:52 24.1 48 12.4 2.5 6.5 149 0.0 0.0 1015.0 1.4 24.0 24.1 0.0
03/02/18 15:53 24.2 47 12.2 2.5 6.5 141 0.0 0.0 1015.0 1.4 24.1 24.2 0.0
03/02/18 15:54 24.3 48 12.6 2.5 6.5 123 0.0 0.0 1015.0 1.4 24.2 24.3 0.0
03/02/18 15:55 24.4 48 12.7 4.0 6.5 120 0.0 0.0 1015.0 4.7 24.3 24.4 0.0
03/02/18 15:56 24.3 47 12.3 4.0 6.5 125 0.0 0.0 1015.0 4.7 24.4 24.3 0.0
03/02/18 15:57 24.4 48 12.7 4.0 6.5 235 0.0 0.0 1015.0 4.7 24.3 24.4 0.0
03/02/18 15:58 24.1 48 12.4 4.0 6.5 288 0.0 0.0 1015.0 4.7 24.4 24.1 0.0
03/02/18 15:59 24.5 48 12.8 4.0 4.7 288 0.0 0.0 1015.0 4.7 24.1 24.5 0.0
03/02/18 16:02 24.3 47 12.3 4.0 4.7 221 0.0 0.0 1015.0 4.7 0.0 24.3 0.0
03/02/18 16:03 24.3 47 12.3 4.3 6.5 214 0.0 0.0 1015.0 6.5 24.3 24.3 0.0
03/02/18 16:04 24.4 46 12.0 4.3 6.5 195 0.0 0.0 1015.0 6.5 24.3 24.4 0.0
03/02/18 16:05 24.6 47 12.5 4.3 6.5 182 0.0 0.0 1015.0 6.5 24.4 24.6 0.0
03/02/18 16:06 24.7 47 12.6 4.3 6.5 179 0.0 0.0 1015.0 6.5 24.6 24.7 0.0
03/02/18 16:07 24.7 46 12.3 4.3 6.5 168 0.0 0.0 1015.0 6.5 24.8 24.7 0.0
03/02/18 16:08 24.8 46 12.4 4.3 6.5 154 0.0 0.0 1015.0 6.5 24.7 24.8 0.0
03/02/18 16:09 25.0 46 12.6 4.3 6.5 147 0.0 0.0 1015.0 6.5 24.8 25.0 0.0
03/02/18 16:10 24.9 46 12.5 5.4 6.5 140 0.0 0.0 1015.0 1.4 24.9 24.9 0.0
03/02/18 16:11 24.9 46 12.5 3.2 6.5 137 0.0 0.0 1015.0 3.2 24.9 24.9 0.0
03/02/18 16:12 25.1 45 12.3 3.2 6.5 144 0.0 0.0 1015.0 3.6 24.9 25.1 0.0
03/02/18 16:13 25.4 45 12.6 1.4 6.5 143 0.0 0.0 1015.0 0.0 25.4 25.4 0.0
03/02/18 16:14 25.6 44 12.4 4.3 6.5 145 0.0 0.0 1015.0 5.8 25.6 25.6 0.0
03/02/18 16:15 25.5 44 12.3 4.0 6.5 146 0.0 0.0 1015.0 3.2 25.6 25.5 0.0
03/02/18 16:16 25.3 43 11.8 2.5 6.5 145 0.0 0.0 1015.0 5.0 25.3 25.3 0.0
03/02/18 16:17 25.4 44 12.3 4.7 6.5 152 0.0 0.0 1015.0 2.5 25.4 25.4 0.0
03/02/18 16:18 25.5 44 12.3 2.2 7.6 157 0.0 0.0 1015.0 7.6 25.5 25.5 0.0
03/02/18 16:19 25.3 44 12.2 3.6 7.6 163 0.0 0.0 1015.0 4.0 25.3 25.3 0.0
03/02/18 16:20 25.6 44 12.4 3.2 7.6 174 0.0 0.0 1015.0 3.6 25.6 25.6 0.0
03/02/18 16:21 25.8 44 12.6 3.6 7.6 179 0.0 0.0 1015.0 5.4 25.8 25.8 0.0
03/02/18 16:22 25.7 43 12.2 5.4 7.6 167 0.0 0.0 1015.0 3.6 25.7 25.7 0.0
03/02/18 16:23 25.6 44 12.4 2.5 7.6 159 0.0 0.0 1015.0 3.2 25.6 25.6 0.0
03/02/18 16:24 25.7 43 12.2 2.5 7.6 161 0.0 0.0 1015.0 1.4 25.7 25.7 0.0
03/02/18 16:25 25.8 44 12.6 2.2 7.6 159 0.0 0.0 1015.0 4.3 25.8 25.8 0.0
03/02/18 16:26 25.6 43 12.1 4.7 9.4 162 0.0 0.0 1015.0 4.7 25.6 25.6 0.0
03/02/18 16:27 25.6 43 12.1 4.7 9.4 134 0.0 0.0 1015.0 2.5 25.6 25.6 0.0
03/02/18 16:28 25.0 42 11.2 3.2 9.4 105 0.0 0.0 1015.0 4.7 25.0 25.0 0.0
03/02/18 16:29 24.9 43 11.5 2.5 9.4 103 0.0 0.0 1015.0 2.2 24.9 24.9 0.0
03/02/18 16:30 24.9 43 11.5 3.6 9.4 100 0.0 0.0 1015.0 4.3 24.9 24.9 0.0
03/02/18 16:31 24.9 43 11.5 4.7 9.4 119 0.0 0.0 1015.0 4.7 24.9 24.9 0.0
03/02/18 16:32 24.8 43 11.4 3.6 9.4 128 0.0 0.0 1015.0 4.3 24.8 24.8 0.0
03/02/18 16:33 24.5 43 11.1 3.2 9.4 166 0.0 0.0 1015.0 2.2 24.5 24.5 0.0
03/02/18 16:34 24.5 42 10.7 3.6 9.4 186 0.0 0.0 1015.0 4.0 24.5 24.5 0.0
03/02/18 16:35 24.5 42 10.7 4.0 10.1 192 0.0 0.0 1015.0 6.5 24.5 24.5 0.0
03/02/18 16:36 24.1 42 10.4 6.5 10.4 187 0.0 0.0 1015.0 5.8 24.1 24.1 0.0
03/02/18 16:37 23.9 43 10.6 4.7 10.4 194 0.0 0.0 1015.0 10.1 23.9 23.9 0.0
03/02/18 16:38 23.7 43 10.4 6.8 10.4 183 0.0 0.0 1015.0 4.0 23.8 23.7 0.0
03/02/18 16:39 23.7 43 10.4 4.3 10.4 188 0.0 0.0 1015.0 5.0 23.7 23.7 0.0
03/02/18 16:40 23.8 43 10.5 4.3 10.4 190 0.0 0.0 1015.0 3.6 23.8 23.8 0.0
03/02/18 16:41 23.7 43 10.4 5.0 10.4 178 0.0 0.0 1015.0 3.2 23.7 23.7 0.0
03/02/18 16:42 23.6 43 10.3 4.7 11.2 166 0.0 0.0 1015.0 2.5 23.6 23.6 0.0
03/02/18 16:43 23.5 43 10.2 4.7 11.2 156 0.0 0.0 1015.0 1.4 23.5 23.5 0.0
03/02/18 16:44 23.5 43 10.2 1.8 11.2 141 0.0 0.0 1015.0 3.2 23.5 23.5 0.0
03/02/18 16:45 23.4 43 10.1 4.0 11.2 129 0.0 0.0 1015.0 2.5 23.6 23.4 0.0
03/02/18 16:46 23.1 43 9.8 4.3 11.2 130 0.0 0.0 1015.0 2.2 23.4 23.1 0.0
03/02/18 16:47 22.9 44 10.0 4.7 11.2 122 0.0 0.0 1015.0 4.7 22.9 22.9 0.0
03/02/18 16:48 22.8 44 9.9 4.7 11.2 117 0.0 0.0 1015.0 4.7 22.9 22.8 0.0
03/02/18 16:49 22.8 44 9.9 4.7 11.2 107 0.0 0.0 1015.0 4.7 22.8 22.8 0.0
03/02/18 16:50 22.7 44 9.8 3.2 11.2 122 0.0 0.0 1015.0 2.5 22.7 22.7 0.0
03/02/18 16:51 22.6 44 9.7 3.2 11.2 120 0.0 0.0 1015.0 2.5 22.7 22.6 0.0
03/02/18 16:52 22.6 45 10.1 3.2 11.2 113 0.0 0.0 1015.0 2.5 22.6 22.6 0.0
03/02/18 16:53 22.2 45 9.7 3.6 8.6 95 0.0 0.0 1016.0 4.7 22.3 22.2 0.0
03/02/18 16:54 22.1 45 9.6 3.6 8.6 124 0.0 0.0 1016.0 2.2 22.2 22.1 0.0
03/02/18 16:55 22.1 45 9.6 2.2 6.1 166 0.0 0.0 1016.0 0.0 22.1 22.1 0.0
03/02/18 16:56 22.2 45 9.7 0.0 6.1 170 0.0 0.0 1016.0 3.6 22.2 22.2 0.0
03/02/18 16:57 22.3 46 10.1 2.2 4.7 199 0.0 0.0 1016.0 2.5 22.3 22.3 0.0
03/02/18 16:58 22.5 46 10.3 1.4 5.0 206 0.0 0.0 1016.0 4.0 22.5 22.5 0.0
03/02/18 17:02 22.7 47 10.8 3.6 4.7 145 0.0 0.0 1016.0 1.8 0.0 22.7 0.0
03/02/18 17:03 22.7 47 10.8 2.2 4.7 157 0.0 0.0 1016.0 1.8 22.7 22.7 0.0
03/02/18 17:04 22.7 47 10.8 0.0 6.5 143 0.0 0.0 1016.0 6.5 22.7 22.7 0.0
03/02/18 17:05 22.7 47 10.8 0.0 6.5 109 0.0 0.0 1016.0 2.2 22.7 22.7 0.0
03/02/18 17:06 22.6 47 10.7 0.0 6.5 94 0.0 0.0 1016.0 2.2 22.7 22.6 0.0
03/02/18 17:07 22.5 47 10.6 0.0 6.5 62 0.0 0.0 1016.0 2.2 22.6 22.5 0.0
03/02/18 17:08 22.4 47 10.5 0.0 6.5 52 0.0 0.0 1016.0 2.2 22.4 22.4 0.0
03/02/18 17:09 22.3 48 10.8 4.3 6.5 34 0.0 0.0 1016.0 5.4 22.3 22.3 0.0
03/02/18 17:10 22.2 47 10.3 5.4 6.5 1 0.0 0.0 1016.0 5.4 22.3 22.2 0.0
03/02/18 17:11 22.0 48 10.5 5.4 6.5 346 0.0 0.0 1016.0 5.4 22.2 22.0 0.0
03/02/18 17:12 21.9 48 10.4 5.4 6.5 333 0.0 0.0 1016.0 5.4 22.0 21.9 0.0
03/02/18 17:13 21.8 49 10.6 5.4 6.5 326 0.0 0.0 1016.0 5.4 21.9 21.8 0.0
03/02/18 17:14 21.7 49 10.5 5.4 6.5 323 0.0 0.0 1016.0 5.4 21.8 21.7 0.0
03/02/18 17:15 21.1 50 10.3 5.4 5.4 302 0.0 0.0 1016.0 5.4 21.6 21.1 0.0
03/02/18 17:16 21.1 50 10.3 4.0 5.4 299 0.0 0.0 1016.0 4.0 21.1 21.1 0.0
03/02/18 17:17 20.9 50 10.1 4.0 5.4 298 0.0 0.0 1016.0 4.0 21.1 20.9 0.0
03/02/18 17:18 20.7 50 9.9 4.0 5.4 297 0.0 0.0 1016.0 4.0 20.9 20.7 0.0
03/02/18 17:19 20.4 50 9.6 4.0 5.4 297 0.0 0.0 1016.0 4.0 20.7 20.4 0.0
03/02/18 17:20 20.3 51 9.8 4.0 5.4 298 0.0 0.0 1016.0 4.0 20.4 20.3 0.0
03/02/18 17:21 20.3 51 9.8 2.5 5.4 297 0.0 0.0 1016.0 1.4 20.3 20.3 0.0
03/02/18 17:22 20.0 51 9.6 2.5 5.4 295 0.0 0.0 1016.0 1.4 20.3 20.0 0.0
03/02/18 17:23 19.8 53 9.9 2.5 5.4 297 0.0 0.0 1017.0 2.5 19.9 19.8 0.0
03/02/18 17:24 19.7 54 10.1 3.2 5.4 292 0.0 0.0 1017.0 2.2 19.8 19.7 0.0
03/02/18 17:25 19.6 53 9.8 3.2 5.4 290 0.0 0.0 1017.0 2.2 19.7 19.6 0.0
03/02/18 17:26 19.5 54 9.9 4.0 5.4 275 0.0 0.0 1017.0 4.7 19.5 19.5 0.0
03/02/18 17:27 19.4 55 10.1 1.8 4.7 251 0.0 0.0 1017.0 1.8 19.4 19.4 0.0
03/02/18 17:28 19.4 55 10.1 2.2 4.7 258 0.0 0.0 1017.0 1.8 19.4 19.4 0.0
03/02/18 17:29 19.2 56 10.2 2.2 4.7 250 0.0 0.0 1017.0 1.8 19.4 19.2 0.0
03/02/18 17:30 19.1 56 10.1 1.4 4.7 217 0.0 0.0 1017.0 2.2 19.1 19.1 0.0
03/02/18 17:31 19.0 57 10.3 1.4 4.7 307 0.0 0.0 1017.0 2.2 19.1 19.0 0.0
03/02/18 17:32 18.9 58 10.5 1.4 4.7 8 0.0 0.0 1017.0 2.2 19.0 18.9 0.0
03/02/18 17:33 18.9 57 10.2 1.4 4.7 17 0.0 0.0 1017.0 2.2 18.9 18.9 0.0
03/02/18 17:34 18.8 57 10.1 1.4 4.7 47 0.0 0.0 1017.0 2.2 18.9 18.8 0.0
03/02/18 17:35 18.7 58 10.3 1.4 4.7 27 0.0 0.0 1017.0 2.2 18.8 18.7 0.0
03/02/18 17:36 18.6 57 9.9 3.2 4.7 15 0.0 0.0 1017.0 2.5 18.6 18.6 0.0
03/02/18 17:37 18.5 58 10.1 3.2 2.5 21 0.0 0.0 1017.0 2.5 18.6 18.5 0.0
03/02/18 17:38 18.3 58 9.9 3.2 2.5 24 0.0 0.0 1018.0 2.5 18.4 18.3 0.0
03/02/18 17:39 18.3 58 9.9 1.8 3.2 34 0.0 0.0 1018.0 3.2 18.3 18.3 0.0
03/02/18 17:40 18.1 60 10.2 1.8 3.2 45 0.0 0.0 1018.0 3.2 18.3 18.1 0.0
03/02/18 17:41 18.0 61 10.4 2.2 3.2 54 0.0 0.0 1018.0 2.5 18.0 18.0 0.0
03/02/18 17:42 17.9 61 10.3 2.2 3.2 54 0.0 0.0 1018.0 2.5 18.0 17.9 0.0
03/02/18 17:43 17.9 61 10.3 2.2 3.2 54 0.0 0.0 1018.0 2.5 17.9 17.9 0.0
03/02/18 17:44 17.9 61 10.3 2.5 3.2 47 0.0 0.0 1018.0 1.8 17.9 17.9 0.0
03/02/18 17:45 17.8 62 10.4 2.5 3.2 47 0.0 0.0 1018.0 1.8 17.9 17.8 0.0
03/02/18 17:46 17.6 62 10.2 2.5 3.2 55 0.0 0.0 1018.0 1.8 17.7 17.6 0.0
03/02/18 17:47 17.6 62 10.2 2.5 4.7 16 0.0 0.0 1018.0 4.7 17.6 17.6 0.0
03/02/18 17:48 17.5 63 10.4 2.5 4.7 358 0.0 0.0 1018.0 4.7 17.6 17.5 0.0
03/02/18 17:49 17.5 63 10.4 2.5 4.7 358 0.0 0.0 1018.0 4.7 17.6 17.5 0.0
03/02/18 17:50 17.4 63 10.3 2.5 4.7 349 0.0 0.0 1018.0 4.7 17.5 17.4 0.0
03/02/18 17:51 17.4 63 10.3 2.2 4.7 351 0.0 0.0 1018.0 1.4 17.4 17.4 0.0
03/02/18 17:52 17.4 64 10.5 2.2 4.7 349 0.0 0.0 1018.0 1.4 17.4 17.4 0.0
03/02/18 17:53 17.3 64 10.4 2.2 4.7 341 0.0 0.0 1017.0 1.4 17.4 17.3 0.0
03/02/18 17:54 17.3 66 10.9 2.2 4.7 338 0.0 0.0 1017.0 1.4 17.3 17.3 0.0
03/02/18 17:55 17.2 65 10.6 2.2 4.7 336 0.0 0.0 1017.0 1.4 17.3 17.2 0.0
03/02/18 17:56 17.2 66 10.8 2.2 4.7 334 0.0 0.0 1017.0 1.4 17.2 17.2 0.0
03/02/18 17:57 17.2 66 10.8 3.6 4.7 314 0.0 0.0 1017.0 2.5 17.2 17.2 0.0
03/02/18 17:58 17.1 67 10.9 3.2 4.7 304 0.0 0.0 1017.0 2.2 17.1 17.1 0.0
03/02/18 17:59 17.0 67 10.8 3.2 4.7 299 0.0 0.0 1017.0 2.2 17.1 17.0 0.0
03/02/18 18:00 17.0 67 10.8 3.2 4.7 293 0.0 0.0 1017.0 2.2 17.0 17.0 0.0
03/02/18 18:02 16.8 70 11.3 2.5 4.3 305 0.0 0.0 1017.0 4.3 0.0 16.8 0.0
03/02/18 18:03 16.8 70 11.3 2.5 4.3 278 0.0 0.0 1017.0 4.3 16.8 16.8 0.0
03/02/18 18:04 16.8 70 11.3 0.0 4.3 246 0.0 0.0 1017.0 0.0 16.8 16.8 0.0
03/02/18 18:05 16.8 70 11.3 0.0 4.3 238 0.0 0.0 1017.0 0.0 16.8 16.8 0.0
03/02/18 18:06 16.8 70 11.3 1.4 4.3 222 0.0 0.0 1017.0 4.0 16.8 16.8 0.0
03/02/18 18:07 16.8 70 11.3 2.2 4.3 196 0.0 0.0 1017.0 1.4 16.8 16.8 0.0
03/02/18 18:08 16.7 71 11.4 2.2 4.3 187 0.0 0.0 1017.0 1.4 16.8 16.7 0.0
03/02/18 18:09 16.7 70 11.2 2.2 4.3 176 0.0 0.0 1017.0 1.4 16.7 16.7 0.0
03/02/18 18:10 16.6 70 11.1 2.2 4.3 170 0.0 0.0 1017.0 1.4 16.7 16.6 0.0
03/02/18 18:11 16.6 71 11.3 3.2 4.3 165 0.0 0.0 1017.0 0.0 16.6 16.6 0.0
03/02/18 18:12 16.6 72 11.5 0.0 4.3 165 0.0 0.0 1017.0 0.0 16.6 16.6 0.0
03/02/18 18:13 16.6 72 11.5 0.0 4.3 163 0.0 0.0 1017.0 0.0 16.6 16.6 0.0
03/02/18 18:14 16.6 72 11.5 0.0 4.3 160 0.0 0.0 1017.0 0.0 16.6 16.6 0.0
03/02/18 18:15 16.6 72 11.5 0.0 4.0 155 0.0 0.0 1017.0 0.0 16.6 16.6 0.0
03/02/18 18:16 16.6 71 11.3 0.0 2.2 135 0.0 0.0 1017.0 0.0 16.6 16.6 0.0
03/02/18 18:17 16.5 72 11.4 5.0 2.5 179 0.0 0.0 1017.0 2.5 16.6 16.5 0.0
03/02/18 18:18 16.5 72 11.4 5.0 2.5 221 0.0 0.0 1017.0 2.5 16.5 16.5 0.0
03/02/18 18:19 16.5 72 11.4 5.0 2.5 247 0.0 0.0 1017.0 2.5 16.5 16.5 0.0
03/02/18 18:20 16.4 72 11.3 5.0 2.5 260 0.0 0.0 1017.0 2.5 16.5 16.4 0.0
03/02/18 18:21 16.3 72 11.2 5.0 2.5 266 0.0 0.0 1017.0 2.5 16.4 16.3 0.0
03/02/18 18:22 16.3 72 11.2 5.0 2.5 270 0.0 0.0 1017.0 2.5 16.3 16.3 0.0
03/02/18 18:23 16.3 73 11.4 5.0 2.5 270 0.0 0.0 1016.0 2.5 16.3 16.3 0.0
03/02/18 18:24 16.3 72 11.2 2.2 2.5 280 0.0 0.0 1016.0 2.5 16.4 16.3 0.0
03/02/18 18:25 16.3 72 11.2 2.2 2.5 287 0.0 0.0 1016.0 2.5 16.3 16.3 0.0
03/02/18 18:26 16.3 72 11.2 2.2 2.5 294 0.0 0.0 1016.0 2.5 16.3 16.3 0.0
03/02/18 18:27 16.3 72 11.2 2.2 2.5 302 0.0 0.0 1016.0 2.5 16.3 16.3 0.0
03/02/18 18:28 16.3 72 11.2 2.2 2.5 326 0.0 0.0 1016.0 2.5 16.3 16.3 0.0
03/02/18 18:29 16.3 72 11.2 2.2 2.5 348 0.0 0.0 1016.0 2.5 16.3 16.3 0.0
03/02/18 18:30 16.4 73 11.5 2.2 2.5 7 0.0 0.0 1016.0 2.5 16.3 16.4 0.0
03/02/18 18:31 16.3 73 11.4 2.2 2.5 30 0.0 0.0 1016.0 2.5 16.3 16.3 0.0
03/02/18 18:32 16.3 73 11.4 2.2 2.5 37 0.0 0.0 1016.0 2.5 16.3 16.3 0.0
03/02/18 18:33 16.3 73 11.4 2.2 2.5 42 0.0 0.0 1016.0 2.5 16.3 16.3 0.0
03/02/18 18:34 16.3 74 11.7 2.2 2.5 45 0.0 0.0 1016.0 2.5 16.3 16.3 0.0
03/02/18 18:35 16.2 74 11.6 2.2 2.5 45 0.0 0.0 1016.0 2.5 16.3 16.2 0.0
03/02/18 18:36 16.2 75 11.8 2.2 2.5 45 0.0 0.0 1016.0 2.5 16.2 16.2 0.0
03/02/18 18:37 16.3 75 11.9 2.2 2.5 45 0.0 0.0 1016.0 2.5 16.2 16.3 0.0
03/02/18 18:38 16.3 75 11.9 2.2 2.5 45 0.0 0.0 1017.0 2.5 16.3 16.3 0.0
03/02/18 18:39 16.3 74 11.7 2.2 2.5 45 0.0 0.0 1017.0 2.5 16.3 16.3 0.0
03/02/18 18:40 16.3 74 11.7 2.2 2.5 45 0.0 0.0 1017.0 2.5 16.3 16.3 0.0
03/02/18 18:41 16.3 74 11.7 2.2 2.5 45 0.0 0.0 1017.0 2.5 16.3 16.3 0.0
03/02/18 18:42 16.3 74 11.7 2.2 2.5 45 0.0 0.0 1017.0 2.5 16.3 16.3 0.0
03/02/18 18:43 16.3 75 11.9 2.2 2.5 45 0.0 0.0 1017.0 2.5 16.3 16.3 0.0
03/02/18 18:44 16.3 75 11.9 2.2 2.5 45 0.0 0.0 1017.0 2.5 16.3 16.3 0.0
03/02/18 18:45 16.3 75 11.9 2.2 2.5 45 0.0 0.0 1017.0 2.5 16.3 16.3 0.0
03/02/18 18:46 16.3 75 11.9 2.2 2.5 45 0.0 0.0 1017.0 2.5 16.3 16.3 0.0
03/02/18 18:47 16.3 74 11.7 2.2 2.5 45 0.0 0.0 1017.0 2.5 16.3 16.3 0.0
03/02/18 18:48 16.3 75 11.9 2.2 2.5 45 0.0 0.0 1017.0 2.5 16.3 16.3 0.0
03/02/18 18:49 16.3 75 11.9 2.2 2.5 45 0.0 0.0 1017.0 2.5 16.3 16.3 0.0
03/02/18 18:50 16.4 74 11.8 2.2 2.5 45 0.0 0.0 1017.0 2.5 16.3 16.4 0.0
03/02/18 18:51 16.4 74 11.8 2.2 2.5 45 0.0 0.0 1017.0 2.5 16.3 16.4 0.0
03/02/18 18:52 16.4 75 12.0 2.2 2.5 45 0.0 0.0 1017.0 2.5 16.3 16.4 0.0
03/02/18 18:53 16.3 75 11.9 2.2 2.5 45 0.0 0.0 1017.0 2.5 16.3 16.3 0.0
03/02/18 18:54 16.3 75 11.9 2.2 2.5 45 0.0 0.0 1017.0 2.5 16.3 16.3 0.0
03/02/18 18:55 16.2 75 11.8 2.2 2.5 45 0.0 0.0 1017.0 2.5 16.3 16.2 0.0
03/02/18 18:56 16.2 75 11.8 2.2 2.5 45 0.0 0.0 1017.0 2.5 16.3 16.2 0.0
03/02/18 18:57 16.2 75 11.8 2.2 2.5 45 0.0 0.0 1017.0 2.5 16.3 16.2 0.0
03/02/18 18:58 16.2 75 11.8 2.2 2.5 45 0.0 0.0 1017.0 2.5 16.3 16.2 0.0
03/02/18 18:59 16.2 75 11.8 2.2 2.5 45 0.0 0.0 1017.0 2.5 16.3 16.2 0.0
03/02/18 19:00 16.2 75 11.8 2.2 2.5 45 0.0 0.0 1017.0 2.5 16.3 16.2 0.0
03/02/18 19:02 16.1 75 11.7 0.0 0.0 0 0.0 0.0 1017.0 0.0 0.0 16.1 0.0
03/02/18 19:03 16.1 75 11.7 0.0 0.0 0 0.0 0.0 1017.0 0.0 0.0 16.1 0.0
03/02/18 19:04 16.1 75 11.7 0.0 0.0 0 0.0 0.0 1017.0 0.0 0.0 16.1 0.0
03/02/18 19:05 16.1 75 11.7 0.0 0.0 0 0.0 0.0 1017.0 0.0 0.0 16.1 0.0
03/02/18 19:06 16.1 75 11.7 0.0 0.0 0 0.0 0.0 1017.0 0.0 0.0 16.1 0.0
03/02/18 19:07 16.1 75 11.7 0.0 0.0 0 0.0 0.0 1017.0 0.0 0.0 16.1 0.0
03/02/18 19:08 16.0 75 11.6 0.0 0.0 0 0.0 0.0 1017.0 0.0 0.0 16.0 0.0
03/02/18 19:09 16.0 75 11.6 0.0 0.0 0 0.0 0.0 1017.0 0.0 0.0 16.0 0.0
03/02/18 19:10 15.9 76 11.7 0.0 0.0 0 0.0 0.0 1017.0 0.0 0.0 15.9 0.0
03/02/18 19:11 15.9 77 11.9 0.0 0.0 0 0.0 0.0 1017.0 0.0 0.0 15.9 0.0
03/02/18 19:12 15.9 76 11.7 0.0 0.0 0 0.0 0.0 1017.0 0.0 0.0 15.9 0.0
03/02/18 19:13 15.9 76 11.7 0.0 0.0 0 0.0 0.0 1017.0 0.0 0.0 15.9 0.0
03/02/18 19:14 15.8 76 11.6 0.0 0.0 0 0.0 0.0 1017.0 0.0 0.0 15.8 0.0
03/02/18 19:15 15.8 76 11.6 0.0 0.0 0 0.0 0.0 1017.0 0.0 0.0 15.8 0.0
03/02/18 19:16 15.8 77 11.8 0.0 0.0 0 0.0 0.0 1017.0 0.0 0.0 15.8 0.0
03/02/18 19:17 15.7 78 11.9 0.0 0.0 0 0.0 0.0 1017.0 0.0 0.0 15.7 0.0
03/02/18 19:18 15.6 78 11.8 0.0 0.0 0 0.0 0.0 1017.0 0.0 0.0 15.6 0.0
03/02/18 19:19 15.6 77 11.6 0.0 0.0 0 0.0 0.0 1017.0 0.0 0.0 15.6 0.0
03/02/18 19:20 15.6 77 11.6 0.0 0.0 0 0.0 0.0 1017.0 0.0 0.0 15.6 0.0
03/02/18 19:21 15.6 77 11.6 0.0 0.0 0 0.0 0.0 1017.0 0.0 0.0 15.6 0.0
03/02/18 19:22 15.6 77 11.6 0.0 0.0 0 0.0 0.0 1017.0 0.0 0.0 15.6 0.0
03/02/18 19:23 15.5 78 11.7 0.0 0.0 0 0.0 0.0 1017.0 0.0 0.0 15.5 0.0
03/02/18 19:24 15.5 78 11.7 0.0 0.0 0 0.0 0.0 1017.0 0.0 0.0 15.5 0.0
03/02/18 19:25 15.4 78 11.6 0.0 0.0 0 0.0 0.0 1017.0 0.0 0.0 15.4 0.0
03/02/18 19:26 15.4 79 11.8 0.0 0.0 0 0.0 0.0 1017.0 0.0 0.0 15.4 0.0
03/02/18 19:27 15.4 79 11.8 0.0 0.0 0 0.0 0.0 1017.0 0.0 0.0 15.4 0.0
03/02/18 19:28 15.4 79 11.8 0.0 0.0 0 0.0 0.0 1017.0 0.0 0.0 15.4 0.0
03/02/18 19:29 15.4 78 11.6 0.0 0.0 0 0.0 0.0 1017.0 0.0 0.0 15.4 0.0
03/02/18 19:30 15.4 78 11.6 0.0 0.0 0 0.0 0.0 1017.0 0.0 0.0 15.4 0.0
03/02/18 19:31 15.4 79 11.8 0.0 0.0 0 0.0 0.0 1017.0 0.0 0.0 15.4 0.0
03/02/18 19:32 15.3 79 11.7 0.0 0.0 0 0.0 0.0 1017.0 0.0 0.0 15.3 0.0
03/02/18 19:33 15.3 79 11.7 0.0 0.0 0 0.0 0.0 1017.0 0.0 0.0 15.3 0.0
03/02/18 19:34 15.3 79 11.7 0.0 0.0 0 0.0 0.0 1017.0 0.0 0.0 15.3 0.0
03/02/18 19:35 15.3 79 11.7 0.0 0.0 0 0.0 0.0 1017.0 0.0 0.0 15.3 0.0
03/02/18 19:36 15.3 79 11.7 0.0 0.0 0 0.0 0.0 1017.0 0.0 0.0 15.3 0.0
03/02/18 19:37 15.3 80 11.9 0.0 0.0 0 0.0 0.0 1017.0 0.0 0.0 15.3 0.0
03/02/18 19:38 15.3 80 11.9 0.0 0.0 0 0.0 0.0 1018.0 0.0 0.0 15.3 0.0
03/02/18 19:39 15.2 80 11.8 0.0 0.0 0 0.0 0.0 1018.0 0.0 0.0 15.2 0.0
03/02/18 19:40 15.2 80 11.8 0.0 0.0 0 0.0 0.0 1018.0 0.0 0.0 15.2 0.0
03/02/18 19:41 15.2 81 12.0 0.0 0.0 0 0.0 0.0 1018.0 0.0 0.0 15.2 0.0
03/02/18 19:42 15.1 81 11.9 0.0 0.0 0 0.0 0.0 1018.0 0.0 0.0 15.1 0.0
03/02/18 19:43 15.1 80 11.7 0.0 0.0 0 0.0 0.0 1018.0 0.0 0.0 15.1 0.0
03/02/18 19:44 15.1 81 11.9 0.0 0.0 0 0.0 0.0 1018.0 0.0 0.0 15.1 0.0
03/02/18 19:45 15.0 82 12.0 0.0 0.0 0 0.0 0.0 1018.0 0.0 0.0 15.0 0.0
03/02/18 19:46 14.9 82 11.9 0.0 0.0 0 0.0 0.0 1018.0 0.0 0.0 14.9 0.0
03/02/18 19:47 14.9 82 11.9 0.0 0.0 0 0.0 0.0 1018.0 0.0 0.0 14.9 0.0
03/02/18 19:48 14.8 82 11.8 0.0 0.0 0 0.0 0.0 1018.0 0.0 0.0 14.8 0.0
03/02/18 19:49 14.8 82 11.8 0.0 0.0 0 0.0 0.0 1018.0 0.0 0.0 14.8 0.0
03/02/18 19:50 14.8 82 11.8 0.0 0.0 0 0.0 0.0 1018.0 0.0 0.0 14.8 0.0
03/02/18 19:51 14.7 82 11.7 0.0 0.0 0 0.0 0.0 1018.0 0.0 0.0 14.7 0.0
03/02/18 19:52 14.7 82 11.7 0.0 0.0 0 0.0 0.0 1018.0 0.0 0.0 14.7 0.0
03/02/18 19:53 14.7 83 11.8 0.0 0.0 0 0.0 0.0 1018.0 0.0 0.0 14.7 0.0
03/02/18 19:54 14.6 83 11.7 0.0 0.0 0 0.0 0.0 1018.0 0.0 0.0 14.6 0.0
03/02/18 19:55 14.5 83 11.6 0.0 0.0 0 0.0 0.0 1018.0 0.0 0.0 14.5 0.0
03/02/18 19:56 14.5 83 11.6 0.0 0.0 0 0.0 0.0 1018.0 0.0 0.0 14.5 0.0
03/02/18 19:57 14.5 84 11.8 0.0 0.0 0 0.0 0.0 1018.0 0.0 0.0 14.5 0.0
03/02/18 19:58 14.4 84 11.7 0.0 0.0 0 0.0 0.0 1018.0 0.0 0.0 14.4 0.0
03/02/18 19:59 14.4 84 11.7 0.0 0.0 0 0.0 0.0 1018.0 0.0 0.0 14.4 0.0
03/02/18 20:02 14.3 84 11.6 0.0 0.0 0 0.0 0.0 1018.0 0.0 0.0 14.3 0.0
03/02/18 20:03 14.3 83 11.5 0.0 0.0 0 0.0 0.0 1018.0 0.0 0.0 14.3 0.0
03/02/18 20:04 14.3 83 11.5 0.0 0.0 0 0.0 0.0 1018.0 0.0 0.0 14.3 0.0
03/02/18 20:05 14.2 83 11.4 0.0 0.0 0 0.0 0.0 1018.0 0.0 0.0 14.2 0.0
03/02/18 20:06 14.2 84 11.5 0.0 0.0 0 0.0 0.0 1018.0 0.0 0.0 14.2 0.0
03/02/18 20:07 14.2 84 11.5 0.0 0.0 0 0.0 0.0 1018.0 0.0 0.0 14.2 0.0
03/02/18 20:08 14.2 84 11.5 0.0 0.0 0 0.0 0.0 1018.0 0.0 0.0 14.2 0.0
03/02/18 20:09 14.2 84 11.5 0.0 0.0 0 0.0 0.0 1018.0 0.0 0.0 14.2 0.0
03/02/18 20:10 14.1 84 11.4 0.0 0.0 0 0.0 0.0 1018.0 0.0 0.0 14.1 0.0
03/02/18 20:11 14.1 85 11.6 0.0 0.0 0 0.0 0.0 1018.0 0.0 0.0 14.1 0.0
03/02/18 20:12 14.1 85 11.6 0.0 0.0 0 0.0 0.0 1018.0 0.0 0.0 14.1 0.0
03/02/18 20:13 14.1 85 11.6 0.0 0.0 0 0.0 0.0 1018.0 0.0 0.0 14.1 0.0
03/02/18 20:14 14.1 85 11.6 0.0 0.0 0 0.0 0.0 1018.0 0.0 0.0 14.1 0.0
03/02/18 20:15 14.1 85 11.6 0.0 0.0 0 0.0 0.0 1018.0 0.0 0.0 14.1 0.0
03/02/18 20:16 14.1 85 11.6 0.0 0.0 0 0.0 0.0 1018.0 0.0 0.0 14.1 0.0
03/02/18 20:17 14.1 85 11.6 0.0 0.0 0 0.0 0.0 1018.0 0.0 0.0 14.1 0.0
03/02/18 20:18 14.1 85 11.6 0.0 0.0 0 0.0 0.0 1018.0 0.0 0.0 14.1 0.0
03/02/18 20:19 14.1 85 11.6 0.0 0.0 0 0.0 0.0 1018.0 0.0 0.0 14.1 0.0
03/02/18 20:20 14.1 85 11.6 0.0 0.0 0 0.0 0.0 1018.0 0.0 0.0 14.1 0.0
03/02/18 20:21 14.1 85 11.6 0.0 0.0 0 0.0 0.0 1018.0 0.0 0.0 14.1 0.0
03/02/18 20:22 14.1 86 11.8 0.0 0.0 0 0.0 0.0 1018.0 0.0 0.0 14.1 0.0
03/02/18 20:23 14.1 86 11.8 0.0 0.0 0 0.0 0.0 1018.0 0.0 0.0 14.1 0.0
03/02/18 20:24 14.1 86 11.8 0.0 0.0 0 0.0 0.0 1018.0 0.0 0.0 14.1 0.0
03/02/18 20:25 14.1 86 11.8 0.0 0.0 0 0.0 0.0 1018.0 0.0 0.0 14.1 0.0
03/02/18 20:26 14.1 86 11.8 0.0 0.0 0 0.0 0.0 1018.0 0.0 0.0 14.1 0.0
03/02/18 20:27 14.1 87 12.0 0.0 0.0 0 0.0 0.0 1018.0 0.0 0.0 14.1 0.0
03/02/18 20:28 14.1 87 12.0 0.0 0.0 0 0.0 0.0 1018.0 0.0 0.0 14.1 0.0
03/02/18 20:29 14.1 86 11.8 0.0 0.0 0 0.0 0.0 1018.0 0.0 0.0 14.1 0.0
03/02/18 20:30 14.1 87 12.0 0.0 0.0 0 0.0 0.0 1018.0 0.0 0.0 14.1 0.0
03/02/18 20:31 14.1 86 11.8 0.0 0.0 0 0.0 0.0 1018.0 0.0 0.0 14.1 0.0
03/02/18 20:32 14.1 87 12.0 0.0 0.0 0 0.0 0.0 1018.0 0.0 0.0 14.1 0.0
03/02/18 20:33 14.1 87 12.0 0.0 0.0 0 0.0 0.0 1018.0 0.0 0.0 14.1 0.0
03/02/18 20:34 14.1 87 12.0 0.0 0.0 0 0.0 0.0 1018.0 0.0 0.0 14.1 0.0
03/02/18 20:35 14.1 87 12.0 0.0 0.0 0 0.0 0.0 1018.0 0.0 0.0 14.1 0.0
03/02/18 20:36 14.1 87 12.0 0.0 0.0 0 0.0 0.0 1018.0 0.0 0.0 14.1 0.0
03/02/18 20:37 14.1 87 12.0 0.0 0.0 0 0.0 0.0 1018.0 0.0 0.0 14.1 0.0
03/02/18 20:38 14.1 87 12.0 0.0 0.0 0 0.0 0.0 1018.0 0.0 0.0 14.1 0.0
03/02/18 20:39 14.1 87 12.0 0.0 0.0 0 0.0 0.0 1018.0 0.0 0.0 14.1 0.0
03/02/18 20:40 14.1 87 12.0 0.0 0.0 0 0.0 0.0 1018.0 0.0 0.0 14.1 0.0
03/02/18 20:41 14.1 88 12.1 0.0 0.0 0 0.0 0.0 1018.0 0.0 0.0 14.1 0.0
03/02/18 20:42 14.1 88 12.1 0.0 0.0 0 0.0 0.0 1018.0 0.0 0.0 14.1 0.0
03/02/18 20:43 14.1 88 12.1 0.0 0.0 0 0.0 0.0 1018.0 0.0 0.0 14.1 0.0
03/02/18 20:44 14.1 88 12.1 0.0 0.0 0 0.0 0.0 1018.0 0.0 0.0 14.1 0.0
03/02/18 20:45 14.1 88 12.1 0.0 0.0 0 0.0 0.0 1018.0 0.0 0.0 14.1 0.0
03/02/18 20:46 14.1 88 12.1 0.0 0.0 0 0.0 0.0 1018.0 0.0 0.0 14.1 0.0
03/02/18 20:47 14.0 88 12.0 0.0 0.0 0 0.0 0.0 1018.0 0.0 0.0 14.0 0.0
03/02/18 20:48 14.0 88 12.0 0.0 0.0 0 0.0 0.0 1018.0 0.0 0.0 14.0 0.0
03/02/18 20:49 14.0 88 12.0 0.0 0.0 0 0.0 0.0 1018.0 0.0 0.0 14.0 0.0
03/02/18 20:50 14.0 88 12.0 0.0 0.0 0 0.0 0.0 1018.0 0.0 0.0 14.0 0.0
03/02/18 20:51 14.0 88 12.0 0.0 0.0 0 0.0 0.0 1018.0 0.0 0.0 14.0 0.0
03/02/18 20:52 14.0 88 12.0 0.0 0.0 0 0.0 0.0 1018.0 0.0 0.0 14.0 0.0
03/02/18 20:53 14.0 88 12.0 0.0 0.0 0 0.0 0.0 1019.0 0.0 0.0 14.0 0.0
03/02/18 20:54 14.0 89 12.2 0.0 0.0 0 0.0 0.0 1019.0 0.0 0.0 14.0 0.0
03/02/18 20:55 14.0 89 12.2 0.0 0.0 0 0.0 0.0 1019.0 0.0 0.0 14.0 0.0
03/02/18 20:56 13.9 89 12.1 0.0 0.0 0 0.0 0.0 1019.0 0.0 0.0 13.9 0.0
03/02/18 20:57 13.9 89 12.1 0.0 0.0 0 0.0 0.0 1019.0 0.0 0.0 13.9 0.0
03/02/18 20:58 14.0 89 12.2 0.0 0.0 0 0.0 0.0 1019.0 0.0 0.0 14.0 0.0
03/02/18 20:59 14.0 89 12.2 0.0 0.0 0 0.0 0.0 1019.0 0.0 0.0 14.0 0.0
03/02/18 21:00 13.9 90 12.3 0.0 0.0 0 0.0 0.0 1019.0 0.0 0.0 13.9 0.0
03/02/18 21:03 13.9 90 12.3 0.0 0.0 0 0.0 0.0 1019.0 0.0 0.0 13.9 0.0
03/02/18 21:04 13.9 90 12.3 0.0 0.0 0 0.0 0.0 1019.0 0.0 0.0 13.9 0.0
03/02/18 22:03 13.5 91 12.1 0.0 0.0 0 0.0 0.0 1019.0 0.0 0.0 13.5 0.0
03/02/18 22:04 13.5 91 12.1 0.0 0.0 0 0.0 0.0 1019.0 0.0 0.0 13.5 0.0
03/02/18 22:05 13.5 91 12.1 0.0 0.0 0 0.0 0.0 1019.0 0.0 0.0 13.5 0.0
03/02/18 22:06 13.5 91 12.1 0.0 0.0 0 0.0 0.0 1019.0 0.0 0.0 13.5 0.0
03/02/18 22:07 13.5 91 12.1 0.0 0.0 0 0.0 0.0 1019.0 0.0 0.0 13.5 0.0
03/02/18 22:08 13.5 91 12.1 0.0 0.0 0 0.0 0.0 1019.0 0.0 0.0 13.5 0.0
03/02/18 22:09 13.5 91 12.1 0.0 0.0 0 0.0 0.0 1019.0 0.0 0.0 13.5 0.0
03/02/18 22:10 13.5 91 12.1 0.0 0.0 0 0.0 0.0 1019.0 0.0 0.0 13.5 0.0
03/02/18 22:11 13.5 91 12.1 0.0 0.0 0 0.0 0.0 1019.0 0.0 0.0 13.5 0.0
03/02/18 22:12 13.5 91 12.1 0.0 0.0 0 0.0 0.0 1019.0 0.0 0.0 13.5 0.0
03/02/18 22:13 13.6 91 12.2 0.0 0.0 0 0.0 0.0 1019.0 0.0 0.0 13.6 0.0
03/02/18 22:14 13.5 91 12.1 0.0 0.0 0 0.0 0.0 1019.0 0.0 0.0 13.5 0.0
03/02/18 22:15 13.5 91 12.1 0.0 0.0 0 0.0 0.0 1019.0 0.0 0.0 13.5 0.0
03/02/18 22:16 13.5 91 12.1 0.0 0.0 0 0.0 0.0 1019.0 0.0 0.0 13.5 0.0
03/02/18 22:17 13.6 91 12.2 0.0 0.0 0 0.0 0.0 1019.0 0.0 0.0 13.6 0.0
03/02/18 22:18 13.5 91 12.1 0.0 0.0 0 0.0 0.0 1019.0 0.0 0.0 13.5 0.0
03/02/18 22:19 13.5 91 12.1 0.0 0.0 0 0.0 0.0 1019.0 0.0 0.0 13.5 0.0
03/02/18 22:20 13.5 91 12.1 0.0 0.0 0 0.0 0.0 1019.0 0.0 0.0 13.5 0.0
03/02/18 22:21 13.5 91 12.1 0.0 0.0 0 0.0 0.0 1019.0 0.0 0.0 13.5 0.0
03/02/18 22:22 13.5 91 12.1 0.0 0.0 0 0.0 0.0 1019.0 0.0 0.0 13.5 0.0
03/02/18 22:23 13.5 91 12.1 0.0 0.0 0 0.0 0.0 1019.0 0.0 0.0 13.5 0.0
03/02/18 22:24 13.5 91 12.1 0.0 0.0 0 0.0 0.0 1019.0 0.0 0.0 13.5 0.0
03/02/18 22:25 13.5 91 12.1 0.0 0.0 0 0.0 0.0 1019.0 0.0 0.0 13.5 0.0
03/02/18 22:26 13.5 91 12.1 0.0 0.0 0 0.0 0.0 1019.0 0.0 0.0 13.5 0.0
03/02/18 22:27 13.5 91 12.1 0.0 0.0 0 0.0 0.0 1019.0 0.0 0.0 13.5 0.0
03/02/18 22:28 13.5 91 12.1 0.0 0.0 0 0.0 0.0 1019.0 0.0 0.0 13.5 0.0
03/02/18 22:29 13.4 91 12.0 0.0 0.0 0 0.0 0.0 1019.0 0.0 0.0 13.4 0.0
03/02/18 22:30 13.4 91 12.0 0.0 0.0 0 0.0 0.0 1019.0 0.0 0.0 13.4 0.0
03/02/18 22:31 13.4 91 12.0 0.0 0.0 0 0.0 0.0 1019.0 0.0 0.0 13.4 0.0
03/02/18 22:32 13.5 91 12.1 0.0 0.0 0 0.0 0.0 1019.0 0.0 0.0 13.5 0.0
03/02/18 22:33 13.5 91 12.1 0.0 0.0 0 0.0 0.0 1019.0 0.0 0.0 13.5 0.0
03/02/18 22:34 13.5 91 12.1 0.0 0.0 0 0.0 0.0 1019.0 0.0 0.0 13.5 0.0
03/02/18 22:35 13.5 91 12.1 0.0 0.0 0 0.0 0.0 1019.0 0.0 0.0 13.5 0.0
03/02/18 22:36 13.5 91 12.1 0.0 0.0 0 0.0 0.0 1019.0 0.0 0.0 13.5 0.0
03/02/18 22:37 13.5 91 12.1 0.0 0.0 0 0.0 0.0 1019.0 0.0 0.0 13.5 0.0
03/02/18 22:38 13.5 91 12.1 0.0 0.0 0 0.0 0.0 1019.0 0.0 0.0 13.5 0.0
03/02/18 22:39 13.5 91 12.1 0.0 0.0 0 0.0 0.0 1019.0 0.0 0.0 13.5 0.0
03/02/18 22:40 13.5 91 12.1 0.0 0.0 0 0.0 0.0 1019.0 0.0 0.0 13.5 0.0
03/02/18 22:41 13.5 91 12.1 0.0 0.0 0 0.0 0.0 1019.0 0.0 0.0 13.5 0.0
03/02/18 22:42 13.5 91 12.1 0.0 0.0 0 0.0 0.0 1019.0 0.0 0.0 13.5 0.0
03/02/18 22:43 13.5 91 12.1 0.0 0.0 0 0.0 0.0 1019.0 0.0 0.0 13.5 0.0
03/02/18 22:44 13.5 91 12.1 0.0 0.0 0 0.0 0.0 1019.0 0.0 0.0 13.5 0.0
03/02/18 22:45 13.6 91 12.2 0.0 0.0 0 0.0 0.0 1019.0 0.0 0.0 13.6 0.0
03/02/18 22:46 13.6 92 12.3 0.0 0.0 0 0.0 0.0 1019.0 0.0 0.0 13.6 0.0
03/02/18 22:47 13.6 92 12.3 0.0 0.0 0 0.0 0.0 1019.0 0.0 0.0 13.6 0.0
03/02/18 22:48 13.6 92 12.3 0.0 0.0 0 0.0 0.0 1019.0 0.0 0.0 13.6 0.0
03/02/18 22:49 13.6 92 12.3 0.0 0.0 0 0.0 0.0 1019.0 0.0 0.0 13.6 0.0
03/02/18 22:50 13.6 92 12.3 0.0 0.0 0 0.0 0.0 1019.0 0.0 0.0 13.6 0.0
03/02/18 22:51 13.7 92 12.4 0.0 0.0 0 0.0 0.0 1019.0 0.0 0.0 13.7 0.0
03/02/18 22:52 13.6 91 12.2 0.0 0.0 0 0.0 0.0 1019.0 0.0 0.0 13.6 0.0
03/02/18 22:53 13.7 91 12.3 0.0 0.0 0 0.0 0.0 1019.0 0.0 0.0 13.7 0.0
03/02/18 22:54 13.7 91 12.3 0.0 0.0 0 0.0 0.0 1019.0 0.0 0.0 13.7 0.0
03/02/18 22:55 13.6 91 12.2 0.0 0.0 0 0.0 0.0 1019.0 0.0 0.0 13.6 0.0
03/02/18 22:56 13.6 91 12.2 0.0 0.0 0 0.0 0.0 1019.0 0.0 0.0 13.6 0.0
03/02/18 22:57 13.6 91 12.2 0.0 0.0 0 0.0 0.0 1019.0 0.0 0.0 13.6 0.0
03/02/18 22:58 13.6 91 12.2 0.0 0.0 0 0.0 0.0 1019.0 0.0 0.0 13.6 0.0
03/02/18 22:59 13.6 91 12.2 0.0 0.0 0 0.0 0.0 1019.0 0.0 0.0 13.6 0.0
03/02/18 23:00 13.6 91 12.2 0.0 0.0 0 0.0 0.0 1019.0 0.0 0.0 13.6 0.0
03/02/18 23:03 13.6 91 12.2 0.0 0.0 0 0.0 0.0 1019.0 0.0 0.0 13.6 0.0
03/02/18 23:04 13.6 91 12.2 0.0 0.0 0 0.0 0.0 1019.0 0.0 0.0 13.6 0.0
03/02/18 23:05 13.6 91 12.2 0.0 0.0 0 0.0 0.0 1019.0 0.0 0.0 13.6 0.0
03/02/18 23:06 13.6 91 12.2 0.0 0.0 0 0.0 0.0 1019.0 0.0 0.0 13.6 0.0
03/02/18 23:07 13.6 91 12.2 0.0 0.0 0 0.0 0.0 1019.0 0.0 0.0 13.6 0.0
03/02/18 23:08 13.6 91 12.2 0.0 0.0 0 0.0 0.0 1019.0 0.0 0.0 13.6 0.0
03/02/18 23:09 13.6 91 12.2 0.0 0.0 0 0.0 0.0 1019.0 0.0 0.0 13.6 0.0
03/02/18 23:10 13.7 91 12.3 0.0 0.0 0 0.0 0.0 1019.0 0.0 0.0 13.7 0.0
03/02/18 23:11 13.6 91 12.2 0.0 0.0 0 0.0 0.0 1019.0 0.0 0.0 13.6 0.0
 
  Back to Top
Date Time Temperature Humidity Dewpoint Wind Speed High Gust Wind Bearing Rainfall Rate Total Rainfall Pressure Gust Wind Chill Heat Index UV Index
04/02/18 00:03 13.3 93 12.2 0.0 0.0 0 0.0 0.0 1019.0 0.0 0.0 13.3 0.0
04/02/18 00:04 13.3 93 12.2 0.0 0.0 0 0.0 0.0 1019.0 0.0 0.0 13.3 0.0
04/02/18 00:05 13.3 93 12.2 0.0 0.0 0 0.0 0.0 1019.0 0.0 0.0 13.3 0.0
04/02/18 00:06 13.3 93 12.2 0.0 0.0 0 0.0 0.0 1019.0 0.0 0.0 13.3 0.0
04/02/18 00:07 13.3 93 12.2 0.0 0.0 0 0.0 0.0 1019.0 0.0 0.0 13.3 0.0
04/02/18 00:08 13.3 93 12.2 0.0 0.0 0 0.0 0.0 1019.0 0.0 0.0 13.3 0.0
04/02/18 00:09 13.3 93 12.2 0.0 0.0 0 0.0 0.0 1019.0 0.0 0.0 13.3 0.0
04/02/18 00:10 13.3 93 12.2 0.0 0.0 0 0.0 0.0 1019.0 0.0 0.0 13.3 0.0
04/02/18 00:11 13.3 93 12.2 0.0 0.0 0 0.0 0.0 1019.0 0.0 0.0 13.3 0.0
04/02/18 00:12 13.3 93 12.2 0.0 0.0 0 0.0 0.0 1019.0 0.0 0.0 13.3 0.0
04/02/18 00:13 13.3 93 12.2 0.0 0.0 0 0.0 0.0 1019.0 0.0 0.0 13.3 0.0
04/02/18 00:14 13.3 93 12.2 0.0 0.0 0 0.0 0.0 1019.0 0.0 0.0 13.3 0.0
04/02/18 00:15 13.3 93 12.2 0.0 0.0 0 0.0 0.0 1019.0 0.0 0.0 13.3 0.0
04/02/18 00:16 13.2 93 12.1 0.0 0.0 0 0.0 0.0 1019.0 0.0 0.0 13.2 0.0
04/02/18 00:17 13.2 93 12.1 0.0 0.0 0 0.0 0.0 1019.0 0.0 0.0 13.2 0.0
04/02/18 00:18 13.3 93 12.2 0.0 0.0 0 0.0 0.0 1019.0 0.0 0.0 13.3 0.0
04/02/18 00:19 13.2 94 12.3 0.0 0.0 0 0.0 0.0 1019.0 0.0 0.0 13.2 0.0
04/02/18 00:20 13.2 94 12.3 0.0 0.0 0 0.0 0.0 1019.0 0.0 0.0 13.2 0.0
04/02/18 00:21 13.2 93 12.1 0.0 0.0 0 0.0 0.0 1019.0 0.0 0.0 13.2 0.0
04/02/18 00:22 13.2 93 12.1 0.0 0.0 0 0.0 0.0 1019.0 0.0 0.0 13.2 0.0
04/02/18 00:23 13.2 93 12.1 0.0 0.0 0 0.0 0.0 1018.0 0.0 0.0 13.2 0.0
04/02/18 00:24 13.2 93 12.1 0.0 0.0 0 0.0 0.0 1018.0 0.0 0.0 13.2 0.0
04/02/18 00:25 13.2 93 12.1 0.0 0.0 0 0.0 0.0 1018.0 0.0 0.0 13.2 0.0
04/02/18 00:26 13.1 93 12.0 0.0 0.0 0 0.0 0.0 1018.0 0.0 0.0 13.1 0.0
04/02/18 00:27 13.1 93 12.0 0.0 0.0 0 0.0 0.0 1018.0 0.0 0.0 13.1 0.0
04/02/18 00:28 13.1 93 12.0 0.0 0.0 0 0.0 0.0 1018.0 0.0 0.0 13.1 0.0
04/02/18 00:29 13.0 93 11.9 0.0 0.0 0 0.0 0.0 1018.0 0.0 0.0 13.0 0.0
04/02/18 00:30 13.0 93 11.9 0.0 0.0 0 0.0 0.0 1018.0 0.0 0.0 13.0 0.0
04/02/18 00:31 13.0 93 11.9 0.0 0.0 0 0.0 0.0 1018.0 0.0 0.0 13.0 0.0
04/02/18 00:32 13.0 93 11.9 0.0 0.0 0 0.0 0.0 1018.0 0.0 0.0 13.0 0.0
04/02/18 00:33 13.0 93 11.9 0.0 0.0 0 0.0 0.0 1018.0 0.0 0.0 13.0 0.0
04/02/18 00:34 13.0 93 11.9 0.0 0.0 0 0.0 0.0 1018.0 0.0 0.0 13.0 0.0
04/02/18 00:35 13.0 93 11.9 0.0 0.0 0 0.0 0.0 1018.0 0.0 0.0 13.0 0.0
04/02/18 00:36 13.0 93 11.9 0.0 0.0 0 0.0 0.0 1018.0 0.0 0.0 13.0 0.0
04/02/18 00:37 13.0 93 11.9 0.0 0.0 0 0.0 0.0 1018.0 0.0 0.0 13.0 0.0
04/02/18 00:38 13.0 93 11.9 0.0 0.0 0 0.0 0.0 1018.0 0.0 0.0 13.0 0.0
04/02/18 00:39 13.0 94 12.1 0.0 0.0 0 0.0 0.0 1018.0 0.0 0.0 13.0 0.0
04/02/18 00:40 13.0 93 11.9 0.0 0.0 0 0.0 0.0 1018.0 0.0 0.0 13.0 0.0
04/02/18 00:41 13.0 93 11.9 0.0 0.0 0 0.0 0.0 1018.0 0.0 0.0 13.0 0.0
04/02/18 00:42 13.1 93 12.0 0.0 0.0 0 0.0 0.0 1018.0 0.0 0.0 13.1 0.0
04/02/18 00:43 13.1 93 12.0 0.0 0.0 0 0.0 0.0 1018.0 0.0 0.0 13.1 0.0
04/02/18 00:44 13.0 93 11.9 0.0 0.0 0 0.0 0.0 1018.0 0.0 0.0 13.0 0.0
04/02/18 00:45 13.1 93 12.0 0.0 0.0 0 0.0 0.0 1018.0 0.0 0.0 13.1 0.0
04/02/18 00:46 13.1 93 12.0 0.0 0.0 0 0.0 0.0 1018.0 0.0 0.0 13.1 0.0
04/02/18 00:47 13.1 93 12.0 0.0 0.0 0 0.0 0.0 1018.0 0.0 0.0 13.1 0.0
04/02/18 00:48 13.1 93 12.0 0.0 0.0 0 0.0 0.0 1018.0 0.0 0.0 13.1 0.0
04/02/18 00:49 13.1 93 12.0 0.0 0.0 0 0.0 0.0 1018.0 0.0 0.0 13.1 0.0
04/02/18 00:50 13.1 93 12.0 0.0 0.0 0 0.0 0.0 1018.0 0.0 0.0 13.1 0.0
04/02/18 00:51 13.1 93 12.0 0.0 0.0 0 0.0 0.0 1018.0 0.0 0.0 13.1 0.0
04/02/18 00:52 13.1 93 12.0 0.0 0.0 0 0.0 0.0 1018.0 0.0 0.0 13.1 0.0
04/02/18 00:53 13.1 93 12.0 0.0 0.0 0 0.0 0.0 1018.0 0.0 0.0 13.1 0.0
04/02/18 00:54 13.1 93 12.0 0.0 0.0 0 0.0 0.0 1018.0 0.0 0.0 13.1 0.0
04/02/18 00:55 13.0 93 11.9 0.0 0.0 0 0.0 0.0 1018.0 0.0 0.0 13.0 0.0
04/02/18 00:56 13.1 93 12.0 0.0 0.0 0 0.0 0.0 1018.0 0.0 0.0 13.1 0.0
04/02/18 00:57 13.0 93 11.9 0.0 0.0 0 0.0 0.0 1018.0 0.0 0.0 13.0 0.0
04/02/18 00:58 13.1 93 12.0 0.0 0.0 0 0.0 0.0 1018.0 0.0 0.0 13.1 0.0
04/02/18 00:59 13.1 93 12.0 0.0 0.0 0 0.0 0.0 1018.0 0.0 0.0 13.1 0.0
04/02/18 01:00 13.1 93 12.0 0.0 0.0 0 0.0 0.0 1018.0 0.0 0.0 13.1 0.0
04/02/18 01:02 13.1 93 12.0 0.0 0.0 0 0.0 0.0 1018.0 0.0 0.0 13.1 0.0
04/02/18 01:03 13.1 93 12.0 0.0 0.0 0 0.0 0.0 1018.0 0.0 0.0 13.1 0.0
04/02/18 01:04 13.1 93 12.0 0.0 0.0 0 0.0 0.0 1018.0 0.0 0.0 13.1 0.0
04/02/18 01:05 13.1 93 12.0 0.0 0.0 0 0.0 0.0 1018.0 0.0 0.0 13.1 0.0
04/02/18 01:06 13.1 93 12.0 0.0 0.0 0 0.0 0.0 1018.0 0.0 0.0 13.1 0.0
04/02/18 01:07 13.1 93 12.0 0.0 0.0 0 0.0 0.0 1018.0 0.0 0.0 13.1 0.0
04/02/18 01:08 13.1 93 12.0 0.0 0.0 0 0.0 0.0 1018.0 0.0 0.0 13.1 0.0
04/02/18 01:09 13.1 93 12.0 0.0 0.0 0 0.0 0.0 1018.0 0.0 0.0 13.1 0.0
04/02/18 01:10 13.1 93 12.0 0.0 0.0 0 0.0 0.0 1018.0 0.0 0.0 13.1 0.0
04/02/18 01:11 13.1 93 12.0 0.0 0.0 0 0.0 0.0 1018.0 0.0 0.0 13.1 0.0
04/02/18 01:12 13.1 93 12.0 0.0 0.0 0 0.0 0.0 1018.0 0.0 0.0 13.1 0.0
04/02/18 01:13 13.0 93 11.9 0.0 0.0 0 0.0 0.0 1018.0 0.0 0.0 13.0 0.0
04/02/18 01:14 13.0 93 11.9 0.0 0.0 0 0.0 0.0 1018.0 0.0 0.0 13.0 0.0
04/02/18 01:15 13.0 93 11.9 0.0 0.0 0 0.0 0.0 1018.0 0.0 0.0 13.0 0.0
04/02/18 01:16 13.0 93 11.9 0.0 0.0 0 0.0 0.0 1018.0 0.0 0.0 13.0 0.0
04/02/18 01:17 13.0 93 11.9 0.0 0.0 0 0.0 0.0 1018.0 0.0 0.0 13.0 0.0
04/02/18 01:18 13.0 93 11.9 0.0 0.0 0 0.0 0.0 1018.0 0.0 0.0 13.0 0.0
04/02/18 01:19 13.0 93 11.9 0.0 0.0 0 0.0 0.0 1018.0 0.0 0.0 13.0 0.0
04/02/18 01:20 13.0 93 11.9 0.0 0.0 0 0.0 0.0 1018.0 0.0 0.0 13.0 0.0
04/02/18 01:21 12.9 94 12.0 0.0 0.0 0 0.0 0.0 1018.0 0.0 0.0 12.9 0.0
04/02/18 01:22 12.9 94 12.0 0.0 0.0 0 0.0 0.0 1018.0 0.0 0.0 12.9 0.0
04/02/18 01:23 12.9 93 11.8 0.0 0.0 0 0.0 0.0 1018.0 0.0 0.0 12.9 0.0
04/02/18 01:24 12.9 93 11.8 0.0 0.0 0 0.0 0.0 1018.0 0.0 0.0 12.9 0.0
04/02/18 01:25 12.9 93 11.8 0.0 0.0 0 0.0 0.0 1018.0 0.0 0.0 12.9 0.0
04/02/18 01:26 12.9 93 11.8 0.0 0.0 0 0.0 0.0 1018.0 0.0 0.0 12.9 0.0
04/02/18 01:27 12.8 93 11.7 0.0 0.0 0 0.0 0.0 1018.0 0.0 0.0 12.8 0.0
04/02/18 01:28 12.7 93 11.6 0.0 0.0 0 0.0 0.0 1018.0 0.0 0.0 12.7 0.0
04/02/18 01:29 12.7 93 11.6 0.0 0.0 0 0.0 0.0 1018.0 0.0 0.0 12.7 0.0
04/02/18 01:30 12.7 93 11.6 0.0 0.0 0 0.0 0.0 1018.0 0.0 0.0 12.7 0.0
04/02/18 01:31 12.7 93 11.6 0.0 0.0 0 0.0 0.0 1018.0 0.0 0.0 12.7 0.0
04/02/18 01:32 12.6 93 11.5 0.0 0.0 0 0.0 0.0 1018.0 0.0 0.0 12.6 0.0
04/02/18 01:33 12.6 93 11.5 0.0 0.0 0 0.0 0.0 1018.0 0.0 0.0 12.6 0.0
04/02/18 01:34 12.6 93 11.5 0.0 0.0 0 0.0 0.0 1018.0 0.0 0.0 12.6 0.0
04/02/18 01:35 12.6 93 11.5 0.0 0.0 0 0.0 0.0 1018.0 0.0 0.0 12.6 0.0
04/02/18 01:36 12.6 93 11.5 0.0 0.0 0 0.0 0.0 1018.0 0.0 0.0 12.6 0.0
04/02/18 01:37 12.6 93 11.5 0.0 0.0 0 0.0 0.0 1018.0 0.0 0.0 12.6 0.0
04/02/18 01:38 12.6 93 11.5 0.0 0.0 0 0.0 0.0 1018.0 0.0 0.0 12.6 0.0
04/02/18 01:39 12.6 93 11.5 0.0 0.0 0 0.0 0.0 1018.0 0.0 0.0 12.6 0.0
04/02/18 01:40 12.6 93 11.5 0.0 0.0 0 0.0 0.0 1018.0 0.0 0.0 12.6 0.0
04/02/18 01:41 12.5 93 11.4 0.0 0.0 0 0.0 0.0 1018.0 0.0 0.0 12.5 0.0
04/02/18 02:03 12.4 94 11.5 0.0 0.0 0 0.0 0.0 1018.0 0.0 0.0 12.4 0.0
04/02/18 02:04 12.4 94 11.5 0.0 0.0 0 0.0 0.0 1018.0 0.0 0.0 12.4 0.0
04/02/18 02:05 12.4 94 11.5 0.0 0.0 0 0.0 0.0 1018.0 0.0 0.0 12.4 0.0
04/02/18 02:06 12.5 94 11.6 0.0 0.0 0 0.0 0.0 1018.0 0.0 0.0 12.5 0.0
04/02/18 02:07 12.5 94 11.6 0.0 0.0 0 0.0 0.0 1018.0 0.0 0.0 12.5 0.0
04/02/18 02:08 12.5 94 11.6 0.0 0.0 0 0.0 0.0 1018.0 0.0 0.0 12.5 0.0
04/02/18 02:09 12.5 94 11.6 0.0 0.0 0 0.0 0.0 1018.0 0.0 0.0 12.5 0.0
04/02/18 02:10 12.5 94 11.6 0.0 0.0 0 0.0 0.0 1018.0 0.0 0.0 12.5 0.0
04/02/18 02:11 12.5 94 11.6 0.0 0.0 0 0.0 0.0 1018.0 0.0 0.0 12.5 0.0
04/02/18 02:12 12.5 94 11.6 0.0 0.0 0 0.0 0.0 1018.0 0.0 0.0 12.5 0.0
04/02/18 02:13 12.6 94 11.7 0.0 0.0 0 0.0 0.0 1018.0 0.0 0.0 12.6 0.0
04/02/18 02:14 12.6 94 11.7 0.0 0.0 0 0.0 0.0 1018.0 0.0 0.0 12.6 0.0
04/02/18 02:15 12.6 94 11.7 0.0 0.0 0 0.0 0.0 1018.0 0.0 0.0 12.6 0.0
04/02/18 02:16 12.6 94 11.7 0.0 0.0 0 0.0 0.0 1018.0 0.0 0.0 12.6 0.0
04/02/18 02:17 12.6 94 11.7 0.0 0.0 0 0.0 0.0 1018.0 0.0 0.0 12.6 0.0
04/02/18 02:18 12.7 94 11.8 0.0 0.0 0 0.0 0.0 1018.0 0.0 0.0 12.7 0.0
04/02/18 02:19 12.6 94 11.7 0.0 0.0 0 0.0 0.0 1018.0 0.0 0.0 12.6 0.0
04/02/18 02:20 12.6 94 11.7 0.0 0.0 0 0.0 0.0 1018.0 0.0 0.0 12.6 0.0
04/02/18 02:21 12.6 94 11.7 0.0 0.0 0 0.0 0.0 1018.0 0.0 0.0 12.6 0.0
04/02/18 02:22 12.6 94 11.7 0.0 0.0 0 0.0 0.0 1018.0 0.0 0.0 12.6 0.0
04/02/18 02:23 12.6 94 11.7 0.0 0.0 0 0.0 0.0 1018.0 0.0 0.0 12.6 0.0
04/02/18 02:24 12.6 94 11.7 0.0 0.0 0 0.0 0.0 1018.0 0.0 0.0 12.6 0.0
04/02/18 02:25 12.6 94 11.7 0.0 0.0 0 0.0 0.0 1018.0 0.0 0.0 12.6 0.0
04/02/18 02:26 12.6 94 11.7 0.0 0.0 0 0.0 0.0 1018.0 0.0 0.0 12.6 0.0
04/02/18 02:27 12.6 94 11.7 0.0 0.0 0 0.0 0.0 1018.0 0.0 0.0 12.6 0.0
04/02/18 02:28 12.6 94 11.7 0.0 0.0 0 0.0 0.0 1018.0 0.0 0.0 12.6 0.0
04/02/18 02:29 12.6 94 11.7 0.0 0.0 0 0.0 0.0 1018.0 0.0 0.0 12.6 0.0
04/02/18 02:30 12.6 94 11.7 0.0 0.0 0 0.0 0.0 1018.0 0.0 0.0 12.6 0.0
04/02/18 02:31 12.6 94 11.7 0.0 0.0 0 0.0 0.0 1018.0 0.0 0.0 12.6 0.0
04/02/18 02:32 12.6 94 11.7 0.0 0.0 0 0.0 0.0 1018.0 0.0 0.0 12.6 0.0
04/02/18 02:33 12.6 94 11.7 0.0 0.0 0 0.0 0.0 1018.0 0.0 0.0 12.6 0.0
04/02/18 02:34 12.5 94 11.6 0.0 0.0 0 0.0 0.0 1018.0 0.0 0.0 12.5 0.0
04/02/18 02:35 12.5 94 11.6 0.0 0.0 0 0.0 0.0 1018.0 0.0 0.0 12.5 0.0
04/02/18 02:36 12.5 94 11.6 0.0 0.0 0 0.0 0.0 1018.0 0.0 0.0 12.5 0.0
04/02/18 02:37 12.5 94 11.6 0.0 0.0 0 0.0 0.0 1018.0 0.0 0.0 12.5 0.0
04/02/18 02:38 12.4 94 11.5 0.0 0.0 0 0.0 0.0 1018.0 0.0 0.0 12.4 0.0
04/02/18 02:39 12.4 94 11.5 0.0 0.0 0 0.0 0.0 1018.0 0.0 0.0 12.4 0.0
04/02/18 02:40 12.4 94 11.5 0.0 0.0 0 0.0 0.0 1018.0 0.0 0.0 12.4 0.0
04/02/18 02:41 12.3 94 11.4 0.0 0.0 0 0.0 0.0 1018.0 0.0 0.0 12.3 0.0
04/02/18 02:42 12.3 94 11.4 0.0 0.0 0 0.0 0.0 1018.0 0.0 0.0 12.3 0.0
04/02/18 02:43 12.2 94 11.3 0.0 0.0 0 0.0 0.0 1018.0 0.0 0.0 12.2 0.0
04/02/18 02:44 12.2 94 11.3 0.0 0.0 0 0.0 0.0 1018.0 0.0 0.0 12.2 0.0
04/02/18 02:45 12.2 94 11.3 0.0 0.0 0 0.0 0.0 1018.0 0.0 0.0 12.2 0.0
04/02/18 02:46 12.2 94 11.3 0.0 0.0 0 0.0 0.0 1018.0 0.0 0.0 12.2 0.0
04/02/18 02:47 12.2 94 11.3 0.0 0.0 0 0.0 0.0 1018.0 0.0 0.0 12.2 0.0
04/02/18 02:48 12.2 94 11.3 0.0 0.0 0 0.0 0.0 1018.0 0.0 0.0 12.2 0.0
04/02/18 02:49 12.2 94 11.3 0.0 0.0 0 0.0 0.0 1018.0 0.0 0.0 12.2 0.0
04/02/18 02:50 12.1 94 11.2 0.0 0.0 0 0.0 0.0 1018.0 0.0 0.0 12.1 0.0
04/02/18 02:51 12.1 94 11.2 0.0 0.0 0 0.0 0.0 1018.0 0.0 0.0 12.1 0.0
04/02/18 02:52 12.1 94 11.2 0.0 0.0 0 0.0 0.0 1018.0 0.0 0.0 12.1 0.0
04/02/18 02:53 12.1 94 11.2 0.0 0.0 0 0.0 0.0 1017.0 0.0 0.0 12.1 0.0
04/02/18 02:54 12.1 94 11.2 0.0 0.0 0 0.0 0.0 1017.0 0.0 0.0 12.1 0.0
04/02/18 02:55 12.1 94 11.2 0.0 0.0 0 0.0 0.0 1017.0 0.0 0.0 12.1 0.0
04/02/18 02:56 12.1 94 11.2 0.0 0.0 0 0.0 0.0 1017.0 0.0 0.0 12.1 0.0
04/02/18 02:57 12.1 94 11.2 0.0 0.0 0 0.0 0.0 1017.0 0.0 0.0 12.1 0.0
04/02/18 02:58 12.1 94 11.2 0.0 0.0 0 0.0 0.0 1017.0 0.0 0.0 12.1 0.0
04/02/18 02:59 12.1 94 11.2 0.0 0.0 0 0.0 0.0 1017.0 0.0 0.0 12.1 0.0
04/02/18 03:00 12.2 94 11.3 0.0 0.0 0 0.0 0.0 1017.0 0.0 0.0 12.2 0.0
04/02/18 03:02 12.2 95 11.4 0.0 0.0 0 0.0 0.0 1017.0 0.0 0.0 12.2 0.0
04/02/18 03:03 12.2 95 11.4 0.0 0.0 0 0.0 0.0 1017.0 0.0 0.0 12.2 0.0
04/02/18 03:04 12.2 95 11.4 0.0 0.0 0 0.0 0.0 1017.0 0.0 0.0 12.2 0.0
04/02/18 03:05 12.2 95 11.4 0.0 0.0 0 0.0 0.0 1017.0 0.0 0.0 12.2 0.0
04/02/18 03:06 12.3 95 11.5 0.0 0.0 0 0.0 0.0 1017.0 0.0 0.0 12.3 0.0
04/02/18 03:07 12.3 95 11.5 0.0 0.0 0 0.0 0.0 1017.0 0.0 0.0 12.3 0.0
04/02/18 03:08 12.3 95 11.5 0.0 0.0 0 0.0 0.0 1017.0 0.0 0.0 12.3 0.0
04/02/18 03:09 12.3 95 11.5 0.0 0.0 0 0.0 0.0 1017.0 0.0 0.0 12.3 0.0
04/02/18 03:10 12.3 95 11.5 0.0 0.0 0 0.0 0.0 1017.0 0.0 0.0 12.3 0.0
04/02/18 03:11 12.3 95 11.5 0.0 0.0 0 0.0 0.0 1017.0 0.0 0.0 12.3 0.0
04/02/18 03:12 12.4 95 11.6 0.0 0.0 0 0.0 0.0 1017.0 0.0 0.0 12.4 0.0
04/02/18 03:13 12.3 95 11.5 0.0 0.0 0 0.0 0.0 1017.0 0.0 0.0 12.3 0.0
04/02/18 03:14 12.4 95 11.6 0.0 0.0 0 0.0 0.0 1017.0 0.0 0.0 12.4 0.0
04/02/18 03:15 12.4 95 11.6 0.0 0.0 0 0.0 0.0 1017.0 0.0 0.0 12.4 0.0
04/02/18 03:16 12.4 95 11.6 0.0 0.0 0 0.0 0.0 1017.0 0.0 0.0 12.4 0.0
04/02/18 03:17 12.4 95 11.6 0.0 0.0 0 0.0 0.0 1017.0 0.0 0.0 12.4 0.0
04/02/18 03:18 12.4 95 11.6 0.0 0.0 0 0.0 0.0 1017.0 0.0 0.0 12.4 0.0
04/02/18 03:19 12.4 95 11.6 0.0 0.0 0 0.0 0.0 1017.0 0.0 0.0 12.4 0.0
04/02/18 03:20 12.5 95 11.7 0.0 0.0 0 0.0 0.0 1017.0 0.0 0.0 12.5 0.0
04/02/18 03:21 12.5 95 11.7 0.0 0.0 0 0.0 0.0 1017.0 0.0 0.0 12.5 0.0
04/02/18 03:22 12.5 95 11.7 0.0 0.0 0 0.0 0.0 1017.0 0.0 0.0 12.5 0.0
04/02/18 03:23 12.5 95 11.7 0.0 0.0 0 0.0 0.0 1017.0 0.0 0.0 12.5 0.0
04/02/18 03:24 12.5 95 11.7 0.0 0.0 0 0.0 0.0 1017.0 0.0 0.0 12.5 0.0
04/02/18 03:25 12.5 95 11.7 0.0 0.0 0 0.0 0.0 1017.0 0.0 0.0 12.5 0.0
04/02/18 03:26 12.5 95 11.7 0.0 0.0 0 0.0 0.0 1017.0 0.0 0.0 12.5 0.0
04/02/18 03:27 12.5 95 11.7 0.0 0.0 0 0.0 0.0 1017.0 0.0 0.0 12.5 0.0
04/02/18 03:28 12.5 95 11.7 0.0 0.0 0 0.0 0.0 1017.0 0.0 0.0 12.5 0.0
04/02/18 03:29 12.5 95 11.7 0.0 0.0 0 0.0 0.0 1017.0 0.0 0.0 12.5 0.0
04/02/18 03:30 12.5 95 11.7 0.0 0.0 0 0.0 0.0 1017.0 0.0 0.0 12.5 0.0
04/02/18 03:31 12.6 95 11.8 0.0 0.0 0 0.0 0.0 1017.0 0.0 0.0 12.6 0.0
04/02/18 03:32 12.6 95 11.8 0.0 0.0 0 0.0 0.0 1017.0 0.0 0.0 12.6 0.0
04/02/18 03:33 12.5 95 11.7 0.0 0.0 0 0.0 0.0 1017.0 0.0 0.0 12.5 0.0
04/02/18 03:34 12.5 95 11.7 0.0 0.0 0 0.0 0.0 1017.0 0.0 0.0 12.5 0.0
04/02/18 03:35 12.5 95 11.7 0.0 0.0 0 0.0 0.0 1017.0 0.0 0.0 12.5 0.0
04/02/18 03:36 12.5 95 11.7 0.0 0.0 0 0.0 0.0 1017.0 0.0 0.0 12.5 0.0
04/02/18 03:37 12.5 94 11.6 0.0 0.0 0 0.0 0.0 1017.0 0.0 0.0 12.5 0.0
04/02/18 03:38 12.5 94 11.6 0.0 0.0 0 0.0 0.0 1017.0 0.0 0.0 12.5 0.0
04/02/18 03:39 12.5 94 11.6 0.0 0.0 0 0.0 0.0 1017.0 0.0 0.0 12.5 0.0
04/02/18 03:40 12.5 94 11.6 0.0 0.0 0 0.0 0.0 1017.0 0.0 0.0 12.5 0.0
04/02/18 03:41 12.6 94 11.7 0.0 0.0 0 0.0 0.0 1017.0 0.0 0.0 12.6 0.0
04/02/18 03:42 12.6 94 11.7 0.0 0.0 0 0.0 0.0 1017.0 0.0 0.0 12.6 0.0
04/02/18 03:43 12.6 94 11.7 0.0 0.0 0 0.0 0.0 1017.0 0.0 0.0 12.6 0.0
04/02/18 03:44 12.6 95 11.8 0.0 0.0 0 0.0 0.0 1017.0 0.0 0.0 12.6 0.0
04/02/18 03:45 12.6 95 11.8 0.0 0.0 0 0.0 0.0 1017.0 0.0 0.0 12.6 0.0
04/02/18 03:46 12.6 94 11.7 0.0 0.0 0 0.0 0.0 1017.0 0.0 0.0 12.6 0.0
04/02/18 03:47 12.6 94 11.7 0.0 0.0 0 0.0 0.0 1017.0 0.0 0.0 12.6 0.0
04/02/18 03:48 12.6 94 11.7 0.0 0.0 0 0.0 0.0 1017.0 0.0 0.0 12.6 0.0
04/02/18 03:49 12.6 94 11.7 0.0 0.0 0 0.0 0.0 1017.0 0.0 0.0 12.6 0.0
04/02/18 03:50 12.6 94 11.7 0.0 0.0 0 0.0 0.0 1017.0 0.0 0.0 12.6 0.0
04/02/18 03:51 12.6 94 11.7 0.0 0.0 0 0.0 0.0 1017.0 0.0 0.0 12.6 0.0
04/02/18 03:52 12.7 94 11.8 0.0 0.0 0 0.0 0.0 1017.0 0.0 0.0 12.7 0.0
04/02/18 03:53 12.7 94 11.8 0.0 0.0 0 0.0 0.0 1017.0 0.0 0.0 12.7 0.0
04/02/18 03:54 12.7 94 11.8 0.0 0.0 0 0.0 0.0 1017.0 0.0 0.0 12.7 0.0
04/02/18 03:55 12.7 94 11.8 0.0 0.0 0 0.0 0.0 1017.0 0.0 0.0 12.7 0.0
04/02/18 03:56 12.7 94 11.8 0.0 0.0 0 0.0 0.0 1017.0 0.0 0.0 12.7 0.0
04/02/18 03:57 12.7 94 11.8 0.0 0.0 0 0.0 0.0 1017.0 0.0 0.0 12.7 0.0
04/02/18 03:58 12.7 94 11.8 0.0 0.0 0 0.0 0.0 1017.0 0.0 0.0 12.7 0.0
04/02/18 03:59 12.7 94 11.8 0.0 0.0 0 0.0 0.0 1017.0 0.0 0.0 12.7 0.0
04/02/18 04:02 12.7 94 11.8 0.0 0.0 0 0.0 0.0 1017.0 0.0 0.0 12.7 0.0
04/02/18 04:03 12.7 94 11.8 0.0 0.0 0 0.0 0.0 1017.0 0.0 0.0 12.7 0.0
04/02/18 04:04 12.7 94 11.8 0.0 0.0 0 0.0 0.0 1017.0 0.0 0.0 12.7 0.0
04/02/18 05:02 12.8 94 11.9 0.0 0.0 0 0.0 0.0 1017.0 0.0 0.0 12.8 0.0
04/02/18 05:03 12.8 94 11.9 0.0 0.0 0 0.0 0.0 1017.0 0.0 0.0 12.8 0.0
04/02/18 05:04 12.8 94 11.9 0.0 0.0 0 0.0 0.0 1017.0 0.0 0.0 12.8 0.0
04/02/18 05:05 12.8 94 11.9 0.0 0.0 0 0.0 0.0 1017.0 0.0 0.0 12.8 0.0
04/02/18 05:06 12.8 94 11.9 0.0 0.0 0 0.0 0.0 1017.0 0.0 0.0 12.8 0.0
04/02/18 05:07 12.7 94 11.8 0.0 0.0 0 0.0 0.0 1017.0 0.0 0.0 12.7 0.0
04/02/18 05:08 12.7 94 11.8 0.0 0.0 0 0.0 0.0 1017.0 0.0 0.0 12.7 0.0
04/02/18 05:09 12.7 94 11.8 0.0 0.0 0 0.0 0.0 1017.0 0.0 0.0 12.7 0.0
04/02/18 05:10 12.7 94 11.8 0.0 0.0 0 0.0 0.0 1017.0 0.0 0.0 12.7 0.0
04/02/18 05:11 12.7 94 11.8 0.0 0.0 0 0.0 0.0 1017.0 0.0 0.0 12.7 0.0
04/02/18 05:12 12.7 94 11.8 0.0 0.0 0 0.0 0.0 1017.0 0.0 0.0 12.7 0.0
04/02/18 05:13 12.7 94 11.8 0.0 0.0 0 0.0 0.0 1017.0 0.0 0.0 12.7 0.0
04/02/18 05:14 12.7 94 11.8 0.0 0.0 0 0.0 0.0 1017.0 0.0 0.0 12.7 0.0
04/02/18 05:15 12.7 94 11.8 0.0 0.0 0 0.0 0.0 1017.0 0.0 0.0 12.7 0.0
04/02/18 05:16 12.7 94 11.8 0.0 0.0 0 0.0 0.0 1017.0 0.0 0.0 12.7 0.0
04/02/18 05:17 12.7 94 11.8 0.0 0.0 0 0.0 0.0 1017.0 0.0 0.0 12.7 0.0
04/02/18 05:18 12.7 94 11.8 0.0 0.0 0 0.0 0.0 1017.0 0.0 0.0 12.7 0.0
04/02/18 05:19 12.7 94 11.8 0.0 0.0 0 0.0 0.0 1017.0 0.0 0.0 12.7 0.0
04/02/18 05:20 12.6 94 11.7 0.0 0.0 0 0.0 0.0 1017.0 0.0 0.0 12.6 0.0
04/02/18 05:21 12.6 94 11.7 0.0 0.0 0 0.0 0.0 1017.0 0.0 0.0 12.6 0.0
04/02/18 05:22 12.6 94 11.7 0.0 0.0 0 0.0 0.0 1017.0 0.0 0.0 12.6 0.0
04/02/18 05:23 12.6 94 11.7 0.0 0.0 0 0.0 0.0 1018.0 0.0 0.0 12.6 0.0
04/02/18 05:24 12.6 94 11.7 0.0 0.0 0 0.0 0.0 1018.0 0.0 0.0 12.6 0.0
04/02/18 05:25 12.6 94 11.7 0.0 0.0 0 0.0 0.0 1018.0 0.0 0.0 12.6 0.0
04/02/18 05:26 12.6 94 11.7 0.0 0.0 0 0.0 0.0 1018.0 0.0 0.0 12.6 0.0
04/02/18 05:27 12.6 94 11.7 0.0 0.0 0 0.0 0.0 1018.0 0.0 0.0 12.6 0.0
04/02/18 05:28 12.6 94 11.7 0.0 0.0 0 0.0 0.0 1018.0 0.0 0.0 12.6 0.0
04/02/18 05:29 12.6 94 11.7 0.0 0.0 0 0.0 0.0 1018.0 0.0 0.0 12.6 0.0
04/02/18 05:30 12.5 94 11.6 0.0 0.0 0 0.0 0.0 1018.0 0.0 0.0 12.5 0.0
04/02/18 05:31 12.5 94 11.6 0.0 0.0 0 0.0 0.0 1018.0 0.0 0.0 12.5 0.0
04/02/18 05:32 12.5 94 11.6 0.0 0.0 0 0.0 0.0 1018.0 0.0 0.0 12.5 0.0
04/02/18 05:33 12.5 94 11.6 0.0 0.0 0 0.0 0.0 1018.0 0.0 0.0 12.5 0.0
04/02/18 05:34 12.5 94 11.6 0.0 0.0 0 0.0 0.0 1018.0 0.0 0.0 12.5 0.0
04/02/18 05:35 12.5 94 11.6 0.0 0.0 0 0.0 0.0 1018.0 0.0 0.0 12.5 0.0
04/02/18 05:36 12.5 94 11.6 0.0 0.0 0 0.0 0.0 1018.0 0.0 0.0 12.5 0.0
04/02/18 05:37 12.6 94 11.7 0.0 0.0 0 0.0 0.0 1018.0 0.0 0.0 12.6 0.0
04/02/18 05:38 12.6 94 11.7 0.0 0.0 0 0.0 0.0 1018.0 0.0 0.0 12.6 0.0
04/02/18 05:39 12.6 94 11.7 0.0 0.0 0 0.0 0.0 1018.0 0.0 0.0 12.6 0.0
04/02/18 05:40 12.6 94 11.7 0.0 0.0 0 0.0 0.0 1018.0 0.0 0.0 12.6 0.0
04/02/18 05:41 12.6 94 11.7 0.0 0.0 0 0.0 0.0 1018.0 0.0 0.0 12.6 0.0
04/02/18 05:42 12.6 94 11.7 0.0 0.0 0 0.0 0.0 1018.0 0.0 0.0 12.6 0.0
04/02/18 05:43 12.6 94 11.7 0.0 0.0 0 0.0 0.0 1018.0 0.0 0.0 12.6 0.0
04/02/18 05:44 12.6 95 11.8 0.0 0.0 0 0.0 0.0 1018.0 0.0 0.0 12.6 0.0
04/02/18 05:45 12.5 95 11.7 0.0 0.0 0 0.0 0.0 1018.0 0.0 0.0 12.5 0.0
04/02/18 05:46 12.5 94 11.6 0.0 0.0 0 0.0 0.0 1018.0 0.0 0.0 12.5 0.0
04/02/18 05:47 12.5 94 11.6 0.0 0.0 0 0.0 0.0 1018.0 0.0 0.0 12.5 0.0
04/02/18 05:48 12.5 94 11.6 0.0 0.0 0 0.0 0.0 1018.0 0.0 0.0 12.5 0.0
04/02/18 05:49 12.5 94 11.6 0.0 0.0 0 0.0 0.0 1018.0 0.0 0.0 12.5 0.0
04/02/18 05:50 12.4 94 11.5 0.0 0.0 0 0.0 0.0 1018.0 0.0 0.0 12.4 0.0
04/02/18 05:51 12.4 94 11.5 0.0 0.0 0 0.0 0.0 1018.0 0.0 0.0 12.4 0.0
04/02/18 05:52 12.4 94 11.5 0.0 0.0 0 0.0 0.0 1018.0 0.0 0.0 12.4 0.0
04/02/18 05:53 12.4 94 11.5 0.0 0.0 0 0.0 0.0 1018.0 0.0 0.0 12.4 0.0
04/02/18 05:54 12.4 94 11.5 0.0 0.0 0 0.0 0.0 1018.0 0.0 0.0 12.4 0.0
04/02/18 05:55 12.3 94 11.4 0.0 0.0 0 0.0 0.0 1018.0 0.0 0.0 12.3 0.0
04/02/18 05:56 12.3 94 11.4 0.0 0.0 0 0.0 0.0 1018.0 0.0 0.0 12.3 0.0
04/02/18 05:57 12.3 94 11.4 0.0 0.0 0 0.0 0.0 1018.0 0.0 0.0 12.3 0.0
04/02/18 05:58 12.3 94 11.4 0.0 0.0 0 0.0 0.0 1018.0 0.0 0.0 12.3 0.0
04/02/18 05:59 12.3 94 11.4 0.0 0.0 0 0.0 0.0 1018.0 0.0 0.0 12.3 0.0
04/02/18 06:00 12.3 95 11.5 0.0 0.0 0 0.0 0.0 1018.0 0.0 0.0 12.3 0.0
04/02/18 06:02 12.3 95 11.5 0.0 0.0 0 0.0 0.0 1018.0 0.0 0.0 12.3 0.0
04/02/18 06:03 12.4 95 11.6 0.0 0.0 0 0.0 0.0 1018.0 0.0 0.0 12.4 0.0
04/02/18 06:04 12.4 95 11.6 0.0 0.0 0 0.0 0.0 1018.0 0.0 0.0 12.4 0.0
04/02/18 06:05 12.4 95 11.6 0.0 0.0 0 0.0 0.0 1018.0 0.0 0.0 12.4 0.0
04/02/18 06:06 12.4 95 11.6 0.0 0.0 0 0.0 0.0 1018.0 0.0 0.0 12.4 0.0
04/02/18 06:07 12.4 95 11.6 0.0 0.0 0 0.0 0.0 1018.0 0.0 0.0 12.4 0.0
04/02/18 06:08 12.4 95 11.6 0.0 0.0 0 0.0 0.0 1018.0 0.0 0.0 12.4 0.0
04/02/18 06:09 12.4 95 11.6 0.0 0.0 0 0.0 0.0 1018.0 0.0 0.0 12.4 0.0
04/02/18 06:10 12.4 95 11.6 0.0 0.0 0 0.0 0.0 1018.0 0.0 0.0 12.4 0.0
04/02/18 06:11 12.4 95 11.6 0.0 0.0 0 0.0 0.0 1018.0 0.0 0.0 12.4 0.0
04/02/18 06:12 12.5 95 11.7 0.0 0.0 0 0.0 0.0 1018.0 0.0 0.0 12.5 0.0
04/02/18 06:13 12.5 95 11.7 0.0 0.0 0 0.0 0.0 1018.0 0.0 0.0 12.5 0.0
04/02/18 06:14 12.5 95 11.7 0.0 0.0 0 0.0 0.0 1018.0 0.0 0.0 12.5 0.0
04/02/18 06:15 12.5 95 11.7 0.0 0.0 0 0.0 0.0 1018.0 0.0 0.0 12.5 0.0
04/02/18 06:16 12.5 95 11.7 0.0 0.0 0 0.0 0.0 1018.0 0.0 0.0 12.5 0.0
04/02/18 06:17 12.5 95 11.7 0.0 0.0 0 0.0 0.0 1018.0 0.0 0.0 12.5 0.0
04/02/18 06:18 12.6 95 11.8 0.0 0.0 0 0.0 0.0 1018.0 0.0 0.0 12.6 0.0
04/02/18 06:19 12.6 95 11.8 0.0 0.0 0 0.0 0.0 1018.0 0.0 0.0 12.6 0.0
04/02/18 06:20 12.6 95 11.8 0.0 0.0 0 0.0 0.0 1018.0 0.0 0.0 12.6 0.0
04/02/18 07:02 12.8 95 12.0 0.0 0.0 0 0.0 0.0 1018.0 0.0 0.0 12.8 0.0
04/02/18 07:03 12.9 95 12.1 0.0 0.0 0 0.0 0.0 1018.0 0.0 0.0 12.9 0.0
04/02/18 07:04 12.9 95 12.1 0.0 0.0 0 0.0 0.0 1018.0 0.0 0.0 12.9 0.0
04/02/18 07:05 12.8 95 12.0 0.0 0.0 0 0.0 0.0 1018.0 0.0 0.0 12.8 0.0
04/02/18 07:06 12.9 95 12.1 0.0 0.0 0 0.0 0.0 1018.0 0.0 0.0 12.9 0.0
04/02/18 07:07 12.9 95 12.1 0.0 0.0 0 0.0 0.0 1018.0 0.0 0.0 12.9 0.0
04/02/18 07:08 12.9 95 12.1 0.0 0.0 0 0.0 0.0 1019.0 0.0 0.0 12.9 0.0
04/02/18 07:09 12.9 95 12.1 0.0 0.0 0 0.0 0.0 1019.0 0.0 0.0 12.9 0.0
04/02/18 07:10 12.9 95 12.1 0.0 0.0 0 0.0 0.0 1019.0 0.0 0.0 12.9 0.0
04/02/18 07:11 13.0 94 12.1 0.0 0.0 0 0.0 0.0 1019.0 0.0 0.0 13.0 0.0
04/02/18 07:12 13.0 94 12.1 0.0 0.0 0 0.0 0.0 1019.0 0.0 0.0 13.0 0.0
04/02/18 07:13 13.0 94 12.1 0.0 0.0 0 0.0 0.0 1019.0 0.0 0.0 13.0 0.0
04/02/18 07:14 13.0 94 12.1 0.0 0.0 0 0.0 0.0 1019.0 0.0 0.0 13.0 0.0
04/02/18 07:15 13.0 94 12.1 0.0 0.0 0 0.0 0.0 1019.0 0.0 0.0 13.0 0.0
04/02/18 07:16 13.1 94 12.2 0.0 0.0 0 0.0 0.0 1019.0 0.0 0.0 13.1 0.0
04/02/18 07:17 13.1 94 12.2 0.0 0.0 0 0.0 0.0 1019.0 0.0 0.0 13.1 0.0
04/02/18 07:18 13.1 94 12.2 0.0 0.0 0 0.0 0.0 1019.0 0.0 0.0 13.1 0.0
04/02/18 07:19 13.1 94 12.2 0.0 0.0 0 0.0 0.0 1019.0 0.0 0.0 13.1 0.0
04/02/18 07:20 13.1 94 12.2 0.0 0.0 0 0.0 0.0 1019.0 0.0 0.0 13.1 0.0
04/02/18 07:21 13.2 94 12.3 0.0 0.0 0 0.0 0.0 1019.0 0.0 0.0 13.2 0.0
04/02/18 07:22 13.2 94 12.3 0.0 0.0 0 0.0 0.0 1019.0 0.0 0.0 13.2 0.0
04/02/18 07:23 13.2 94 12.3 0.0 0.0 0 0.0 0.0 1019.0 0.0 0.0 13.2 0.0
04/02/18 07:24 13.2 94 12.3 0.0 0.0 0 0.0 0.0 1019.0 0.0 0.0 13.2 0.0
04/02/18 07:25 13.2 94 12.3 0.0 0.0 0 0.0 0.0 1019.0 0.0 0.0 13.2 0.0
04/02/18 07:26 13.3 94 12.4 0.0 0.0 0 0.0 0.0 1019.0 0.0 0.0 13.3 0.0
04/02/18 07:27 13.3 94 12.4 0.0 0.0 0 0.0 0.0 1019.0 0.0 0.0 13.3 0.0
04/02/18 07:28 13.3 94 12.4 0.0 0.0 0 0.0 0.0 1019.0 0.0 0.0 13.3 0.0
04/02/18 07:29 13.3 94 12.4 0.0 0.0 0 0.0 0.0 1019.0 0.0 0.0 13.3 0.0
04/02/18 07:30 13.3 94 12.4 0.0 0.0 0 0.0 0.0 1019.0 0.0 0.0 13.3 0.0
04/02/18 07:31 13.3 94 12.4 0.0 0.0 0 0.0 0.0 1019.0 0.0 0.0 13.3 0.0
04/02/18 07:32 13.3 94 12.4 0.0 0.0 0 0.0 0.0 1019.0 0.0 0.0 13.3 0.0
04/02/18 07:33 13.4 94 12.5 0.0 0.0 0 0.0 0.0 1019.0 0.0 0.0 13.4 0.0
04/02/18 07:34 13.4 94 12.5 0.0 0.0 0 0.0 0.0 1019.0 0.0 0.0 13.4 0.0
04/02/18 07:35 13.5 94 12.6 0.0 0.0 0 0.0 0.0 1019.0 0.0 0.0 13.5 0.0
04/02/18 07:36 13.5 94 12.6 0.0 0.0 0 0.0 0.0 1019.0 0.0 0.0 13.5 0.0
04/02/18 07:37 13.5 94 12.6 0.0 0.0 0 0.0 0.0 1019.0 0.0 0.0 13.5 0.0
04/02/18 07:38 13.5 94 12.6 0.0 0.0 0 0.0 0.0 1019.0 0.0 0.0 13.5 0.0
04/02/18 07:39 13.5 94 12.6 0.0 0.0 0 0.0 0.0 1019.0 0.0 0.0 13.5 0.0
04/02/18 07:40 13.5 94 12.6 0.0 0.0 0 0.0 0.0 1019.0 0.0 0.0 13.5 0.0
04/02/18 07:41 13.5 94 12.6 0.0 0.0 0 0.0 0.0 1019.0 0.0 0.0 13.5 0.0
04/02/18 07:42 13.5 94 12.6 0.0 0.0 0 0.0 0.0 1019.0 0.0 0.0 13.5 0.0
04/02/18 07:43 13.5 94 12.6 0.0 0.0 0 0.0 0.0 1019.0 0.0 0.0 13.5 0.0
04/02/18 07:44 13.6 94 12.7 0.0 0.0 0 0.0 0.0 1019.0 0.0 0.0 13.6 0.0
04/02/18 07:45 13.6 94 12.7 0.0 0.0 0 0.0 0.0 1019.0 0.0 0.0 13.6 0.0
04/02/18 07:46 13.6 94 12.7 0.0 0.0 0 0.0 0.0 1019.0 0.0 0.0 13.6 0.0
04/02/18 07:47 13.6 94 12.7 0.0 0.0 0 0.0 0.0 1019.0 0.0 0.0 13.6 0.0
04/02/18 07:48 13.6 94 12.7 0.0 0.0 0 0.0 0.0 1019.0 0.0 0.0 13.6 0.0
04/02/18 07:49 13.6 94 12.7 0.0 0.0 0 0.0 0.0 1019.0 0.0 0.0 13.6 0.0
04/02/18 07:50 13.6 93 12.5 0.0 0.0 0 0.0 0.0 1019.0 0.0 0.0 13.6 0.0
04/02/18 07:51 13.6 93 12.5 0.0 0.0 0 0.0 0.0 1019.0 0.0 0.0 13.6 0.0
04/02/18 07:52 13.6 93 12.5 0.0 0.0 0 0.0 0.0 1019.0 0.0 0.0 13.6 0.0
04/02/18 07:53 13.6 93 12.5 0.0 0.0 0 0.0 0.0 1019.0 0.0 0.0 13.6 0.0
04/02/18 07:54 13.6 93 12.5 0.0 0.0 0 0.0 0.0 1019.0 0.0 0.0 13.6 0.0
04/02/18 07:55 13.6 93 12.5 0.0 0.0 0 0.0 0.0 1019.0 0.0 0.0 13.6 0.0
04/02/18 07:56 13.6 94 12.7 0.0 0.0 0 0.0 0.0 1019.0 0.0 0.0 13.6 0.0
04/02/18 07:57 13.6 94 12.7 0.0 0.0 0 0.0 0.0 1019.0 0.0 0.0 13.6 0.0
04/02/18 07:58 13.6 94 12.7 0.0 0.0 0 0.0 0.0 1019.0 0.0 0.0 13.6 0.0
04/02/18 07:59 13.6 94 12.7 0.0 0.0 0 0.0 0.0 1019.0 0.0 0.0 13.6 0.0
04/02/18 08:00 13.6 94 12.7 0.0 0.0 0 0.0 0.0 1019.0 0.0 0.0 13.6 0.0
04/02/18 08:02 13.6 94 12.7 0.0 0.0 0 0.0 0.0 1019.0 0.0 0.0 13.6 0.0
04/02/18 08:03 13.6 94 12.7 0.0 0.0 0 0.0 0.0 1019.0 0.0 0.0 13.6 0.0
04/02/18 08:04 13.6 94 12.7 0.0 0.0 0 0.0 0.0 1019.0 0.0 0.0 13.6 0.0
04/02/18 08:05 13.6 94 12.7 0.0 0.0 0 0.0 0.0 1019.0 0.0 0.0 13.6 0.0
04/02/18 08:06 13.6 94 12.7 0.0 0.0 0 0.0 0.0 1019.0 0.0 0.0 13.6 0.0
04/02/18 08:07 13.6 94 12.7 0.0 0.0 0 0.0 0.0 1019.0 0.0 0.0 13.6 0.0
04/02/18 08:08 13.6 94 12.7 0.0 0.0 0 0.0 0.0 1018.0 0.0 0.0 13.6 0.0
04/02/18 08:09 13.6 94 12.7 0.0 0.0 0 0.0 0.0 1018.0 0.0 0.0 13.6 0.0
04/02/18 08:10 13.7 94 12.8 0.0 0.0 0 0.0 0.0 1018.0 0.0 0.0 13.7 0.0
04/02/18 08:11 13.7 94 12.8 0.0 0.0 0 0.0 0.0 1018.0 0.0 0.0 13.7 0.0
04/02/18 08:12 13.7 94 12.8 0.0 0.0 0 0.0 0.0 1018.0 0.0 0.0 13.7 0.0
04/02/18 08:13 13.8 94 12.9 0.0 0.0 0 0.0 0.0 1018.0 0.0 0.0 13.8 0.0
04/02/18 08:14 13.8 94 12.9 0.0 0.0 0 0.0 0.0 1018.0 0.0 0.0 13.8 0.0
04/02/18 08:15 13.8 94 12.9 0.0 0.0 0 0.0 0.0 1018.0 0.0 0.0 13.8 0.0
04/02/18 08:16 13.8 94 12.9 0.0 0.0 0 0.0 0.0 1018.0 0.0 0.0 13.8 0.0
04/02/18 08:17 13.8 94 12.9 0.0 0.0 0 0.0 0.0 1018.0 0.0 0.0 13.8 0.0
04/02/18 08:18 13.8 94 12.9 0.0 0.0 0 0.0 0.0 1018.0 0.0 0.0 13.8 0.0
04/02/18 08:19 13.8 94 12.9 0.0 0.0 0 0.0 0.0 1018.0 0.0 0.0 13.8 0.0
04/02/18 08:20 13.8 94 12.9 0.0 0.0 0 0.0 0.0 1018.0 0.0 0.0 13.8 0.0
04/02/18 08:21 13.8 94 12.9 0.0 0.0 0 0.0 0.0 1018.0 0.0 0.0 13.8 0.0
04/02/18 08:22 13.8 94 12.9 0.0 0.0 0 0.0 0.0 1018.0 0.0 0.0 13.8 0.0
04/02/18 08:23 13.8 94 12.9 0.0 0.0 0 0.0 0.0 1018.0 0.0 0.0 13.8 0.0
04/02/18 08:24 13.8 94 12.9 0.0 0.0 0 0.0 0.0 1018.0 0.0 0.0 13.8 0.0
04/02/18 08:25 13.8 94 12.9 0.0 0.0 0 0.0 0.0 1018.0 0.0 0.0 13.8 0.0
04/02/18 08:26 13.9 94 13.0 0.0 0.0 0 0.0 0.0 1018.0 0.0 0.0 13.9 0.0
04/02/18 08:27 13.9 94 13.0 0.0 0.0 0 0.0 0.0 1018.0 0.0 0.0 13.9 0.0
04/02/18 08:28 14.0 94 13.0 0.0 0.0 0 0.0 0.0 1018.0 0.0 0.0 14.0 0.0
04/02/18 08:29 14.0 93 12.9 0.0 0.0 0 0.0 0.0 1018.0 0.0 0.0 14.0 0.0
04/02/18 08:30 14.0 93 12.9 0.0 0.0 0 0.0 0.0 1018.0 0.0 0.0 14.0 0.0
04/02/18 08:31 14.0 93 12.9 0.0 0.0 0 0.0 0.0 1018.0 0.0 0.0 14.0 0.0
04/02/18 08:32 14.1 93 13.0 0.0 0.0 0 0.0 0.0 1018.0 0.0 0.0 14.1 0.0
04/02/18 08:33 14.2 93 13.1 0.0 0.0 0 0.0 0.0 1018.0 0.0 0.0 14.2 0.0
04/02/18 08:34 14.2 93 13.1 0.0 0.0 0 0.0 0.0 1018.0 0.0 0.0 14.2 0.0
04/02/18 08:35 14.2 93 13.1 0.0 0.0 0 0.0 0.0 1018.0 0.0 0.0 14.2 0.0
04/02/18 08:36 14.3 93 13.2 0.0 0.0 0 0.0 0.0 1018.0 0.0 0.0 14.3 0.0
04/02/18 08:37 14.2 93 13.1 0.0 0.0 0 0.0 0.0 1018.0 0.0 0.0 14.2 0.0
04/02/18 08:38 14.3 93 13.2 0.0 0.0 0 0.0 0.0 1019.0 0.0 0.0 14.3 0.0
04/02/18 08:39 14.3 93 13.2 0.0 0.0 0 0.0 0.0 1019.0 0.0 0.0 14.3 0.0
04/02/18 08:40 14.3 92 13.0 0.0 0.0 0 0.0 0.0 1019.0 0.0 0.0 14.3 0.0
04/02/18 08:41 14.3 92 13.0 0.0 0.0 0 0.0 0.0 1019.0 0.0 0.0 14.3 0.0
04/02/18 08:42 14.4 92 13.1 0.0 0.0 0 0.0 0.0 1019.0 0.0 0.0 14.4 0.0
04/02/18 08:43 14.4 92 13.1 0.0 0.0 0 0.0 0.0 1019.0 0.0 0.0 14.4 0.0
04/02/18 08:44 14.4 92 13.1 0.0 0.0 0 0.0 0.0 1019.0 0.0 0.0 14.4 0.0
04/02/18 08:45 14.5 92 13.2 0.0 0.0 0 0.0 0.0 1019.0 0.0 0.0 14.5 0.0
04/02/18 08:46 14.5 92 13.2 0.0 0.0 0 0.0 0.0 1019.0 0.0 0.0 14.5 0.0
04/02/18 08:47 14.5 92 13.2 0.0 0.0 0 0.0 0.0 1019.0 0.0 0.0 14.5 0.0
04/02/18 08:48 14.5 92 13.2 0.0 0.0 0 0.0 0.0 1019.0 0.0 0.0 14.5 0.0
04/02/18 08:49 14.5 92 13.2 0.0 0.0 0 0.0 0.0 1019.0 0.0 0.0 14.5 0.0
04/02/18 08:50 14.5 92 13.2 0.0 0.0 0 0.0 0.0 1019.0 0.0 0.0 14.5 0.0
04/02/18 08:51 14.6 92 13.3 0.0 0.0 0 0.0 0.0 1019.0 0.0 0.0 14.6 0.0
04/02/18 08:52 14.7 92 13.4 0.0 0.0 0 0.0 0.0 1019.0 0.0 0.0 14.7 0.0
04/02/18 08:53 14.7 92 13.4 0.0 0.0 0 0.0 0.0 1019.0 0.0 0.0 14.7 0.0
04/02/18 08:54 14.9 92 13.6 0.0 0.0 0 0.0 0.0 1019.0 0.0 0.0 14.9 0.0
04/02/18 08:55 15.0 91 13.5 0.0 0.0 0 0.0 0.0 1019.0 0.0 0.0 15.0 0.0
04/02/18 08:56 15.0 91 13.5 0.0 0.0 0 0.0 0.0 1019.0 0.0 0.0 15.0 0.0
04/02/18 08:57 15.0 91 13.5 0.0 0.0 0 0.0 0.0 1019.0 0.0 0.0 15.0 0.0
04/02/18 08:58 15.0 91 13.5 0.0 0.0 0 0.0 0.0 1019.0 0.0 0.0 15.0 0.0
04/02/18 08:59 15.1 90 13.5 0.0 0.0 0 0.0 0.0 1019.0 0.0 0.0 15.1 0.0
04/02/18 09:00 15.1 90 13.5 0.0 0.0 0 0.0 0.0 1019.0 0.0 0.0 15.1 0.0
04/02/18 09:02 15.2 90 13.6 0.0 0.0 0 0.0 0.0 1019.0 0.0 0.0 15.2 0.0
04/02/18 09:03 15.3 90 13.7 3.2 3.6 225 0.0 0.0 1019.0 3.6 15.2 15.3 0.0
04/02/18 09:04 15.5 90 13.9 1.8 3.6 225 0.0 0.0 1019.0 0.0 15.5 15.5 0.0
04/02/18 09:05 15.7 90 14.1 1.8 3.6 225 0.0 0.0 1019.0 0.0 15.5 15.7 0.0
04/02/18 09:06 15.7 90 14.1 1.8 3.6 225 0.0 0.0 1019.0 0.0 15.7 15.7 0.0
04/02/18 09:07 15.7 90 14.1 1.8 3.6 225 0.0 0.0 1019.0 0.0 15.7 15.7 0.0
04/02/18 09:08 15.7 89 13.9 1.8 3.6 225 0.0 0.0 1019.0 0.0 15.7 15.7 0.0
04/02/18 09:09 15.7 88 13.7 1.8 3.6 225 0.0 0.0 1019.0 0.0 15.7 15.7 0.0
04/02/18 09:10 15.7 87 13.5 1.8 3.6 225 0.0 0.0 1019.0 0.0 15.6 15.7 0.0
04/02/18 09:11 15.7 87 13.5 1.8 3.6 225 0.0 0.0 1019.0 0.0 15.7 15.7 0.0
04/02/18 09:12 15.8 87 13.6 1.8 3.6 225 0.0 0.0 1019.0 0.0 15.7 15.8 0.0
04/02/18 09:13 15.8 86 13.5 1.8 3.6 225 0.0 0.0 1019.0 0.0 15.8 15.8 0.0
04/02/18 09:14 15.9 86 13.6 1.8 3.6 225 0.0 0.0 1019.0 0.0 15.8 15.9 0.0
04/02/18 09:15 15.9 87 13.7 1.8 0.0 0 0.0 0.0 1019.0 0.0 15.9 15.9 0.0
04/02/18 09:16 16.0 86 13.7 1.8 0.0 0 0.0 0.0 1019.0 0.0 15.9 16.0 0.0
04/02/18 09:17 16.4 86 14.1 4.0 1.8 135 0.0 0.0 1019.0 1.8 16.2 16.4 0.0
04/02/18 09:18 16.3 85 13.8 4.0 1.8 135 0.0 0.0 1019.0 1.8 16.4 16.3 0.0
04/02/18 09:19 16.3 84 13.6 4.0 1.8 135 0.0 0.0 1019.0 1.8 16.3 16.3 0.0
04/02/18 09:20 16.4 84 13.7 4.0 1.8 135 0.0 0.0 1019.0 1.8 16.3 16.4 0.0
04/02/18 09:21 16.5 85 14.0 4.0 1.8 135 0.0 0.0 1019.0 1.8 16.4 16.5 0.0
04/02/18 09:22 16.6 84 13.9 4.0 1.8 135 0.0 0.0 1019.0 1.8 16.5 16.6 0.0
04/02/18 09:23 16.6 85 14.1 4.0 1.8 135 0.0 0.0 1019.0 1.8 16.6 16.6 0.0
04/02/18 09:24 16.7 84 14.0 4.0 1.8 135 0.0 0.0 1019.0 1.8 16.6 16.7 0.0
04/02/18 09:25 16.6 83 13.7 4.0 1.8 135 0.0 0.0 1019.0 1.8 16.6 16.6 0.0
04/02/18 09:26 16.5 83 13.6 4.0 1.8 135 0.0 0.0 1019.0 1.8 16.6 16.5 0.0
04/02/18 09:27 16.5 83 13.6 4.0 1.8 135 0.0 0.0 1019.0 1.8 16.5 16.5 0.0
04/02/18 09:28 16.5 83 13.6 4.0 1.8 135 0.0 0.0 1019.0 1.8 16.5 16.5 0.0
04/02/18 09:29 16.6 82 13.5 4.3 4.7 143 0.0 0.0 1019.0 4.7 16.6 16.6 0.0
04/02/18 09:30 16.7 82 13.6 4.3 4.7 149 0.0 0.0 1019.0 4.7 16.6 16.7 0.0
04/02/18 09:31 16.8 82 13.7 4.3 4.7 154 0.0 0.0 1019.0 4.7 16.7 16.8 0.0
04/02/18 09:32 16.9 82 13.8 4.3 4.7 163 0.0 0.0 1019.0 4.7 16.8 16.9 0.0
04/02/18 09:33 17.0 81 13.7 4.3 4.7 166 0.0 0.0 1019.0 4.7 16.9 17.0 0.0
04/02/18 09:34 17.0 81 13.7 4.3 4.7 169 0.0 0.0 1019.0 4.7 17.0 17.0 0.0
04/02/18 09:35 17.1 81 13.8 4.3 4.7 171 0.0 0.0 1019.0 4.7 17.0 17.1 0.0
04/02/18 09:36 17.0 81 13.7 4.3 4.7 173 0.0 0.0 1019.0 4.7 17.1 17.0 0.0
04/02/18 09:37 17.1 81 13.8 2.5 7.9 168 0.0 0.0 1019.0 7.9 17.1 17.1 0.0
04/02/18 09:38 17.0 80 13.5 2.5 7.9 165 0.0 0.0 1019.0 7.9 17.1 17.0 0.0
04/02/18 09:39 17.0 80 13.5 2.5 7.9 162 0.0 0.0 1019.0 7.9 17.0 17.0 0.0
04/02/18 09:40 17.1 81 13.8 2.5 7.9 155 0.0 0.0 1019.0 7.9 17.1 17.1 0.0
04/02/18 09:41 17.1 80 13.6 2.5 7.9 152 0.0 0.0 1019.0 7.9 17.1 17.1 0.0
04/02/18 09:42 17.0 80 13.5 3.6 7.9 154 0.0 0.0 1019.0 6.1 17.1 17.0 0.0
04/02/18 09:43 17.0 79 13.3 3.6 7.9 154 0.0 0.0 1019.0 6.1 17.0 17.0 0.0
04/02/18 09:44 17.0 79 13.3 2.2 7.9 148 0.0 0.0 1019.0 3.6 17.0 17.0 0.0
04/02/18 09:45 17.0 79 13.3 2.2 7.9 146 0.0 0.0 1019.0 5.4 17.0 17.0 0.0
04/02/18 09:46 17.1 79 13.4 2.2 7.9 144 0.0 0.0 1019.0 5.4 17.0 17.1 0.0
04/02/18 09:47 17.2 79 13.5 2.2 7.9 142 0.0 0.0 1019.0 5.4 17.1 17.2 0.0
04/02/18 09:48 17.2 79 13.5 2.2 7.9 141 0.0 0.0 1019.0 5.4 17.3 17.2 0.0
04/02/18 09:49 17.2 78 13.3 2.2 7.9 141 0.0 0.0 1019.0 5.4 17.2 17.2 0.0
04/02/18 09:50 17.1 78 13.2 3.6 15.1 140 0.0 0.0 1019.0 15.1 17.1 17.1 0.0
04/02/18 09:51 16.9 77 12.8 7.9 15.1 140 0.0 0.0 1019.0 4.0 16.9 16.9 0.0
04/02/18 09:52 17.0 78 13.1 3.2 15.1 135 0.0 0.0 1019.0 2.2 17.0 17.0 0.0
04/02/18 09:53 17.1 78 13.2 2.5 15.1 132 0.0 0.0 1019.0 4.3 17.1 17.1 0.0
04/02/18 09:54 17.2 78 13.3 2.5 15.1 135 0.0 0.0 1019.0 4.7 17.2 17.2 0.0
04/02/18 09:55 17.5 78 13.6 4.0 15.1 153 0.0 0.0 1019.0 4.0 17.2 17.5 0.0
04/02/18 09:56 17.5 78 13.6 3.6 15.1 148 0.0 0.0 1019.0 3.6 17.5 17.5 0.0
04/02/18 09:57 18.1 79 14.4 4.0 15.1 158 0.0 0.0 1019.0 9.7 18.1 18.1 0.0
04/02/18 09:58 18.0 77 13.9 4.0 15.1 164 0.0 0.0 1019.0 9.7 18.1 18.0 0.0
04/02/18 09:59 18.4 76 14.1 3.2 15.1 170 0.0 0.0 1019.0 8.6 18.4 18.4 0.0
04/02/18 10:02 18.8 75 14.3 4.0 9.7 166 0.0 0.0 1019.0 2.5 18.8 18.8 0.0
04/02/18 10:03 19.3 75 14.8 2.5 9.7 168 0.0 0.0 1019.0 1.4 19.3 19.3 0.0
04/02/18 10:04 19.6 75 15.0 1.8 9.7 175 0.0 0.0 1019.0 9.0 19.6 19.6 0.0
04/02/18 10:05 19.8 73 14.8 1.8 9.7 183 0.0 0.0 1019.0 3.2 19.6 19.8 0.0
04/02/18 10:06 19.8 72 14.6 5.0 9.7 186 0.0 0.0 1019.0 9.4 19.8 19.8 0.0
04/02/18 10:07 19.9 71 14.5 5.4 9.7 199 0.0 0.0 1019.0 3.2 19.9 19.9 0.0
04/02/18 10:08 20.1 71 14.7 3.2 9.7 198 0.0 0.0 1019.0 9.7 20.1 20.1 0.0
04/02/18 10:09 20.0 67 13.7 3.2 9.7 199 0.0 0.0 1019.0 6.8 20.1 20.0 0.0
04/02/18 10:10 19.4 68 13.3 9.4 9.7 198 0.0 0.0 1019.0 5.8 19.7 19.4 0.0
04/02/18 10:11 19.5 68 13.4 4.3 9.7 195 0.0 0.0 1019.0 4.3 19.5 19.5 0.0
04/02/18 10:12 19.5 69 13.7 2.5 9.7 194 0.0 0.0 1019.0 5.8 19.5 19.5 0.0
04/02/18 10:13 19.7 69 13.9 4.3 9.7 196 0.0 0.0 1019.0 3.6 19.5 19.7 0.0
04/02/18 10:14 19.7 68 13.6 5.4 9.7 186 0.0 0.0 1019.0 5.4 19.7 19.7 0.0
04/02/18 10:15 19.9 67 13.6 5.0 9.7 175 0.0 0.0 1019.0 6.5 19.9 19.9 0.0
04/02/18 10:16 19.9 65 13.1 6.8 9.7 164 0.0 0.0 1019.0 2.2 19.9 19.9 0.0
04/02/18 10:17 20.0 65 13.2 5.4 10.1 146 0.0 0.0 1019.0 7.6 20.0 20.0 0.0
04/02/18 10:18 20.1 64 13.1 6.5 10.1 153 0.0 0.0 1019.0 5.4 20.1 20.1 0.0
04/02/18 10:19 20.1 64 13.1 5.8 10.1 147 0.0 0.0 1019.0 6.5 20.1 20.1 0.0
04/02/18 10:20 20.1 65 13.3 3.2 10.1 146 0.0 0.0 1019.0 4.7 20.1 20.1 0.0
04/02/18 10:21 20.2 64 13.2 5.0 10.1 123 0.0 0.0 1019.0 6.1 20.2 20.2 0.0
04/02/18 10:22 20.4 65 13.6 4.0 10.1 123 0.0 0.0 1019.0 5.4 20.4 20.4 0.0
04/02/18 10:23 20.4 64 13.4 5.0 10.1 123 0.0 0.0 1019.0 4.0 20.4 20.4 0.0
04/02/18 10:24 20.4 64 13.4 4.7 10.1 126 0.0 0.0 1019.0 3.2 20.4 20.4 0.0
04/02/18 10:25 20.0 63 12.7 7.9 14.0 133 0.0 0.0 1019.0 4.0 20.3 20.0 0.0
04/02/18 10:26 19.8 64 12.8 7.9 14.0 134 0.0 0.0 1019.0 3.6 20.0 19.8 0.0
04/02/18 10:27 19.8 64 12.8 5.8 14.0 142 0.0 0.0 1019.0 3.2 19.8 19.8 0.0
04/02/18 10:28 19.8 65 13.0 3.6 14.0 126 0.0 0.0 1019.0 4.7 19.8 19.8 0.0
04/02/18 10:29 19.8 65 13.0 3.2 14.0 137 0.0 0.0 1019.0 11.5 19.8 19.8 0.0
04/02/18 10:30 19.6 63 12.4 6.5 14.0 135 0.0 0.0 1019.0 9.4 19.6 19.6 0.0
04/02/18 10:31 19.5 64 12.5 5.0 14.0 149 0.0 0.0 1019.0 1.4 19.5 19.5 0.0
04/02/18 10:32 19.5 64 12.5 1.8 14.0 153 0.0 0.0 1019.0 1.4 19.5 19.5 0.0
04/02/18 10:33 19.5 63 12.3 5.4 14.0 148 0.0 0.0 1019.0 6.8 19.6 19.5 0.0
04/02/18 10:34 19.4 64 12.4 4.7 14.0 165 0.0 0.0 1019.0 2.2 19.5 19.4 0.0
04/02/18 10:35 19.5 65 12.7 2.2 11.5 187 0.0 0.0 1019.0 5.8 19.5 19.5 0.0
04/02/18 10:36 19.6 65 12.8 3.6 11.5 172 0.0 0.0 1019.0 7.9 19.6 19.6 0.0
04/02/18 10:37 19.6 64 12.6 4.7 11.5 171 0.0 0.0 1019.0 4.7 19.6 19.6 0.0
04/02/18 10:38 19.6 64 12.6 4.7 11.5 160 0.0 0.0 1019.0 4.3 19.6 19.6 0.0
04/02/18 10:39 19.4 64 12.4 5.8 11.5 143 0.0 0.0 1019.0 6.1 19.4 19.4 0.0
04/02/18 10:40 19.3 65 12.6 5.8 11.5 124 0.0 0.0 1019.0 4.0 19.3 19.3 0.0
04/02/18 10:41 19.4 65 12.6 3.6 11.5 122 0.0 0.0 1019.0 4.7 19.3 19.4 0.0
04/02/18 10:42 19.4 66 12.9 3.2 11.5 123 0.0 0.0 1019.0 3.2 19.4 19.4 0.0
04/02/18 10:43 19.4 65 12.6 2.5 11.5 122 0.0 0.0 1019.0 0.0 19.4 19.4 0.0
04/02/18 10:44 19.6 65 12.8 2.2 11.5 118 0.0 0.0 1019.0 0.0 19.6 19.6 0.0
04/02/18 10:45 19.9 66 13.4 2.2 11.5 123 0.0 0.0 1019.0 4.3 19.9 19.9 0.0
04/02/18 10:46 19.9 66 13.4 5.0 11.5 125 0.0 0.0 1019.0 4.3 19.9 19.9 0.0
04/02/18 10:47 19.8 65 13.0 4.7 9.7 116 0.0 0.0 1019.0 4.3 19.8 19.8 0.0
04/02/18 10:48 19.8 65 13.0 3.2 9.7 113 0.0 0.0 1019.0 3.2 19.9 19.8 0.0
04/02/18 10:49 19.7 65 12.9 3.2 6.1 131 0.0 0.0 1019.0 5.0 19.8 19.7 0.0
04/02/18 10:50 19.7 65 12.9 2.5 6.1 136 0.0 0.0 1019.0 2.2 19.7 19.7 0.0
04/02/18 10:51 19.7 65 12.9 2.5 6.1 138 0.0 0.0 1019.0 2.2 19.7 19.7 0.0
04/02/18 10:52 19.7 65 12.9 3.2 6.1 140 0.0 0.0 1019.0 4.3 19.7 19.7 0.0
04/02/18 10:53 19.6 65 12.8 3.2 6.1 143 0.0 0.0 1019.0 1.8 19.6 19.6 0.0
04/02/18 10:54 19.6 65 12.8 2.2 6.1 148 0.0 0.0 1019.0 4.7 19.6 19.6 0.0
04/02/18 10:55 19.6 65 12.8 3.6 6.1 149 0.0 0.0 1019.0 3.2 19.6 19.6 0.0
04/02/18 10:56 19.7 66 13.2 3.6 5.0 145 0.0 0.0 1019.0 2.2 19.6 19.7 0.0
04/02/18 10:57 19.7 66 13.2 3.6 5.0 144 0.0 0.0 1019.0 2.5 19.7 19.7 0.0
04/02/18 10:58 19.6 65 12.8 3.6 5.0 139 0.0 0.0 1019.0 5.0 19.7 19.6 0.0
04/02/18 10:59 19.5 65 12.7 3.6 5.0 144 0.0 0.0 1019.0 5.0 19.6 19.5 0.0
04/02/18 11:02 19.2 64 12.2 3.6 5.0 142 0.0 0.0 1019.0 5.0 0.0 19.2 0.0
04/02/18 11:03 18.9 65 12.2 3.6 5.0 140 0.0 0.0 1019.0 5.0 19.0 18.9 0.0
04/02/18 11:04 18.8 65 12.1 3.6 5.0 140 0.0 0.0 1019.0 5.0 18.9 18.8 0.0
04/02/18 11:05 18.7 66 12.2 3.6 5.0 138 0.0 0.0 1019.0 5.0 18.8 18.7 0.0
04/02/18 11:06 18.7 67 12.4 2.5 5.0 150 0.0 0.0 1019.0 4.7 18.7 18.7 0.0
04/02/18 11:07 18.7 67 12.4 5.4 7.6 141 0.0 0.0 1019.0 4.0 18.7 18.7 0.0
04/02/18 11:08 18.7 67 12.4 4.7 7.6 133 0.0 0.0 1019.0 4.3 18.7 18.7 0.0
04/02/18 11:09 18.7 67 12.4 4.7 7.6 149 0.0 0.0 1019.0 4.3 18.7 18.7 0.0
04/02/18 11:10 18.8 68 12.8 4.7 7.6 157 0.0 0.0 1019.0 4.3 18.7 18.8 0.0
04/02/18 11:11 18.9 69 13.1 4.7 7.6 169 0.0 0.0 1019.0 4.3 18.9 18.9 0.0
04/02/18 11:12 18.9 69 13.1 4.7 7.6 179 0.0 0.0 1019.0 4.3 18.9 18.9 0.0
04/02/18 11:13 18.9 69 13.1 4.7 8.6 169 0.0 0.0 1019.0 8.6 18.9 18.9 0.0
04/02/18 11:14 18.7 69 12.9 5.0 8.6 159 0.0 0.0 1019.0 6.1 18.7 18.7 0.0
04/02/18 11:15 18.5 69 12.7 5.0 8.6 155 0.0 0.0 1019.0 3.6 18.7 18.5 0.0
04/02/18 11:16 18.5 70 12.9 3.2 8.6 133 0.0 0.0 1019.0 4.7 18.5 18.5 0.0
04/02/18 11:17 18.5 70 12.9 3.6 8.6 23 0.0 0.0 1019.0 1.4 18.5 18.5 0.0
04/02/18 11:18 18.9 71 13.5 1.8 8.6 295 0.0 0.0 1019.0 3.6 18.7 18.9 0.0
04/02/18 11:19 19.1 70 13.5 2.2 8.6 337 0.0 0.0 1019.0 4.0 18.9 19.1 0.0
04/02/18 11:20 19.0 69 13.2 4.0 8.6 13 0.0 0.0 1019.0 5.8 19.0 19.0 0.0
04/02/18 11:21 18.9 69 13.1 4.0 8.6 21 0.0 0.0 1019.0 5.8 19.0 18.9 0.0
04/02/18 11:22 18.7 69 12.9 4.3 9.7 31 0.0 0.0 1019.0 9.7 18.7 18.7 0.0
04/02/18 11:23 18.7 69 12.9 5.8 9.7 37 0.0 0.0 1019.0 5.8 18.7 18.7 0.0
04/02/18 11:24 18.7 69 12.9 5.8 9.7 37 0.0 0.0 1019.0 5.8 18.7 18.7 0.0
04/02/18 11:25 18.6 69 12.8 5.8 9.7 28 0.0 0.0 1019.0 5.8 18.7 18.6 0.0
04/02/18 11:26 18.6 69 12.8 3.2 9.7 12 0.0 0.0 1019.0 4.3 18.6 18.6 0.0
04/02/18 11:27 18.5 68 12.5 3.2 9.7 20 0.0 0.0 1019.0 4.3 18.6 18.5 0.0
04/02/18 11:28 18.5 68 12.5 3.2 9.7 28 0.0 0.0 1019.0 2.2 18.5 18.5 0.0
04/02/18 11:29 18.4 69 12.6 3.2 9.7 41 0.0 0.0 1019.0 2.2 18.5 18.4 0.0
04/02/18 11:30 18.4 69 12.6 3.2 9.7 50 0.0 0.0 1019.0 2.2 18.4 18.4 0.0
04/02/18 11:31 18.3 69 12.5 6.1 9.7 55 0.0 0.0 1019.0 5.4 18.3 18.3 0.0
04/02/18 11:32 18.3 69 12.5 3.6 7.9 77 0.0 0.0 1019.0 0.0 18.3 18.3 0.0
04/02/18 11:33 18.6 70 13.0 1.8 7.9 110 0.0 0.0 1019.0 2.5 18.5 18.6 0.0
04/02/18 11:34 18.7 70 13.1 2.2 7.9 128 0.0 0.0 1019.0 4.0 18.7 18.7 0.0
04/02/18 11:35 18.7 70 13.1 3.2 7.9 130 0.0 0.0 1019.0 4.3 18.7 18.7 0.0
04/02/18 11:36 18.7 70 13.1 3.2 7.9 138 0.0 0.0 1019.0 4.3 18.7 18.7 0.0
04/02/18 11:37 18.7 70 13.1 3.2 5.4 156 0.0 0.0 1019.0 4.3 18.7 18.7 0.0
04/02/18 11:38 18.7 70 13.1 3.2 5.4 166 0.0 0.0 1019.0 4.3 18.7 18.7 0.0
04/02/18 11:39 18.6 70 13.0 3.2 5.4 171 0.0 0.0 1019.0 4.3 18.7 18.6 0.0
04/02/18 11:40 18.6 70 13.0 3.2 5.4 173 0.0 0.0 1019.0 4.3 18.6 18.6 0.0
04/02/18 11:41 18.4 70 12.8 3.2 5.0 170 0.0 0.0 1019.0 4.3 18.5 18.4 0.0
04/02/18 11:42 18.4 70 12.8 3.2 5.0 170 0.0 0.0 1019.0 4.3 18.4 18.4 0.0
04/02/18 11:43 18.4 70 12.8 3.2 4.3 174 0.0 0.0 1019.0 4.3 18.4 18.4 0.0
04/02/18 11:44 18.4 70 12.8 3.2 4.3 181 0.0 0.0 1019.0 4.3 18.4 18.4 0.0
04/02/18 11:45 18.3 70 12.7 4.0 4.3 173 0.0 0.0 1019.0 4.0 18.4 18.3 0.0
04/02/18 11:46 18.4 71 13.0 1.8 4.3 168 0.0 0.0 1019.0 2.2 18.4 18.4 0.0
04/02/18 11:47 18.4 71 13.0 3.6 4.3 143 0.0 0.0 1019.0 3.6 18.4 18.4 0.0
04/02/18 11:48 18.6 71 13.2 4.0 5.0 103 0.0 0.0 1019.0 4.3 18.6 18.6 0.0
04/02/18 11:49 18.5 71 13.1 4.0 5.0 80 0.0 0.0 1019.0 4.3 18.6 18.5 0.0
04/02/18 11:50 18.5 71 13.1 3.6 5.0 61 0.0 0.0 1019.0 3.2 18.5 18.5 0.0
04/02/18 11:51 18.5 71 13.1 2.5 5.0 50 0.0 0.0 1019.0 2.2 18.5 18.5 0.0
04/02/18 11:52 18.4 71 13.0 4.0 5.4 36 0.0 0.0 1019.0 5.4 18.4 18.4 0.0
04/02/18 11:53 18.4 71 13.0 4.7 9.0 54 0.0 0.0 1019.0 7.6 18.4 18.4 0.0
04/02/18 11:54 18.3 71 12.9 4.7 9.0 60 0.0 0.0 1019.0 7.6 18.4 18.3 0.0
04/02/18 11:55 18.3 71 12.9 3.6 9.0 55 0.0 0.0 1019.0 4.0 18.3 18.3 0.0
04/02/18 11:56 18.5 71 13.1 3.2 9.0 51 0.0 0.0 1019.0 2.2 18.4 18.5 0.0
04/02/18 11:57 18.6 71 13.2 2.5 9.0 75 0.0 0.0 1019.0 1.8 18.6 18.6 0.0
04/02/18 11:58 18.7 72 13.5 1.8 9.0 96 0.0 0.0 1019.0 1.8 18.6 18.7 0.0
04/02/18 11:59 19.0 71 13.6 2.2 9.0 85 0.0 0.0 1019.0 4.3 19.0 19.0 0.0
04/02/18 12:02 19.9 71 14.5 3.6 7.6 55 0.0 0.0 1019.0 1.8 19.9 19.9 0.0
04/02/18 12:03 20.2 70 14.6 2.5 7.6 53 0.0 0.0 1019.0 1.8 20.2 20.2 0.0
04/02/18 12:04 20.8 70 15.1 3.2 7.6 46 0.0 0.0 1019.0 4.7 20.5 20.8 0.0
04/02/18 12:05 21.0 68 14.9 4.7 6.5 55 0.0 0.0 1019.0 4.3 20.8 21.0 0.0
04/02/18 12:06 20.9 67 14.5 5.0 7.6 72 0.0 0.0 1019.0 7.6 20.9 20.9 0.0
04/02/18 12:07 20.8 67 14.4 4.3 9.0 66 0.0 0.0 1019.0 9.0 20.8 20.8 0.0
04/02/18 12:08 20.8 67 14.4 5.0 9.0 72 0.0 0.0 1019.0 4.0 20.8 20.8 0.0
04/02/18 12:09 20.8 66 14.2 4.0 9.0 81 0.0 0.0 1019.0 7.9 20.8 20.8 0.0
04/02/18 12:10 20.8 66 14.2 6.1 9.0 72 0.0 0.0 1019.0 5.4 20.8 20.8 0.0
04/02/18 12:11 20.2 64 13.2 7.6 20.2 86 0.0 0.0 1019.0 4.7 20.5 20.2 0.0
04/02/18 12:12 20.5 65 13.7 5.8 20.2 90 0.0 0.0 1019.0 4.3 20.2 20.5 0.0
04/02/18 12:13 20.7 66 14.1 3.2 20.2 95 0.0 0.0 1019.0 6.8 20.7 20.7 0.0
04/02/18 12:14 20.6 64 13.5 7.2 20.2 91 0.0 0.0 1019.0 4.3 20.6 20.6 0.0
04/02/18 12:15 20.4 64 13.4 5.0 20.2 81 0.0 0.0 1019.0 5.4 20.4 20.4 0.0
04/02/18 12:16 20.4 64 13.4 6.1 20.2 83 0.0 0.0 1019.0 4.7 20.4 20.4 0.0
04/02/18 12:17 20.4 64 13.4 6.8 20.2 83 0.0 0.0 1019.0 10.1 20.4 20.4 0.0
04/02/18 12:18 20.3 64 13.3 7.6 20.2 90 0.0 0.0 1019.0 7.6 20.3 20.3 0.0
04/02/18 12:19 20.5 65 13.7 4.3 20.2 84 0.0 0.0 1019.0 4.0 20.3 20.5 0.0
04/02/18 12:20 20.6 65 13.8 3.2 20.2 89 0.0 0.0 1019.0 1.8 20.6 20.6 0.0
04/02/18 12:21 20.7 66 14.1 2.2 10.1 88 0.0 0.0 1019.0 2.2 20.7 20.7 0.0
04/02/18 12:22 20.9 66 14.3 2.2 10.1 88 0.0 0.0 1019.0 2.2 20.9 20.9 0.0
04/02/18 12:23 20.9 65 14.1 2.5 10.1 84 0.0 0.0 1019.0 5.0 20.9 20.9 0.0
04/02/18 12:24 20.8 65 14.0 3.6 10.1 97 0.0 0.0 1019.0 2.2 20.8 20.8 0.0
04/02/18 12:25 20.7 65 13.9 2.5 10.1 106 0.0 0.0 1019.0 1.4 20.7 20.7 0.0
04/02/18 12:26 20.7 65 13.9 2.5 10.1 103 0.0 0.0 1019.0 2.5 20.7 20.7 0.0
04/02/18 12:27 20.4 66 13.8 2.5 10.1 116 0.0 0.0 1019.0 2.5 20.6 20.4 0.0
04/02/18 12:28 20.3 66 13.7 2.2 7.6 77 0.0 0.0 1019.0 3.2 20.4 20.3 0.0
04/02/18 12:29 20.2 66 13.6 2.5 5.0 79 0.0 0.0 1019.0 3.6 20.2 20.2 0.0
04/02/18 12:30 20.0 67 13.7 3.2 5.0 134 0.0 0.0 1019.0 3.2 20.0 20.0 0.0
04/02/18 12:31 19.9 68 13.8 3.2 5.0 150 0.0 0.0 1019.0 2.5 19.9 19.9 0.0
04/02/18 12:32 19.8 69 13.9 1.4 5.0 149 0.0 0.0 1019.0 0.0 19.8 19.8 0.0
04/02/18 12:33 19.7 69 13.9 0.0 5.0 147 0.0 0.0 1019.0 1.8 19.7 19.7 0.0
04/02/18 12:34 19.6 70 14.0 2.2 4.0 136 0.0 0.0 1019.0 2.2 19.6 19.6 0.0
04/02/18 12:35 19.6 70 14.0 1.8 3.6 127 0.0 0.0 1019.0 0.0 19.6 19.6 0.0
04/02/18 12:36 19.5 70 13.9 0.0 4.3 139 0.0 0.0 1019.0 4.3 19.5 19.5 0.0
04/02/18 12:37 19.6 70 14.0 3.2 4.3 157 0.0 0.0 1019.0 2.2 19.6 19.6 0.0
04/02/18 12:38 19.5 71 14.1 2.5 4.3 156 0.0 0.0 1020.0 1.4 19.5 19.5 0.0
04/02/18 12:39 19.5 71 14.1 1.4 4.3 154 0.0 0.0 1020.0 3.6 19.5 19.5 0.0
04/02/18 12:40 19.6 71 14.2 2.2 4.3 165 0.0 0.0 1020.0 0.0 19.6 19.6 0.0
04/02/18 12:41 19.7 71 14.3 0.0 4.3 168 0.0 0.0 1020.0 0.0 19.7 19.7 0.0
04/02/18 12:42 20.2 71 14.8 0.0 4.3 157 0.0 0.0 1020.0 3.2 19.9 20.2 0.0
04/02/18 12:43 20.4 71 15.0 1.8 4.3 162 0.0 0.0 1020.0 3.2 20.4 20.4 0.0
04/02/18 12:44 20.7 71 15.3 3.2 5.4 164 0.0 0.0 1020.0 0.0 20.7 20.7 0.0
04/02/18 12:45 20.9 70 15.2 1.4 5.4 162 0.0 0.0 1020.0 1.4 20.9 20.9 0.0
04/02/18 12:46 21.0 69 15.1 1.8 5.4 158 0.0 0.0 1020.0 5.0 21.0 21.0 0.0
04/02/18 12:47 21.1 69 15.2 4.0 6.5 176 0.0 0.0 1020.0 1.4 21.1 21.1 0.0
04/02/18 12:48 21.3 68 15.2 2.2 6.5 208 0.0 0.0 1020.0 4.0 21.3 21.3 0.0
04/02/18 12:49 21.6 68 15.4 4.0 6.5 206 0.0 0.0 1020.0 1.8 21.3 21.6 0.0
04/02/18 12:50 21.8 67 15.4 2.5 6.5 212 0.0 0.0 1020.0 4.0 21.6 21.8 0.0
04/02/18 12:51 21.9 65 15.0 4.7 6.5 194 0.0 0.0 1020.0 2.2 21.9 21.9 0.0
04/02/18 12:52 22.2 65 15.3 2.2 6.5 200 0.0 0.0 1020.0 1.8 22.2 22.2 0.0
04/02/18 12:53 22.5 65 15.6 1.8 6.5 198 0.0 0.0 1019.0 1.8 22.5 22.5 0.0
04/02/18 12:54 22.5 65 15.6 1.8 6.5 210 0.0 0.0 1019.0 4.7 22.5 22.5 0.0
04/02/18 12:55 22.9 63 15.5 4.3 6.5 206 0.0 0.0 1019.0 4.0 22.9 22.9 0.0
04/02/18 12:56 23.0 62 15.3 3.6 6.5 199 0.0 0.0 1019.0 2.2 23.0 23.0 0.0
04/02/18 12:57 23.3 61 15.4 3.2 6.5 169 0.0 0.0 1019.0 3.2 23.0 23.3 0.0
04/02/18 12:58 23.6 61 15.6 2.2 6.5 158 0.0 0.0 1019.0 2.5 23.6 23.6 0.0
04/02/18 12:59 23.8 59 15.3 4.3 6.8 173 0.0 0.0 1019.0 6.8 23.8 23.8 0.0
04/02/18 13:00 23.8 55 14.2 4.7 6.8 188 0.0 0.0 1019.0 4.3 23.8 23.8 0.0
04/02/18 13:02 24.0 54 14.1 3.6 6.8 172 0.0 0.0 1019.0 2.2 24.0 24.0 0.0
04/02/18 13:03 24.1 51 13.3 5.8 9.0 194 0.0 0.0 1019.0 2.5 24.1 24.1 0.0
04/02/18 13:04 23.9 53 13.7 3.2 9.0 200 0.0 0.0 1019.0 1.8 24.0 23.9 0.0
04/02/18 13:05 24.1 53 13.9 2.2 9.0 201 0.0 0.0 1019.0 6.1 24.1 24.1 0.0
04/02/18 13:06 24.1 52 13.6 4.0 9.0 203 0.0 0.0 1019.0 4.3 24.1 24.1 0.0
04/02/18 13:07 24.4 53 14.2 2.5 9.0 207 0.0 0.0 1019.0 2.5 24.4 24.4 0.0
04/02/18 13:08 24.5 53 14.3 2.5 9.0 200 0.0 0.0 1019.0 2.5 24.5 24.5 0.0
04/02/18 13:09 24.7 52 14.2 1.8 9.0 200 0.0 0.0 1019.0 2.2 24.7 24.7 0.0
04/02/18 13:10 24.7 51 13.9 3.6 9.0 213 0.0 0.0 1019.0 6.1 24.7 24.7 0.0
04/02/18 13:11 24.5 49 13.1 4.7 9.0 207 0.0 0.0 1019.0 5.4 24.5 24.5 0.0
04/02/18 13:12 24.7 50 13.6 4.7 9.0 204 0.0 0.0 1019.0 2.5 24.7 24.7 0.0
04/02/18 13:13 24.6 50 13.5 2.2 6.8 135 0.0 0.0 1019.0 1.8 24.7 24.6 0.0
04/02/18 13:14 24.6 50 13.5 3.6 6.8 78 0.0 0.0 1019.0 3.6 24.6 24.6 0.0
04/02/18 13:15 24.5 50 13.4 2.5 6.8 64 0.0 0.0 1019.0 5.4 24.5 24.5 0.0
04/02/18 13:16 24.2 49 12.8 3.2 6.8 72 0.0 0.0 1019.0 4.0 24.2 24.2 0.0
04/02/18 13:17 24.3 49 12.9 4.0 6.8 63 0.0 0.0 1019.0 4.7 24.3 24.3 0.0
04/02/18 13:18 24.5 49 13.1 2.5 6.8 51 0.0 0.0 1019.0 3.2 24.5 24.5 0.0
04/02/18 13:19 24.8 50 13.7 2.2 6.8 49 0.0 0.0 1019.0 3.2 24.8 24.8 0.0
04/02/18 13:20 24.6 47 12.5 5.4 6.5 65 0.0 0.0 1019.0 5.0 24.6 24.6 0.0
04/02/18 13:21 24.3 48 12.6 6.8 9.7 84 0.0 0.0 1019.0 9.0 24.3 24.3 0.0
04/02/18 13:22 24.1 47 12.1 7.9 16.6 74 0.0 0.0 1019.0 6.5 24.1 24.1 0.0
04/02/18 13:23 24.0 47 12.0 9.0 16.6 86 0.0 0.0 1019.0 9.0 24.0 24.0 0.0
04/02/18 13:24 24.0 48 12.3 6.1 16.6 79 0.0 0.0 1019.0 5.8 24.0 24.0 0.0
04/02/18 13:25 23.9 48 12.2 6.1 16.6 75 0.0 0.0 1019.0 3.2 23.9 23.9 0.0
04/02/18 13:26 23.9 49 12.5 4.7 16.6 67 0.0 0.0 1019.0 5.4 23.9 23.9 0.0
04/02/18 13:27 24.1 49 12.7 4.7 16.6 73 0.0 0.0 1019.0 3.2 23.9 24.1 0.0
04/02/18 13:28 24.2 49 12.8 2.2 16.6 77 0.0 0.0 1019.0 4.3 24.2 24.2 0.0
04/02/18 13:29 24.3 49 12.9 4.0 16.6 87 0.0 0.0 1019.0 4.0 24.3 24.3 0.0
04/02/18 13:30 24.4 48 12.7 1.8 16.6 97